<?xml version="1.0" encoding="UTF-8" standalone="no" ?>
<gpx xmlns="http://www.topografix.com/GPX/1/1" xmlns:xsi="http://www.w3.org/2001/XMLSchema-instance" xsi:schemaLocation="http://www.topografix.com/GPX/1/1 http://www.topografix.com/GPX/1/1/gpx.xsd" version="1.1" creator="VisuGPX - https://www.visugpx.com">
  <metadata>
    <name>St Ciers de canesse</name>
  </metadata>
  <trk>
    <name><![CDATA[St Ciers de canesse_1]]></name>
    <extensions>
      <line xmlns="http://www.topografix.com/GPX/gpx_style/0/2">
        <color>0000FF</color>
        <width>4</width>
      </line>
    </extensions>
    <trkseg>
      <trkpt lat="45.08412" lon="-0.60918">
        <ele>42.7</ele>
        <time>2024-11-24T07:51:33Z</time>
      </trkpt>
      <trkpt lat="45.08413" lon="-0.6092">
        <ele>42.7</ele>
        <time>2024-11-24T07:51:34Z</time>
      </trkpt>
      <trkpt lat="45.08415" lon="-0.6092">
        <ele>42.6</ele>
        <time>2024-11-24T07:51:35Z</time>
      </trkpt>
      <trkpt lat="45.08416" lon="-0.60921">
        <ele>42.6</ele>
        <time>2024-11-24T07:51:36Z</time>
      </trkpt>
      <trkpt lat="45.08417" lon="-0.60921">
        <ele>42.6</ele>
        <time>2024-11-24T07:51:37Z</time>
      </trkpt>
      <trkpt lat="45.08418" lon="-0.60922">
        <ele>42.5</ele>
        <time>2024-11-24T07:51:38Z</time>
      </trkpt>
      <trkpt lat="45.08419" lon="-0.60922">
        <ele>42.5</ele>
        <time>2024-11-24T07:51:39Z</time>
      </trkpt>
      <trkpt lat="45.0842" lon="-0.60923">
        <ele>42.5</ele>
        <time>2024-11-24T07:51:40Z</time>
      </trkpt>
      <trkpt lat="45.08421" lon="-0.60923">
        <ele>42.4</ele>
        <time>2024-11-24T07:51:41Z</time>
      </trkpt>
      <trkpt lat="45.08422" lon="-0.60926">
        <ele>42.4</ele>
        <time>2024-11-24T07:51:42Z</time>
      </trkpt>
      <trkpt lat="45.08422" lon="-0.60927">
        <ele>42.4</ele>
        <time>2024-11-24T07:51:43Z</time>
      </trkpt>
      <trkpt lat="45.08422" lon="-0.60928">
        <ele>42.3</ele>
        <time>2024-11-24T07:51:44Z</time>
      </trkpt>
      <trkpt lat="45.08421" lon="-0.6093">
        <ele>42.3</ele>
        <time>2024-11-24T07:51:45Z</time>
      </trkpt>
      <trkpt lat="45.08421" lon="-0.60932">
        <ele>42.2</ele>
        <time>2024-11-24T07:51:46Z</time>
      </trkpt>
      <trkpt lat="45.08417" lon="-0.60933">
        <ele>42.1</ele>
        <time>2024-11-24T07:51:47Z</time>
      </trkpt>
      <trkpt lat="45.08416" lon="-0.60934">
        <ele>42.1</ele>
        <time>2024-11-24T07:51:48Z</time>
      </trkpt>
      <trkpt lat="45.08415" lon="-0.60935">
        <ele>42</ele>
        <time>2024-11-24T07:51:49Z</time>
      </trkpt>
      <trkpt lat="45.08413" lon="-0.60937">
        <ele>41.9</ele>
        <time>2024-11-24T07:51:50Z</time>
      </trkpt>
      <trkpt lat="45.08412" lon="-0.60937">
        <ele>41.9</ele>
        <time>2024-11-24T07:51:51Z</time>
      </trkpt>
      <trkpt lat="45.08412" lon="-0.60938">
        <ele>41.9</ele>
        <time>2024-11-24T07:51:52Z</time>
      </trkpt>
      <trkpt lat="45.08411" lon="-0.60939">
        <ele>41.8</ele>
        <time>2024-11-24T07:51:53Z</time>
      </trkpt>
      <trkpt lat="45.08409" lon="-0.60941">
        <ele>41.8</ele>
        <time>2024-11-24T07:51:54Z</time>
      </trkpt>
      <trkpt lat="45.08408" lon="-0.60942">
        <ele>41.7</ele>
        <time>2024-11-24T07:51:55Z</time>
      </trkpt>
      <trkpt lat="45.08407" lon="-0.60943">
        <ele>41.7</ele>
        <time>2024-11-24T07:51:56Z</time>
      </trkpt>
      <trkpt lat="45.08406" lon="-0.60944">
        <ele>41.7</ele>
        <time>2024-11-24T07:51:57Z</time>
      </trkpt>
      <trkpt lat="45.08405" lon="-0.60945">
        <ele>41.6</ele>
        <time>2024-11-24T07:51:58Z</time>
      </trkpt>
      <trkpt lat="45.08404" lon="-0.60946">
        <ele>41.6</ele>
        <time>2024-11-24T07:51:59Z</time>
      </trkpt>
      <trkpt lat="45.08402" lon="-0.60947">
        <ele>41.5</ele>
        <time>2024-11-24T07:52:00Z</time>
      </trkpt>
      <trkpt lat="45.08401" lon="-0.60947">
        <ele>41.5</ele>
        <time>2024-11-24T07:52:01Z</time>
      </trkpt>
      <trkpt lat="45.084" lon="-0.60947">
        <ele>41.5</ele>
        <time>2024-11-24T07:52:02Z</time>
      </trkpt>
      <trkpt lat="45.08399" lon="-0.60947">
        <ele>41.5</ele>
        <time>2024-11-24T07:52:03Z</time>
      </trkpt>
      <trkpt lat="45.08397" lon="-0.60947">
        <ele>41.5</ele>
        <time>2024-11-24T07:52:04Z</time>
      </trkpt>
      <trkpt lat="45.08396" lon="-0.60947">
        <ele>41.5</ele>
        <time>2024-11-24T07:52:05Z</time>
      </trkpt>
      <trkpt lat="45.08395" lon="-0.60945">
        <ele>41.5</ele>
        <time>2024-11-24T07:52:06Z</time>
      </trkpt>
      <trkpt lat="45.08393" lon="-0.60944">
        <ele>41.4</ele>
        <time>2024-11-24T07:52:07Z</time>
      </trkpt>
      <trkpt lat="45.08392" lon="-0.60943">
        <ele>41.3</ele>
        <time>2024-11-24T07:52:08Z</time>
      </trkpt>
      <trkpt lat="45.08391" lon="-0.60943">
        <ele>41.2</ele>
        <time>2024-11-24T07:52:09Z</time>
      </trkpt>
      <trkpt lat="45.08389" lon="-0.60942">
        <ele>41.1</ele>
        <time>2024-11-24T07:52:10Z</time>
      </trkpt>
      <trkpt lat="45.08388" lon="-0.60941">
        <ele>41</ele>
        <time>2024-11-24T07:52:11Z</time>
      </trkpt>
      <trkpt lat="45.08387" lon="-0.6094">
        <ele>40.9</ele>
        <time>2024-11-24T07:52:12Z</time>
      </trkpt>
      <trkpt lat="45.08385" lon="-0.60939">
        <ele>40.8</ele>
        <time>2024-11-24T07:52:13Z</time>
      </trkpt>
      <trkpt lat="45.08384" lon="-0.60938">
        <ele>40.8</ele>
        <time>2024-11-24T07:52:14Z</time>
      </trkpt>
      <trkpt lat="45.08383" lon="-0.60938">
        <ele>40.7</ele>
        <time>2024-11-24T07:52:15Z</time>
      </trkpt>
      <trkpt lat="45.08381" lon="-0.60936">
        <ele>40.6</ele>
        <time>2024-11-24T07:52:16Z</time>
      </trkpt>
      <trkpt lat="45.0838" lon="-0.60936">
        <ele>40.5</ele>
        <time>2024-11-24T07:52:17Z</time>
      </trkpt>
      <trkpt lat="45.08379" lon="-0.60935">
        <ele>40.4</ele>
        <time>2024-11-24T07:52:18Z</time>
      </trkpt>
      <trkpt lat="45.08378" lon="-0.60933">
        <ele>40.3</ele>
        <time>2024-11-24T07:52:19Z</time>
      </trkpt>
      <trkpt lat="45.08377" lon="-0.60933">
        <ele>40.3</ele>
        <time>2024-11-24T07:52:20Z</time>
      </trkpt>
      <trkpt lat="45.08376" lon="-0.60932">
        <ele>40.2</ele>
        <time>2024-11-24T07:52:21Z</time>
      </trkpt>
      <trkpt lat="45.08375" lon="-0.60932">
        <ele>40.1</ele>
        <time>2024-11-24T07:52:22Z</time>
      </trkpt>
      <trkpt lat="45.08373" lon="-0.60931">
        <ele>40</ele>
        <time>2024-11-24T07:52:23Z</time>
      </trkpt>
      <trkpt lat="45.08372" lon="-0.60931">
        <ele>39.9</ele>
        <time>2024-11-24T07:52:24Z</time>
      </trkpt>
      <trkpt lat="45.08371" lon="-0.6093">
        <ele>39.9</ele>
        <time>2024-11-24T07:52:25Z</time>
      </trkpt>
      <trkpt lat="45.08369" lon="-0.60929">
        <ele>39.8</ele>
        <time>2024-11-24T07:52:26Z</time>
      </trkpt>
      <trkpt lat="45.08368" lon="-0.60928">
        <ele>39.7</ele>
        <time>2024-11-24T07:52:27Z</time>
      </trkpt>
      <trkpt lat="45.08367" lon="-0.60927">
        <ele>39.6</ele>
        <time>2024-11-24T07:52:28Z</time>
      </trkpt>
      <trkpt lat="45.08366" lon="-0.60926">
        <ele>39.5</ele>
        <time>2024-11-24T07:52:29Z</time>
      </trkpt>
      <trkpt lat="45.08364" lon="-0.60924">
        <ele>39.4</ele>
        <time>2024-11-24T07:52:30Z</time>
      </trkpt>
      <trkpt lat="45.08364" lon="-0.60923">
        <ele>39.4</ele>
        <time>2024-11-24T07:52:31Z</time>
      </trkpt>
      <trkpt lat="45.08363" lon="-0.60923">
        <ele>39.3</ele>
        <time>2024-11-24T07:52:32Z</time>
      </trkpt>
      <trkpt lat="45.08362" lon="-0.60922">
        <ele>39.3</ele>
        <time>2024-11-24T07:52:33Z</time>
      </trkpt>
      <trkpt lat="45.08361" lon="-0.6092">
        <ele>39.2</ele>
        <time>2024-11-24T07:52:34Z</time>
      </trkpt>
      <trkpt lat="45.08359" lon="-0.60919">
        <ele>39.1</ele>
        <time>2024-11-24T07:52:35Z</time>
      </trkpt>
      <trkpt lat="45.08358" lon="-0.60919">
        <ele>39</ele>
        <time>2024-11-24T07:52:36Z</time>
      </trkpt>
      <trkpt lat="45.08356" lon="-0.60918">
        <ele>39</ele>
        <time>2024-11-24T07:52:37Z</time>
      </trkpt>
      <trkpt lat="45.08355" lon="-0.60917">
        <ele>38.9</ele>
        <time>2024-11-24T07:52:38Z</time>
      </trkpt>
      <trkpt lat="45.08353" lon="-0.60916">
        <ele>38.8</ele>
        <time>2024-11-24T07:52:39Z</time>
      </trkpt>
      <trkpt lat="45.08353" lon="-0.60915">
        <ele>38.7</ele>
        <time>2024-11-24T07:52:40Z</time>
      </trkpt>
      <trkpt lat="45.08352" lon="-0.60915">
        <ele>38.7</ele>
        <time>2024-11-24T07:52:41Z</time>
      </trkpt>
      <trkpt lat="45.0835" lon="-0.60914">
        <ele>38.6</ele>
        <time>2024-11-24T07:52:42Z</time>
      </trkpt>
      <trkpt lat="45.08349" lon="-0.60913">
        <ele>38.6</ele>
        <time>2024-11-24T07:52:43Z</time>
      </trkpt>
      <trkpt lat="45.08347" lon="-0.60912">
        <ele>38.5</ele>
        <time>2024-11-24T07:52:44Z</time>
      </trkpt>
      <trkpt lat="45.08346" lon="-0.60912">
        <ele>38.4</ele>
        <time>2024-11-24T07:52:45Z</time>
      </trkpt>
      <trkpt lat="45.08346" lon="-0.60911">
        <ele>38.4</ele>
        <time>2024-11-24T07:52:46Z</time>
      </trkpt>
      <trkpt lat="45.08344" lon="-0.6091">
        <ele>38.3</ele>
        <time>2024-11-24T07:52:47Z</time>
      </trkpt>
      <trkpt lat="45.08343" lon="-0.6091">
        <ele>38.3</ele>
        <time>2024-11-24T07:52:48Z</time>
      </trkpt>
      <trkpt lat="45.08342" lon="-0.60909">
        <ele>38.2</ele>
        <time>2024-11-24T07:52:49Z</time>
      </trkpt>
      <trkpt lat="45.0834" lon="-0.60908">
        <ele>38.1</ele>
        <time>2024-11-24T07:52:50Z</time>
      </trkpt>
      <trkpt lat="45.08339" lon="-0.60908">
        <ele>38.1</ele>
        <time>2024-11-24T07:52:51Z</time>
      </trkpt>
      <trkpt lat="45.08339" lon="-0.60907">
        <ele>38.1</ele>
        <time>2024-11-24T07:52:52Z</time>
      </trkpt>
      <trkpt lat="45.08337" lon="-0.60905">
        <ele>38</ele>
        <time>2024-11-24T07:52:53Z</time>
      </trkpt>
      <trkpt lat="45.08336" lon="-0.60905">
        <ele>37.9</ele>
        <time>2024-11-24T07:52:54Z</time>
      </trkpt>
      <trkpt lat="45.08335" lon="-0.60904">
        <ele>37.9</ele>
        <time>2024-11-24T07:52:55Z</time>
      </trkpt>
      <trkpt lat="45.08334" lon="-0.60903">
        <ele>37.8</ele>
        <time>2024-11-24T07:52:56Z</time>
      </trkpt>
      <trkpt lat="45.08333" lon="-0.60902">
        <ele>37.8</ele>
        <time>2024-11-24T07:52:57Z</time>
      </trkpt>
      <trkpt lat="45.08331" lon="-0.609">
        <ele>37.7</ele>
        <time>2024-11-24T07:52:58Z</time>
      </trkpt>
      <trkpt lat="45.0833" lon="-0.60899">
        <ele>37.7</ele>
        <time>2024-11-24T07:52:59Z</time>
      </trkpt>
      <trkpt lat="45.0833" lon="-0.60899">
        <ele>37.6</ele>
        <time>2024-11-24T07:53:00Z</time>
      </trkpt>
      <trkpt lat="45.08328" lon="-0.60897">
        <ele>37.6</ele>
        <time>2024-11-24T07:53:01Z</time>
      </trkpt>
      <trkpt lat="45.08327" lon="-0.60897">
        <ele>37.5</ele>
        <time>2024-11-24T07:53:02Z</time>
      </trkpt>
      <trkpt lat="45.08326" lon="-0.60896">
        <ele>37.5</ele>
        <time>2024-11-24T07:53:03Z</time>
      </trkpt>
      <trkpt lat="45.08324" lon="-0.60895">
        <ele>37.4</ele>
        <time>2024-11-24T07:53:04Z</time>
      </trkpt>
      <trkpt lat="45.08324" lon="-0.60894">
        <ele>37.4</ele>
        <time>2024-11-24T07:53:05Z</time>
      </trkpt>
      <trkpt lat="45.08323" lon="-0.60893">
        <ele>37.3</ele>
        <time>2024-11-24T07:53:06Z</time>
      </trkpt>
      <trkpt lat="45.08322" lon="-0.60892">
        <ele>37.3</ele>
        <time>2024-11-24T07:53:07Z</time>
      </trkpt>
      <trkpt lat="45.08321" lon="-0.60891">
        <ele>37.2</ele>
        <time>2024-11-24T07:53:08Z</time>
      </trkpt>
      <trkpt lat="45.08319" lon="-0.60889">
        <ele>37.2</ele>
        <time>2024-11-24T07:53:09Z</time>
      </trkpt>
      <trkpt lat="45.08318" lon="-0.60888">
        <ele>37.1</ele>
        <time>2024-11-24T07:53:10Z</time>
      </trkpt>
      <trkpt lat="45.08316" lon="-0.60886">
        <ele>37</ele>
        <time>2024-11-24T07:53:11Z</time>
      </trkpt>
      <trkpt lat="45.08316" lon="-0.60886">
        <ele>37</ele>
        <time>2024-11-24T07:53:12Z</time>
      </trkpt>
      <trkpt lat="45.08315" lon="-0.60885">
        <ele>37</ele>
        <time>2024-11-24T07:53:13Z</time>
      </trkpt>
      <trkpt lat="45.08314" lon="-0.60884">
        <ele>36.9</ele>
        <time>2024-11-24T07:53:14Z</time>
      </trkpt>
      <trkpt lat="45.08313" lon="-0.60883">
        <ele>36.9</ele>
        <time>2024-11-24T07:53:15Z</time>
      </trkpt>
      <trkpt lat="45.08312" lon="-0.60881">
        <ele>36.8</ele>
        <time>2024-11-24T07:53:16Z</time>
      </trkpt>
      <trkpt lat="45.0831" lon="-0.6088">
        <ele>36.8</ele>
        <time>2024-11-24T07:53:17Z</time>
      </trkpt>
      <trkpt lat="45.08309" lon="-0.60878">
        <ele>36.7</ele>
        <time>2024-11-24T07:53:18Z</time>
      </trkpt>
      <trkpt lat="45.08308" lon="-0.60878">
        <ele>36.6</ele>
        <time>2024-11-24T07:53:19Z</time>
      </trkpt>
      <trkpt lat="45.08307" lon="-0.60877">
        <ele>36.6</ele>
        <time>2024-11-24T07:53:20Z</time>
      </trkpt>
      <trkpt lat="45.08306" lon="-0.60874">
        <ele>36.5</ele>
        <time>2024-11-24T07:53:21Z</time>
      </trkpt>
      <trkpt lat="45.08305" lon="-0.60874">
        <ele>36.5</ele>
        <time>2024-11-24T07:53:22Z</time>
      </trkpt>
      <trkpt lat="45.08304" lon="-0.60873">
        <ele>36.5</ele>
        <time>2024-11-24T07:53:23Z</time>
      </trkpt>
      <trkpt lat="45.08303" lon="-0.6087">
        <ele>36.4</ele>
        <time>2024-11-24T07:53:24Z</time>
      </trkpt>
      <trkpt lat="45.08302" lon="-0.6087">
        <ele>36.3</ele>
        <time>2024-11-24T07:53:25Z</time>
      </trkpt>
      <trkpt lat="45.08302" lon="-0.60869">
        <ele>36.3</ele>
        <time>2024-11-24T07:53:26Z</time>
      </trkpt>
      <trkpt lat="45.08301" lon="-0.60867">
        <ele>36.3</ele>
        <time>2024-11-24T07:53:27Z</time>
      </trkpt>
      <trkpt lat="45.08299" lon="-0.60866">
        <ele>36.3</ele>
        <time>2024-11-24T07:53:28Z</time>
      </trkpt>
      <trkpt lat="45.08298" lon="-0.60865">
        <ele>36.2</ele>
        <time>2024-11-24T07:53:29Z</time>
      </trkpt>
      <trkpt lat="45.08297" lon="-0.60864">
        <ele>36.2</ele>
        <time>2024-11-24T07:53:30Z</time>
      </trkpt>
      <trkpt lat="45.08295" lon="-0.60862">
        <ele>36.2</ele>
        <time>2024-11-24T07:53:31Z</time>
      </trkpt>
      <trkpt lat="45.08294" lon="-0.60861">
        <ele>36.2</ele>
        <time>2024-11-24T07:53:32Z</time>
      </trkpt>
      <trkpt lat="45.08294" lon="-0.60861">
        <ele>36.1</ele>
        <time>2024-11-24T07:53:33Z</time>
      </trkpt>
      <trkpt lat="45.08292" lon="-0.60859">
        <ele>36.1</ele>
        <time>2024-11-24T07:53:34Z</time>
      </trkpt>
      <trkpt lat="45.08291" lon="-0.60859">
        <ele>36.1</ele>
        <time>2024-11-24T07:53:35Z</time>
      </trkpt>
      <trkpt lat="45.0829" lon="-0.60858">
        <ele>36.1</ele>
        <time>2024-11-24T07:53:36Z</time>
      </trkpt>
      <trkpt lat="45.08289" lon="-0.60857">
        <ele>36</ele>
        <time>2024-11-24T07:53:37Z</time>
      </trkpt>
      <trkpt lat="45.08287" lon="-0.60856">
        <ele>36</ele>
        <time>2024-11-24T07:53:38Z</time>
      </trkpt>
      <trkpt lat="45.08286" lon="-0.60855">
        <ele>36</ele>
        <time>2024-11-24T07:53:39Z</time>
      </trkpt>
      <trkpt lat="45.08285" lon="-0.60854">
        <ele>36</ele>
        <time>2024-11-24T07:53:40Z</time>
      </trkpt>
      <trkpt lat="45.08284" lon="-0.60853">
        <ele>35.9</ele>
        <time>2024-11-24T07:53:41Z</time>
      </trkpt>
      <trkpt lat="45.08282" lon="-0.60853">
        <ele>35.9</ele>
        <time>2024-11-24T07:53:42Z</time>
      </trkpt>
      <trkpt lat="45.0828" lon="-0.60851">
        <ele>35.8</ele>
        <time>2024-11-24T07:53:43Z</time>
      </trkpt>
      <trkpt lat="45.0828" lon="-0.6085">
        <ele>35.8</ele>
        <time>2024-11-24T07:53:44Z</time>
      </trkpt>
      <trkpt lat="45.08279" lon="-0.60849">
        <ele>35.8</ele>
        <time>2024-11-24T07:53:45Z</time>
      </trkpt>
      <trkpt lat="45.08277" lon="-0.60848">
        <ele>35.7</ele>
        <time>2024-11-24T07:53:46Z</time>
      </trkpt>
      <trkpt lat="45.08277" lon="-0.60846">
        <ele>35.7</ele>
        <time>2024-11-24T07:53:47Z</time>
      </trkpt>
      <trkpt lat="45.08276" lon="-0.60845">
        <ele>35.6</ele>
        <time>2024-11-24T07:53:48Z</time>
      </trkpt>
      <trkpt lat="45.08275" lon="-0.60843">
        <ele>35.6</ele>
        <time>2024-11-24T07:53:49Z</time>
      </trkpt>
      <trkpt lat="45.08274" lon="-0.60842">
        <ele>35.5</ele>
        <time>2024-11-24T07:53:50Z</time>
      </trkpt>
      <trkpt lat="45.08273" lon="-0.6084">
        <ele>35.5</ele>
        <time>2024-11-24T07:53:51Z</time>
      </trkpt>
      <trkpt lat="45.08272" lon="-0.60839">
        <ele>35.4</ele>
        <time>2024-11-24T07:53:52Z</time>
      </trkpt>
      <trkpt lat="45.08271" lon="-0.60838">
        <ele>35.3</ele>
        <time>2024-11-24T07:53:53Z</time>
      </trkpt>
      <trkpt lat="45.08269" lon="-0.60836">
        <ele>35.3</ele>
        <time>2024-11-24T07:53:54Z</time>
      </trkpt>
      <trkpt lat="45.08268" lon="-0.60835">
        <ele>35.2</ele>
        <time>2024-11-24T07:53:55Z</time>
      </trkpt>
      <trkpt lat="45.08267" lon="-0.60834">
        <ele>35.1</ele>
        <time>2024-11-24T07:53:56Z</time>
      </trkpt>
      <trkpt lat="45.08266" lon="-0.60833">
        <ele>35.1</ele>
        <time>2024-11-24T07:53:57Z</time>
      </trkpt>
      <trkpt lat="45.08265" lon="-0.60832">
        <ele>35</ele>
        <time>2024-11-24T07:53:58Z</time>
      </trkpt>
      <trkpt lat="45.08264" lon="-0.6083">
        <ele>34.9</ele>
        <time>2024-11-24T07:53:59Z</time>
      </trkpt>
      <trkpt lat="45.08262" lon="-0.60829">
        <ele>34.9</ele>
        <time>2024-11-24T07:54:00Z</time>
      </trkpt>
      <trkpt lat="45.08261" lon="-0.60828">
        <ele>34.8</ele>
        <time>2024-11-24T07:54:01Z</time>
      </trkpt>
      <trkpt lat="45.0826" lon="-0.60827">
        <ele>34.8</ele>
        <time>2024-11-24T07:54:02Z</time>
      </trkpt>
      <trkpt lat="45.08259" lon="-0.60825">
        <ele>34.7</ele>
        <time>2024-11-24T07:54:03Z</time>
      </trkpt>
      <trkpt lat="45.08258" lon="-0.60824">
        <ele>34.6</ele>
        <time>2024-11-24T07:54:04Z</time>
      </trkpt>
      <trkpt lat="45.08256" lon="-0.60823">
        <ele>34.6</ele>
        <time>2024-11-24T07:54:05Z</time>
      </trkpt>
      <trkpt lat="45.08255" lon="-0.60822">
        <ele>34.5</ele>
        <time>2024-11-24T07:54:06Z</time>
      </trkpt>
      <trkpt lat="45.08253" lon="-0.6082">
        <ele>34.4</ele>
        <time>2024-11-24T07:54:07Z</time>
      </trkpt>
      <trkpt lat="45.08253" lon="-0.60819">
        <ele>34.4</ele>
        <time>2024-11-24T07:54:08Z</time>
      </trkpt>
      <trkpt lat="45.08252" lon="-0.60818">
        <ele>34.3</ele>
        <time>2024-11-24T07:54:09Z</time>
      </trkpt>
      <trkpt lat="45.08251" lon="-0.60816">
        <ele>34.3</ele>
        <time>2024-11-24T07:54:10Z</time>
      </trkpt>
      <trkpt lat="45.08251" lon="-0.60815">
        <ele>34.2</ele>
        <time>2024-11-24T07:54:11Z</time>
      </trkpt>
      <trkpt lat="45.08249" lon="-0.60813">
        <ele>34.1</ele>
        <time>2024-11-24T07:54:12Z</time>
      </trkpt>
      <trkpt lat="45.08248" lon="-0.60812">
        <ele>34.1</ele>
        <time>2024-11-24T07:54:13Z</time>
      </trkpt>
      <trkpt lat="45.08246" lon="-0.60811">
        <ele>34</ele>
        <time>2024-11-24T07:54:14Z</time>
      </trkpt>
      <trkpt lat="45.08246" lon="-0.6081">
        <ele>33.9</ele>
        <time>2024-11-24T07:54:15Z</time>
      </trkpt>
      <trkpt lat="45.08245" lon="-0.60808">
        <ele>33.9</ele>
        <time>2024-11-24T07:54:16Z</time>
      </trkpt>
      <trkpt lat="45.08244" lon="-0.60807">
        <ele>33.8</ele>
        <time>2024-11-24T07:54:17Z</time>
      </trkpt>
      <trkpt lat="45.08243" lon="-0.60806">
        <ele>33.7</ele>
        <time>2024-11-24T07:54:18Z</time>
      </trkpt>
      <trkpt lat="45.08242" lon="-0.60804">
        <ele>33.7</ele>
        <time>2024-11-24T07:54:19Z</time>
      </trkpt>
      <trkpt lat="45.08241" lon="-0.60802">
        <ele>33.6</ele>
        <time>2024-11-24T07:54:20Z</time>
      </trkpt>
      <trkpt lat="45.08241" lon="-0.608">
        <ele>33.6</ele>
        <time>2024-11-24T07:54:21Z</time>
      </trkpt>
      <trkpt lat="45.08241" lon="-0.60797">
        <ele>33.5</ele>
        <time>2024-11-24T07:54:22Z</time>
      </trkpt>
      <trkpt lat="45.08242" lon="-0.60796">
        <ele>33.5</ele>
        <time>2024-11-24T07:54:23Z</time>
      </trkpt>
      <trkpt lat="45.08242" lon="-0.60794">
        <ele>33.5</ele>
        <time>2024-11-24T07:54:24Z</time>
      </trkpt>
      <trkpt lat="45.08243" lon="-0.60792">
        <ele>33.5</ele>
        <time>2024-11-24T07:54:25Z</time>
      </trkpt>
      <trkpt lat="45.08243" lon="-0.60789">
        <ele>33.5</ele>
        <time>2024-11-24T07:54:26Z</time>
      </trkpt>
      <trkpt lat="45.08244" lon="-0.60788">
        <ele>33.5</ele>
        <time>2024-11-24T07:54:27Z</time>
      </trkpt>
      <trkpt lat="45.08244" lon="-0.60787">
        <ele>33.5</ele>
        <time>2024-11-24T07:54:28Z</time>
      </trkpt>
      <trkpt lat="45.08245" lon="-0.60784">
        <ele>33.4</ele>
        <time>2024-11-24T07:54:29Z</time>
      </trkpt>
      <trkpt lat="45.08246" lon="-0.60782">
        <ele>33.4</ele>
        <time>2024-11-24T07:54:30Z</time>
      </trkpt>
      <trkpt lat="45.08246" lon="-0.60781">
        <ele>33.4</ele>
        <time>2024-11-24T07:54:31Z</time>
      </trkpt>
      <trkpt lat="45.08247" lon="-0.6078">
        <ele>33.4</ele>
        <time>2024-11-24T07:54:32Z</time>
      </trkpt>
      <trkpt lat="45.08248" lon="-0.60778">
        <ele>33.4</ele>
        <time>2024-11-24T07:54:33Z</time>
      </trkpt>
      <trkpt lat="45.08248" lon="-0.60776">
        <ele>33.3</ele>
        <time>2024-11-24T07:54:34Z</time>
      </trkpt>
      <trkpt lat="45.08249" lon="-0.60775">
        <ele>33.3</ele>
        <time>2024-11-24T07:54:35Z</time>
      </trkpt>
      <trkpt lat="45.0825" lon="-0.60773">
        <ele>33.3</ele>
        <time>2024-11-24T07:54:36Z</time>
      </trkpt>
      <trkpt lat="45.08251" lon="-0.60771">
        <ele>33.3</ele>
        <time>2024-11-24T07:54:37Z</time>
      </trkpt>
      <trkpt lat="45.08252" lon="-0.60769">
        <ele>33.3</ele>
        <time>2024-11-24T07:54:38Z</time>
      </trkpt>
      <trkpt lat="45.08252" lon="-0.60767">
        <ele>33.2</ele>
        <time>2024-11-24T07:54:39Z</time>
      </trkpt>
      <trkpt lat="45.08253" lon="-0.60764">
        <ele>33.2</ele>
        <time>2024-11-24T07:54:40Z</time>
      </trkpt>
      <trkpt lat="45.08254" lon="-0.60763">
        <ele>33.2</ele>
        <time>2024-11-24T07:54:41Z</time>
      </trkpt>
      <trkpt lat="45.08254" lon="-0.60762">
        <ele>33.2</ele>
        <time>2024-11-24T07:54:42Z</time>
      </trkpt>
      <trkpt lat="45.08255" lon="-0.6076">
        <ele>33.2</ele>
        <time>2024-11-24T07:54:43Z</time>
      </trkpt>
      <trkpt lat="45.08256" lon="-0.60758">
        <ele>33.1</ele>
        <time>2024-11-24T07:54:44Z</time>
      </trkpt>
      <trkpt lat="45.08256" lon="-0.60756">
        <ele>33.1</ele>
        <time>2024-11-24T07:54:45Z</time>
      </trkpt>
      <trkpt lat="45.08257" lon="-0.60754">
        <ele>33.1</ele>
        <time>2024-11-24T07:54:46Z</time>
      </trkpt>
      <trkpt lat="45.08258" lon="-0.60752">
        <ele>33</ele>
        <time>2024-11-24T07:54:47Z</time>
      </trkpt>
      <trkpt lat="45.08258" lon="-0.60751">
        <ele>33</ele>
        <time>2024-11-24T07:54:48Z</time>
      </trkpt>
      <trkpt lat="45.0826" lon="-0.60747">
        <ele>32.9</ele>
        <time>2024-11-24T07:54:49Z</time>
      </trkpt>
      <trkpt lat="45.0826" lon="-0.60746">
        <ele>32.9</ele>
        <time>2024-11-24T07:54:50Z</time>
      </trkpt>
      <trkpt lat="45.08261" lon="-0.60744">
        <ele>32.8</ele>
        <time>2024-11-24T07:54:51Z</time>
      </trkpt>
      <trkpt lat="45.08262" lon="-0.60743">
        <ele>32.8</ele>
        <time>2024-11-24T07:54:52Z</time>
      </trkpt>
      <trkpt lat="45.08262" lon="-0.60741">
        <ele>32.8</ele>
        <time>2024-11-24T07:54:53Z</time>
      </trkpt>
      <trkpt lat="45.08263" lon="-0.60738">
        <ele>32.7</ele>
        <time>2024-11-24T07:54:54Z</time>
      </trkpt>
      <trkpt lat="45.08264" lon="-0.60737">
        <ele>32.6</ele>
        <time>2024-11-24T07:54:55Z</time>
      </trkpt>
      <trkpt lat="45.08264" lon="-0.60735">
        <ele>32.6</ele>
        <time>2024-11-24T07:54:56Z</time>
      </trkpt>
      <trkpt lat="45.08265" lon="-0.60733">
        <ele>32.5</ele>
        <time>2024-11-24T07:54:57Z</time>
      </trkpt>
      <trkpt lat="45.08266" lon="-0.60731">
        <ele>32.4</ele>
        <time>2024-11-24T07:54:58Z</time>
      </trkpt>
      <trkpt lat="45.08267" lon="-0.6073">
        <ele>32.4</ele>
        <time>2024-11-24T07:54:59Z</time>
      </trkpt>
      <trkpt lat="45.08268" lon="-0.60728">
        <ele>32.3</ele>
        <time>2024-11-24T07:55:00Z</time>
      </trkpt>
      <trkpt lat="45.08268" lon="-0.60726">
        <ele>32.2</ele>
        <time>2024-11-24T07:55:01Z</time>
      </trkpt>
      <trkpt lat="45.08269" lon="-0.60723">
        <ele>32.1</ele>
        <time>2024-11-24T07:55:02Z</time>
      </trkpt>
      <trkpt lat="45.0827" lon="-0.60722">
        <ele>32.1</ele>
        <time>2024-11-24T07:55:03Z</time>
      </trkpt>
      <trkpt lat="45.08271" lon="-0.6072">
        <ele>32</ele>
        <time>2024-11-24T07:55:04Z</time>
      </trkpt>
      <trkpt lat="45.08271" lon="-0.60718">
        <ele>31.9</ele>
        <time>2024-11-24T07:55:05Z</time>
      </trkpt>
      <trkpt lat="45.08272" lon="-0.60717">
        <ele>31.8</ele>
        <time>2024-11-24T07:55:06Z</time>
      </trkpt>
      <trkpt lat="45.08273" lon="-0.60715">
        <ele>31.8</ele>
        <time>2024-11-24T07:55:07Z</time>
      </trkpt>
      <trkpt lat="45.08274" lon="-0.60713">
        <ele>31.7</ele>
        <time>2024-11-24T07:55:08Z</time>
      </trkpt>
      <trkpt lat="45.08274" lon="-0.60711">
        <ele>31.6</ele>
        <time>2024-11-24T07:55:09Z</time>
      </trkpt>
      <trkpt lat="45.08275" lon="-0.6071">
        <ele>31.5</ele>
        <time>2024-11-24T07:55:10Z</time>
      </trkpt>
      <trkpt lat="45.08276" lon="-0.60708">
        <ele>31.4</ele>
        <time>2024-11-24T07:55:11Z</time>
      </trkpt>
      <trkpt lat="45.08276" lon="-0.60706">
        <ele>31.3</ele>
        <time>2024-11-24T07:55:12Z</time>
      </trkpt>
      <trkpt lat="45.08277" lon="-0.60704">
        <ele>31.2</ele>
        <time>2024-11-24T07:55:13Z</time>
      </trkpt>
      <trkpt lat="45.08277" lon="-0.60702">
        <ele>31.1</ele>
        <time>2024-11-24T07:55:14Z</time>
      </trkpt>
      <trkpt lat="45.08278" lon="-0.607">
        <ele>31.1</ele>
        <time>2024-11-24T07:55:15Z</time>
      </trkpt>
      <trkpt lat="45.08278" lon="-0.60698">
        <ele>31</ele>
        <time>2024-11-24T07:55:16Z</time>
      </trkpt>
      <trkpt lat="45.08279" lon="-0.60696">
        <ele>30.9</ele>
        <time>2024-11-24T07:55:17Z</time>
      </trkpt>
      <trkpt lat="45.08279" lon="-0.60694">
        <ele>30.8</ele>
        <time>2024-11-24T07:55:18Z</time>
      </trkpt>
      <trkpt lat="45.0828" lon="-0.60692">
        <ele>30.7</ele>
        <time>2024-11-24T07:55:19Z</time>
      </trkpt>
      <trkpt lat="45.08281" lon="-0.60691">
        <ele>30.6</ele>
        <time>2024-11-24T07:55:20Z</time>
      </trkpt>
      <trkpt lat="45.08282" lon="-0.60689">
        <ele>30.5</ele>
        <time>2024-11-24T07:55:21Z</time>
      </trkpt>
      <trkpt lat="45.08283" lon="-0.60688">
        <ele>30.4</ele>
        <time>2024-11-24T07:55:22Z</time>
      </trkpt>
      <trkpt lat="45.08283" lon="-0.60686">
        <ele>30.3</ele>
        <time>2024-11-24T07:55:23Z</time>
      </trkpt>
      <trkpt lat="45.08284" lon="-0.60683">
        <ele>30.2</ele>
        <time>2024-11-24T07:55:24Z</time>
      </trkpt>
      <trkpt lat="45.08284" lon="-0.60681">
        <ele>30.1</ele>
        <time>2024-11-24T07:55:25Z</time>
      </trkpt>
      <trkpt lat="45.08285" lon="-0.60679">
        <ele>30</ele>
        <time>2024-11-24T07:55:26Z</time>
      </trkpt>
      <trkpt lat="45.08285" lon="-0.60677">
        <ele>29.9</ele>
        <time>2024-11-24T07:55:27Z</time>
      </trkpt>
      <trkpt lat="45.08286" lon="-0.60674">
        <ele>29.7</ele>
        <time>2024-11-24T07:55:28Z</time>
      </trkpt>
      <trkpt lat="45.08286" lon="-0.60672">
        <ele>29.6</ele>
        <time>2024-11-24T07:55:29Z</time>
      </trkpt>
      <trkpt lat="45.08287" lon="-0.6067">
        <ele>29.5</ele>
        <time>2024-11-24T07:55:30Z</time>
      </trkpt>
      <trkpt lat="45.08287" lon="-0.60668">
        <ele>29.4</ele>
        <time>2024-11-24T07:55:31Z</time>
      </trkpt>
      <trkpt lat="45.08287" lon="-0.60666">
        <ele>29.3</ele>
        <time>2024-11-24T07:55:32Z</time>
      </trkpt>
      <trkpt lat="45.08287" lon="-0.60664">
        <ele>29.2</ele>
        <time>2024-11-24T07:55:33Z</time>
      </trkpt>
      <trkpt lat="45.08288" lon="-0.60662">
        <ele>29.1</ele>
        <time>2024-11-24T07:55:34Z</time>
      </trkpt>
      <trkpt lat="45.08287" lon="-0.6066">
        <ele>29</ele>
        <time>2024-11-24T07:55:35Z</time>
      </trkpt>
      <trkpt lat="45.08287" lon="-0.60658">
        <ele>28.8</ele>
        <time>2024-11-24T07:55:36Z</time>
      </trkpt>
      <trkpt lat="45.08287" lon="-0.60654">
        <ele>28.7</ele>
        <time>2024-11-24T07:55:37Z</time>
      </trkpt>
      <trkpt lat="45.08287" lon="-0.60653">
        <ele>28.6</ele>
        <time>2024-11-24T07:55:38Z</time>
      </trkpt>
      <trkpt lat="45.08287" lon="-0.60652">
        <ele>28.5</ele>
        <time>2024-11-24T07:55:39Z</time>
      </trkpt>
      <trkpt lat="45.08287" lon="-0.60649">
        <ele>28.4</ele>
        <time>2024-11-24T07:55:40Z</time>
      </trkpt>
      <trkpt lat="45.08287" lon="-0.60647">
        <ele>28.2</ele>
        <time>2024-11-24T07:55:41Z</time>
      </trkpt>
      <trkpt lat="45.08287" lon="-0.60645">
        <ele>28.1</ele>
        <time>2024-11-24T07:55:42Z</time>
      </trkpt>
      <trkpt lat="45.08287" lon="-0.60642">
        <ele>28</ele>
        <time>2024-11-24T07:55:43Z</time>
      </trkpt>
      <trkpt lat="45.08286" lon="-0.6064">
        <ele>27.8</ele>
        <time>2024-11-24T07:55:44Z</time>
      </trkpt>
      <trkpt lat="45.08286" lon="-0.60638">
        <ele>27.7</ele>
        <time>2024-11-24T07:55:45Z</time>
      </trkpt>
      <trkpt lat="45.08285" lon="-0.60635">
        <ele>27.5</ele>
        <time>2024-11-24T07:55:46Z</time>
      </trkpt>
      <trkpt lat="45.08285" lon="-0.60634">
        <ele>27.4</ele>
        <time>2024-11-24T07:55:47Z</time>
      </trkpt>
      <trkpt lat="45.08285" lon="-0.60633">
        <ele>27.4</ele>
        <time>2024-11-24T07:55:48Z</time>
      </trkpt>
      <trkpt lat="45.08284" lon="-0.60631">
        <ele>27.2</ele>
        <time>2024-11-24T07:55:49Z</time>
      </trkpt>
      <trkpt lat="45.08284" lon="-0.60629">
        <ele>27.1</ele>
        <time>2024-11-24T07:55:50Z</time>
      </trkpt>
      <trkpt lat="45.08284" lon="-0.60626">
        <ele>27</ele>
        <time>2024-11-24T07:55:51Z</time>
      </trkpt>
      <trkpt lat="45.08283" lon="-0.60624">
        <ele>26.8</ele>
        <time>2024-11-24T07:55:52Z</time>
      </trkpt>
      <trkpt lat="45.08283" lon="-0.60622">
        <ele>26.7</ele>
        <time>2024-11-24T07:55:53Z</time>
      </trkpt>
      <trkpt lat="45.08283" lon="-0.6062">
        <ele>26.6</ele>
        <time>2024-11-24T07:55:54Z</time>
      </trkpt>
      <trkpt lat="45.08283" lon="-0.60618">
        <ele>26.4</ele>
        <time>2024-11-24T07:55:55Z</time>
      </trkpt>
      <trkpt lat="45.08283" lon="-0.60616">
        <ele>26.3</ele>
        <time>2024-11-24T07:55:56Z</time>
      </trkpt>
      <trkpt lat="45.08282" lon="-0.60614">
        <ele>26.2</ele>
        <time>2024-11-24T07:55:57Z</time>
      </trkpt>
      <trkpt lat="45.08282" lon="-0.60612">
        <ele>26</ele>
        <time>2024-11-24T07:55:58Z</time>
      </trkpt>
      <trkpt lat="45.08281" lon="-0.60608">
        <ele>25.8</ele>
        <time>2024-11-24T07:55:59Z</time>
      </trkpt>
      <trkpt lat="45.08281" lon="-0.60607">
        <ele>25.7</ele>
        <time>2024-11-24T07:56:00Z</time>
      </trkpt>
      <trkpt lat="45.08281" lon="-0.60606">
        <ele>25.7</ele>
        <time>2024-11-24T07:56:01Z</time>
      </trkpt>
      <trkpt lat="45.08281" lon="-0.60604">
        <ele>25.5</ele>
        <time>2024-11-24T07:56:02Z</time>
      </trkpt>
      <trkpt lat="45.0828" lon="-0.60602">
        <ele>25.4</ele>
        <time>2024-11-24T07:56:03Z</time>
      </trkpt>
      <trkpt lat="45.0828" lon="-0.606">
        <ele>25.3</ele>
        <time>2024-11-24T07:56:04Z</time>
      </trkpt>
      <trkpt lat="45.0828" lon="-0.60597">
        <ele>25.1</ele>
        <time>2024-11-24T07:56:05Z</time>
      </trkpt>
      <trkpt lat="45.08279" lon="-0.60595">
        <ele>25</ele>
        <time>2024-11-24T07:56:06Z</time>
      </trkpt>
      <trkpt lat="45.08279" lon="-0.60593">
        <ele>24.9</ele>
        <time>2024-11-24T07:56:07Z</time>
      </trkpt>
      <trkpt lat="45.08279" lon="-0.60591">
        <ele>24.7</ele>
        <time>2024-11-24T07:56:08Z</time>
      </trkpt>
      <trkpt lat="45.08278" lon="-0.60589">
        <ele>24.6</ele>
        <time>2024-11-24T07:56:09Z</time>
      </trkpt>
      <trkpt lat="45.08278" lon="-0.60587">
        <ele>24.5</ele>
        <time>2024-11-24T07:56:10Z</time>
      </trkpt>
      <trkpt lat="45.08278" lon="-0.60585">
        <ele>24.4</ele>
        <time>2024-11-24T07:56:11Z</time>
      </trkpt>
      <trkpt lat="45.08278" lon="-0.60582">
        <ele>24.2</ele>
        <time>2024-11-24T07:56:12Z</time>
      </trkpt>
      <trkpt lat="45.08278" lon="-0.6058">
        <ele>24.1</ele>
        <time>2024-11-24T07:56:13Z</time>
      </trkpt>
      <trkpt lat="45.08278" lon="-0.60578">
        <ele>24</ele>
        <time>2024-11-24T07:56:14Z</time>
      </trkpt>
      <trkpt lat="45.08278" lon="-0.60576">
        <ele>23.8</ele>
        <time>2024-11-24T07:56:15Z</time>
      </trkpt>
      <trkpt lat="45.08277" lon="-0.60574">
        <ele>23.7</ele>
        <time>2024-11-24T07:56:16Z</time>
      </trkpt>
      <trkpt lat="45.08277" lon="-0.60572">
        <ele>23.6</ele>
        <time>2024-11-24T07:56:17Z</time>
      </trkpt>
      <trkpt lat="45.08277" lon="-0.6057">
        <ele>23.4</ele>
        <time>2024-11-24T07:56:18Z</time>
      </trkpt>
      <trkpt lat="45.08277" lon="-0.60567">
        <ele>23.3</ele>
        <time>2024-11-24T07:56:19Z</time>
      </trkpt>
      <trkpt lat="45.08276" lon="-0.60565">
        <ele>23.2</ele>
        <time>2024-11-24T07:56:20Z</time>
      </trkpt>
      <trkpt lat="45.08276" lon="-0.60563">
        <ele>23.1</ele>
        <time>2024-11-24T07:56:21Z</time>
      </trkpt>
      <trkpt lat="45.08276" lon="-0.60561">
        <ele>22.9</ele>
        <time>2024-11-24T07:56:22Z</time>
      </trkpt>
      <trkpt lat="45.08276" lon="-0.60559">
        <ele>22.8</ele>
        <time>2024-11-24T07:56:23Z</time>
      </trkpt>
      <trkpt lat="45.08276" lon="-0.60557">
        <ele>22.7</ele>
        <time>2024-11-24T07:56:24Z</time>
      </trkpt>
      <trkpt lat="45.08276" lon="-0.60555">
        <ele>22.6</ele>
        <time>2024-11-24T07:56:25Z</time>
      </trkpt>
      <trkpt lat="45.08275" lon="-0.60553">
        <ele>22.5</ele>
        <time>2024-11-24T07:56:26Z</time>
      </trkpt>
      <trkpt lat="45.08275" lon="-0.60551">
        <ele>22.4</ele>
        <time>2024-11-24T07:56:27Z</time>
      </trkpt>
      <trkpt lat="45.08275" lon="-0.60548">
        <ele>22.2</ele>
        <time>2024-11-24T07:56:28Z</time>
      </trkpt>
      <trkpt lat="45.08275" lon="-0.60546">
        <ele>22.1</ele>
        <time>2024-11-24T07:56:29Z</time>
      </trkpt>
      <trkpt lat="45.08275" lon="-0.60545">
        <ele>22.1</ele>
        <time>2024-11-24T07:56:30Z</time>
      </trkpt>
      <trkpt lat="45.08274" lon="-0.60543">
        <ele>21.9</ele>
        <time>2024-11-24T07:56:31Z</time>
      </trkpt>
      <trkpt lat="45.08274" lon="-0.6054">
        <ele>21.8</ele>
        <time>2024-11-24T07:56:32Z</time>
      </trkpt>
      <trkpt lat="45.08273" lon="-0.60538">
        <ele>21.7</ele>
        <time>2024-11-24T07:56:33Z</time>
      </trkpt>
      <trkpt lat="45.08273" lon="-0.60536">
        <ele>21.6</ele>
        <time>2024-11-24T07:56:34Z</time>
      </trkpt>
      <trkpt lat="45.08273" lon="-0.60534">
        <ele>21.5</ele>
        <time>2024-11-24T07:56:35Z</time>
      </trkpt>
      <trkpt lat="45.08273" lon="-0.60532">
        <ele>21.4</ele>
        <time>2024-11-24T07:56:36Z</time>
      </trkpt>
      <trkpt lat="45.08273" lon="-0.60529">
        <ele>21.3</ele>
        <time>2024-11-24T07:56:37Z</time>
      </trkpt>
      <trkpt lat="45.08272" lon="-0.60528">
        <ele>21.2</ele>
        <time>2024-11-24T07:56:38Z</time>
      </trkpt>
      <trkpt lat="45.08272" lon="-0.60525">
        <ele>21.1</ele>
        <time>2024-11-24T07:56:39Z</time>
      </trkpt>
      <trkpt lat="45.08272" lon="-0.60524">
        <ele>21.1</ele>
        <time>2024-11-24T07:56:40Z</time>
      </trkpt>
      <trkpt lat="45.08272" lon="-0.60522">
        <ele>21</ele>
        <time>2024-11-24T07:56:41Z</time>
      </trkpt>
      <trkpt lat="45.08272" lon="-0.60519">
        <ele>20.9</ele>
        <time>2024-11-24T07:56:42Z</time>
      </trkpt>
      <trkpt lat="45.08272" lon="-0.60517">
        <ele>20.8</ele>
        <time>2024-11-24T07:56:43Z</time>
      </trkpt>
      <trkpt lat="45.08272" lon="-0.60515">
        <ele>20.8</ele>
        <time>2024-11-24T07:56:44Z</time>
      </trkpt>
      <trkpt lat="45.08272" lon="-0.60513">
        <ele>20.8</ele>
        <time>2024-11-24T07:56:45Z</time>
      </trkpt>
      <trkpt lat="45.08273" lon="-0.60511">
        <ele>20.8</ele>
        <time>2024-11-24T07:56:46Z</time>
      </trkpt>
      <trkpt lat="45.08274" lon="-0.60508">
        <ele>20.9</ele>
        <time>2024-11-24T07:56:47Z</time>
      </trkpt>
      <trkpt lat="45.08274" lon="-0.60507">
        <ele>20.9</ele>
        <time>2024-11-24T07:56:48Z</time>
      </trkpt>
      <trkpt lat="45.08275" lon="-0.60505">
        <ele>20.9</ele>
        <time>2024-11-24T07:56:49Z</time>
      </trkpt>
      <trkpt lat="45.08276" lon="-0.60503">
        <ele>21</ele>
        <time>2024-11-24T07:56:50Z</time>
      </trkpt>
      <trkpt lat="45.08277" lon="-0.60501">
        <ele>21</ele>
        <time>2024-11-24T07:56:51Z</time>
      </trkpt>
      <trkpt lat="45.08277" lon="-0.605">
        <ele>21.1</ele>
        <time>2024-11-24T07:56:52Z</time>
      </trkpt>
      <trkpt lat="45.08278" lon="-0.60498">
        <ele>21.1</ele>
        <time>2024-11-24T07:56:53Z</time>
      </trkpt>
      <trkpt lat="45.08279" lon="-0.60496">
        <ele>21.2</ele>
        <time>2024-11-24T07:56:54Z</time>
      </trkpt>
      <trkpt lat="45.08279" lon="-0.60494">
        <ele>21.3</ele>
        <time>2024-11-24T07:56:55Z</time>
      </trkpt>
      <trkpt lat="45.08302" lon="-0.60426">
        <ele>25.9</ele>
        <time>2024-11-24T07:57:34Z</time>
      </trkpt>
      <trkpt lat="45.08302" lon="-0.60425">
        <ele>26</ele>
        <time>2024-11-24T07:57:35Z</time>
      </trkpt>
      <trkpt lat="45.08303" lon="-0.60424">
        <ele>26.1</ele>
        <time>2024-11-24T07:57:36Z</time>
      </trkpt>
      <trkpt lat="45.08303" lon="-0.60423">
        <ele>26.3</ele>
        <time>2024-11-24T07:57:37Z</time>
      </trkpt>
      <trkpt lat="45.08304" lon="-0.60421">
        <ele>26.4</ele>
        <time>2024-11-24T07:57:38Z</time>
      </trkpt>
      <trkpt lat="45.08304" lon="-0.60419">
        <ele>26.6</ele>
        <time>2024-11-24T07:57:39Z</time>
      </trkpt>
      <trkpt lat="45.08306" lon="-0.60417">
        <ele>26.8</ele>
        <time>2024-11-24T07:57:40Z</time>
      </trkpt>
      <trkpt lat="45.08306" lon="-0.60416">
        <ele>27</ele>
        <time>2024-11-24T07:57:41Z</time>
      </trkpt>
      <trkpt lat="45.08306" lon="-0.60415">
        <ele>27.1</ele>
        <time>2024-11-24T07:57:42Z</time>
      </trkpt>
      <trkpt lat="45.08308" lon="-0.60412">
        <ele>27.3</ele>
        <time>2024-11-24T07:57:43Z</time>
      </trkpt>
      <trkpt lat="45.08308" lon="-0.60411">
        <ele>27.4</ele>
        <time>2024-11-24T07:57:44Z</time>
      </trkpt>
      <trkpt lat="45.08309" lon="-0.6041">
        <ele>27.5</ele>
        <time>2024-11-24T07:57:45Z</time>
      </trkpt>
      <trkpt lat="45.0831" lon="-0.60408">
        <ele>27.8</ele>
        <time>2024-11-24T07:57:46Z</time>
      </trkpt>
      <trkpt lat="45.0831" lon="-0.60407">
        <ele>27.9</ele>
        <time>2024-11-24T07:57:47Z</time>
      </trkpt>
      <trkpt lat="45.08311" lon="-0.60406">
        <ele>28</ele>
        <time>2024-11-24T07:57:48Z</time>
      </trkpt>
      <trkpt lat="45.08312" lon="-0.60404">
        <ele>28.2</ele>
        <time>2024-11-24T07:57:49Z</time>
      </trkpt>
      <trkpt lat="45.08313" lon="-0.60403">
        <ele>28.4</ele>
        <time>2024-11-24T07:57:50Z</time>
      </trkpt>
      <trkpt lat="45.08313" lon="-0.60402">
        <ele>28.5</ele>
        <time>2024-11-24T07:57:51Z</time>
      </trkpt>
      <trkpt lat="45.08314" lon="-0.60401">
        <ele>28.6</ele>
        <time>2024-11-24T07:57:52Z</time>
      </trkpt>
      <trkpt lat="45.08315" lon="-0.60399">
        <ele>28.8</ele>
        <time>2024-11-24T07:57:53Z</time>
      </trkpt>
      <trkpt lat="45.08317" lon="-0.60397">
        <ele>29.1</ele>
        <time>2024-11-24T07:57:54Z</time>
      </trkpt>
      <trkpt lat="45.08317" lon="-0.60396">
        <ele>29.2</ele>
        <time>2024-11-24T07:57:55Z</time>
      </trkpt>
      <trkpt lat="45.08318" lon="-0.60395">
        <ele>29.3</ele>
        <time>2024-11-24T07:57:56Z</time>
      </trkpt>
      <trkpt lat="45.08319" lon="-0.60393">
        <ele>29.6</ele>
        <time>2024-11-24T07:57:57Z</time>
      </trkpt>
      <trkpt lat="45.0832" lon="-0.60393">
        <ele>29.7</ele>
        <time>2024-11-24T07:57:58Z</time>
      </trkpt>
      <trkpt lat="45.08321" lon="-0.60392">
        <ele>29.8</ele>
        <time>2024-11-24T07:57:59Z</time>
      </trkpt>
      <trkpt lat="45.08322" lon="-0.6039">
        <ele>30.1</ele>
        <time>2024-11-24T07:58:00Z</time>
      </trkpt>
      <trkpt lat="45.08323" lon="-0.60389">
        <ele>30.2</ele>
        <time>2024-11-24T07:58:01Z</time>
      </trkpt>
      <trkpt lat="45.08324" lon="-0.60389">
        <ele>30.3</ele>
        <time>2024-11-24T07:58:02Z</time>
      </trkpt>
      <trkpt lat="45.08326" lon="-0.60387">
        <ele>30.6</ele>
        <time>2024-11-24T07:58:03Z</time>
      </trkpt>
      <trkpt lat="45.08326" lon="-0.60387">
        <ele>30.7</ele>
        <time>2024-11-24T07:58:04Z</time>
      </trkpt>
      <trkpt lat="45.08327" lon="-0.60386">
        <ele>30.8</ele>
        <time>2024-11-24T07:58:05Z</time>
      </trkpt>
      <trkpt lat="45.08329" lon="-0.60385">
        <ele>31.1</ele>
        <time>2024-11-24T07:58:06Z</time>
      </trkpt>
      <trkpt lat="45.0833" lon="-0.60384">
        <ele>31.2</ele>
        <time>2024-11-24T07:58:07Z</time>
      </trkpt>
      <trkpt lat="45.0833" lon="-0.60384">
        <ele>31.3</ele>
        <time>2024-11-24T07:58:08Z</time>
      </trkpt>
      <trkpt lat="45.08331" lon="-0.60383">
        <ele>31.4</ele>
        <time>2024-11-24T07:58:09Z</time>
      </trkpt>
      <trkpt lat="45.08332" lon="-0.60383">
        <ele>31.6</ele>
        <time>2024-11-24T07:58:10Z</time>
      </trkpt>
      <trkpt lat="45.08334" lon="-0.60382">
        <ele>31.7</ele>
        <time>2024-11-24T07:58:11Z</time>
      </trkpt>
      <trkpt lat="45.08335" lon="-0.60381">
        <ele>31.9</ele>
        <time>2024-11-24T07:58:12Z</time>
      </trkpt>
      <trkpt lat="45.08336" lon="-0.60381">
        <ele>32</ele>
        <time>2024-11-24T07:58:13Z</time>
      </trkpt>
      <trkpt lat="45.08337" lon="-0.6038">
        <ele>32.2</ele>
        <time>2024-11-24T07:58:14Z</time>
      </trkpt>
      <trkpt lat="45.08338" lon="-0.6038">
        <ele>32.3</ele>
        <time>2024-11-24T07:58:15Z</time>
      </trkpt>
      <trkpt lat="45.08339" lon="-0.60379">
        <ele>32.4</ele>
        <time>2024-11-24T07:58:16Z</time>
      </trkpt>
      <trkpt lat="45.0834" lon="-0.60379">
        <ele>32.6</ele>
        <time>2024-11-24T07:58:17Z</time>
      </trkpt>
      <trkpt lat="45.08342" lon="-0.60378">
        <ele>32.8</ele>
        <time>2024-11-24T07:58:18Z</time>
      </trkpt>
      <trkpt lat="45.08343" lon="-0.60377">
        <ele>32.9</ele>
        <time>2024-11-24T07:58:19Z</time>
      </trkpt>
      <trkpt lat="45.08344" lon="-0.60377">
        <ele>33</ele>
        <time>2024-11-24T07:58:20Z</time>
      </trkpt>
      <trkpt lat="45.08345" lon="-0.60376">
        <ele>33.2</ele>
        <time>2024-11-24T07:58:21Z</time>
      </trkpt>
      <trkpt lat="45.08346" lon="-0.60376">
        <ele>33.3</ele>
        <time>2024-11-24T07:58:22Z</time>
      </trkpt>
      <trkpt lat="45.08347" lon="-0.60375">
        <ele>33.5</ele>
        <time>2024-11-24T07:58:23Z</time>
      </trkpt>
      <trkpt lat="45.08348" lon="-0.60375">
        <ele>33.6</ele>
        <time>2024-11-24T07:58:24Z</time>
      </trkpt>
      <trkpt lat="45.0835" lon="-0.60374">
        <ele>33.8</ele>
        <time>2024-11-24T07:58:25Z</time>
      </trkpt>
      <trkpt lat="45.08351" lon="-0.60374">
        <ele>33.9</ele>
        <time>2024-11-24T07:58:26Z</time>
      </trkpt>
      <trkpt lat="45.08352" lon="-0.60373">
        <ele>34</ele>
        <time>2024-11-24T07:58:27Z</time>
      </trkpt>
      <trkpt lat="45.08353" lon="-0.60373">
        <ele>34.2</ele>
        <time>2024-11-24T07:58:28Z</time>
      </trkpt>
      <trkpt lat="45.08354" lon="-0.60372">
        <ele>34.3</ele>
        <time>2024-11-24T07:58:29Z</time>
      </trkpt>
      <trkpt lat="45.08355" lon="-0.60372">
        <ele>34.4</ele>
        <time>2024-11-24T07:58:30Z</time>
      </trkpt>
      <trkpt lat="45.08357" lon="-0.60371">
        <ele>34.6</ele>
        <time>2024-11-24T07:58:31Z</time>
      </trkpt>
      <trkpt lat="45.08358" lon="-0.60371">
        <ele>34.7</ele>
        <time>2024-11-24T07:58:32Z</time>
      </trkpt>
      <trkpt lat="45.08359" lon="-0.6037">
        <ele>34.8</ele>
        <time>2024-11-24T07:58:33Z</time>
      </trkpt>
      <trkpt lat="45.0836" lon="-0.6037">
        <ele>34.9</ele>
        <time>2024-11-24T07:58:34Z</time>
      </trkpt>
      <trkpt lat="45.08361" lon="-0.60369">
        <ele>35.1</ele>
        <time>2024-11-24T07:58:35Z</time>
      </trkpt>
      <trkpt lat="45.08362" lon="-0.60368">
        <ele>35.2</ele>
        <time>2024-11-24T07:58:36Z</time>
      </trkpt>
      <trkpt lat="45.08363" lon="-0.60367">
        <ele>35.4</ele>
        <time>2024-11-24T07:58:37Z</time>
      </trkpt>
      <trkpt lat="45.08364" lon="-0.60366">
        <ele>35.5</ele>
        <time>2024-11-24T07:58:38Z</time>
      </trkpt>
      <trkpt lat="45.08366" lon="-0.60364">
        <ele>35.7</ele>
        <time>2024-11-24T07:58:39Z</time>
      </trkpt>
      <trkpt lat="45.08367" lon="-0.60364">
        <ele>35.8</ele>
        <time>2024-11-24T07:58:40Z</time>
      </trkpt>
      <trkpt lat="45.08367" lon="-0.60363">
        <ele>35.9</ele>
        <time>2024-11-24T07:58:41Z</time>
      </trkpt>
      <trkpt lat="45.08368" lon="-0.60362">
        <ele>36</ele>
        <time>2024-11-24T07:58:42Z</time>
      </trkpt>
      <trkpt lat="45.0837" lon="-0.60361">
        <ele>36.1</ele>
        <time>2024-11-24T07:58:43Z</time>
      </trkpt>
      <trkpt lat="45.08371" lon="-0.6036">
        <ele>36.3</ele>
        <time>2024-11-24T07:58:44Z</time>
      </trkpt>
      <trkpt lat="45.08372" lon="-0.60359">
        <ele>36.4</ele>
        <time>2024-11-24T07:58:45Z</time>
      </trkpt>
      <trkpt lat="45.08373" lon="-0.60358">
        <ele>36.5</ele>
        <time>2024-11-24T07:58:46Z</time>
      </trkpt>
      <trkpt lat="45.08375" lon="-0.60357">
        <ele>36.7</ele>
        <time>2024-11-24T07:58:47Z</time>
      </trkpt>
      <trkpt lat="45.08375" lon="-0.60356">
        <ele>36.8</ele>
        <time>2024-11-24T07:58:48Z</time>
      </trkpt>
      <trkpt lat="45.08376" lon="-0.60356">
        <ele>36.9</ele>
        <time>2024-11-24T07:58:49Z</time>
      </trkpt>
      <trkpt lat="45.08377" lon="-0.60355">
        <ele>37</ele>
        <time>2024-11-24T07:58:50Z</time>
      </trkpt>
      <trkpt lat="45.08379" lon="-0.60354">
        <ele>37.1</ele>
        <time>2024-11-24T07:58:51Z</time>
      </trkpt>
      <trkpt lat="45.0838" lon="-0.60353">
        <ele>37.2</ele>
        <time>2024-11-24T07:58:52Z</time>
      </trkpt>
      <trkpt lat="45.08381" lon="-0.60351">
        <ele>37.4</ele>
        <time>2024-11-24T07:58:53Z</time>
      </trkpt>
      <trkpt lat="45.08382" lon="-0.60351">
        <ele>37.5</ele>
        <time>2024-11-24T07:58:54Z</time>
      </trkpt>
      <trkpt lat="45.08383" lon="-0.60349">
        <ele>37.6</ele>
        <time>2024-11-24T07:58:55Z</time>
      </trkpt>
      <trkpt lat="45.08384" lon="-0.60348">
        <ele>37.7</ele>
        <time>2024-11-24T07:58:56Z</time>
      </trkpt>
      <trkpt lat="45.08385" lon="-0.60346">
        <ele>37.8</ele>
        <time>2024-11-24T07:58:57Z</time>
      </trkpt>
      <trkpt lat="45.08386" lon="-0.60345">
        <ele>37.9</ele>
        <time>2024-11-24T07:58:58Z</time>
      </trkpt>
      <trkpt lat="45.08387" lon="-0.60342">
        <ele>38.1</ele>
        <time>2024-11-24T07:58:59Z</time>
      </trkpt>
      <trkpt lat="45.08388" lon="-0.60342">
        <ele>38.2</ele>
        <time>2024-11-24T07:59:00Z</time>
      </trkpt>
      <trkpt lat="45.08388" lon="-0.60341">
        <ele>38.2</ele>
        <time>2024-11-24T07:59:01Z</time>
      </trkpt>
      <trkpt lat="45.08389" lon="-0.60339">
        <ele>38.3</ele>
        <time>2024-11-24T07:59:02Z</time>
      </trkpt>
      <trkpt lat="45.0839" lon="-0.60337">
        <ele>38.5</ele>
        <time>2024-11-24T07:59:03Z</time>
      </trkpt>
      <trkpt lat="45.08391" lon="-0.60335">
        <ele>38.6</ele>
        <time>2024-11-24T07:59:04Z</time>
      </trkpt>
      <trkpt lat="45.08392" lon="-0.60334">
        <ele>38.7</ele>
        <time>2024-11-24T07:59:05Z</time>
      </trkpt>
      <trkpt lat="45.08392" lon="-0.60333">
        <ele>38.7</ele>
        <time>2024-11-24T07:59:06Z</time>
      </trkpt>
      <trkpt lat="45.08393" lon="-0.60332">
        <ele>38.8</ele>
        <time>2024-11-24T07:59:07Z</time>
      </trkpt>
      <trkpt lat="45.08394" lon="-0.6033">
        <ele>38.9</ele>
        <time>2024-11-24T07:59:08Z</time>
      </trkpt>
      <trkpt lat="45.08395" lon="-0.60328">
        <ele>39</ele>
        <time>2024-11-24T07:59:09Z</time>
      </trkpt>
      <trkpt lat="45.08396" lon="-0.60327">
        <ele>39.1</ele>
        <time>2024-11-24T07:59:10Z</time>
      </trkpt>
      <trkpt lat="45.08396" lon="-0.60326">
        <ele>39.1</ele>
        <time>2024-11-24T07:59:11Z</time>
      </trkpt>
      <trkpt lat="45.08397" lon="-0.60323">
        <ele>39.3</ele>
        <time>2024-11-24T07:59:12Z</time>
      </trkpt>
      <trkpt lat="45.08398" lon="-0.60322">
        <ele>39.3</ele>
        <time>2024-11-24T07:59:13Z</time>
      </trkpt>
      <trkpt lat="45.08398" lon="-0.60322">
        <ele>39.4</ele>
        <time>2024-11-24T07:59:14Z</time>
      </trkpt>
      <trkpt lat="45.08399" lon="-0.6032">
        <ele>39.5</ele>
        <time>2024-11-24T07:59:15Z</time>
      </trkpt>
      <trkpt lat="45.084" lon="-0.60318">
        <ele>39.5</ele>
        <time>2024-11-24T07:59:16Z</time>
      </trkpt>
      <trkpt lat="45.08401" lon="-0.60317">
        <ele>39.6</ele>
        <time>2024-11-24T07:59:17Z</time>
      </trkpt>
      <trkpt lat="45.08402" lon="-0.60315">
        <ele>39.7</ele>
        <time>2024-11-24T07:59:18Z</time>
      </trkpt>
      <trkpt lat="45.08404" lon="-0.60313">
        <ele>39.8</ele>
        <time>2024-11-24T07:59:19Z</time>
      </trkpt>
      <trkpt lat="45.08404" lon="-0.60312">
        <ele>39.9</ele>
        <time>2024-11-24T07:59:20Z</time>
      </trkpt>
      <trkpt lat="45.08405" lon="-0.60311">
        <ele>40</ele>
        <time>2024-11-24T07:59:21Z</time>
      </trkpt>
      <trkpt lat="45.08406" lon="-0.6031">
        <ele>40</ele>
        <time>2024-11-24T07:59:22Z</time>
      </trkpt>
      <trkpt lat="45.08407" lon="-0.60308">
        <ele>40.1</ele>
        <time>2024-11-24T07:59:23Z</time>
      </trkpt>
      <trkpt lat="45.08408" lon="-0.60307">
        <ele>40.2</ele>
        <time>2024-11-24T07:59:24Z</time>
      </trkpt>
      <trkpt lat="45.08408" lon="-0.60305">
        <ele>40.3</ele>
        <time>2024-11-24T07:59:25Z</time>
      </trkpt>
      <trkpt lat="45.08409" lon="-0.60304">
        <ele>40.3</ele>
        <time>2024-11-24T07:59:26Z</time>
      </trkpt>
      <trkpt lat="45.08409" lon="-0.60302">
        <ele>40.4</ele>
        <time>2024-11-24T07:59:27Z</time>
      </trkpt>
      <trkpt lat="45.0841" lon="-0.60301">
        <ele>40.5</ele>
        <time>2024-11-24T07:59:28Z</time>
      </trkpt>
      <trkpt lat="45.08411" lon="-0.60301">
        <ele>40.5</ele>
        <time>2024-11-24T07:59:29Z</time>
      </trkpt>
      <trkpt lat="45.08412" lon="-0.603">
        <ele>40.6</ele>
        <time>2024-11-24T07:59:30Z</time>
      </trkpt>
      <trkpt lat="45.08412" lon="-0.60299">
        <ele>40.6</ele>
        <time>2024-11-24T07:59:31Z</time>
      </trkpt>
      <trkpt lat="45.08413" lon="-0.60299">
        <ele>40.7</ele>
        <time>2024-11-24T07:59:32Z</time>
      </trkpt>
      <trkpt lat="45.08413" lon="-0.60298">
        <ele>40.7</ele>
        <time>2024-11-24T07:59:33Z</time>
      </trkpt>
      <trkpt lat="45.08415" lon="-0.60297">
        <ele>40.8</ele>
        <time>2024-11-24T07:59:34Z</time>
      </trkpt>
      <trkpt lat="45.08416" lon="-0.60297">
        <ele>40.9</ele>
        <time>2024-11-24T07:59:35Z</time>
      </trkpt>
      <trkpt lat="45.08417" lon="-0.60296">
        <ele>41</ele>
        <time>2024-11-24T07:59:36Z</time>
      </trkpt>
      <trkpt lat="45.08418" lon="-0.60296">
        <ele>41.1</ele>
        <time>2024-11-24T07:59:37Z</time>
      </trkpt>
      <trkpt lat="45.08419" lon="-0.60294">
        <ele>41.2</ele>
        <time>2024-11-24T07:59:38Z</time>
      </trkpt>
      <trkpt lat="45.08426" lon="-0.6029">
        <ele>41.7</ele>
        <time>2024-11-24T07:59:39Z</time>
      </trkpt>
      <trkpt lat="45.08431" lon="-0.60286">
        <ele>42.1</ele>
        <time>2024-11-24T07:59:40Z</time>
      </trkpt>
      <trkpt lat="45.08436" lon="-0.60282">
        <ele>42.6</ele>
        <time>2024-11-24T08:00:04Z</time>
      </trkpt>
      <trkpt lat="45.08442" lon="-0.60278">
        <ele>43</ele>
        <time>2024-11-24T08:00:05Z</time>
      </trkpt>
      <trkpt lat="45.08447" lon="-0.60274">
        <ele>43.5</ele>
        <time>2024-11-24T08:00:06Z</time>
      </trkpt>
      <trkpt lat="45.08452" lon="-0.6027">
        <ele>44</ele>
        <time>2024-11-24T08:00:07Z</time>
      </trkpt>
      <trkpt lat="45.08454" lon="-0.60269">
        <ele>44.2</ele>
        <time>2024-11-24T08:00:08Z</time>
      </trkpt>
      <trkpt lat="45.08455" lon="-0.60268">
        <ele>44.3</ele>
        <time>2024-11-24T08:00:09Z</time>
      </trkpt>
      <trkpt lat="45.08456" lon="-0.60268">
        <ele>44.4</ele>
        <time>2024-11-24T08:00:10Z</time>
      </trkpt>
      <trkpt lat="45.08467" lon="-0.60263">
        <ele>45.3</ele>
        <time>2024-11-24T08:00:11Z</time>
      </trkpt>
      <trkpt lat="45.08477" lon="-0.60259">
        <ele>46</ele>
        <time>2024-11-24T08:00:37Z</time>
      </trkpt>
      <trkpt lat="45.08486" lon="-0.60255">
        <ele>46.7</ele>
        <time>2024-11-24T08:00:38Z</time>
      </trkpt>
      <trkpt lat="45.08496" lon="-0.60251">
        <ele>47.3</ele>
        <time>2024-11-24T08:00:39Z</time>
      </trkpt>
      <trkpt lat="45.08497" lon="-0.6025">
        <ele>47.5</ele>
        <time>2024-11-24T08:00:40Z</time>
      </trkpt>
      <trkpt lat="45.08499" lon="-0.60249">
        <ele>47.6</ele>
        <time>2024-11-24T08:00:41Z</time>
      </trkpt>
      <trkpt lat="45.08528" lon="-0.6024">
        <ele>49.6</ele>
        <time>2024-11-24T08:01:05Z</time>
      </trkpt>
      <trkpt lat="45.08531" lon="-0.6024">
        <ele>49.8</ele>
        <time>2024-11-24T08:01:06Z</time>
      </trkpt>
      <trkpt lat="45.08534" lon="-0.60239">
        <ele>50</ele>
        <time>2024-11-24T08:01:07Z</time>
      </trkpt>
      <trkpt lat="45.08538" lon="-0.60239">
        <ele>50.3</ele>
        <time>2024-11-24T08:01:08Z</time>
      </trkpt>
      <trkpt lat="45.08539" lon="-0.60238">
        <ele>50.4</ele>
        <time>2024-11-24T08:01:09Z</time>
      </trkpt>
      <trkpt lat="45.0854" lon="-0.60238">
        <ele>50.5</ele>
        <time>2024-11-24T08:01:10Z</time>
      </trkpt>
      <trkpt lat="45.08549" lon="-0.60228">
        <ele>51.1</ele>
        <time>2024-11-24T08:01:11Z</time>
      </trkpt>
      <trkpt lat="45.08557" lon="-0.60219">
        <ele>51.6</ele>
        <time>2024-11-24T08:01:38Z</time>
      </trkpt>
      <trkpt lat="45.08564" lon="-0.6021">
        <ele>52.1</ele>
        <time>2024-11-24T08:01:39Z</time>
      </trkpt>
      <trkpt lat="45.08572" lon="-0.60201">
        <ele>52.5</ele>
        <time>2024-11-24T08:01:40Z</time>
      </trkpt>
      <trkpt lat="45.08578" lon="-0.60188">
        <ele>53</ele>
        <time>2024-11-24T08:01:41Z</time>
      </trkpt>
      <trkpt lat="45.08583" lon="-0.60178">
        <ele>53.4</ele>
        <time>2024-11-24T08:02:14Z</time>
      </trkpt>
      <trkpt lat="45.08588" lon="-0.60167">
        <ele>53.7</ele>
        <time>2024-11-24T08:02:15Z</time>
      </trkpt>
      <trkpt lat="45.08594" lon="-0.60156">
        <ele>54</ele>
        <time>2024-11-24T08:02:16Z</time>
      </trkpt>
      <trkpt lat="45.08599" lon="-0.60146">
        <ele>54.3</ele>
        <time>2024-11-24T08:02:17Z</time>
      </trkpt>
      <trkpt lat="45.086" lon="-0.60144">
        <ele>54.3</ele>
        <time>2024-11-24T08:02:18Z</time>
      </trkpt>
      <trkpt lat="45.08601" lon="-0.60142">
        <ele>54.3</ele>
        <time>2024-11-24T08:02:19Z</time>
      </trkpt>
      <trkpt lat="45.08602" lon="-0.60141">
        <ele>54.4</ele>
        <time>2024-11-24T08:02:20Z</time>
      </trkpt>
      <trkpt lat="45.08603" lon="-0.60139">
        <ele>54.4</ele>
        <time>2024-11-24T08:02:21Z</time>
      </trkpt>
      <trkpt lat="45.08604" lon="-0.60137">
        <ele>54.4</ele>
        <time>2024-11-24T08:02:22Z</time>
      </trkpt>
      <trkpt lat="45.08605" lon="-0.60136">
        <ele>54.5</ele>
        <time>2024-11-24T08:02:23Z</time>
      </trkpt>
      <trkpt lat="45.08606" lon="-0.60135">
        <ele>54.5</ele>
        <time>2024-11-24T08:02:24Z</time>
      </trkpt>
      <trkpt lat="45.08606" lon="-0.60132">
        <ele>54.5</ele>
        <time>2024-11-24T08:02:25Z</time>
      </trkpt>
      <trkpt lat="45.08615" lon="-0.60122">
        <ele>54.7</ele>
        <time>2024-11-24T08:02:26Z</time>
      </trkpt>
      <trkpt lat="45.08623" lon="-0.60112">
        <ele>54.8</ele>
        <time>2024-11-24T08:02:57Z</time>
      </trkpt>
      <trkpt lat="45.0863" lon="-0.60103">
        <ele>54.9</ele>
        <time>2024-11-24T08:02:58Z</time>
      </trkpt>
      <trkpt lat="45.08638" lon="-0.60094">
        <ele>55</ele>
        <time>2024-11-24T08:02:59Z</time>
      </trkpt>
      <trkpt lat="45.08646" lon="-0.60084">
        <ele>55</ele>
        <time>2024-11-24T08:03:00Z</time>
      </trkpt>
      <trkpt lat="45.08647" lon="-0.60086">
        <ele>55</ele>
        <time>2024-11-24T08:03:01Z</time>
      </trkpt>
      <trkpt lat="45.08648" lon="-0.60087">
        <ele>55.1</ele>
        <time>2024-11-24T08:03:02Z</time>
      </trkpt>
      <trkpt lat="45.08649" lon="-0.6009">
        <ele>55.2</ele>
        <time>2024-11-24T08:03:03Z</time>
      </trkpt>
      <trkpt lat="45.0865" lon="-0.60091">
        <ele>55.2</ele>
        <time>2024-11-24T08:03:04Z</time>
      </trkpt>
      <trkpt lat="45.0865" lon="-0.60092">
        <ele>55.2</ele>
        <time>2024-11-24T08:03:05Z</time>
      </trkpt>
      <trkpt lat="45.08651" lon="-0.60094">
        <ele>55.3</ele>
        <time>2024-11-24T08:03:06Z</time>
      </trkpt>
      <trkpt lat="45.08652" lon="-0.60096">
        <ele>55.4</ele>
        <time>2024-11-24T08:03:07Z</time>
      </trkpt>
      <trkpt lat="45.08653" lon="-0.60097">
        <ele>55.4</ele>
        <time>2024-11-24T08:03:08Z</time>
      </trkpt>
      <trkpt lat="45.08654" lon="-0.60099">
        <ele>55.5</ele>
        <time>2024-11-24T08:03:09Z</time>
      </trkpt>
      <trkpt lat="45.08655" lon="-0.60101">
        <ele>55.5</ele>
        <time>2024-11-24T08:03:10Z</time>
      </trkpt>
      <trkpt lat="45.08656" lon="-0.60102">
        <ele>55.6</ele>
        <time>2024-11-24T08:03:11Z</time>
      </trkpt>
      <trkpt lat="45.08742" lon="-0.6016">
        <ele>57.6</ele>
        <time>2024-11-24T08:04:14Z</time>
      </trkpt>
      <trkpt lat="45.08744" lon="-0.6016">
        <ele>57.6</ele>
        <time>2024-11-24T08:04:15Z</time>
      </trkpt>
      <trkpt lat="45.08745" lon="-0.6016">
        <ele>57.7</ele>
        <time>2024-11-24T08:04:16Z</time>
      </trkpt>
      <trkpt lat="45.08747" lon="-0.6016">
        <ele>57.7</ele>
        <time>2024-11-24T08:04:17Z</time>
      </trkpt>
      <trkpt lat="45.08748" lon="-0.6016">
        <ele>57.7</ele>
        <time>2024-11-24T08:04:18Z</time>
      </trkpt>
      <trkpt lat="45.0875" lon="-0.60161">
        <ele>57.7</ele>
        <time>2024-11-24T08:04:19Z</time>
      </trkpt>
      <trkpt lat="45.08752" lon="-0.60161">
        <ele>57.8</ele>
        <time>2024-11-24T08:04:20Z</time>
      </trkpt>
      <trkpt lat="45.08753" lon="-0.60161">
        <ele>57.8</ele>
        <time>2024-11-24T08:04:21Z</time>
      </trkpt>
      <trkpt lat="45.08754" lon="-0.60162">
        <ele>57.8</ele>
        <time>2024-11-24T08:04:22Z</time>
      </trkpt>
      <trkpt lat="45.08756" lon="-0.60162">
        <ele>57.8</ele>
        <time>2024-11-24T08:04:23Z</time>
      </trkpt>
      <trkpt lat="45.08758" lon="-0.60163">
        <ele>57.8</ele>
        <time>2024-11-24T08:04:24Z</time>
      </trkpt>
      <trkpt lat="45.08759" lon="-0.60163">
        <ele>57.8</ele>
        <time>2024-11-24T08:04:25Z</time>
      </trkpt>
      <trkpt lat="45.08761" lon="-0.60164">
        <ele>57.9</ele>
        <time>2024-11-24T08:04:26Z</time>
      </trkpt>
      <trkpt lat="45.08796" lon="-0.60254">
        <ele>58.3</ele>
        <time>2024-11-24T08:05:15Z</time>
      </trkpt>
      <trkpt lat="45.08796" lon="-0.60257">
        <ele>58.3</ele>
        <time>2024-11-24T08:05:16Z</time>
      </trkpt>
      <trkpt lat="45.08796" lon="-0.60259">
        <ele>58.3</ele>
        <time>2024-11-24T08:05:17Z</time>
      </trkpt>
      <trkpt lat="45.08797" lon="-0.6026">
        <ele>58.3</ele>
        <time>2024-11-24T08:05:18Z</time>
      </trkpt>
      <trkpt lat="45.08797" lon="-0.60262">
        <ele>58.3</ele>
        <time>2024-11-24T08:05:19Z</time>
      </trkpt>
      <trkpt lat="45.08797" lon="-0.60265">
        <ele>58.3</ele>
        <time>2024-11-24T08:05:20Z</time>
      </trkpt>
      <trkpt lat="45.08797" lon="-0.60267">
        <ele>58.3</ele>
        <time>2024-11-24T08:05:21Z</time>
      </trkpt>
      <trkpt lat="45.08798" lon="-0.60269">
        <ele>58.3</ele>
        <time>2024-11-24T08:05:22Z</time>
      </trkpt>
      <trkpt lat="45.08798" lon="-0.60271">
        <ele>58.3</ele>
        <time>2024-11-24T08:05:23Z</time>
      </trkpt>
      <trkpt lat="45.08798" lon="-0.60273">
        <ele>58.4</ele>
        <time>2024-11-24T08:05:24Z</time>
      </trkpt>
      <trkpt lat="45.08798" lon="-0.60275">
        <ele>58.4</ele>
        <time>2024-11-24T08:05:25Z</time>
      </trkpt>
      <trkpt lat="45.08799" lon="-0.60277">
        <ele>58.4</ele>
        <time>2024-11-24T08:05:26Z</time>
      </trkpt>
      <trkpt lat="45.08801" lon="-0.60292">
        <ele>58.4</ele>
        <time>2024-11-24T08:05:27Z</time>
      </trkpt>
      <trkpt lat="45.08803" lon="-0.60307">
        <ele>58.4</ele>
        <time>2024-11-24T08:05:57Z</time>
      </trkpt>
      <trkpt lat="45.08805" lon="-0.60321">
        <ele>58.4</ele>
        <time>2024-11-24T08:05:58Z</time>
      </trkpt>
      <trkpt lat="45.08807" lon="-0.60336">
        <ele>58.5</ele>
        <time>2024-11-24T08:05:59Z</time>
      </trkpt>
      <trkpt lat="45.0881" lon="-0.6035">
        <ele>58.5</ele>
        <time>2024-11-24T08:06:00Z</time>
      </trkpt>
      <trkpt lat="45.0881" lon="-0.60352">
        <ele>58.5</ele>
        <time>2024-11-24T08:06:01Z</time>
      </trkpt>
      <trkpt lat="45.08811" lon="-0.60354">
        <ele>58.5</ele>
        <time>2024-11-24T08:06:02Z</time>
      </trkpt>
      <trkpt lat="45.08811" lon="-0.60357">
        <ele>58.5</ele>
        <time>2024-11-24T08:06:03Z</time>
      </trkpt>
      <trkpt lat="45.08811" lon="-0.60359">
        <ele>58.5</ele>
        <time>2024-11-24T08:06:04Z</time>
      </trkpt>
      <trkpt lat="45.08812" lon="-0.60361">
        <ele>58.5</ele>
        <time>2024-11-24T08:06:05Z</time>
      </trkpt>
      <trkpt lat="45.08812" lon="-0.60363">
        <ele>58.5</ele>
        <time>2024-11-24T08:06:06Z</time>
      </trkpt>
      <trkpt lat="45.08813" lon="-0.60368">
        <ele>58.5</ele>
        <time>2024-11-24T08:06:07Z</time>
      </trkpt>
      <trkpt lat="45.08813" lon="-0.6037">
        <ele>58.5</ele>
        <time>2024-11-24T08:06:08Z</time>
      </trkpt>
      <trkpt lat="45.08813" lon="-0.6037">
        <ele>58.5</ele>
        <time>2024-11-24T08:06:09Z</time>
      </trkpt>
      <trkpt lat="45.08814" lon="-0.60372">
        <ele>58.5</ele>
        <time>2024-11-24T08:06:10Z</time>
      </trkpt>
      <trkpt lat="45.08814" lon="-0.60374">
        <ele>58.5</ele>
        <time>2024-11-24T08:06:11Z</time>
      </trkpt>
      <trkpt lat="45.08815" lon="-0.60378">
        <ele>58.5</ele>
        <time>2024-11-24T08:06:12Z</time>
      </trkpt>
      <trkpt lat="45.08816" lon="-0.60381">
        <ele>58.5</ele>
        <time>2024-11-24T08:06:13Z</time>
      </trkpt>
      <trkpt lat="45.08816" lon="-0.60383">
        <ele>58.5</ele>
        <time>2024-11-24T08:06:14Z</time>
      </trkpt>
      <trkpt lat="45.08817" lon="-0.60385">
        <ele>58.5</ele>
        <time>2024-11-24T08:06:15Z</time>
      </trkpt>
      <trkpt lat="45.08817" lon="-0.60388">
        <ele>58.5</ele>
        <time>2024-11-24T08:06:16Z</time>
      </trkpt>
      <trkpt lat="45.08817" lon="-0.6039">
        <ele>58.5</ele>
        <time>2024-11-24T08:06:17Z</time>
      </trkpt>
      <trkpt lat="45.08818" lon="-0.60391">
        <ele>58.5</ele>
        <time>2024-11-24T08:06:18Z</time>
      </trkpt>
      <trkpt lat="45.08818" lon="-0.60393">
        <ele>58.5</ele>
        <time>2024-11-24T08:06:19Z</time>
      </trkpt>
      <trkpt lat="45.08819" lon="-0.60396">
        <ele>58.5</ele>
        <time>2024-11-24T08:06:20Z</time>
      </trkpt>
      <trkpt lat="45.08819" lon="-0.60398">
        <ele>58.5</ele>
        <time>2024-11-24T08:06:21Z</time>
      </trkpt>
      <trkpt lat="45.0882" lon="-0.60399">
        <ele>58.5</ele>
        <time>2024-11-24T08:06:22Z</time>
      </trkpt>
      <trkpt lat="45.0882" lon="-0.60401">
        <ele>58.5</ele>
        <time>2024-11-24T08:06:23Z</time>
      </trkpt>
      <trkpt lat="45.0882" lon="-0.60404">
        <ele>58.5</ele>
        <time>2024-11-24T08:06:24Z</time>
      </trkpt>
      <trkpt lat="45.08821" lon="-0.60406">
        <ele>58.5</ele>
        <time>2024-11-24T08:06:25Z</time>
      </trkpt>
      <trkpt lat="45.08821" lon="-0.60408">
        <ele>58.5</ele>
        <time>2024-11-24T08:06:26Z</time>
      </trkpt>
      <trkpt lat="45.08821" lon="-0.60411">
        <ele>58.5</ele>
        <time>2024-11-24T08:06:27Z</time>
      </trkpt>
      <trkpt lat="45.08822" lon="-0.60413">
        <ele>58.5</ele>
        <time>2024-11-24T08:06:28Z</time>
      </trkpt>
      <trkpt lat="45.08822" lon="-0.60415">
        <ele>58.5</ele>
        <time>2024-11-24T08:06:29Z</time>
      </trkpt>
      <trkpt lat="45.08823" lon="-0.60417">
        <ele>58.5</ele>
        <time>2024-11-24T08:06:30Z</time>
      </trkpt>
      <trkpt lat="45.08823" lon="-0.60419">
        <ele>58.4</ele>
        <time>2024-11-24T08:06:31Z</time>
      </trkpt>
      <trkpt lat="45.08823" lon="-0.60421">
        <ele>58.4</ele>
        <time>2024-11-24T08:06:32Z</time>
      </trkpt>
      <trkpt lat="45.08824" lon="-0.60423">
        <ele>58.4</ele>
        <time>2024-11-24T08:06:33Z</time>
      </trkpt>
      <trkpt lat="45.08824" lon="-0.60426">
        <ele>58.4</ele>
        <time>2024-11-24T08:06:34Z</time>
      </trkpt>
      <trkpt lat="45.08825" lon="-0.60428">
        <ele>58.4</ele>
        <time>2024-11-24T08:06:35Z</time>
      </trkpt>
      <trkpt lat="45.08825" lon="-0.6043">
        <ele>58.4</ele>
        <time>2024-11-24T08:06:36Z</time>
      </trkpt>
      <trkpt lat="45.08826" lon="-0.60432">
        <ele>58.4</ele>
        <time>2024-11-24T08:06:37Z</time>
      </trkpt>
      <trkpt lat="45.08826" lon="-0.60434">
        <ele>58.4</ele>
        <time>2024-11-24T08:06:38Z</time>
      </trkpt>
      <trkpt lat="45.08827" lon="-0.60436">
        <ele>58.4</ele>
        <time>2024-11-24T08:06:39Z</time>
      </trkpt>
      <trkpt lat="45.08827" lon="-0.60438">
        <ele>58.3</ele>
        <time>2024-11-24T08:06:40Z</time>
      </trkpt>
      <trkpt lat="45.08827" lon="-0.6044">
        <ele>58.3</ele>
        <time>2024-11-24T08:06:41Z</time>
      </trkpt>
      <trkpt lat="45.08828" lon="-0.60442">
        <ele>58.3</ele>
        <time>2024-11-24T08:06:42Z</time>
      </trkpt>
      <trkpt lat="45.08828" lon="-0.60444">
        <ele>58.3</ele>
        <time>2024-11-24T08:06:43Z</time>
      </trkpt>
      <trkpt lat="45.08829" lon="-0.60446">
        <ele>58.3</ele>
        <time>2024-11-24T08:06:44Z</time>
      </trkpt>
      <trkpt lat="45.08829" lon="-0.60449">
        <ele>58.3</ele>
        <time>2024-11-24T08:06:45Z</time>
      </trkpt>
      <trkpt lat="45.0883" lon="-0.6045">
        <ele>58.3</ele>
        <time>2024-11-24T08:06:46Z</time>
      </trkpt>
      <trkpt lat="45.0883" lon="-0.60452">
        <ele>58.3</ele>
        <time>2024-11-24T08:06:47Z</time>
      </trkpt>
      <trkpt lat="45.08831" lon="-0.60455">
        <ele>58.3</ele>
        <time>2024-11-24T08:06:48Z</time>
      </trkpt>
      <trkpt lat="45.08832" lon="-0.60457">
        <ele>58.3</ele>
        <time>2024-11-24T08:06:49Z</time>
      </trkpt>
      <trkpt lat="45.08832" lon="-0.60459">
        <ele>58.2</ele>
        <time>2024-11-24T08:06:50Z</time>
      </trkpt>
      <trkpt lat="45.08833" lon="-0.6046">
        <ele>58.2</ele>
        <time>2024-11-24T08:06:51Z</time>
      </trkpt>
      <trkpt lat="45.08834" lon="-0.60463">
        <ele>58.2</ele>
        <time>2024-11-24T08:06:52Z</time>
      </trkpt>
      <trkpt lat="45.08835" lon="-0.60464">
        <ele>58.2</ele>
        <time>2024-11-24T08:06:53Z</time>
      </trkpt>
      <trkpt lat="45.08835" lon="-0.60465">
        <ele>58.2</ele>
        <time>2024-11-24T08:06:54Z</time>
      </trkpt>
      <trkpt lat="45.08836" lon="-0.60467">
        <ele>58.2</ele>
        <time>2024-11-24T08:06:55Z</time>
      </trkpt>
      <trkpt lat="45.08836" lon="-0.60468">
        <ele>58.2</ele>
        <time>2024-11-24T08:06:56Z</time>
      </trkpt>
      <trkpt lat="45.08837" lon="-0.60471">
        <ele>58.2</ele>
        <time>2024-11-24T08:06:57Z</time>
      </trkpt>
      <trkpt lat="45.08838" lon="-0.60472">
        <ele>58.2</ele>
        <time>2024-11-24T08:06:58Z</time>
      </trkpt>
      <trkpt lat="45.08839" lon="-0.60474">
        <ele>58.2</ele>
        <time>2024-11-24T08:06:59Z</time>
      </trkpt>
      <trkpt lat="45.0884" lon="-0.60476">
        <ele>58.2</ele>
        <time>2024-11-24T08:07:00Z</time>
      </trkpt>
      <trkpt lat="45.08841" lon="-0.60478">
        <ele>58.2</ele>
        <time>2024-11-24T08:07:01Z</time>
      </trkpt>
      <trkpt lat="45.08842" lon="-0.60479">
        <ele>58.2</ele>
        <time>2024-11-24T08:07:02Z</time>
      </trkpt>
      <trkpt lat="45.08843" lon="-0.6048">
        <ele>58.2</ele>
        <time>2024-11-24T08:07:03Z</time>
      </trkpt>
      <trkpt lat="45.08843" lon="-0.60482">
        <ele>58.2</ele>
        <time>2024-11-24T08:07:04Z</time>
      </trkpt>
      <trkpt lat="45.08844" lon="-0.60484">
        <ele>58.2</ele>
        <time>2024-11-24T08:07:05Z</time>
      </trkpt>
      <trkpt lat="45.08845" lon="-0.60486">
        <ele>58.2</ele>
        <time>2024-11-24T08:07:06Z</time>
      </trkpt>
      <trkpt lat="45.08845" lon="-0.60488">
        <ele>58.2</ele>
        <time>2024-11-24T08:07:07Z</time>
      </trkpt>
      <trkpt lat="45.08846" lon="-0.6049">
        <ele>58.2</ele>
        <time>2024-11-24T08:07:08Z</time>
      </trkpt>
      <trkpt lat="45.08846" lon="-0.60492">
        <ele>58.2</ele>
        <time>2024-11-24T08:07:09Z</time>
      </trkpt>
      <trkpt lat="45.08847" lon="-0.60494">
        <ele>58.2</ele>
        <time>2024-11-24T08:07:10Z</time>
      </trkpt>
      <trkpt lat="45.08848" lon="-0.60496">
        <ele>58.2</ele>
        <time>2024-11-24T08:07:11Z</time>
      </trkpt>
      <trkpt lat="45.08848" lon="-0.60498">
        <ele>58.2</ele>
        <time>2024-11-24T08:07:12Z</time>
      </trkpt>
      <trkpt lat="45.08849" lon="-0.60499">
        <ele>58.2</ele>
        <time>2024-11-24T08:07:13Z</time>
      </trkpt>
      <trkpt lat="45.0885" lon="-0.605">
        <ele>58.2</ele>
        <time>2024-11-24T08:07:14Z</time>
      </trkpt>
      <trkpt lat="45.08852" lon="-0.60502">
        <ele>58.2</ele>
        <time>2024-11-24T08:07:15Z</time>
      </trkpt>
      <trkpt lat="45.08853" lon="-0.60503">
        <ele>58.2</ele>
        <time>2024-11-24T08:07:16Z</time>
      </trkpt>
      <trkpt lat="45.08854" lon="-0.60505">
        <ele>58.2</ele>
        <time>2024-11-24T08:07:17Z</time>
      </trkpt>
      <trkpt lat="45.08855" lon="-0.60506">
        <ele>58.2</ele>
        <time>2024-11-24T08:07:18Z</time>
      </trkpt>
      <trkpt lat="45.08855" lon="-0.60508">
        <ele>58.2</ele>
        <time>2024-11-24T08:07:19Z</time>
      </trkpt>
      <trkpt lat="45.08856" lon="-0.6051">
        <ele>58.1</ele>
        <time>2024-11-24T08:07:20Z</time>
      </trkpt>
      <trkpt lat="45.08857" lon="-0.60512">
        <ele>58.1</ele>
        <time>2024-11-24T08:07:21Z</time>
      </trkpt>
      <trkpt lat="45.08859" lon="-0.60513">
        <ele>58.1</ele>
        <time>2024-11-24T08:07:22Z</time>
      </trkpt>
      <trkpt lat="45.0886" lon="-0.60514">
        <ele>58.1</ele>
        <time>2024-11-24T08:07:23Z</time>
      </trkpt>
      <trkpt lat="45.0886" lon="-0.60515">
        <ele>58.1</ele>
        <time>2024-11-24T08:07:24Z</time>
      </trkpt>
      <trkpt lat="45.08862" lon="-0.60516">
        <ele>58.1</ele>
        <time>2024-11-24T08:07:25Z</time>
      </trkpt>
      <trkpt lat="45.08864" lon="-0.60516">
        <ele>58.1</ele>
        <time>2024-11-24T08:07:26Z</time>
      </trkpt>
      <trkpt lat="45.08865" lon="-0.60517">
        <ele>58.2</ele>
        <time>2024-11-24T08:07:27Z</time>
      </trkpt>
      <trkpt lat="45.08867" lon="-0.60518">
        <ele>58.3</ele>
        <time>2024-11-24T08:07:28Z</time>
      </trkpt>
      <trkpt lat="45.08869" lon="-0.60518">
        <ele>58.4</ele>
        <time>2024-11-24T08:07:29Z</time>
      </trkpt>
      <trkpt lat="45.0887" lon="-0.60518">
        <ele>58.4</ele>
        <time>2024-11-24T08:07:30Z</time>
      </trkpt>
      <trkpt lat="45.08871" lon="-0.60518">
        <ele>58.5</ele>
        <time>2024-11-24T08:07:31Z</time>
      </trkpt>
      <trkpt lat="45.08872" lon="-0.60518">
        <ele>58.6</ele>
        <time>2024-11-24T08:07:32Z</time>
      </trkpt>
      <trkpt lat="45.08874" lon="-0.60518">
        <ele>58.6</ele>
        <time>2024-11-24T08:07:33Z</time>
      </trkpt>
      <trkpt lat="45.08876" lon="-0.60517">
        <ele>58.7</ele>
        <time>2024-11-24T08:07:34Z</time>
      </trkpt>
      <trkpt lat="45.08877" lon="-0.60517">
        <ele>58.8</ele>
        <time>2024-11-24T08:07:35Z</time>
      </trkpt>
      <trkpt lat="45.08877" lon="-0.60517">
        <ele>58.8</ele>
        <time>2024-11-24T08:07:36Z</time>
      </trkpt>
      <trkpt lat="45.08879" lon="-0.60516">
        <ele>58.9</ele>
        <time>2024-11-24T08:07:37Z</time>
      </trkpt>
      <trkpt lat="45.08881" lon="-0.60515">
        <ele>59</ele>
        <time>2024-11-24T08:07:38Z</time>
      </trkpt>
      <trkpt lat="45.08882" lon="-0.60514">
        <ele>59</ele>
        <time>2024-11-24T08:07:39Z</time>
      </trkpt>
      <trkpt lat="45.08883" lon="-0.60514">
        <ele>59.1</ele>
        <time>2024-11-24T08:07:40Z</time>
      </trkpt>
      <trkpt lat="45.08886" lon="-0.60513">
        <ele>59.2</ele>
        <time>2024-11-24T08:07:41Z</time>
      </trkpt>
      <trkpt lat="45.08887" lon="-0.60513">
        <ele>59.3</ele>
        <time>2024-11-24T08:07:42Z</time>
      </trkpt>
      <trkpt lat="45.08888" lon="-0.60512">
        <ele>59.3</ele>
        <time>2024-11-24T08:07:43Z</time>
      </trkpt>
      <trkpt lat="45.08889" lon="-0.60511">
        <ele>59.4</ele>
        <time>2024-11-24T08:07:44Z</time>
      </trkpt>
      <trkpt lat="45.08891" lon="-0.60511">
        <ele>59.5</ele>
        <time>2024-11-24T08:07:45Z</time>
      </trkpt>
      <trkpt lat="45.08892" lon="-0.6051">
        <ele>59.5</ele>
        <time>2024-11-24T08:07:46Z</time>
      </trkpt>
      <trkpt lat="45.08894" lon="-0.60509">
        <ele>59.6</ele>
        <time>2024-11-24T08:07:47Z</time>
      </trkpt>
      <trkpt lat="45.08895" lon="-0.60509">
        <ele>59.7</ele>
        <time>2024-11-24T08:07:48Z</time>
      </trkpt>
      <trkpt lat="45.08896" lon="-0.60508">
        <ele>59.7</ele>
        <time>2024-11-24T08:07:49Z</time>
      </trkpt>
      <trkpt lat="45.08898" lon="-0.60507">
        <ele>59.8</ele>
        <time>2024-11-24T08:07:50Z</time>
      </trkpt>
      <trkpt lat="45.089" lon="-0.60507">
        <ele>59.9</ele>
        <time>2024-11-24T08:07:51Z</time>
      </trkpt>
      <trkpt lat="45.08901" lon="-0.60507">
        <ele>60</ele>
        <time>2024-11-24T08:07:52Z</time>
      </trkpt>
      <trkpt lat="45.08903" lon="-0.60506">
        <ele>60</ele>
        <time>2024-11-24T08:07:53Z</time>
      </trkpt>
      <trkpt lat="45.08904" lon="-0.60505">
        <ele>60.1</ele>
        <time>2024-11-24T08:07:54Z</time>
      </trkpt>
      <trkpt lat="45.08906" lon="-0.60504">
        <ele>60.2</ele>
        <time>2024-11-24T08:07:55Z</time>
      </trkpt>
      <trkpt lat="45.08907" lon="-0.60504">
        <ele>60.2</ele>
        <time>2024-11-24T08:07:56Z</time>
      </trkpt>
      <trkpt lat="45.08909" lon="-0.60503">
        <ele>60.3</ele>
        <time>2024-11-24T08:07:57Z</time>
      </trkpt>
      <trkpt lat="45.08975" lon="-0.6046">
        <ele>62.6</ele>
        <time>2024-11-24T08:08:45Z</time>
      </trkpt>
      <trkpt lat="45.08977" lon="-0.6046">
        <ele>62.7</ele>
        <time>2024-11-24T08:08:46Z</time>
      </trkpt>
      <trkpt lat="45.08979" lon="-0.60459">
        <ele>62.7</ele>
        <time>2024-11-24T08:08:47Z</time>
      </trkpt>
      <trkpt lat="45.0898" lon="-0.60458">
        <ele>62.7</ele>
        <time>2024-11-24T08:08:48Z</time>
      </trkpt>
      <trkpt lat="45.08981" lon="-0.60457">
        <ele>62.8</ele>
        <time>2024-11-24T08:08:49Z</time>
      </trkpt>
      <trkpt lat="45.08983" lon="-0.60455">
        <ele>62.8</ele>
        <time>2024-11-24T08:08:50Z</time>
      </trkpt>
      <trkpt lat="45.08984" lon="-0.60455">
        <ele>62.9</ele>
        <time>2024-11-24T08:08:51Z</time>
      </trkpt>
      <trkpt lat="45.08985" lon="-0.60453">
        <ele>62.9</ele>
        <time>2024-11-24T08:08:52Z</time>
      </trkpt>
      <trkpt lat="45.08987" lon="-0.60452">
        <ele>63</ele>
        <time>2024-11-24T08:08:53Z</time>
      </trkpt>
      <trkpt lat="45.08988" lon="-0.60452">
        <ele>63</ele>
        <time>2024-11-24T08:08:54Z</time>
      </trkpt>
      <trkpt lat="45.08989" lon="-0.60451">
        <ele>63.1</ele>
        <time>2024-11-24T08:08:55Z</time>
      </trkpt>
      <trkpt lat="45.08991" lon="-0.6045">
        <ele>63.1</ele>
        <time>2024-11-24T08:08:56Z</time>
      </trkpt>
      <trkpt lat="45.0905" lon="-0.60415">
        <ele>65.1</ele>
        <time>2024-11-24T08:09:38Z</time>
      </trkpt>
      <trkpt lat="45.09051" lon="-0.60414">
        <ele>65.1</ele>
        <time>2024-11-24T08:09:39Z</time>
      </trkpt>
      <trkpt lat="45.09052" lon="-0.60413">
        <ele>65.2</ele>
        <time>2024-11-24T08:09:40Z</time>
      </trkpt>
      <trkpt lat="45.09054" lon="-0.60413">
        <ele>65.2</ele>
        <time>2024-11-24T08:09:41Z</time>
      </trkpt>
      <trkpt lat="45.09055" lon="-0.60412">
        <ele>65.2</ele>
        <time>2024-11-24T08:09:42Z</time>
      </trkpt>
      <trkpt lat="45.09099" lon="-0.60384">
        <ele>66.1</ele>
        <time>2024-11-24T08:10:14Z</time>
      </trkpt>
      <trkpt lat="45.091" lon="-0.60384">
        <ele>66.1</ele>
        <time>2024-11-24T08:10:15Z</time>
      </trkpt>
      <trkpt lat="45.09102" lon="-0.60383">
        <ele>66.1</ele>
        <time>2024-11-24T08:10:16Z</time>
      </trkpt>
      <trkpt lat="45.09103" lon="-0.60382">
        <ele>66.2</ele>
        <time>2024-11-24T08:10:17Z</time>
      </trkpt>
      <trkpt lat="45.09104" lon="-0.60382">
        <ele>66.2</ele>
        <time>2024-11-24T08:10:18Z</time>
      </trkpt>
      <trkpt lat="45.09106" lon="-0.60381">
        <ele>66.2</ele>
        <time>2024-11-24T08:10:19Z</time>
      </trkpt>
      <trkpt lat="45.09107" lon="-0.60382">
        <ele>66.2</ele>
        <time>2024-11-24T08:10:20Z</time>
      </trkpt>
      <trkpt lat="45.09109" lon="-0.60381">
        <ele>66.2</ele>
        <time>2024-11-24T08:10:21Z</time>
      </trkpt>
      <trkpt lat="45.0911" lon="-0.6038">
        <ele>66.2</ele>
        <time>2024-11-24T08:10:22Z</time>
      </trkpt>
      <trkpt lat="45.09112" lon="-0.6038">
        <ele>66.2</ele>
        <time>2024-11-24T08:10:23Z</time>
      </trkpt>
      <trkpt lat="45.09113" lon="-0.6038">
        <ele>66.3</ele>
        <time>2024-11-24T08:10:24Z</time>
      </trkpt>
      <trkpt lat="45.09115" lon="-0.60381">
        <ele>66.2</ele>
        <time>2024-11-24T08:10:25Z</time>
      </trkpt>
      <trkpt lat="45.09116" lon="-0.60383">
        <ele>66.2</ele>
        <time>2024-11-24T08:10:26Z</time>
      </trkpt>
      <trkpt lat="45.09118" lon="-0.60384">
        <ele>66.2</ele>
        <time>2024-11-24T08:10:27Z</time>
      </trkpt>
      <trkpt lat="45.09162" lon="-0.60404">
        <ele>65</ele>
        <time>2024-11-24T08:10:58Z</time>
      </trkpt>
      <trkpt lat="45.09163" lon="-0.60404">
        <ele>64.9</ele>
        <time>2024-11-24T08:10:59Z</time>
      </trkpt>
      <trkpt lat="45.09164" lon="-0.60404">
        <ele>64.8</ele>
        <time>2024-11-24T08:11:00Z</time>
      </trkpt>
      <trkpt lat="45.09165" lon="-0.60404">
        <ele>64.8</ele>
        <time>2024-11-24T08:11:01Z</time>
      </trkpt>
      <trkpt lat="45.09166" lon="-0.60405">
        <ele>64.7</ele>
        <time>2024-11-24T08:11:02Z</time>
      </trkpt>
      <trkpt lat="45.09168" lon="-0.60406">
        <ele>64.6</ele>
        <time>2024-11-24T08:11:03Z</time>
      </trkpt>
      <trkpt lat="45.09169" lon="-0.60406">
        <ele>64.5</ele>
        <time>2024-11-24T08:11:04Z</time>
      </trkpt>
      <trkpt lat="45.09171" lon="-0.60407">
        <ele>64.4</ele>
        <time>2024-11-24T08:11:05Z</time>
      </trkpt>
      <trkpt lat="45.09174" lon="-0.60408">
        <ele>64.2</ele>
        <time>2024-11-24T08:11:06Z</time>
      </trkpt>
      <trkpt lat="45.09175" lon="-0.60408">
        <ele>64.1</ele>
        <time>2024-11-24T08:11:07Z</time>
      </trkpt>
      <trkpt lat="45.09177" lon="-0.60407">
        <ele>64.1</ele>
        <time>2024-11-24T08:11:08Z</time>
      </trkpt>
      <trkpt lat="45.09178" lon="-0.60407">
        <ele>64</ele>
        <time>2024-11-24T08:11:09Z</time>
      </trkpt>
      <trkpt lat="45.09179" lon="-0.60408">
        <ele>63.9</ele>
        <time>2024-11-24T08:11:10Z</time>
      </trkpt>
      <trkpt lat="45.09187" lon="-0.60404">
        <ele>63.7</ele>
        <time>2024-11-24T08:11:11Z</time>
      </trkpt>
      <trkpt lat="45.09192" lon="-0.60401">
        <ele>63.6</ele>
        <time>2024-11-24T08:11:12Z</time>
      </trkpt>
      <trkpt lat="45.09198" lon="-0.60398">
        <ele>63.5</ele>
        <time>2024-11-24T08:11:37Z</time>
      </trkpt>
      <trkpt lat="45.09203" lon="-0.60395">
        <ele>63.3</ele>
        <time>2024-11-24T08:11:38Z</time>
      </trkpt>
      <trkpt lat="45.09209" lon="-0.60392">
        <ele>63.4</ele>
        <time>2024-11-24T08:11:39Z</time>
      </trkpt>
      <trkpt lat="45.09214" lon="-0.60389">
        <ele>63.5</ele>
        <time>2024-11-24T08:11:40Z</time>
      </trkpt>
      <trkpt lat="45.09215" lon="-0.60386">
        <ele>63.6</ele>
        <time>2024-11-24T08:11:41Z</time>
      </trkpt>
      <trkpt lat="45.09215" lon="-0.60384">
        <ele>63.6</ele>
        <time>2024-11-24T08:11:42Z</time>
      </trkpt>
      <trkpt lat="45.09254" lon="-0.60377">
        <ele>60.9</ele>
        <time>2024-11-24T08:12:18Z</time>
      </trkpt>
      <trkpt lat="45.09255" lon="-0.60377">
        <ele>60.8</ele>
        <time>2024-11-24T08:12:19Z</time>
      </trkpt>
      <trkpt lat="45.09256" lon="-0.60378">
        <ele>60.7</ele>
        <time>2024-11-24T08:12:20Z</time>
      </trkpt>
      <trkpt lat="45.09258" lon="-0.60379">
        <ele>60.5</ele>
        <time>2024-11-24T08:12:21Z</time>
      </trkpt>
      <trkpt lat="45.09259" lon="-0.60379">
        <ele>60.4</ele>
        <time>2024-11-24T08:12:22Z</time>
      </trkpt>
      <trkpt lat="45.0926" lon="-0.6038">
        <ele>60.3</ele>
        <time>2024-11-24T08:12:23Z</time>
      </trkpt>
      <trkpt lat="45.09261" lon="-0.6038">
        <ele>60.2</ele>
        <time>2024-11-24T08:12:24Z</time>
      </trkpt>
      <trkpt lat="45.09263" lon="-0.60381">
        <ele>60.1</ele>
        <time>2024-11-24T08:12:25Z</time>
      </trkpt>
      <trkpt lat="45.09264" lon="-0.60382">
        <ele>59.9</ele>
        <time>2024-11-24T08:12:26Z</time>
      </trkpt>
      <trkpt lat="45.09265" lon="-0.60383">
        <ele>59.8</ele>
        <time>2024-11-24T08:12:27Z</time>
      </trkpt>
      <trkpt lat="45.09314" lon="-0.6037">
        <ele>55.2</ele>
        <time>2024-11-24T08:13:02Z</time>
      </trkpt>
      <trkpt lat="45.09315" lon="-0.6037">
        <ele>55.1</ele>
        <time>2024-11-24T08:13:03Z</time>
      </trkpt>
      <trkpt lat="45.09316" lon="-0.60369">
        <ele>55</ele>
        <time>2024-11-24T08:13:04Z</time>
      </trkpt>
      <trkpt lat="45.09317" lon="-0.60369">
        <ele>54.9</ele>
        <time>2024-11-24T08:13:05Z</time>
      </trkpt>
      <trkpt lat="45.09318" lon="-0.60368">
        <ele>54.7</ele>
        <time>2024-11-24T08:13:06Z</time>
      </trkpt>
      <trkpt lat="45.0932" lon="-0.60367">
        <ele>54.6</ele>
        <time>2024-11-24T08:13:07Z</time>
      </trkpt>
      <trkpt lat="45.09321" lon="-0.60366">
        <ele>54.5</ele>
        <time>2024-11-24T08:13:08Z</time>
      </trkpt>
      <trkpt lat="45.09322" lon="-0.60365">
        <ele>54.4</ele>
        <time>2024-11-24T08:13:09Z</time>
      </trkpt>
      <trkpt lat="45.09323" lon="-0.60364">
        <ele>54.3</ele>
        <time>2024-11-24T08:13:10Z</time>
      </trkpt>
      <trkpt lat="45.09324" lon="-0.60364">
        <ele>54.2</ele>
        <time>2024-11-24T08:13:11Z</time>
      </trkpt>
      <trkpt lat="45.09326" lon="-0.60363">
        <ele>54</ele>
        <time>2024-11-24T08:13:12Z</time>
      </trkpt>
      <trkpt lat="45.09393" lon="-0.60375">
        <ele>47.8</ele>
        <time>2024-11-24T08:14:00Z</time>
      </trkpt>
      <trkpt lat="45.09394" lon="-0.60375">
        <ele>47.7</ele>
        <time>2024-11-24T08:14:01Z</time>
      </trkpt>
      <trkpt lat="45.09395" lon="-0.60376">
        <ele>47.6</ele>
        <time>2024-11-24T08:14:02Z</time>
      </trkpt>
      <trkpt lat="45.09396" lon="-0.60377">
        <ele>47.6</ele>
        <time>2024-11-24T08:14:03Z</time>
      </trkpt>
      <trkpt lat="45.09397" lon="-0.60377">
        <ele>47.5</ele>
        <time>2024-11-24T08:14:04Z</time>
      </trkpt>
      <trkpt lat="45.09398" lon="-0.60378">
        <ele>47.4</ele>
        <time>2024-11-24T08:14:05Z</time>
      </trkpt>
      <trkpt lat="45.094" lon="-0.6038">
        <ele>47.3</ele>
        <time>2024-11-24T08:14:06Z</time>
      </trkpt>
      <trkpt lat="45.09401" lon="-0.60381">
        <ele>47.1</ele>
        <time>2024-11-24T08:14:07Z</time>
      </trkpt>
      <trkpt lat="45.09403" lon="-0.60382">
        <ele>47</ele>
        <time>2024-11-24T08:14:08Z</time>
      </trkpt>
      <trkpt lat="45.09404" lon="-0.60383">
        <ele>46.9</ele>
        <time>2024-11-24T08:14:09Z</time>
      </trkpt>
      <trkpt lat="45.09405" lon="-0.60384">
        <ele>46.8</ele>
        <time>2024-11-24T08:14:10Z</time>
      </trkpt>
      <trkpt lat="45.09406" lon="-0.60385">
        <ele>46.7</ele>
        <time>2024-11-24T08:14:11Z</time>
      </trkpt>
      <trkpt lat="45.09408" lon="-0.60385">
        <ele>46.6</ele>
        <time>2024-11-24T08:14:12Z</time>
      </trkpt>
      <trkpt lat="45.09474" lon="-0.60427">
        <ele>43.1</ele>
        <time>2024-11-24T08:15:00Z</time>
      </trkpt>
      <trkpt lat="45.09478" lon="-0.6043">
        <ele>43</ele>
        <time>2024-11-24T08:15:01Z</time>
      </trkpt>
      <trkpt lat="45.09479" lon="-0.6043">
        <ele>43</ele>
        <time>2024-11-24T08:15:02Z</time>
      </trkpt>
      <trkpt lat="45.0948" lon="-0.60431">
        <ele>42.9</ele>
        <time>2024-11-24T08:15:03Z</time>
      </trkpt>
      <trkpt lat="45.09481" lon="-0.60432">
        <ele>42.9</ele>
        <time>2024-11-24T08:15:04Z</time>
      </trkpt>
      <trkpt lat="45.09483" lon="-0.60432">
        <ele>42.9</ele>
        <time>2024-11-24T08:15:05Z</time>
      </trkpt>
      <trkpt lat="45.09484" lon="-0.60434">
        <ele>42.8</ele>
        <time>2024-11-24T08:15:06Z</time>
      </trkpt>
      <trkpt lat="45.09485" lon="-0.60434">
        <ele>42.8</ele>
        <time>2024-11-24T08:15:07Z</time>
      </trkpt>
      <trkpt lat="45.09487" lon="-0.60435">
        <ele>42.8</ele>
        <time>2024-11-24T08:15:08Z</time>
      </trkpt>
      <trkpt lat="45.09488" lon="-0.60436">
        <ele>42.7</ele>
        <time>2024-11-24T08:15:09Z</time>
      </trkpt>
      <trkpt lat="45.0949" lon="-0.60437">
        <ele>42.7</ele>
        <time>2024-11-24T08:15:10Z</time>
      </trkpt>
      <trkpt lat="45.09491" lon="-0.60438">
        <ele>42.7</ele>
        <time>2024-11-24T08:15:11Z</time>
      </trkpt>
      <trkpt lat="45.09503" lon="-0.60446">
        <ele>42.5</ele>
        <time>2024-11-24T08:15:12Z</time>
      </trkpt>
      <trkpt lat="45.09514" lon="-0.60453">
        <ele>42.4</ele>
        <time>2024-11-24T08:15:57Z</time>
      </trkpt>
      <trkpt lat="45.09525" lon="-0.6046">
        <ele>42.3</ele>
        <time>2024-11-24T08:15:58Z</time>
      </trkpt>
      <trkpt lat="45.09536" lon="-0.60467">
        <ele>42.2</ele>
        <time>2024-11-24T08:15:59Z</time>
      </trkpt>
      <trkpt lat="45.09547" lon="-0.60474">
        <ele>42.2</ele>
        <time>2024-11-24T08:16:00Z</time>
      </trkpt>
      <trkpt lat="45.09558" lon="-0.6048">
        <ele>42.1</ele>
        <time>2024-11-24T08:16:01Z</time>
      </trkpt>
      <trkpt lat="45.0956" lon="-0.60481">
        <ele>42.1</ele>
        <time>2024-11-24T08:16:02Z</time>
      </trkpt>
      <trkpt lat="45.09561" lon="-0.60482">
        <ele>42.1</ele>
        <time>2024-11-24T08:16:03Z</time>
      </trkpt>
      <trkpt lat="45.09562" lon="-0.60482">
        <ele>42.1</ele>
        <time>2024-11-24T08:16:04Z</time>
      </trkpt>
      <trkpt lat="45.09563" lon="-0.60482">
        <ele>42</ele>
        <time>2024-11-24T08:16:05Z</time>
      </trkpt>
      <trkpt lat="45.09565" lon="-0.60483">
        <ele>42</ele>
        <time>2024-11-24T08:16:06Z</time>
      </trkpt>
      <trkpt lat="45.09566" lon="-0.60484">
        <ele>42</ele>
        <time>2024-11-24T08:16:07Z</time>
      </trkpt>
      <trkpt lat="45.09567" lon="-0.60484">
        <ele>42</ele>
        <time>2024-11-24T08:16:08Z</time>
      </trkpt>
      <trkpt lat="45.09568" lon="-0.60485">
        <ele>42</ele>
        <time>2024-11-24T08:16:09Z</time>
      </trkpt>
      <trkpt lat="45.09569" lon="-0.60486">
        <ele>41.9</ele>
        <time>2024-11-24T08:16:10Z</time>
      </trkpt>
      <trkpt lat="45.0957" lon="-0.60487">
        <ele>41.9</ele>
        <time>2024-11-24T08:16:11Z</time>
      </trkpt>
      <trkpt lat="45.09583" lon="-0.60495">
        <ele>41.6</ele>
        <time>2024-11-24T08:16:12Z</time>
      </trkpt>
      <trkpt lat="45.09593" lon="-0.60502">
        <ele>41.2</ele>
        <time>2024-11-24T08:16:13Z</time>
      </trkpt>
      <trkpt lat="45.09604" lon="-0.60509">
        <ele>40.7</ele>
        <time>2024-11-24T08:17:01Z</time>
      </trkpt>
      <trkpt lat="45.09615" lon="-0.60516">
        <ele>40.2</ele>
        <time>2024-11-24T08:17:02Z</time>
      </trkpt>
      <trkpt lat="45.09626" lon="-0.60523">
        <ele>39.5</ele>
        <time>2024-11-24T08:17:03Z</time>
      </trkpt>
      <trkpt lat="45.09637" lon="-0.6053">
        <ele>38.9</ele>
        <time>2024-11-24T08:17:04Z</time>
      </trkpt>
      <trkpt lat="45.09639" lon="-0.60531">
        <ele>38.9</ele>
        <time>2024-11-24T08:17:05Z</time>
      </trkpt>
      <trkpt lat="45.0964" lon="-0.60532">
        <ele>38.8</ele>
        <time>2024-11-24T08:17:06Z</time>
      </trkpt>
      <trkpt lat="45.09641" lon="-0.60532">
        <ele>38.8</ele>
        <time>2024-11-24T08:17:07Z</time>
      </trkpt>
      <trkpt lat="45.09642" lon="-0.60533">
        <ele>38.7</ele>
        <time>2024-11-24T08:17:08Z</time>
      </trkpt>
      <trkpt lat="45.09644" lon="-0.60534">
        <ele>38.6</ele>
        <time>2024-11-24T08:17:09Z</time>
      </trkpt>
      <trkpt lat="45.09645" lon="-0.60535">
        <ele>38.6</ele>
        <time>2024-11-24T08:17:10Z</time>
      </trkpt>
      <trkpt lat="45.09646" lon="-0.60535">
        <ele>38.5</ele>
        <time>2024-11-24T08:17:11Z</time>
      </trkpt>
      <trkpt lat="45.0965" lon="-0.60538">
        <ele>38.4</ele>
        <time>2024-11-24T08:17:12Z</time>
      </trkpt>
      <trkpt lat="45.09652" lon="-0.60541">
        <ele>38.3</ele>
        <time>2024-11-24T08:17:13Z</time>
      </trkpt>
      <trkpt lat="45.09654" lon="-0.60543">
        <ele>38.2</ele>
        <time>2024-11-24T08:17:18Z</time>
      </trkpt>
      <trkpt lat="45.09657" lon="-0.60546">
        <ele>38.1</ele>
        <time>2024-11-24T08:17:19Z</time>
      </trkpt>
      <trkpt lat="45.09658" lon="-0.60547">
        <ele>38.1</ele>
        <time>2024-11-24T08:17:20Z</time>
      </trkpt>
      <trkpt lat="45.0966" lon="-0.60548">
        <ele>38</ele>
        <time>2024-11-24T08:17:21Z</time>
      </trkpt>
      <trkpt lat="45.09661" lon="-0.60549">
        <ele>38</ele>
        <time>2024-11-24T08:17:22Z</time>
      </trkpt>
      <trkpt lat="45.09662" lon="-0.6055">
        <ele>38</ele>
        <time>2024-11-24T08:17:23Z</time>
      </trkpt>
      <trkpt lat="45.09664" lon="-0.60551">
        <ele>37.9</ele>
        <time>2024-11-24T08:17:24Z</time>
      </trkpt>
      <trkpt lat="45.09665" lon="-0.60552">
        <ele>37.9</ele>
        <time>2024-11-24T08:17:25Z</time>
      </trkpt>
      <trkpt lat="45.09666" lon="-0.60553">
        <ele>37.8</ele>
        <time>2024-11-24T08:17:26Z</time>
      </trkpt>
      <trkpt lat="45.09667" lon="-0.60554">
        <ele>37.8</ele>
        <time>2024-11-24T08:17:27Z</time>
      </trkpt>
      <trkpt lat="45.09668" lon="-0.60555">
        <ele>37.7</ele>
        <time>2024-11-24T08:17:28Z</time>
      </trkpt>
      <trkpt lat="45.09669" lon="-0.60555">
        <ele>37.7</ele>
        <time>2024-11-24T08:17:29Z</time>
      </trkpt>
      <trkpt lat="45.0967" lon="-0.60554">
        <ele>37.7</ele>
        <time>2024-11-24T08:17:30Z</time>
      </trkpt>
      <trkpt lat="45.09671" lon="-0.60554">
        <ele>37.6</ele>
        <time>2024-11-24T08:17:31Z</time>
      </trkpt>
      <trkpt lat="45.09673" lon="-0.60554">
        <ele>37.6</ele>
        <time>2024-11-24T08:17:32Z</time>
      </trkpt>
      <trkpt lat="45.09674" lon="-0.60554">
        <ele>37.6</ele>
        <time>2024-11-24T08:17:33Z</time>
      </trkpt>
      <trkpt lat="45.09675" lon="-0.60554">
        <ele>37.5</ele>
        <time>2024-11-24T08:17:34Z</time>
      </trkpt>
      <trkpt lat="45.09676" lon="-0.60555">
        <ele>37.5</ele>
        <time>2024-11-24T08:17:35Z</time>
      </trkpt>
      <trkpt lat="45.09676" lon="-0.60556">
        <ele>37.5</ele>
        <time>2024-11-24T08:17:36Z</time>
      </trkpt>
      <trkpt lat="45.09677" lon="-0.60557">
        <ele>37.4</ele>
        <time>2024-11-24T08:17:37Z</time>
      </trkpt>
      <trkpt lat="45.09678" lon="-0.60557">
        <ele>37.4</ele>
        <time>2024-11-24T08:17:38Z</time>
      </trkpt>
      <trkpt lat="45.09679" lon="-0.60557">
        <ele>37.4</ele>
        <time>2024-11-24T08:17:39Z</time>
      </trkpt>
      <trkpt lat="45.0968" lon="-0.60558">
        <ele>37.3</ele>
        <time>2024-11-24T08:17:40Z</time>
      </trkpt>
      <trkpt lat="45.09681" lon="-0.60558">
        <ele>37.3</ele>
        <time>2024-11-24T08:17:41Z</time>
      </trkpt>
      <trkpt lat="45.09682" lon="-0.60558">
        <ele>37.3</ele>
        <time>2024-11-24T08:17:42Z</time>
      </trkpt>
      <trkpt lat="45.09683" lon="-0.60559">
        <ele>37.2</ele>
        <time>2024-11-24T08:17:43Z</time>
      </trkpt>
      <trkpt lat="45.09684" lon="-0.60559">
        <ele>37.2</ele>
        <time>2024-11-24T08:17:44Z</time>
      </trkpt>
      <trkpt lat="45.09685" lon="-0.6056">
        <ele>37.1</ele>
        <time>2024-11-24T08:17:45Z</time>
      </trkpt>
      <trkpt lat="45.09686" lon="-0.60561">
        <ele>37.1</ele>
        <time>2024-11-24T08:17:46Z</time>
      </trkpt>
      <trkpt lat="45.09687" lon="-0.60562">
        <ele>37.1</ele>
        <time>2024-11-24T08:17:47Z</time>
      </trkpt>
      <trkpt lat="45.09688" lon="-0.60562">
        <ele>37</ele>
        <time>2024-11-24T08:17:48Z</time>
      </trkpt>
      <trkpt lat="45.09689" lon="-0.60563">
        <ele>37</ele>
        <time>2024-11-24T08:17:49Z</time>
      </trkpt>
      <trkpt lat="45.0969" lon="-0.60564">
        <ele>36.9</ele>
        <time>2024-11-24T08:17:50Z</time>
      </trkpt>
      <trkpt lat="45.09692" lon="-0.60566">
        <ele>36.9</ele>
        <time>2024-11-24T08:17:51Z</time>
      </trkpt>
      <trkpt lat="45.09693" lon="-0.60567">
        <ele>36.8</ele>
        <time>2024-11-24T08:17:52Z</time>
      </trkpt>
      <trkpt lat="45.09694" lon="-0.60567">
        <ele>36.8</ele>
        <time>2024-11-24T08:17:53Z</time>
      </trkpt>
      <trkpt lat="45.09696" lon="-0.60568">
        <ele>36.8</ele>
        <time>2024-11-24T08:17:54Z</time>
      </trkpt>
      <trkpt lat="45.09697" lon="-0.60569">
        <ele>36.7</ele>
        <time>2024-11-24T08:17:55Z</time>
      </trkpt>
      <trkpt lat="45.09698" lon="-0.60569">
        <ele>36.7</ele>
        <time>2024-11-24T08:17:56Z</time>
      </trkpt>
      <trkpt lat="45.09699" lon="-0.6057">
        <ele>36.7</ele>
        <time>2024-11-24T08:17:57Z</time>
      </trkpt>
      <trkpt lat="45.097" lon="-0.6057">
        <ele>36.6</ele>
        <time>2024-11-24T08:17:58Z</time>
      </trkpt>
      <trkpt lat="45.09701" lon="-0.60571">
        <ele>36.6</ele>
        <time>2024-11-24T08:17:59Z</time>
      </trkpt>
      <trkpt lat="45.09702" lon="-0.60571">
        <ele>36.6</ele>
        <time>2024-11-24T08:18:00Z</time>
      </trkpt>
      <trkpt lat="45.09703" lon="-0.60572">
        <ele>36.6</ele>
        <time>2024-11-24T08:18:01Z</time>
      </trkpt>
      <trkpt lat="45.09704" lon="-0.60572">
        <ele>36.5</ele>
        <time>2024-11-24T08:18:02Z</time>
      </trkpt>
      <trkpt lat="45.09706" lon="-0.60573">
        <ele>36.5</ele>
        <time>2024-11-24T08:18:03Z</time>
      </trkpt>
      <trkpt lat="45.09707" lon="-0.60574">
        <ele>36.5</ele>
        <time>2024-11-24T08:18:04Z</time>
      </trkpt>
      <trkpt lat="45.09707" lon="-0.60575">
        <ele>36.4</ele>
        <time>2024-11-24T08:18:05Z</time>
      </trkpt>
      <trkpt lat="45.09709" lon="-0.60576">
        <ele>36.4</ele>
        <time>2024-11-24T08:18:06Z</time>
      </trkpt>
      <trkpt lat="45.0971" lon="-0.60577">
        <ele>36.4</ele>
        <time>2024-11-24T08:18:07Z</time>
      </trkpt>
      <trkpt lat="45.09711" lon="-0.60577">
        <ele>36.3</ele>
        <time>2024-11-24T08:18:08Z</time>
      </trkpt>
      <trkpt lat="45.09712" lon="-0.60578">
        <ele>36.3</ele>
        <time>2024-11-24T08:18:09Z</time>
      </trkpt>
      <trkpt lat="45.09713" lon="-0.60579">
        <ele>36.3</ele>
        <time>2024-11-24T08:18:10Z</time>
      </trkpt>
      <trkpt lat="45.09715" lon="-0.6058">
        <ele>36.2</ele>
        <time>2024-11-24T08:18:11Z</time>
      </trkpt>
      <trkpt lat="45.09716" lon="-0.60581">
        <ele>36.2</ele>
        <time>2024-11-24T08:18:12Z</time>
      </trkpt>
      <trkpt lat="45.09717" lon="-0.60583">
        <ele>36.1</ele>
        <time>2024-11-24T08:18:13Z</time>
      </trkpt>
      <trkpt lat="45.09718" lon="-0.60584">
        <ele>36.1</ele>
        <time>2024-11-24T08:18:14Z</time>
      </trkpt>
      <trkpt lat="45.09719" lon="-0.60584">
        <ele>36.1</ele>
        <time>2024-11-24T08:18:15Z</time>
      </trkpt>
      <trkpt lat="45.09721" lon="-0.60586">
        <ele>36</ele>
        <time>2024-11-24T08:18:16Z</time>
      </trkpt>
      <trkpt lat="45.09722" lon="-0.60586">
        <ele>36</ele>
        <time>2024-11-24T08:18:17Z</time>
      </trkpt>
      <trkpt lat="45.09722" lon="-0.60587">
        <ele>35.9</ele>
        <time>2024-11-24T08:18:18Z</time>
      </trkpt>
      <trkpt lat="45.09724" lon="-0.60589">
        <ele>35.9</ele>
        <time>2024-11-24T08:18:19Z</time>
      </trkpt>
      <trkpt lat="45.09725" lon="-0.60589">
        <ele>35.8</ele>
        <time>2024-11-24T08:18:20Z</time>
      </trkpt>
      <trkpt lat="45.09726" lon="-0.6059">
        <ele>35.8</ele>
        <time>2024-11-24T08:18:21Z</time>
      </trkpt>
      <trkpt lat="45.09727" lon="-0.60592">
        <ele>35.7</ele>
        <time>2024-11-24T08:18:22Z</time>
      </trkpt>
      <trkpt lat="45.09729" lon="-0.60594">
        <ele>35.6</ele>
        <time>2024-11-24T08:18:23Z</time>
      </trkpt>
      <trkpt lat="45.0973" lon="-0.60595">
        <ele>35.6</ele>
        <time>2024-11-24T08:18:24Z</time>
      </trkpt>
      <trkpt lat="45.09731" lon="-0.60597">
        <ele>35.5</ele>
        <time>2024-11-24T08:18:25Z</time>
      </trkpt>
      <trkpt lat="45.09732" lon="-0.60598">
        <ele>35.5</ele>
        <time>2024-11-24T08:18:26Z</time>
      </trkpt>
      <trkpt lat="45.09733" lon="-0.606">
        <ele>35.4</ele>
        <time>2024-11-24T08:18:27Z</time>
      </trkpt>
      <trkpt lat="45.09734" lon="-0.60601">
        <ele>35.3</ele>
        <time>2024-11-24T08:18:28Z</time>
      </trkpt>
      <trkpt lat="45.09735" lon="-0.60602">
        <ele>35.3</ele>
        <time>2024-11-24T08:18:29Z</time>
      </trkpt>
      <trkpt lat="45.09737" lon="-0.60604">
        <ele>35.2</ele>
        <time>2024-11-24T08:18:30Z</time>
      </trkpt>
      <trkpt lat="45.09738" lon="-0.60605">
        <ele>35.2</ele>
        <time>2024-11-24T08:18:31Z</time>
      </trkpt>
      <trkpt lat="45.09738" lon="-0.60606">
        <ele>35.1</ele>
        <time>2024-11-24T08:18:32Z</time>
      </trkpt>
      <trkpt lat="45.09739" lon="-0.60608">
        <ele>35.1</ele>
        <time>2024-11-24T08:18:33Z</time>
      </trkpt>
      <trkpt lat="45.0974" lon="-0.60609">
        <ele>35</ele>
        <time>2024-11-24T08:18:34Z</time>
      </trkpt>
      <trkpt lat="45.09741" lon="-0.6061">
        <ele>35</ele>
        <time>2024-11-24T08:18:35Z</time>
      </trkpt>
      <trkpt lat="45.09742" lon="-0.60612">
        <ele>34.9</ele>
        <time>2024-11-24T08:18:36Z</time>
      </trkpt>
      <trkpt lat="45.09743" lon="-0.60613">
        <ele>34.9</ele>
        <time>2024-11-24T08:18:37Z</time>
      </trkpt>
      <trkpt lat="45.09743" lon="-0.60614">
        <ele>34.8</ele>
        <time>2024-11-24T08:18:38Z</time>
      </trkpt>
      <trkpt lat="45.09744" lon="-0.60615">
        <ele>34.8</ele>
        <time>2024-11-24T08:18:39Z</time>
      </trkpt>
      <trkpt lat="45.09745" lon="-0.60616">
        <ele>34.7</ele>
        <time>2024-11-24T08:18:40Z</time>
      </trkpt>
      <trkpt lat="45.09746" lon="-0.60617">
        <ele>34.7</ele>
        <time>2024-11-24T08:18:41Z</time>
      </trkpt>
      <trkpt lat="45.09747" lon="-0.60618">
        <ele>34.6</ele>
        <time>2024-11-24T08:18:42Z</time>
      </trkpt>
      <trkpt lat="45.09748" lon="-0.6062">
        <ele>34.6</ele>
        <time>2024-11-24T08:18:43Z</time>
      </trkpt>
      <trkpt lat="45.09748" lon="-0.60621">
        <ele>34.5</ele>
        <time>2024-11-24T08:18:44Z</time>
      </trkpt>
      <trkpt lat="45.0975" lon="-0.60623">
        <ele>34.5</ele>
        <time>2024-11-24T08:18:45Z</time>
      </trkpt>
      <trkpt lat="45.0975" lon="-0.60624">
        <ele>34.4</ele>
        <time>2024-11-24T08:18:46Z</time>
      </trkpt>
      <trkpt lat="45.09751" lon="-0.60625">
        <ele>34.4</ele>
        <time>2024-11-24T08:18:47Z</time>
      </trkpt>
      <trkpt lat="45.09752" lon="-0.60627">
        <ele>34.3</ele>
        <time>2024-11-24T08:18:48Z</time>
      </trkpt>
      <trkpt lat="45.09753" lon="-0.60628">
        <ele>34.3</ele>
        <time>2024-11-24T08:18:49Z</time>
      </trkpt>
      <trkpt lat="45.09753" lon="-0.60629">
        <ele>34.3</ele>
        <time>2024-11-24T08:18:50Z</time>
      </trkpt>
      <trkpt lat="45.09754" lon="-0.60631">
        <ele>34.2</ele>
        <time>2024-11-24T08:18:51Z</time>
      </trkpt>
      <trkpt lat="45.09755" lon="-0.60632">
        <ele>34.2</ele>
        <time>2024-11-24T08:18:52Z</time>
      </trkpt>
      <trkpt lat="45.09756" lon="-0.60633">
        <ele>34.1</ele>
        <time>2024-11-24T08:18:53Z</time>
      </trkpt>
      <trkpt lat="45.09757" lon="-0.60635">
        <ele>34.1</ele>
        <time>2024-11-24T08:18:54Z</time>
      </trkpt>
      <trkpt lat="45.09758" lon="-0.60636">
        <ele>34</ele>
        <time>2024-11-24T08:18:55Z</time>
      </trkpt>
      <trkpt lat="45.09758" lon="-0.60637">
        <ele>34</ele>
        <time>2024-11-24T08:18:56Z</time>
      </trkpt>
      <trkpt lat="45.09759" lon="-0.60638">
        <ele>33.9</ele>
        <time>2024-11-24T08:18:57Z</time>
      </trkpt>
      <trkpt lat="45.09761" lon="-0.6064">
        <ele>33.9</ele>
        <time>2024-11-24T08:18:58Z</time>
      </trkpt>
      <trkpt lat="45.09762" lon="-0.60641">
        <ele>33.8</ele>
        <time>2024-11-24T08:18:59Z</time>
      </trkpt>
      <trkpt lat="45.09763" lon="-0.60642">
        <ele>33.8</ele>
        <time>2024-11-24T08:19:00Z</time>
      </trkpt>
      <trkpt lat="45.09764" lon="-0.60644">
        <ele>33.7</ele>
        <time>2024-11-24T08:19:01Z</time>
      </trkpt>
      <trkpt lat="45.09765" lon="-0.60645">
        <ele>33.7</ele>
        <time>2024-11-24T08:19:02Z</time>
      </trkpt>
      <trkpt lat="45.09766" lon="-0.60647">
        <ele>33.6</ele>
        <time>2024-11-24T08:19:03Z</time>
      </trkpt>
      <trkpt lat="45.09767" lon="-0.60649">
        <ele>33.6</ele>
        <time>2024-11-24T08:19:04Z</time>
      </trkpt>
      <trkpt lat="45.09768" lon="-0.60651">
        <ele>33.5</ele>
        <time>2024-11-24T08:19:05Z</time>
      </trkpt>
      <trkpt lat="45.09769" lon="-0.60653">
        <ele>33.4</ele>
        <time>2024-11-24T08:19:06Z</time>
      </trkpt>
      <trkpt lat="45.0977" lon="-0.60654">
        <ele>33.4</ele>
        <time>2024-11-24T08:19:07Z</time>
      </trkpt>
      <trkpt lat="45.09771" lon="-0.60656">
        <ele>33.3</ele>
        <time>2024-11-24T08:19:08Z</time>
      </trkpt>
      <trkpt lat="45.09771" lon="-0.60658">
        <ele>33.3</ele>
        <time>2024-11-24T08:19:09Z</time>
      </trkpt>
      <trkpt lat="45.09772" lon="-0.6066">
        <ele>33.2</ele>
        <time>2024-11-24T08:19:10Z</time>
      </trkpt>
      <trkpt lat="45.09773" lon="-0.60662">
        <ele>33.2</ele>
        <time>2024-11-24T08:19:11Z</time>
      </trkpt>
      <trkpt lat="45.09773" lon="-0.60664">
        <ele>33.1</ele>
        <time>2024-11-24T08:19:12Z</time>
      </trkpt>
      <trkpt lat="45.09774" lon="-0.60667">
        <ele>33</ele>
        <time>2024-11-24T08:19:13Z</time>
      </trkpt>
      <trkpt lat="45.09774" lon="-0.60669">
        <ele>33</ele>
        <time>2024-11-24T08:19:14Z</time>
      </trkpt>
      <trkpt lat="45.09775" lon="-0.60671">
        <ele>32.9</ele>
        <time>2024-11-24T08:19:15Z</time>
      </trkpt>
      <trkpt lat="45.09776" lon="-0.60673">
        <ele>32.8</ele>
        <time>2024-11-24T08:19:16Z</time>
      </trkpt>
      <trkpt lat="45.09777" lon="-0.60675">
        <ele>32.8</ele>
        <time>2024-11-24T08:19:17Z</time>
      </trkpt>
      <trkpt lat="45.09778" lon="-0.60677">
        <ele>32.7</ele>
        <time>2024-11-24T08:19:18Z</time>
      </trkpt>
      <trkpt lat="45.09779" lon="-0.60679">
        <ele>32.7</ele>
        <time>2024-11-24T08:19:19Z</time>
      </trkpt>
      <trkpt lat="45.0978" lon="-0.60681">
        <ele>32.6</ele>
        <time>2024-11-24T08:19:20Z</time>
      </trkpt>
      <trkpt lat="45.0978" lon="-0.60683">
        <ele>32.5</ele>
        <time>2024-11-24T08:19:21Z</time>
      </trkpt>
      <trkpt lat="45.09781" lon="-0.60685">
        <ele>32.5</ele>
        <time>2024-11-24T08:19:22Z</time>
      </trkpt>
      <trkpt lat="45.09809" lon="-0.60739">
        <ele>30.7</ele>
        <time>2024-11-24T08:19:56Z</time>
      </trkpt>
      <trkpt lat="45.09809" lon="-0.60739">
        <ele>30.7</ele>
        <time>2024-11-24T08:19:57Z</time>
      </trkpt>
      <trkpt lat="45.09809" lon="-0.60739">
        <ele>30.7</ele>
        <time>2024-11-24T08:19:58Z</time>
      </trkpt>
      <trkpt lat="45.09809" lon="-0.60739">
        <ele>30.7</ele>
        <time>2024-11-24T08:19:59Z</time>
      </trkpt>
      <trkpt lat="45.09809" lon="-0.60739">
        <ele>30.7</ele>
        <time>2024-11-24T08:20:00Z</time>
      </trkpt>
      <trkpt lat="45.09809" lon="-0.60739">
        <ele>30.7</ele>
        <time>2024-11-24T08:20:01Z</time>
      </trkpt>
      <trkpt lat="45.09809" lon="-0.60739">
        <ele>30.7</ele>
        <time>2024-11-24T08:20:02Z</time>
      </trkpt>
      <trkpt lat="45.09809" lon="-0.60739">
        <ele>30.7</ele>
        <time>2024-11-24T08:20:03Z</time>
      </trkpt>
      <trkpt lat="45.09809" lon="-0.60739">
        <ele>30.7</ele>
        <time>2024-11-24T08:20:04Z</time>
      </trkpt>
      <trkpt lat="45.0981" lon="-0.6074">
        <ele>30.6</ele>
        <time>2024-11-24T08:20:05Z</time>
      </trkpt>
      <trkpt lat="45.0981" lon="-0.60741">
        <ele>30.6</ele>
        <time>2024-11-24T08:20:06Z</time>
      </trkpt>
      <trkpt lat="45.0981" lon="-0.60743">
        <ele>30.6</ele>
        <time>2024-11-24T08:20:07Z</time>
      </trkpt>
      <trkpt lat="45.09811" lon="-0.60747">
        <ele>30.5</ele>
        <time>2024-11-24T08:20:08Z</time>
      </trkpt>
      <trkpt lat="45.09812" lon="-0.60748">
        <ele>30.4</ele>
        <time>2024-11-24T08:20:09Z</time>
      </trkpt>
      <trkpt lat="45.09812" lon="-0.6075">
        <ele>30.4</ele>
        <time>2024-11-24T08:20:10Z</time>
      </trkpt>
      <trkpt lat="45.09813" lon="-0.60752">
        <ele>30.3</ele>
        <time>2024-11-24T08:20:11Z</time>
      </trkpt>
      <trkpt lat="45.09814" lon="-0.60754">
        <ele>30.3</ele>
        <time>2024-11-24T08:20:12Z</time>
      </trkpt>
      <trkpt lat="45.09815" lon="-0.60756">
        <ele>30.2</ele>
        <time>2024-11-24T08:20:13Z</time>
      </trkpt>
      <trkpt lat="45.09818" lon="-0.60759">
        <ele>30.1</ele>
        <time>2024-11-24T08:20:14Z</time>
      </trkpt>
      <trkpt lat="45.09818" lon="-0.6076">
        <ele>30.1</ele>
        <time>2024-11-24T08:20:15Z</time>
      </trkpt>
      <trkpt lat="45.09819" lon="-0.60761">
        <ele>30</ele>
        <time>2024-11-24T08:20:16Z</time>
      </trkpt>
      <trkpt lat="45.0982" lon="-0.60762">
        <ele>30</ele>
        <time>2024-11-24T08:20:17Z</time>
      </trkpt>
      <trkpt lat="45.09819" lon="-0.60762">
        <ele>30</ele>
        <time>2024-11-24T08:20:18Z</time>
      </trkpt>
      <trkpt lat="45.09819" lon="-0.60761">
        <ele>30</ele>
        <time>2024-11-24T08:20:19Z</time>
      </trkpt>
      <trkpt lat="45.09819" lon="-0.60761">
        <ele>30</ele>
        <time>2024-11-24T08:20:20Z</time>
      </trkpt>
      <trkpt lat="45.09819" lon="-0.60761">
        <ele>30</ele>
        <time>2024-11-24T08:20:21Z</time>
      </trkpt>
      <trkpt lat="45.09819" lon="-0.60761">
        <ele>30</ele>
        <time>2024-11-24T08:20:22Z</time>
      </trkpt>
      <trkpt lat="45.09819" lon="-0.60761">
        <ele>30</ele>
        <time>2024-11-24T08:20:23Z</time>
      </trkpt>
      <trkpt lat="45.09819" lon="-0.60761">
        <ele>30</ele>
        <time>2024-11-24T08:20:25Z</time>
      </trkpt>
      <trkpt lat="45.09819" lon="-0.60761">
        <ele>30</ele>
        <time>2024-11-24T08:20:26Z</time>
      </trkpt>
      <trkpt lat="45.09819" lon="-0.60761">
        <ele>30</ele>
        <time>2024-11-24T08:20:27Z</time>
      </trkpt>
      <trkpt lat="45.0982" lon="-0.60761">
        <ele>30</ele>
        <time>2024-11-24T08:20:28Z</time>
      </trkpt>
      <trkpt lat="45.0982" lon="-0.60762">
        <ele>29.9</ele>
        <time>2024-11-24T08:20:29Z</time>
      </trkpt>
      <trkpt lat="45.0982" lon="-0.60762">
        <ele>29.9</ele>
        <time>2024-11-24T08:20:30Z</time>
      </trkpt>
      <trkpt lat="45.0982" lon="-0.60762">
        <ele>29.9</ele>
        <time>2024-11-24T08:20:31Z</time>
      </trkpt>
      <trkpt lat="45.09821" lon="-0.60762">
        <ele>29.9</ele>
        <time>2024-11-24T08:20:32Z</time>
      </trkpt>
      <trkpt lat="45.09821" lon="-0.60762">
        <ele>29.9</ele>
        <time>2024-11-24T08:20:33Z</time>
      </trkpt>
      <trkpt lat="45.09821" lon="-0.60763">
        <ele>29.9</ele>
        <time>2024-11-24T08:20:34Z</time>
      </trkpt>
      <trkpt lat="45.09821" lon="-0.60763">
        <ele>29.9</ele>
        <time>2024-11-24T08:20:35Z</time>
      </trkpt>
      <trkpt lat="45.09821" lon="-0.60763">
        <ele>29.9</ele>
        <time>2024-11-24T08:20:36Z</time>
      </trkpt>
      <trkpt lat="45.09821" lon="-0.60763">
        <ele>29.9</ele>
        <time>2024-11-24T08:20:37Z</time>
      </trkpt>
      <trkpt lat="45.09822" lon="-0.60763">
        <ele>29.9</ele>
        <time>2024-11-24T08:20:38Z</time>
      </trkpt>
      <trkpt lat="45.09822" lon="-0.60763">
        <ele>29.9</ele>
        <time>2024-11-24T08:20:39Z</time>
      </trkpt>
      <trkpt lat="45.09822" lon="-0.60763">
        <ele>29.9</ele>
        <time>2024-11-24T08:20:40Z</time>
      </trkpt>
      <trkpt lat="45.09822" lon="-0.60763">
        <ele>29.9</ele>
        <time>2024-11-24T08:20:41Z</time>
      </trkpt>
      <trkpt lat="45.09822" lon="-0.60763">
        <ele>29.9</ele>
        <time>2024-11-24T08:20:42Z</time>
      </trkpt>
      <trkpt lat="45.09822" lon="-0.60763">
        <ele>29.9</ele>
        <time>2024-11-24T08:20:43Z</time>
      </trkpt>
      <trkpt lat="45.09822" lon="-0.60762">
        <ele>29.9</ele>
        <time>2024-11-24T08:20:44Z</time>
      </trkpt>
      <trkpt lat="45.09822" lon="-0.60762">
        <ele>29.9</ele>
        <time>2024-11-24T08:20:45Z</time>
      </trkpt>
      <trkpt lat="45.09822" lon="-0.60762">
        <ele>29.9</ele>
        <time>2024-11-24T08:20:46Z</time>
      </trkpt>
      <trkpt lat="45.09822" lon="-0.60763">
        <ele>29.9</ele>
        <time>2024-11-24T08:20:47Z</time>
      </trkpt>
      <trkpt lat="45.09822" lon="-0.60765">
        <ele>29.8</ele>
        <time>2024-11-24T08:20:48Z</time>
      </trkpt>
      <trkpt lat="45.09823" lon="-0.60767">
        <ele>29.8</ele>
        <time>2024-11-24T08:20:49Z</time>
      </trkpt>
      <trkpt lat="45.09823" lon="-0.60769">
        <ele>29.7</ele>
        <time>2024-11-24T08:20:50Z</time>
      </trkpt>
      <trkpt lat="45.09824" lon="-0.60771">
        <ele>29.7</ele>
        <time>2024-11-24T08:20:51Z</time>
      </trkpt>
      <trkpt lat="45.09825" lon="-0.60773">
        <ele>29.6</ele>
        <time>2024-11-24T08:20:52Z</time>
      </trkpt>
      <trkpt lat="45.09825" lon="-0.60775">
        <ele>29.6</ele>
        <time>2024-11-24T08:20:53Z</time>
      </trkpt>
      <trkpt lat="45.09826" lon="-0.60777">
        <ele>29.5</ele>
        <time>2024-11-24T08:20:54Z</time>
      </trkpt>
      <trkpt lat="45.09827" lon="-0.60778">
        <ele>29.5</ele>
        <time>2024-11-24T08:20:55Z</time>
      </trkpt>
      <trkpt lat="45.09827" lon="-0.6078">
        <ele>29.4</ele>
        <time>2024-11-24T08:20:56Z</time>
      </trkpt>
      <trkpt lat="45.09828" lon="-0.6078">
        <ele>29.4</ele>
        <time>2024-11-24T08:20:57Z</time>
      </trkpt>
      <trkpt lat="45.0983" lon="-0.60784">
        <ele>29.3</ele>
        <time>2024-11-24T08:20:58Z</time>
      </trkpt>
      <trkpt lat="45.09831" lon="-0.60786">
        <ele>29.3</ele>
        <time>2024-11-24T08:20:59Z</time>
      </trkpt>
      <trkpt lat="45.09833" lon="-0.60788">
        <ele>29.2</ele>
        <time>2024-11-24T08:21:00Z</time>
      </trkpt>
      <trkpt lat="45.09833" lon="-0.60789">
        <ele>29.2</ele>
        <time>2024-11-24T08:21:01Z</time>
      </trkpt>
      <trkpt lat="45.09834" lon="-0.6079">
        <ele>29.2</ele>
        <time>2024-11-24T08:21:02Z</time>
      </trkpt>
      <trkpt lat="45.09834" lon="-0.60792">
        <ele>29.1</ele>
        <time>2024-11-24T08:21:03Z</time>
      </trkpt>
      <trkpt lat="45.09835" lon="-0.60793">
        <ele>29.1</ele>
        <time>2024-11-24T08:21:04Z</time>
      </trkpt>
      <trkpt lat="45.09835" lon="-0.60794">
        <ele>29.1</ele>
        <time>2024-11-24T08:21:05Z</time>
      </trkpt>
      <trkpt lat="45.09835" lon="-0.60796">
        <ele>29.1</ele>
        <time>2024-11-24T08:21:06Z</time>
      </trkpt>
      <trkpt lat="45.09836" lon="-0.60797">
        <ele>29</ele>
        <time>2024-11-24T08:21:07Z</time>
      </trkpt>
      <trkpt lat="45.09836" lon="-0.60799">
        <ele>29</ele>
        <time>2024-11-24T08:21:08Z</time>
      </trkpt>
      <trkpt lat="45.09837" lon="-0.608">
        <ele>28.9</ele>
        <time>2024-11-24T08:21:09Z</time>
      </trkpt>
      <trkpt lat="45.09838" lon="-0.60802">
        <ele>28.9</ele>
        <time>2024-11-24T08:21:10Z</time>
      </trkpt>
      <trkpt lat="45.09838" lon="-0.60803">
        <ele>28.9</ele>
        <time>2024-11-24T08:21:11Z</time>
      </trkpt>
      <trkpt lat="45.09839" lon="-0.60804">
        <ele>28.8</ele>
        <time>2024-11-24T08:21:12Z</time>
      </trkpt>
      <trkpt lat="45.0984" lon="-0.60805">
        <ele>28.8</ele>
        <time>2024-11-24T08:21:13Z</time>
      </trkpt>
      <trkpt lat="45.09841" lon="-0.60807">
        <ele>28.8</ele>
        <time>2024-11-24T08:21:14Z</time>
      </trkpt>
      <trkpt lat="45.09841" lon="-0.60808">
        <ele>28.7</ele>
        <time>2024-11-24T08:21:15Z</time>
      </trkpt>
      <trkpt lat="45.09842" lon="-0.60809">
        <ele>28.7</ele>
        <time>2024-11-24T08:21:16Z</time>
      </trkpt>
      <trkpt lat="45.09843" lon="-0.60812">
        <ele>28.6</ele>
        <time>2024-11-24T08:21:17Z</time>
      </trkpt>
      <trkpt lat="45.09844" lon="-0.60813">
        <ele>28.6</ele>
        <time>2024-11-24T08:21:18Z</time>
      </trkpt>
      <trkpt lat="45.09844" lon="-0.60814">
        <ele>28.6</ele>
        <time>2024-11-24T08:21:19Z</time>
      </trkpt>
      <trkpt lat="45.09846" lon="-0.60816">
        <ele>28.5</ele>
        <time>2024-11-24T08:21:20Z</time>
      </trkpt>
      <trkpt lat="45.09846" lon="-0.60817">
        <ele>28.5</ele>
        <time>2024-11-24T08:21:21Z</time>
      </trkpt>
      <trkpt lat="45.09847" lon="-0.60818">
        <ele>28.5</ele>
        <time>2024-11-24T08:21:22Z</time>
      </trkpt>
      <trkpt lat="45.09847" lon="-0.6082">
        <ele>28.5</ele>
        <time>2024-11-24T08:21:23Z</time>
      </trkpt>
      <trkpt lat="45.09848" lon="-0.60821">
        <ele>28.4</ele>
        <time>2024-11-24T08:21:24Z</time>
      </trkpt>
      <trkpt lat="45.09849" lon="-0.60822">
        <ele>28.4</ele>
        <time>2024-11-24T08:21:25Z</time>
      </trkpt>
      <trkpt lat="45.09849" lon="-0.60824">
        <ele>28.3</ele>
        <time>2024-11-24T08:21:26Z</time>
      </trkpt>
      <trkpt lat="45.0985" lon="-0.60826">
        <ele>28.3</ele>
        <time>2024-11-24T08:21:27Z</time>
      </trkpt>
      <trkpt lat="45.09851" lon="-0.60827">
        <ele>28.3</ele>
        <time>2024-11-24T08:21:28Z</time>
      </trkpt>
      <trkpt lat="45.09852" lon="-0.60829">
        <ele>28.2</ele>
        <time>2024-11-24T08:21:29Z</time>
      </trkpt>
      <trkpt lat="45.09853" lon="-0.60831">
        <ele>28.2</ele>
        <time>2024-11-24T08:21:30Z</time>
      </trkpt>
      <trkpt lat="45.09853" lon="-0.60833">
        <ele>28.1</ele>
        <time>2024-11-24T08:21:31Z</time>
      </trkpt>
      <trkpt lat="45.09854" lon="-0.60834">
        <ele>28.1</ele>
        <time>2024-11-24T08:21:32Z</time>
      </trkpt>
      <trkpt lat="45.09855" lon="-0.60836">
        <ele>28</ele>
        <time>2024-11-24T08:21:33Z</time>
      </trkpt>
      <trkpt lat="45.09855" lon="-0.60838">
        <ele>28</ele>
        <time>2024-11-24T08:21:34Z</time>
      </trkpt>
      <trkpt lat="45.09856" lon="-0.60839">
        <ele>27.9</ele>
        <time>2024-11-24T08:21:35Z</time>
      </trkpt>
      <trkpt lat="45.09857" lon="-0.60841">
        <ele>27.9</ele>
        <time>2024-11-24T08:21:36Z</time>
      </trkpt>
      <trkpt lat="45.09858" lon="-0.60842">
        <ele>27.8</ele>
        <time>2024-11-24T08:21:37Z</time>
      </trkpt>
      <trkpt lat="45.09859" lon="-0.60844">
        <ele>27.8</ele>
        <time>2024-11-24T08:21:38Z</time>
      </trkpt>
      <trkpt lat="45.0986" lon="-0.60845">
        <ele>27.7</ele>
        <time>2024-11-24T08:21:39Z</time>
      </trkpt>
      <trkpt lat="45.09861" lon="-0.60847">
        <ele>27.7</ele>
        <time>2024-11-24T08:21:40Z</time>
      </trkpt>
      <trkpt lat="45.09863" lon="-0.60848">
        <ele>27.6</ele>
        <time>2024-11-24T08:21:41Z</time>
      </trkpt>
      <trkpt lat="45.09863" lon="-0.60849">
        <ele>27.6</ele>
        <time>2024-11-24T08:21:42Z</time>
      </trkpt>
      <trkpt lat="45.09864" lon="-0.6085">
        <ele>27.5</ele>
        <time>2024-11-24T08:21:43Z</time>
      </trkpt>
      <trkpt lat="45.09865" lon="-0.60851">
        <ele>27.5</ele>
        <time>2024-11-24T08:21:44Z</time>
      </trkpt>
      <trkpt lat="45.09866" lon="-0.60853">
        <ele>27.4</ele>
        <time>2024-11-24T08:21:45Z</time>
      </trkpt>
      <trkpt lat="45.09867" lon="-0.60855">
        <ele>27.3</ele>
        <time>2024-11-24T08:21:46Z</time>
      </trkpt>
      <trkpt lat="45.09868" lon="-0.60856">
        <ele>27.3</ele>
        <time>2024-11-24T08:21:47Z</time>
      </trkpt>
      <trkpt lat="45.09869" lon="-0.60858">
        <ele>27.2</ele>
        <time>2024-11-24T08:21:48Z</time>
      </trkpt>
      <trkpt lat="45.0987" lon="-0.6086">
        <ele>27.1</ele>
        <time>2024-11-24T08:21:49Z</time>
      </trkpt>
      <trkpt lat="45.09871" lon="-0.60862">
        <ele>27.1</ele>
        <time>2024-11-24T08:21:50Z</time>
      </trkpt>
      <trkpt lat="45.09872" lon="-0.60863">
        <ele>27</ele>
        <time>2024-11-24T08:21:51Z</time>
      </trkpt>
      <trkpt lat="45.09873" lon="-0.60865">
        <ele>26.9</ele>
        <time>2024-11-24T08:21:52Z</time>
      </trkpt>
      <trkpt lat="45.09874" lon="-0.60866">
        <ele>26.9</ele>
        <time>2024-11-24T08:21:53Z</time>
      </trkpt>
      <trkpt lat="45.09874" lon="-0.60867">
        <ele>26.9</ele>
        <time>2024-11-24T08:21:54Z</time>
      </trkpt>
      <trkpt lat="45.09876" lon="-0.60869">
        <ele>26.8</ele>
        <time>2024-11-24T08:21:55Z</time>
      </trkpt>
      <trkpt lat="45.09877" lon="-0.6087">
        <ele>26.7</ele>
        <time>2024-11-24T08:21:56Z</time>
      </trkpt>
      <trkpt lat="45.09878" lon="-0.60871">
        <ele>26.7</ele>
        <time>2024-11-24T08:21:57Z</time>
      </trkpt>
      <trkpt lat="45.09879" lon="-0.60873">
        <ele>26.6</ele>
        <time>2024-11-24T08:21:58Z</time>
      </trkpt>
      <trkpt lat="45.0988" lon="-0.60873">
        <ele>26.5</ele>
        <time>2024-11-24T08:21:59Z</time>
      </trkpt>
      <trkpt lat="45.0988" lon="-0.60874">
        <ele>26.5</ele>
        <time>2024-11-24T08:22:00Z</time>
      </trkpt>
      <trkpt lat="45.09882" lon="-0.60875">
        <ele>26.5</ele>
        <time>2024-11-24T08:22:01Z</time>
      </trkpt>
      <trkpt lat="45.09882" lon="-0.60877">
        <ele>26.4</ele>
        <time>2024-11-24T08:22:02Z</time>
      </trkpt>
      <trkpt lat="45.09884" lon="-0.60878">
        <ele>26.3</ele>
        <time>2024-11-24T08:22:03Z</time>
      </trkpt>
      <trkpt lat="45.09885" lon="-0.6088">
        <ele>26.3</ele>
        <time>2024-11-24T08:22:04Z</time>
      </trkpt>
      <trkpt lat="45.09886" lon="-0.60882">
        <ele>26.2</ele>
        <time>2024-11-24T08:22:05Z</time>
      </trkpt>
      <trkpt lat="45.09887" lon="-0.60883">
        <ele>26.1</ele>
        <time>2024-11-24T08:22:06Z</time>
      </trkpt>
      <trkpt lat="45.09888" lon="-0.60885">
        <ele>26</ele>
        <time>2024-11-24T08:22:07Z</time>
      </trkpt>
      <trkpt lat="45.09889" lon="-0.60887">
        <ele>25.9</ele>
        <time>2024-11-24T08:22:08Z</time>
      </trkpt>
      <trkpt lat="45.0989" lon="-0.60889">
        <ele>25.9</ele>
        <time>2024-11-24T08:22:09Z</time>
      </trkpt>
      <trkpt lat="45.09891" lon="-0.60889">
        <ele>25.8</ele>
        <time>2024-11-24T08:22:10Z</time>
      </trkpt>
      <trkpt lat="45.09893" lon="-0.60891">
        <ele>25.7</ele>
        <time>2024-11-24T08:22:11Z</time>
      </trkpt>
      <trkpt lat="45.09894" lon="-0.60892">
        <ele>25.7</ele>
        <time>2024-11-24T08:22:12Z</time>
      </trkpt>
      <trkpt lat="45.09895" lon="-0.60894">
        <ele>25.6</ele>
        <time>2024-11-24T08:22:13Z</time>
      </trkpt>
      <trkpt lat="45.09896" lon="-0.60895">
        <ele>25.5</ele>
        <time>2024-11-24T08:22:14Z</time>
      </trkpt>
      <trkpt lat="45.09896" lon="-0.60896">
        <ele>25.5</ele>
        <time>2024-11-24T08:22:15Z</time>
      </trkpt>
      <trkpt lat="45.09897" lon="-0.60898">
        <ele>25.4</ele>
        <time>2024-11-24T08:22:16Z</time>
      </trkpt>
      <trkpt lat="45.09898" lon="-0.60899">
        <ele>25.3</ele>
        <time>2024-11-24T08:22:17Z</time>
      </trkpt>
      <trkpt lat="45.09899" lon="-0.60901">
        <ele>25.3</ele>
        <time>2024-11-24T08:22:18Z</time>
      </trkpt>
      <trkpt lat="45.099" lon="-0.60902">
        <ele>25.2</ele>
        <time>2024-11-24T08:22:19Z</time>
      </trkpt>
      <trkpt lat="45.099" lon="-0.60904">
        <ele>25.1</ele>
        <time>2024-11-24T08:22:20Z</time>
      </trkpt>
      <trkpt lat="45.09901" lon="-0.60905">
        <ele>25.1</ele>
        <time>2024-11-24T08:22:21Z</time>
      </trkpt>
      <trkpt lat="45.09902" lon="-0.60906">
        <ele>25</ele>
        <time>2024-11-24T08:22:22Z</time>
      </trkpt>
      <trkpt lat="45.09902" lon="-0.60908">
        <ele>24.9</ele>
        <time>2024-11-24T08:22:23Z</time>
      </trkpt>
      <trkpt lat="45.09903" lon="-0.6091">
        <ele>24.8</ele>
        <time>2024-11-24T08:22:24Z</time>
      </trkpt>
      <trkpt lat="45.09903" lon="-0.60913">
        <ele>24.7</ele>
        <time>2024-11-24T08:22:25Z</time>
      </trkpt>
      <trkpt lat="45.09903" lon="-0.60915">
        <ele>24.6</ele>
        <time>2024-11-24T08:22:26Z</time>
      </trkpt>
      <trkpt lat="45.09903" lon="-0.60917">
        <ele>24.5</ele>
        <time>2024-11-24T08:22:27Z</time>
      </trkpt>
      <trkpt lat="45.09902" lon="-0.60919">
        <ele>24.4</ele>
        <time>2024-11-24T08:22:28Z</time>
      </trkpt>
      <trkpt lat="45.09889" lon="-0.60989">
        <ele>20.4</ele>
        <time>2024-11-24T08:23:07Z</time>
      </trkpt>
      <trkpt lat="45.09889" lon="-0.60992">
        <ele>20.3</ele>
        <time>2024-11-24T08:23:08Z</time>
      </trkpt>
      <trkpt lat="45.09889" lon="-0.60994">
        <ele>20.1</ele>
        <time>2024-11-24T08:23:09Z</time>
      </trkpt>
      <trkpt lat="45.09889" lon="-0.60996">
        <ele>20</ele>
        <time>2024-11-24T08:23:10Z</time>
      </trkpt>
      <trkpt lat="45.09889" lon="-0.60999">
        <ele>19.8</ele>
        <time>2024-11-24T08:23:11Z</time>
      </trkpt>
      <trkpt lat="45.09889" lon="-0.61">
        <ele>19.7</ele>
        <time>2024-11-24T08:23:12Z</time>
      </trkpt>
      <trkpt lat="45.09888" lon="-0.61001">
        <ele>19.6</ele>
        <time>2024-11-24T08:23:13Z</time>
      </trkpt>
      <trkpt lat="45.09874" lon="-0.61035">
        <ele>17</ele>
        <time>2024-11-24T08:23:52Z</time>
      </trkpt>
      <trkpt lat="45.09874" lon="-0.61035">
        <ele>17</ele>
        <time>2024-11-24T08:23:53Z</time>
      </trkpt>
      <trkpt lat="45.09874" lon="-0.61035">
        <ele>17</ele>
        <time>2024-11-24T08:23:54Z</time>
      </trkpt>
      <trkpt lat="45.09873" lon="-0.61034">
        <ele>16.9</ele>
        <time>2024-11-24T08:23:55Z</time>
      </trkpt>
      <trkpt lat="45.09873" lon="-0.61034">
        <ele>16.9</ele>
        <time>2024-11-24T08:23:56Z</time>
      </trkpt>
      <trkpt lat="45.09873" lon="-0.61034">
        <ele>16.9</ele>
        <time>2024-11-24T08:23:57Z</time>
      </trkpt>
      <trkpt lat="45.09873" lon="-0.61034">
        <ele>16.9</ele>
        <time>2024-11-24T08:23:58Z</time>
      </trkpt>
      <trkpt lat="45.09872" lon="-0.61034">
        <ele>16.8</ele>
        <time>2024-11-24T08:24:36Z</time>
      </trkpt>
      <trkpt lat="45.09871" lon="-0.61033">
        <ele>16.6</ele>
        <time>2024-11-24T08:24:37Z</time>
      </trkpt>
      <trkpt lat="45.0987" lon="-0.61032">
        <ele>16.6</ele>
        <time>2024-11-24T08:24:38Z</time>
      </trkpt>
      <trkpt lat="45.0987" lon="-0.61032">
        <ele>16.6</ele>
        <time>2024-11-24T08:24:39Z</time>
      </trkpt>
      <trkpt lat="45.09869" lon="-0.61032">
        <ele>16.5</ele>
        <time>2024-11-24T08:24:40Z</time>
      </trkpt>
      <trkpt lat="45.09869" lon="-0.61032">
        <ele>16.5</ele>
        <time>2024-11-24T08:24:41Z</time>
      </trkpt>
      <trkpt lat="45.09869" lon="-0.61031">
        <ele>16.4</ele>
        <time>2024-11-24T08:24:42Z</time>
      </trkpt>
      <trkpt lat="45.09868" lon="-0.61031">
        <ele>16.4</ele>
        <time>2024-11-24T08:24:43Z</time>
      </trkpt>
      <trkpt lat="45.09868" lon="-0.61031">
        <ele>16.4</ele>
        <time>2024-11-24T08:24:44Z</time>
      </trkpt>
      <trkpt lat="45.09868" lon="-0.61032">
        <ele>16.3</ele>
        <time>2024-11-24T08:24:45Z</time>
      </trkpt>
      <trkpt lat="45.09867" lon="-0.61032">
        <ele>16.3</ele>
        <time>2024-11-24T08:24:46Z</time>
      </trkpt>
      <trkpt lat="45.09867" lon="-0.61032">
        <ele>16.3</ele>
        <time>2024-11-24T08:24:47Z</time>
      </trkpt>
      <trkpt lat="45.09867" lon="-0.61032">
        <ele>16.3</ele>
        <time>2024-11-24T08:24:48Z</time>
      </trkpt>
      <trkpt lat="45.09866" lon="-0.61032">
        <ele>16.2</ele>
        <time>2024-11-24T08:24:49Z</time>
      </trkpt>
      <trkpt lat="45.09866" lon="-0.61032">
        <ele>16.2</ele>
        <time>2024-11-24T08:24:50Z</time>
      </trkpt>
      <trkpt lat="45.09866" lon="-0.61032">
        <ele>16.2</ele>
        <time>2024-11-24T08:24:51Z</time>
      </trkpt>
      <trkpt lat="45.09866" lon="-0.61031">
        <ele>16.2</ele>
        <time>2024-11-24T08:24:52Z</time>
      </trkpt>
      <trkpt lat="45.09866" lon="-0.6103">
        <ele>16.1</ele>
        <time>2024-11-24T08:24:53Z</time>
      </trkpt>
      <trkpt lat="45.09867" lon="-0.61029">
        <ele>16</ele>
        <time>2024-11-24T08:24:54Z</time>
      </trkpt>
      <trkpt lat="45.09867" lon="-0.61028">
        <ele>16</ele>
        <time>2024-11-24T08:24:55Z</time>
      </trkpt>
      <trkpt lat="45.09867" lon="-0.61028">
        <ele>15.9</ele>
        <time>2024-11-24T08:24:56Z</time>
      </trkpt>
      <trkpt lat="45.09867" lon="-0.61027">
        <ele>15.9</ele>
        <time>2024-11-24T08:24:57Z</time>
      </trkpt>
      <trkpt lat="45.09867" lon="-0.61027">
        <ele>15.9</ele>
        <time>2024-11-24T08:24:58Z</time>
      </trkpt>
      <trkpt lat="45.09867" lon="-0.61027">
        <ele>15.9</ele>
        <time>2024-11-24T08:24:59Z</time>
      </trkpt>
      <trkpt lat="45.09867" lon="-0.61027">
        <ele>15.9</ele>
        <time>2024-11-24T08:25:00Z</time>
      </trkpt>
      <trkpt lat="45.09867" lon="-0.61027">
        <ele>15.9</ele>
        <time>2024-11-24T08:25:01Z</time>
      </trkpt>
      <trkpt lat="45.09867" lon="-0.61027">
        <ele>15.9</ele>
        <time>2024-11-24T08:25:02Z</time>
      </trkpt>
      <trkpt lat="45.09867" lon="-0.61027">
        <ele>15.9</ele>
        <time>2024-11-24T08:25:03Z</time>
      </trkpt>
      <trkpt lat="45.09867" lon="-0.61028">
        <ele>15.8</ele>
        <time>2024-11-24T08:25:04Z</time>
      </trkpt>
      <trkpt lat="45.09867" lon="-0.61028">
        <ele>15.8</ele>
        <time>2024-11-24T08:25:05Z</time>
      </trkpt>
      <trkpt lat="45.09867" lon="-0.61029">
        <ele>15.8</ele>
        <time>2024-11-24T08:25:06Z</time>
      </trkpt>
      <trkpt lat="45.09866" lon="-0.6103">
        <ele>15.6</ele>
        <time>2024-11-24T08:25:07Z</time>
      </trkpt>
      <trkpt lat="45.09866" lon="-0.61033">
        <ele>15.5</ele>
        <time>2024-11-24T08:25:08Z</time>
      </trkpt>
      <trkpt lat="45.09863" lon="-0.61034">
        <ele>15.2</ele>
        <time>2024-11-24T08:25:09Z</time>
      </trkpt>
      <trkpt lat="45.09862" lon="-0.61035">
        <ele>15.1</ele>
        <time>2024-11-24T08:25:10Z</time>
      </trkpt>
      <trkpt lat="45.0986" lon="-0.61036">
        <ele>15</ele>
        <time>2024-11-24T08:25:11Z</time>
      </trkpt>
      <trkpt lat="45.0986" lon="-0.61037">
        <ele>14.9</ele>
        <time>2024-11-24T08:25:12Z</time>
      </trkpt>
      <trkpt lat="45.09859" lon="-0.61039">
        <ele>14.9</ele>
        <time>2024-11-24T08:25:13Z</time>
      </trkpt>
      <trkpt lat="45.09859" lon="-0.6104">
        <ele>14.8</ele>
        <time>2024-11-24T08:25:14Z</time>
      </trkpt>
      <trkpt lat="45.09858" lon="-0.61042">
        <ele>14.7</ele>
        <time>2024-11-24T08:25:15Z</time>
      </trkpt>
      <trkpt lat="45.09857" lon="-0.61043">
        <ele>14.6</ele>
        <time>2024-11-24T08:25:16Z</time>
      </trkpt>
      <trkpt lat="45.09857" lon="-0.61044">
        <ele>14.5</ele>
        <time>2024-11-24T08:25:17Z</time>
      </trkpt>
      <trkpt lat="45.09857" lon="-0.61046">
        <ele>14.5</ele>
        <time>2024-11-24T08:25:18Z</time>
      </trkpt>
      <trkpt lat="45.09856" lon="-0.61047">
        <ele>14.4</ele>
        <time>2024-11-24T08:25:19Z</time>
      </trkpt>
      <trkpt lat="45.09856" lon="-0.61049">
        <ele>14.4</ele>
        <time>2024-11-24T08:25:20Z</time>
      </trkpt>
      <trkpt lat="45.09856" lon="-0.61051">
        <ele>14.3</ele>
        <time>2024-11-24T08:25:21Z</time>
      </trkpt>
      <trkpt lat="45.09856" lon="-0.61052">
        <ele>14.2</ele>
        <time>2024-11-24T08:25:22Z</time>
      </trkpt>
      <trkpt lat="45.09856" lon="-0.61054">
        <ele>14.2</ele>
        <time>2024-11-24T08:25:23Z</time>
      </trkpt>
      <trkpt lat="45.09855" lon="-0.61055">
        <ele>14.1</ele>
        <time>2024-11-24T08:25:24Z</time>
      </trkpt>
      <trkpt lat="45.09855" lon="-0.61057">
        <ele>14.1</ele>
        <time>2024-11-24T08:25:25Z</time>
      </trkpt>
      <trkpt lat="45.09855" lon="-0.61058">
        <ele>14</ele>
        <time>2024-11-24T08:25:26Z</time>
      </trkpt>
      <trkpt lat="45.09855" lon="-0.61059">
        <ele>14</ele>
        <time>2024-11-24T08:25:27Z</time>
      </trkpt>
      <trkpt lat="45.09854" lon="-0.61061">
        <ele>13.9</ele>
        <time>2024-11-24T08:25:28Z</time>
      </trkpt>
      <trkpt lat="45.09854" lon="-0.61062">
        <ele>13.9</ele>
        <time>2024-11-24T08:25:29Z</time>
      </trkpt>
      <trkpt lat="45.09854" lon="-0.61064">
        <ele>13.9</ele>
        <time>2024-11-24T08:25:30Z</time>
      </trkpt>
      <trkpt lat="45.09854" lon="-0.61065">
        <ele>13.8</ele>
        <time>2024-11-24T08:25:31Z</time>
      </trkpt>
      <trkpt lat="45.09854" lon="-0.61066">
        <ele>13.8</ele>
        <time>2024-11-24T08:25:32Z</time>
      </trkpt>
      <trkpt lat="45.09853" lon="-0.61067">
        <ele>13.8</ele>
        <time>2024-11-24T08:25:33Z</time>
      </trkpt>
      <trkpt lat="45.09853" lon="-0.61069">
        <ele>13.7</ele>
        <time>2024-11-24T08:25:34Z</time>
      </trkpt>
      <trkpt lat="45.09853" lon="-0.6107">
        <ele>13.7</ele>
        <time>2024-11-24T08:25:35Z</time>
      </trkpt>
      <trkpt lat="45.09852" lon="-0.61071">
        <ele>13.7</ele>
        <time>2024-11-24T08:25:36Z</time>
      </trkpt>
      <trkpt lat="45.09852" lon="-0.61073">
        <ele>13.7</ele>
        <time>2024-11-24T08:25:37Z</time>
      </trkpt>
      <trkpt lat="45.09851" lon="-0.61074">
        <ele>13.6</ele>
        <time>2024-11-24T08:25:38Z</time>
      </trkpt>
      <trkpt lat="45.09851" lon="-0.61074">
        <ele>13.6</ele>
        <time>2024-11-24T08:25:39Z</time>
      </trkpt>
      <trkpt lat="45.09851" lon="-0.61074">
        <ele>13.6</ele>
        <time>2024-11-24T08:25:40Z</time>
      </trkpt>
      <trkpt lat="45.09851" lon="-0.61074">
        <ele>13.6</ele>
        <time>2024-11-24T08:25:41Z</time>
      </trkpt>
      <trkpt lat="45.09851" lon="-0.61073">
        <ele>13.6</ele>
        <time>2024-11-24T08:25:42Z</time>
      </trkpt>
      <trkpt lat="45.09851" lon="-0.61073">
        <ele>13.6</ele>
        <time>2024-11-24T08:25:43Z</time>
      </trkpt>
      <trkpt lat="45.09851" lon="-0.61073">
        <ele>13.6</ele>
        <time>2024-11-24T08:25:44Z</time>
      </trkpt>
      <trkpt lat="45.09851" lon="-0.61072">
        <ele>13.6</ele>
        <time>2024-11-24T08:25:45Z</time>
      </trkpt>
      <trkpt lat="45.09851" lon="-0.61072">
        <ele>13.6</ele>
        <time>2024-11-24T08:25:46Z</time>
      </trkpt>
      <trkpt lat="45.09851" lon="-0.61072">
        <ele>13.6</ele>
        <time>2024-11-24T08:25:47Z</time>
      </trkpt>
      <trkpt lat="45.09851" lon="-0.61073">
        <ele>13.6</ele>
        <time>2024-11-24T08:25:48Z</time>
      </trkpt>
      <trkpt lat="45.0985" lon="-0.61074">
        <ele>13.6</ele>
        <time>2024-11-24T08:25:49Z</time>
      </trkpt>
      <trkpt lat="45.0985" lon="-0.61077">
        <ele>13.5</ele>
        <time>2024-11-24T08:25:50Z</time>
      </trkpt>
      <trkpt lat="45.0985" lon="-0.61079">
        <ele>13.5</ele>
        <time>2024-11-24T08:25:51Z</time>
      </trkpt>
      <trkpt lat="45.09849" lon="-0.61081">
        <ele>13.5</ele>
        <time>2024-11-24T08:25:52Z</time>
      </trkpt>
      <trkpt lat="45.09847" lon="-0.61083">
        <ele>13.4</ele>
        <time>2024-11-24T08:25:53Z</time>
      </trkpt>
      <trkpt lat="45.09847" lon="-0.61084">
        <ele>13.4</ele>
        <time>2024-11-24T08:25:54Z</time>
      </trkpt>
      <trkpt lat="45.09847" lon="-0.61085">
        <ele>13.4</ele>
        <time>2024-11-24T08:25:55Z</time>
      </trkpt>
      <trkpt lat="45.09846" lon="-0.61086">
        <ele>13.4</ele>
        <time>2024-11-24T08:25:56Z</time>
      </trkpt>
      <trkpt lat="45.09846" lon="-0.61087">
        <ele>13.4</ele>
        <time>2024-11-24T08:25:57Z</time>
      </trkpt>
      <trkpt lat="45.09846" lon="-0.61087">
        <ele>13.4</ele>
        <time>2024-11-24T08:25:58Z</time>
      </trkpt>
      <trkpt lat="45.09846" lon="-0.61087">
        <ele>13.4</ele>
        <time>2024-11-24T08:25:59Z</time>
      </trkpt>
      <trkpt lat="45.09845" lon="-0.61087">
        <ele>13.4</ele>
        <time>2024-11-24T08:26:00Z</time>
      </trkpt>
      <trkpt lat="45.09845" lon="-0.61086">
        <ele>13.4</ele>
        <time>2024-11-24T08:26:01Z</time>
      </trkpt>
      <trkpt lat="45.09845" lon="-0.61086">
        <ele>13.4</ele>
        <time>2024-11-24T08:26:02Z</time>
      </trkpt>
      <trkpt lat="45.09845" lon="-0.61086">
        <ele>13.3</ele>
        <time>2024-11-24T08:26:03Z</time>
      </trkpt>
      <trkpt lat="45.09844" lon="-0.61086">
        <ele>13.3</ele>
        <time>2024-11-24T08:26:04Z</time>
      </trkpt>
      <trkpt lat="45.09844" lon="-0.61086">
        <ele>13.3</ele>
        <time>2024-11-24T08:26:05Z</time>
      </trkpt>
      <trkpt lat="45.09844" lon="-0.61086">
        <ele>13.3</ele>
        <time>2024-11-24T08:26:06Z</time>
      </trkpt>
      <trkpt lat="45.09843" lon="-0.61086">
        <ele>13.3</ele>
        <time>2024-11-24T08:26:07Z</time>
      </trkpt>
      <trkpt lat="45.09843" lon="-0.61086">
        <ele>13.3</ele>
        <time>2024-11-24T08:26:08Z</time>
      </trkpt>
      <trkpt lat="45.09843" lon="-0.61086">
        <ele>13.3</ele>
        <time>2024-11-24T08:26:09Z</time>
      </trkpt>
      <trkpt lat="45.09842" lon="-0.61087">
        <ele>13.3</ele>
        <time>2024-11-24T08:26:10Z</time>
      </trkpt>
      <trkpt lat="45.09842" lon="-0.61087">
        <ele>13.3</ele>
        <time>2024-11-24T08:26:11Z</time>
      </trkpt>
      <trkpt lat="45.09842" lon="-0.61087">
        <ele>13.3</ele>
        <time>2024-11-24T08:26:12Z</time>
      </trkpt>
      <trkpt lat="45.09842" lon="-0.61088">
        <ele>13.3</ele>
        <time>2024-11-24T08:26:13Z</time>
      </trkpt>
      <trkpt lat="45.09842" lon="-0.61088">
        <ele>13.3</ele>
        <time>2024-11-24T08:26:14Z</time>
      </trkpt>
      <trkpt lat="45.09842" lon="-0.61089">
        <ele>13.3</ele>
        <time>2024-11-24T08:26:15Z</time>
      </trkpt>
      <trkpt lat="45.09842" lon="-0.61088">
        <ele>13.3</ele>
        <time>2024-11-24T08:26:16Z</time>
      </trkpt>
      <trkpt lat="45.09842" lon="-0.61088">
        <ele>13.3</ele>
        <time>2024-11-24T08:26:17Z</time>
      </trkpt>
      <trkpt lat="45.09842" lon="-0.61088">
        <ele>13.3</ele>
        <time>2024-11-24T08:26:18Z</time>
      </trkpt>
      <trkpt lat="45.09842" lon="-0.61088">
        <ele>13.3</ele>
        <time>2024-11-24T08:26:19Z</time>
      </trkpt>
      <trkpt lat="45.09842" lon="-0.61088">
        <ele>13.3</ele>
        <time>2024-11-24T08:26:20Z</time>
      </trkpt>
      <trkpt lat="45.09842" lon="-0.61089">
        <ele>13.3</ele>
        <time>2024-11-24T08:26:21Z</time>
      </trkpt>
      <trkpt lat="45.09842" lon="-0.61089">
        <ele>13.3</ele>
        <time>2024-11-24T08:26:22Z</time>
      </trkpt>
      <trkpt lat="45.09842" lon="-0.61089">
        <ele>13.3</ele>
        <time>2024-11-24T08:26:23Z</time>
      </trkpt>
      <trkpt lat="45.09843" lon="-0.6109">
        <ele>13.3</ele>
        <time>2024-11-24T08:26:24Z</time>
      </trkpt>
      <trkpt lat="45.09843" lon="-0.6109">
        <ele>13.3</ele>
        <time>2024-11-24T08:26:25Z</time>
      </trkpt>
      <trkpt lat="45.09843" lon="-0.61092">
        <ele>13.3</ele>
        <time>2024-11-24T08:26:26Z</time>
      </trkpt>
      <trkpt lat="45.09843" lon="-0.61093">
        <ele>13.3</ele>
        <time>2024-11-24T08:26:27Z</time>
      </trkpt>
      <trkpt lat="45.09843" lon="-0.61093">
        <ele>13.2</ele>
        <time>2024-11-24T08:26:28Z</time>
      </trkpt>
      <trkpt lat="45.09843" lon="-0.61093">
        <ele>13.2</ele>
        <time>2024-11-24T08:26:29Z</time>
      </trkpt>
      <trkpt lat="45.09843" lon="-0.61093">
        <ele>13.2</ele>
        <time>2024-11-24T08:26:30Z</time>
      </trkpt>
      <trkpt lat="45.09843" lon="-0.61093">
        <ele>13.2</ele>
        <time>2024-11-24T08:26:31Z</time>
      </trkpt>
      <trkpt lat="45.09843" lon="-0.61093">
        <ele>13.2</ele>
        <time>2024-11-24T08:26:32Z</time>
      </trkpt>
      <trkpt lat="45.09843" lon="-0.61093">
        <ele>13.2</ele>
        <time>2024-11-24T08:26:33Z</time>
      </trkpt>
      <trkpt lat="45.09843" lon="-0.61093">
        <ele>13.2</ele>
        <time>2024-11-24T08:26:34Z</time>
      </trkpt>
      <trkpt lat="45.09843" lon="-0.61094">
        <ele>13.2</ele>
        <time>2024-11-24T08:26:35Z</time>
      </trkpt>
      <trkpt lat="45.09843" lon="-0.61094">
        <ele>13.2</ele>
        <time>2024-11-24T08:26:36Z</time>
      </trkpt>
      <trkpt lat="45.09844" lon="-0.61094">
        <ele>13.2</ele>
        <time>2024-11-24T08:26:37Z</time>
      </trkpt>
      <trkpt lat="45.09844" lon="-0.61094">
        <ele>13.2</ele>
        <time>2024-11-24T08:26:38Z</time>
      </trkpt>
      <trkpt lat="45.09844" lon="-0.61094">
        <ele>13.2</ele>
        <time>2024-11-24T08:26:39Z</time>
      </trkpt>
      <trkpt lat="45.09844" lon="-0.61095">
        <ele>13.2</ele>
        <time>2024-11-24T08:26:40Z</time>
      </trkpt>
      <trkpt lat="45.09845" lon="-0.61095">
        <ele>13.2</ele>
        <time>2024-11-24T08:26:41Z</time>
      </trkpt>
      <trkpt lat="45.09845" lon="-0.61095">
        <ele>13.2</ele>
        <time>2024-11-24T08:26:42Z</time>
      </trkpt>
      <trkpt lat="45.09845" lon="-0.61096">
        <ele>13.2</ele>
        <time>2024-11-24T08:26:43Z</time>
      </trkpt>
      <trkpt lat="45.09845" lon="-0.61096">
        <ele>13.2</ele>
        <time>2024-11-24T08:26:44Z</time>
      </trkpt>
      <trkpt lat="45.09846" lon="-0.61097">
        <ele>13.2</ele>
        <time>2024-11-24T08:26:45Z</time>
      </trkpt>
      <trkpt lat="45.09846" lon="-0.61097">
        <ele>13.2</ele>
        <time>2024-11-24T08:26:46Z</time>
      </trkpt>
      <trkpt lat="45.09846" lon="-0.61097">
        <ele>13.2</ele>
        <time>2024-11-24T08:26:47Z</time>
      </trkpt>
      <trkpt lat="45.09846" lon="-0.61098">
        <ele>13.2</ele>
        <time>2024-11-24T08:26:48Z</time>
      </trkpt>
      <trkpt lat="45.09847" lon="-0.61098">
        <ele>13.2</ele>
        <time>2024-11-24T08:26:49Z</time>
      </trkpt>
      <trkpt lat="45.09847" lon="-0.61098">
        <ele>13.2</ele>
        <time>2024-11-24T08:26:50Z</time>
      </trkpt>
      <trkpt lat="45.09847" lon="-0.61098">
        <ele>13.2</ele>
        <time>2024-11-24T08:26:51Z</time>
      </trkpt>
      <trkpt lat="45.09848" lon="-0.61098">
        <ele>13.2</ele>
        <time>2024-11-24T08:26:52Z</time>
      </trkpt>
      <trkpt lat="45.09848" lon="-0.61099">
        <ele>13.2</ele>
        <time>2024-11-24T08:26:53Z</time>
      </trkpt>
      <trkpt lat="45.09848" lon="-0.61099">
        <ele>13.2</ele>
        <time>2024-11-24T08:26:54Z</time>
      </trkpt>
      <trkpt lat="45.09848" lon="-0.61099">
        <ele>13.2</ele>
        <time>2024-11-24T08:26:55Z</time>
      </trkpt>
      <trkpt lat="45.09848" lon="-0.611">
        <ele>13.2</ele>
        <time>2024-11-24T08:26:56Z</time>
      </trkpt>
      <trkpt lat="45.09848" lon="-0.611">
        <ele>13.2</ele>
        <time>2024-11-24T08:26:57Z</time>
      </trkpt>
      <trkpt lat="45.09848" lon="-0.611">
        <ele>13.2</ele>
        <time>2024-11-24T08:26:58Z</time>
      </trkpt>
      <trkpt lat="45.09847" lon="-0.611">
        <ele>13.2</ele>
        <time>2024-11-24T08:26:59Z</time>
      </trkpt>
      <trkpt lat="45.09847" lon="-0.611">
        <ele>13.2</ele>
        <time>2024-11-24T08:27:00Z</time>
      </trkpt>
      <trkpt lat="45.09847" lon="-0.611">
        <ele>13.2</ele>
        <time>2024-11-24T08:27:01Z</time>
      </trkpt>
      <trkpt lat="45.09847" lon="-0.61101">
        <ele>13.2</ele>
        <time>2024-11-24T08:27:02Z</time>
      </trkpt>
      <trkpt lat="45.09847" lon="-0.61101">
        <ele>13.2</ele>
        <time>2024-11-24T08:27:03Z</time>
      </trkpt>
      <trkpt lat="45.09847" lon="-0.61101">
        <ele>13.2</ele>
        <time>2024-11-24T08:27:04Z</time>
      </trkpt>
      <trkpt lat="45.09847" lon="-0.61101">
        <ele>13.2</ele>
        <time>2024-11-24T08:27:05Z</time>
      </trkpt>
      <trkpt lat="45.09847" lon="-0.61101">
        <ele>13.2</ele>
        <time>2024-11-24T08:27:06Z</time>
      </trkpt>
      <trkpt lat="45.09847" lon="-0.61101">
        <ele>13.2</ele>
        <time>2024-11-24T08:27:07Z</time>
      </trkpt>
      <trkpt lat="45.09847" lon="-0.61101">
        <ele>13.2</ele>
        <time>2024-11-24T08:27:08Z</time>
      </trkpt>
      <trkpt lat="45.09848" lon="-0.61102">
        <ele>13.2</ele>
        <time>2024-11-24T08:27:09Z</time>
      </trkpt>
      <trkpt lat="45.09848" lon="-0.61102">
        <ele>13.2</ele>
        <time>2024-11-24T08:27:10Z</time>
      </trkpt>
      <trkpt lat="45.09848" lon="-0.61102">
        <ele>13.2</ele>
        <time>2024-11-24T08:27:11Z</time>
      </trkpt>
      <trkpt lat="45.09848" lon="-0.61103">
        <ele>13.2</ele>
        <time>2024-11-24T08:27:12Z</time>
      </trkpt>
      <trkpt lat="45.09848" lon="-0.61103">
        <ele>13.2</ele>
        <time>2024-11-24T08:27:13Z</time>
      </trkpt>
      <trkpt lat="45.09849" lon="-0.61104">
        <ele>13.2</ele>
        <time>2024-11-24T08:27:14Z</time>
      </trkpt>
      <trkpt lat="45.09849" lon="-0.61105">
        <ele>13.2</ele>
        <time>2024-11-24T08:27:15Z</time>
      </trkpt>
      <trkpt lat="45.0985" lon="-0.61105">
        <ele>13.2</ele>
        <time>2024-11-24T08:27:16Z</time>
      </trkpt>
      <trkpt lat="45.09851" lon="-0.61106">
        <ele>13.2</ele>
        <time>2024-11-24T08:27:17Z</time>
      </trkpt>
      <trkpt lat="45.09852" lon="-0.61107">
        <ele>13.2</ele>
        <time>2024-11-24T08:27:18Z</time>
      </trkpt>
      <trkpt lat="45.09852" lon="-0.61108">
        <ele>13.2</ele>
        <time>2024-11-24T08:27:19Z</time>
      </trkpt>
      <trkpt lat="45.09853" lon="-0.6111">
        <ele>13.2</ele>
        <time>2024-11-24T08:27:20Z</time>
      </trkpt>
      <trkpt lat="45.09853" lon="-0.6111">
        <ele>13.2</ele>
        <time>2024-11-24T08:27:21Z</time>
      </trkpt>
      <trkpt lat="45.09853" lon="-0.61111">
        <ele>13.2</ele>
        <time>2024-11-24T08:27:22Z</time>
      </trkpt>
      <trkpt lat="45.09854" lon="-0.61112">
        <ele>13.2</ele>
        <time>2024-11-24T08:27:23Z</time>
      </trkpt>
      <trkpt lat="45.09855" lon="-0.61113">
        <ele>13.2</ele>
        <time>2024-11-24T08:27:24Z</time>
      </trkpt>
      <trkpt lat="45.09856" lon="-0.61114">
        <ele>13.2</ele>
        <time>2024-11-24T08:27:25Z</time>
      </trkpt>
      <trkpt lat="45.09857" lon="-0.61115">
        <ele>13.2</ele>
        <time>2024-11-24T08:27:26Z</time>
      </trkpt>
      <trkpt lat="45.09858" lon="-0.61115">
        <ele>13.3</ele>
        <time>2024-11-24T08:27:27Z</time>
      </trkpt>
      <trkpt lat="45.09859" lon="-0.61116">
        <ele>13.3</ele>
        <time>2024-11-24T08:27:28Z</time>
      </trkpt>
      <trkpt lat="45.0986" lon="-0.61116">
        <ele>13.3</ele>
        <time>2024-11-24T08:27:29Z</time>
      </trkpt>
      <trkpt lat="45.09861" lon="-0.61117">
        <ele>13.3</ele>
        <time>2024-11-24T08:27:30Z</time>
      </trkpt>
      <trkpt lat="45.09862" lon="-0.61118">
        <ele>13.3</ele>
        <time>2024-11-24T08:27:31Z</time>
      </trkpt>
      <trkpt lat="45.09863" lon="-0.61118">
        <ele>13.4</ele>
        <time>2024-11-24T08:27:32Z</time>
      </trkpt>
      <trkpt lat="45.09863" lon="-0.61119">
        <ele>13.4</ele>
        <time>2024-11-24T08:27:33Z</time>
      </trkpt>
      <trkpt lat="45.09864" lon="-0.6112">
        <ele>13.4</ele>
        <time>2024-11-24T08:27:34Z</time>
      </trkpt>
      <trkpt lat="45.09864" lon="-0.61122">
        <ele>13.4</ele>
        <time>2024-11-24T08:27:35Z</time>
      </trkpt>
      <trkpt lat="45.09864" lon="-0.61123">
        <ele>13.4</ele>
        <time>2024-11-24T08:27:36Z</time>
      </trkpt>
      <trkpt lat="45.09865" lon="-0.61124">
        <ele>13.5</ele>
        <time>2024-11-24T08:27:37Z</time>
      </trkpt>
      <trkpt lat="45.09865" lon="-0.61125">
        <ele>13.5</ele>
        <time>2024-11-24T08:27:38Z</time>
      </trkpt>
      <trkpt lat="45.09866" lon="-0.61126">
        <ele>13.5</ele>
        <time>2024-11-24T08:27:39Z</time>
      </trkpt>
      <trkpt lat="45.09867" lon="-0.61128">
        <ele>13.6</ele>
        <time>2024-11-24T08:27:40Z</time>
      </trkpt>
      <trkpt lat="45.09867" lon="-0.61129">
        <ele>13.6</ele>
        <time>2024-11-24T08:27:41Z</time>
      </trkpt>
      <trkpt lat="45.09867" lon="-0.6113">
        <ele>13.6</ele>
        <time>2024-11-24T08:27:42Z</time>
      </trkpt>
      <trkpt lat="45.09868" lon="-0.61131">
        <ele>13.7</ele>
        <time>2024-11-24T08:27:43Z</time>
      </trkpt>
      <trkpt lat="45.09869" lon="-0.61132">
        <ele>13.7</ele>
        <time>2024-11-24T08:27:44Z</time>
      </trkpt>
      <trkpt lat="45.0987" lon="-0.61134">
        <ele>13.8</ele>
        <time>2024-11-24T08:27:45Z</time>
      </trkpt>
      <trkpt lat="45.0987" lon="-0.61135">
        <ele>13.8</ele>
        <time>2024-11-24T08:27:46Z</time>
      </trkpt>
      <trkpt lat="45.09871" lon="-0.61136">
        <ele>13.8</ele>
        <time>2024-11-24T08:27:47Z</time>
      </trkpt>
      <trkpt lat="45.09871" lon="-0.61138">
        <ele>13.9</ele>
        <time>2024-11-24T08:27:48Z</time>
      </trkpt>
      <trkpt lat="45.09872" lon="-0.61139">
        <ele>13.9</ele>
        <time>2024-11-24T08:27:49Z</time>
      </trkpt>
      <trkpt lat="45.09872" lon="-0.6114">
        <ele>14</ele>
        <time>2024-11-24T08:27:50Z</time>
      </trkpt>
      <trkpt lat="45.09873" lon="-0.61141">
        <ele>14</ele>
        <time>2024-11-24T08:27:51Z</time>
      </trkpt>
      <trkpt lat="45.09874" lon="-0.61143">
        <ele>14.1</ele>
        <time>2024-11-24T08:27:52Z</time>
      </trkpt>
      <trkpt lat="45.09874" lon="-0.61144">
        <ele>14.1</ele>
        <time>2024-11-24T08:27:53Z</time>
      </trkpt>
      <trkpt lat="45.09875" lon="-0.61145">
        <ele>14.2</ele>
        <time>2024-11-24T08:27:54Z</time>
      </trkpt>
      <trkpt lat="45.09875" lon="-0.61146">
        <ele>14.2</ele>
        <time>2024-11-24T08:27:55Z</time>
      </trkpt>
      <trkpt lat="45.09876" lon="-0.61148">
        <ele>14.2</ele>
        <time>2024-11-24T08:27:56Z</time>
      </trkpt>
      <trkpt lat="45.09876" lon="-0.61149">
        <ele>14.4</ele>
        <time>2024-11-24T08:27:57Z</time>
      </trkpt>
      <trkpt lat="45.09878" lon="-0.61151">
        <ele>14.5</ele>
        <time>2024-11-24T08:27:58Z</time>
      </trkpt>
      <trkpt lat="45.09878" lon="-0.61152">
        <ele>14.5</ele>
        <time>2024-11-24T08:27:59Z</time>
      </trkpt>
      <trkpt lat="45.09879" lon="-0.61153">
        <ele>14.4</ele>
        <time>2024-11-24T08:28:00Z</time>
      </trkpt>
      <trkpt lat="45.0988" lon="-0.61154">
        <ele>14.7</ele>
        <time>2024-11-24T08:28:01Z</time>
      </trkpt>
      <trkpt lat="45.09881" lon="-0.61154">
        <ele>14.6</ele>
        <time>2024-11-24T08:28:02Z</time>
      </trkpt>
      <trkpt lat="45.09882" lon="-0.61155">
        <ele>14.7</ele>
        <time>2024-11-24T08:28:03Z</time>
      </trkpt>
      <trkpt lat="45.09883" lon="-0.61155">
        <ele>15</ele>
        <time>2024-11-24T08:28:04Z</time>
      </trkpt>
      <trkpt lat="45.09884" lon="-0.61154">
        <ele>14.8</ele>
        <time>2024-11-24T08:28:05Z</time>
      </trkpt>
      <trkpt lat="45.09884" lon="-0.61154">
        <ele>14.8</ele>
        <time>2024-11-24T08:28:06Z</time>
      </trkpt>
      <trkpt lat="45.09884" lon="-0.61154">
        <ele>14.7</ele>
        <time>2024-11-24T08:28:07Z</time>
      </trkpt>
      <trkpt lat="45.09884" lon="-0.61154">
        <ele>14.7</ele>
        <time>2024-11-24T08:28:08Z</time>
      </trkpt>
      <trkpt lat="45.09885" lon="-0.61154">
        <ele>14.7</ele>
        <time>2024-11-24T08:28:09Z</time>
      </trkpt>
      <trkpt lat="45.09886" lon="-0.61153">
        <ele>14.9</ele>
        <time>2024-11-24T08:28:10Z</time>
      </trkpt>
      <trkpt lat="45.09886" lon="-0.61153">
        <ele>14.9</ele>
        <time>2024-11-24T08:28:11Z</time>
      </trkpt>
      <trkpt lat="45.09887" lon="-0.61153">
        <ele>14.9</ele>
        <time>2024-11-24T08:28:12Z</time>
      </trkpt>
      <trkpt lat="45.09887" lon="-0.61152">
        <ele>14.8</ele>
        <time>2024-11-24T08:28:13Z</time>
      </trkpt>
      <trkpt lat="45.09888" lon="-0.61152">
        <ele>14.8</ele>
        <time>2024-11-24T08:28:14Z</time>
      </trkpt>
      <trkpt lat="45.09889" lon="-0.61151">
        <ele>15.1</ele>
        <time>2024-11-24T08:28:15Z</time>
      </trkpt>
      <trkpt lat="45.09889" lon="-0.61151">
        <ele>15</ele>
        <time>2024-11-24T08:28:16Z</time>
      </trkpt>
      <trkpt lat="45.0989" lon="-0.6115">
        <ele>15</ele>
        <time>2024-11-24T08:28:17Z</time>
      </trkpt>
      <trkpt lat="45.09891" lon="-0.6115">
        <ele>14.8</ele>
        <time>2024-11-24T08:28:18Z</time>
      </trkpt>
      <trkpt lat="45.09892" lon="-0.61149">
        <ele>15.1</ele>
        <time>2024-11-24T08:28:19Z</time>
      </trkpt>
      <trkpt lat="45.09893" lon="-0.61149">
        <ele>15</ele>
        <time>2024-11-24T08:28:20Z</time>
      </trkpt>
      <trkpt lat="45.09893" lon="-0.61148">
        <ele>15</ele>
        <time>2024-11-24T08:28:21Z</time>
      </trkpt>
      <trkpt lat="45.09894" lon="-0.61148">
        <ele>15.3</ele>
        <time>2024-11-24T08:28:22Z</time>
      </trkpt>
      <trkpt lat="45.09895" lon="-0.61147">
        <ele>15.3</ele>
        <time>2024-11-24T08:28:23Z</time>
      </trkpt>
      <trkpt lat="45.09896" lon="-0.61146">
        <ele>15.2</ele>
        <time>2024-11-24T08:28:24Z</time>
      </trkpt>
      <trkpt lat="45.09897" lon="-0.61146">
        <ele>15.2</ele>
        <time>2024-11-24T08:28:25Z</time>
      </trkpt>
      <trkpt lat="45.09898" lon="-0.61146">
        <ele>15.5</ele>
        <time>2024-11-24T08:28:26Z</time>
      </trkpt>
      <trkpt lat="45.09898" lon="-0.61146">
        <ele>15.4</ele>
        <time>2024-11-24T08:28:27Z</time>
      </trkpt>
      <trkpt lat="45.09898" lon="-0.61146">
        <ele>15.4</ele>
        <time>2024-11-24T08:28:28Z</time>
      </trkpt>
      <trkpt lat="45.09899" lon="-0.61146">
        <ele>15.2</ele>
        <time>2024-11-24T08:28:29Z</time>
      </trkpt>
      <trkpt lat="45.09899" lon="-0.61146">
        <ele>15.2</ele>
        <time>2024-11-24T08:28:30Z</time>
      </trkpt>
      <trkpt lat="45.099" lon="-0.61145">
        <ele>15.1</ele>
        <time>2024-11-24T08:28:31Z</time>
      </trkpt>
      <trkpt lat="45.099" lon="-0.61145">
        <ele>15.1</ele>
        <time>2024-11-24T08:28:32Z</time>
      </trkpt>
      <trkpt lat="45.09901" lon="-0.61145">
        <ele>15.4</ele>
        <time>2024-11-24T08:28:33Z</time>
      </trkpt>
      <trkpt lat="45.09903" lon="-0.61145">
        <ele>15.4</ele>
        <time>2024-11-24T08:28:34Z</time>
      </trkpt>
      <trkpt lat="45.09904" lon="-0.61145">
        <ele>15.7</ele>
        <time>2024-11-24T08:28:35Z</time>
      </trkpt>
      <trkpt lat="45.09905" lon="-0.61145">
        <ele>15.7</ele>
        <time>2024-11-24T08:28:36Z</time>
      </trkpt>
      <trkpt lat="45.09906" lon="-0.61144">
        <ele>15.6</ele>
        <time>2024-11-24T08:28:37Z</time>
      </trkpt>
      <trkpt lat="45.09907" lon="-0.61144">
        <ele>16</ele>
        <time>2024-11-24T08:28:38Z</time>
      </trkpt>
      <trkpt lat="45.09908" lon="-0.61144">
        <ele>16</ele>
        <time>2024-11-24T08:28:39Z</time>
      </trkpt>
      <trkpt lat="45.0991" lon="-0.61143">
        <ele>16.3</ele>
        <time>2024-11-24T08:28:40Z</time>
      </trkpt>
      <trkpt lat="45.09911" lon="-0.61143">
        <ele>16.3</ele>
        <time>2024-11-24T08:28:41Z</time>
      </trkpt>
      <trkpt lat="45.09912" lon="-0.61144">
        <ele>16.2</ele>
        <time>2024-11-24T08:28:42Z</time>
      </trkpt>
      <trkpt lat="45.09913" lon="-0.61144">
        <ele>16.6</ele>
        <time>2024-11-24T08:28:43Z</time>
      </trkpt>
      <trkpt lat="45.09915" lon="-0.61144">
        <ele>16.6</ele>
        <time>2024-11-24T08:28:44Z</time>
      </trkpt>
      <trkpt lat="45.09916" lon="-0.61144">
        <ele>17</ele>
        <time>2024-11-24T08:28:45Z</time>
      </trkpt>
      <trkpt lat="45.09917" lon="-0.61144">
        <ele>16.9</ele>
        <time>2024-11-24T08:28:46Z</time>
      </trkpt>
      <trkpt lat="45.09918" lon="-0.61144">
        <ele>16.9</ele>
        <time>2024-11-24T08:28:47Z</time>
      </trkpt>
      <trkpt lat="45.0992" lon="-0.61144">
        <ele>17.3</ele>
        <time>2024-11-24T08:28:48Z</time>
      </trkpt>
      <trkpt lat="45.09921" lon="-0.61144">
        <ele>17.3</ele>
        <time>2024-11-24T08:28:49Z</time>
      </trkpt>
      <trkpt lat="45.09923" lon="-0.61143">
        <ele>17.6</ele>
        <time>2024-11-24T08:28:50Z</time>
      </trkpt>
      <trkpt lat="45.09924" lon="-0.61143">
        <ele>17.6</ele>
        <time>2024-11-24T08:28:51Z</time>
      </trkpt>
      <trkpt lat="45.09926" lon="-0.61142">
        <ele>18</ele>
        <time>2024-11-24T08:28:52Z</time>
      </trkpt>
      <trkpt lat="45.09928" lon="-0.61142">
        <ele>18.3</ele>
        <time>2024-11-24T08:28:53Z</time>
      </trkpt>
      <trkpt lat="45.09928" lon="-0.61141">
        <ele>18.3</ele>
        <time>2024-11-24T08:28:54Z</time>
      </trkpt>
      <trkpt lat="45.09929" lon="-0.61141">
        <ele>18.2</ele>
        <time>2024-11-24T08:28:55Z</time>
      </trkpt>
      <trkpt lat="45.09931" lon="-0.6114">
        <ele>18.6</ele>
        <time>2024-11-24T08:28:56Z</time>
      </trkpt>
      <trkpt lat="45.09932" lon="-0.61139">
        <ele>18.5</ele>
        <time>2024-11-24T08:28:57Z</time>
      </trkpt>
      <trkpt lat="45.09933" lon="-0.61139">
        <ele>18.5</ele>
        <time>2024-11-24T08:28:58Z</time>
      </trkpt>
      <trkpt lat="45.09934" lon="-0.61137">
        <ele>18.8</ele>
        <time>2024-11-24T08:28:59Z</time>
      </trkpt>
      <trkpt lat="45.09935" lon="-0.61136">
        <ele>18.8</ele>
        <time>2024-11-24T08:29:00Z</time>
      </trkpt>
      <trkpt lat="45.09936" lon="-0.61136">
        <ele>18.7</ele>
        <time>2024-11-24T08:29:01Z</time>
      </trkpt>
      <trkpt lat="45.09937" lon="-0.61135">
        <ele>19.1</ele>
        <time>2024-11-24T08:29:02Z</time>
      </trkpt>
      <trkpt lat="45.09938" lon="-0.61134">
        <ele>19</ele>
        <time>2024-11-24T08:29:03Z</time>
      </trkpt>
      <trkpt lat="45.09939" lon="-0.61133">
        <ele>19</ele>
        <time>2024-11-24T08:29:04Z</time>
      </trkpt>
      <trkpt lat="45.09939" lon="-0.61132">
        <ele>18.9</ele>
        <time>2024-11-24T08:29:05Z</time>
      </trkpt>
      <trkpt lat="45.0994" lon="-0.61131">
        <ele>19.3</ele>
        <time>2024-11-24T08:29:06Z</time>
      </trkpt>
      <trkpt lat="45.09941" lon="-0.6113">
        <ele>19.2</ele>
        <time>2024-11-24T08:29:07Z</time>
      </trkpt>
      <trkpt lat="45.09942" lon="-0.61129">
        <ele>19.2</ele>
        <time>2024-11-24T08:29:08Z</time>
      </trkpt>
      <trkpt lat="45.09943" lon="-0.61128">
        <ele>19.2</ele>
        <time>2024-11-24T08:29:09Z</time>
      </trkpt>
      <trkpt lat="45.09943" lon="-0.61128">
        <ele>19.5</ele>
        <time>2024-11-24T08:29:10Z</time>
      </trkpt>
      <trkpt lat="45.09944" lon="-0.61127">
        <ele>19.5</ele>
        <time>2024-11-24T08:29:11Z</time>
      </trkpt>
      <trkpt lat="45.09945" lon="-0.61127">
        <ele>19.4</ele>
        <time>2024-11-24T08:29:12Z</time>
      </trkpt>
      <trkpt lat="45.09946" lon="-0.61126">
        <ele>19.8</ele>
        <time>2024-11-24T08:29:13Z</time>
      </trkpt>
      <trkpt lat="45.09947" lon="-0.61125">
        <ele>19.8</ele>
        <time>2024-11-24T08:29:14Z</time>
      </trkpt>
      <trkpt lat="45.09948" lon="-0.61124">
        <ele>19.7</ele>
        <time>2024-11-24T08:29:15Z</time>
      </trkpt>
      <trkpt lat="45.09949" lon="-0.61123">
        <ele>19.7</ele>
        <time>2024-11-24T08:29:16Z</time>
      </trkpt>
      <trkpt lat="45.09949" lon="-0.61122">
        <ele>20</ele>
        <time>2024-11-24T08:29:17Z</time>
      </trkpt>
      <trkpt lat="45.0995" lon="-0.61122">
        <ele>20</ele>
        <time>2024-11-24T08:29:18Z</time>
      </trkpt>
      <trkpt lat="45.09951" lon="-0.61121">
        <ele>19.9</ele>
        <time>2024-11-24T08:29:19Z</time>
      </trkpt>
      <trkpt lat="45.09952" lon="-0.61121">
        <ele>20.2</ele>
        <time>2024-11-24T08:29:20Z</time>
      </trkpt>
      <trkpt lat="45.09953" lon="-0.61121">
        <ele>20.2</ele>
        <time>2024-11-24T08:29:21Z</time>
      </trkpt>
      <trkpt lat="45.09954" lon="-0.61121">
        <ele>20.2</ele>
        <time>2024-11-24T08:29:22Z</time>
      </trkpt>
      <trkpt lat="45.09956" lon="-0.6112">
        <ele>20.4</ele>
        <time>2024-11-24T08:29:23Z</time>
      </trkpt>
      <trkpt lat="45.09956" lon="-0.61119">
        <ele>20.4</ele>
        <time>2024-11-24T08:29:24Z</time>
      </trkpt>
      <trkpt lat="45.09957" lon="-0.61118">
        <ele>20.4</ele>
        <time>2024-11-24T08:29:25Z</time>
      </trkpt>
      <trkpt lat="45.09958" lon="-0.61117">
        <ele>20.4</ele>
        <time>2024-11-24T08:29:26Z</time>
      </trkpt>
      <trkpt lat="45.09959" lon="-0.61116">
        <ele>20.4</ele>
        <time>2024-11-24T08:29:27Z</time>
      </trkpt>
      <trkpt lat="45.0996" lon="-0.61114">
        <ele>20.4</ele>
        <time>2024-11-24T08:29:28Z</time>
      </trkpt>
      <trkpt lat="45.09961" lon="-0.61113">
        <ele>20.4</ele>
        <time>2024-11-24T08:29:29Z</time>
      </trkpt>
      <trkpt lat="45.09961" lon="-0.61112">
        <ele>20.3</ele>
        <time>2024-11-24T08:29:30Z</time>
      </trkpt>
      <trkpt lat="45.09962" lon="-0.61112">
        <ele>20.3</ele>
        <time>2024-11-24T08:29:31Z</time>
      </trkpt>
      <trkpt lat="45.09963" lon="-0.61111">
        <ele>20.3</ele>
        <time>2024-11-24T08:29:32Z</time>
      </trkpt>
      <trkpt lat="45.09964" lon="-0.61111">
        <ele>20.3</ele>
        <time>2024-11-24T08:29:33Z</time>
      </trkpt>
      <trkpt lat="45.09964" lon="-0.6111">
        <ele>20.3</ele>
        <time>2024-11-24T08:29:34Z</time>
      </trkpt>
      <trkpt lat="45.09965" lon="-0.61109">
        <ele>20.3</ele>
        <time>2024-11-24T08:29:35Z</time>
      </trkpt>
      <trkpt lat="45.09966" lon="-0.61108">
        <ele>20.3</ele>
        <time>2024-11-24T08:29:36Z</time>
      </trkpt>
      <trkpt lat="45.09967" lon="-0.61108">
        <ele>20.3</ele>
        <time>2024-11-24T08:29:37Z</time>
      </trkpt>
      <trkpt lat="45.09968" lon="-0.61107">
        <ele>20.3</ele>
        <time>2024-11-24T08:29:38Z</time>
      </trkpt>
      <trkpt lat="45.09969" lon="-0.61106">
        <ele>20.3</ele>
        <time>2024-11-24T08:29:39Z</time>
      </trkpt>
      <trkpt lat="45.0997" lon="-0.61106">
        <ele>20.2</ele>
        <time>2024-11-24T08:29:40Z</time>
      </trkpt>
      <trkpt lat="45.09971" lon="-0.61105">
        <ele>20.2</ele>
        <time>2024-11-24T08:29:41Z</time>
      </trkpt>
      <trkpt lat="45.09972" lon="-0.61104">
        <ele>20.2</ele>
        <time>2024-11-24T08:29:42Z</time>
      </trkpt>
      <trkpt lat="45.09972" lon="-0.61103">
        <ele>20.2</ele>
        <time>2024-11-24T08:29:43Z</time>
      </trkpt>
      <trkpt lat="45.09972" lon="-0.61102">
        <ele>20.2</ele>
        <time>2024-11-24T08:29:44Z</time>
      </trkpt>
      <trkpt lat="45.09973" lon="-0.61101">
        <ele>20.2</ele>
        <time>2024-11-24T08:29:45Z</time>
      </trkpt>
      <trkpt lat="45.09974" lon="-0.611">
        <ele>20.2</ele>
        <time>2024-11-24T08:29:46Z</time>
      </trkpt>
      <trkpt lat="45.09975" lon="-0.61101">
        <ele>20.2</ele>
        <time>2024-11-24T08:29:47Z</time>
      </trkpt>
      <trkpt lat="45.09978" lon="-0.61102">
        <ele>20.2</ele>
        <time>2024-11-24T08:29:48Z</time>
      </trkpt>
      <trkpt lat="45.09979" lon="-0.61102">
        <ele>20.1</ele>
        <time>2024-11-24T08:29:49Z</time>
      </trkpt>
      <trkpt lat="45.0998" lon="-0.61102">
        <ele>20.1</ele>
        <time>2024-11-24T08:29:50Z</time>
      </trkpt>
      <trkpt lat="45.0998" lon="-0.61102">
        <ele>20.1</ele>
        <time>2024-11-24T08:29:51Z</time>
      </trkpt>
      <trkpt lat="45.09981" lon="-0.61102">
        <ele>20.1</ele>
        <time>2024-11-24T08:29:52Z</time>
      </trkpt>
      <trkpt lat="45.09981" lon="-0.61102">
        <ele>20.1</ele>
        <time>2024-11-24T08:29:53Z</time>
      </trkpt>
      <trkpt lat="45.09981" lon="-0.61102">
        <ele>20.1</ele>
        <time>2024-11-24T08:29:54Z</time>
      </trkpt>
      <trkpt lat="45.09982" lon="-0.61102">
        <ele>20.1</ele>
        <time>2024-11-24T08:29:55Z</time>
      </trkpt>
      <trkpt lat="45.09982" lon="-0.61101">
        <ele>20.1</ele>
        <time>2024-11-24T08:29:56Z</time>
      </trkpt>
      <trkpt lat="45.09984" lon="-0.611">
        <ele>20.1</ele>
        <time>2024-11-24T08:29:57Z</time>
      </trkpt>
      <trkpt lat="45.09985" lon="-0.61099">
        <ele>20.1</ele>
        <time>2024-11-24T08:29:58Z</time>
      </trkpt>
      <trkpt lat="45.09986" lon="-0.61097">
        <ele>20.1</ele>
        <time>2024-11-24T08:29:59Z</time>
      </trkpt>
      <trkpt lat="45.09987" lon="-0.61096">
        <ele>20.1</ele>
        <time>2024-11-24T08:30:00Z</time>
      </trkpt>
      <trkpt lat="45.09989" lon="-0.61094">
        <ele>20</ele>
        <time>2024-11-24T08:30:01Z</time>
      </trkpt>
      <trkpt lat="45.09989" lon="-0.61093">
        <ele>20</ele>
        <time>2024-11-24T08:30:02Z</time>
      </trkpt>
      <trkpt lat="45.0999" lon="-0.61092">
        <ele>20</ele>
        <time>2024-11-24T08:30:03Z</time>
      </trkpt>
      <trkpt lat="45.09991" lon="-0.61091">
        <ele>20</ele>
        <time>2024-11-24T08:30:04Z</time>
      </trkpt>
      <trkpt lat="45.09991" lon="-0.6109">
        <ele>20</ele>
        <time>2024-11-24T08:30:05Z</time>
      </trkpt>
      <trkpt lat="45.09992" lon="-0.61089">
        <ele>20</ele>
        <time>2024-11-24T08:30:06Z</time>
      </trkpt>
      <trkpt lat="45.09993" lon="-0.61089">
        <ele>20</ele>
        <time>2024-11-24T08:30:07Z</time>
      </trkpt>
      <trkpt lat="45.09994" lon="-0.61089">
        <ele>19.9</ele>
        <time>2024-11-24T08:30:08Z</time>
      </trkpt>
      <trkpt lat="45.09995" lon="-0.61088">
        <ele>19.9</ele>
        <time>2024-11-24T08:30:09Z</time>
      </trkpt>
      <trkpt lat="45.09996" lon="-0.61087">
        <ele>19.9</ele>
        <time>2024-11-24T08:30:10Z</time>
      </trkpt>
      <trkpt lat="45.09998" lon="-0.61087">
        <ele>19.9</ele>
        <time>2024-11-24T08:30:11Z</time>
      </trkpt>
      <trkpt lat="45.09999" lon="-0.61086">
        <ele>19.9</ele>
        <time>2024-11-24T08:30:12Z</time>
      </trkpt>
      <trkpt lat="45.10001" lon="-0.61085">
        <ele>19.8</ele>
        <time>2024-11-24T08:30:13Z</time>
      </trkpt>
      <trkpt lat="45.10001" lon="-0.61084">
        <ele>19.8</ele>
        <time>2024-11-24T08:30:14Z</time>
      </trkpt>
      <trkpt lat="45.10002" lon="-0.61084">
        <ele>19.8</ele>
        <time>2024-11-24T08:30:15Z</time>
      </trkpt>
      <trkpt lat="45.10004" lon="-0.61083">
        <ele>19.8</ele>
        <time>2024-11-24T08:30:16Z</time>
      </trkpt>
      <trkpt lat="45.10005" lon="-0.61082">
        <ele>19.7</ele>
        <time>2024-11-24T08:30:17Z</time>
      </trkpt>
      <trkpt lat="45.10006" lon="-0.61082">
        <ele>19.7</ele>
        <time>2024-11-24T08:30:18Z</time>
      </trkpt>
      <trkpt lat="45.10007" lon="-0.61082">
        <ele>19.7</ele>
        <time>2024-11-24T08:30:19Z</time>
      </trkpt>
      <trkpt lat="45.10008" lon="-0.61082">
        <ele>19.7</ele>
        <time>2024-11-24T08:30:20Z</time>
      </trkpt>
      <trkpt lat="45.10008" lon="-0.61081">
        <ele>19.6</ele>
        <time>2024-11-24T08:30:21Z</time>
      </trkpt>
      <trkpt lat="45.10009" lon="-0.61081">
        <ele>19.6</ele>
        <time>2024-11-24T08:30:22Z</time>
      </trkpt>
      <trkpt lat="45.1001" lon="-0.61081">
        <ele>19.6</ele>
        <time>2024-11-24T08:30:23Z</time>
      </trkpt>
      <trkpt lat="45.10011" lon="-0.6108">
        <ele>19.6</ele>
        <time>2024-11-24T08:30:24Z</time>
      </trkpt>
      <trkpt lat="45.10012" lon="-0.6108">
        <ele>19.5</ele>
        <time>2024-11-24T08:30:25Z</time>
      </trkpt>
      <trkpt lat="45.10013" lon="-0.61079">
        <ele>19.5</ele>
        <time>2024-11-24T08:30:26Z</time>
      </trkpt>
      <trkpt lat="45.10014" lon="-0.61078">
        <ele>19.5</ele>
        <time>2024-11-24T08:30:27Z</time>
      </trkpt>
      <trkpt lat="45.10016" lon="-0.61076">
        <ele>19.4</ele>
        <time>2024-11-24T08:30:28Z</time>
      </trkpt>
      <trkpt lat="45.10017" lon="-0.61075">
        <ele>19.4</ele>
        <time>2024-11-24T08:30:29Z</time>
      </trkpt>
      <trkpt lat="45.10017" lon="-0.61074">
        <ele>19.4</ele>
        <time>2024-11-24T08:30:30Z</time>
      </trkpt>
      <trkpt lat="45.10018" lon="-0.61073">
        <ele>19.3</ele>
        <time>2024-11-24T08:30:31Z</time>
      </trkpt>
      <trkpt lat="45.10019" lon="-0.61072">
        <ele>19.3</ele>
        <time>2024-11-24T08:30:32Z</time>
      </trkpt>
      <trkpt lat="45.1002" lon="-0.61071">
        <ele>19.3</ele>
        <time>2024-11-24T08:30:33Z</time>
      </trkpt>
      <trkpt lat="45.10021" lon="-0.6107">
        <ele>19.3</ele>
        <time>2024-11-24T08:30:34Z</time>
      </trkpt>
      <trkpt lat="45.10022" lon="-0.6107">
        <ele>19.2</ele>
        <time>2024-11-24T08:30:35Z</time>
      </trkpt>
      <trkpt lat="45.10023" lon="-0.61069">
        <ele>19.2</ele>
        <time>2024-11-24T08:30:36Z</time>
      </trkpt>
      <trkpt lat="45.10024" lon="-0.61068">
        <ele>19.2</ele>
        <time>2024-11-24T08:30:37Z</time>
      </trkpt>
      <trkpt lat="45.10026" lon="-0.61067">
        <ele>19.1</ele>
        <time>2024-11-24T08:30:38Z</time>
      </trkpt>
      <trkpt lat="45.10028" lon="-0.61066">
        <ele>19.1</ele>
        <time>2024-11-24T08:30:39Z</time>
      </trkpt>
      <trkpt lat="45.10029" lon="-0.61066">
        <ele>19</ele>
        <time>2024-11-24T08:30:40Z</time>
      </trkpt>
      <trkpt lat="45.1003" lon="-0.61065">
        <ele>19</ele>
        <time>2024-11-24T08:30:41Z</time>
      </trkpt>
      <trkpt lat="45.10031" lon="-0.61064">
        <ele>19</ele>
        <time>2024-11-24T08:30:42Z</time>
      </trkpt>
      <trkpt lat="45.10032" lon="-0.61064">
        <ele>19</ele>
        <time>2024-11-24T08:30:43Z</time>
      </trkpt>
      <trkpt lat="45.10034" lon="-0.61063">
        <ele>18.9</ele>
        <time>2024-11-24T08:30:44Z</time>
      </trkpt>
      <trkpt lat="45.10035" lon="-0.61062">
        <ele>18.9</ele>
        <time>2024-11-24T08:30:45Z</time>
      </trkpt>
      <trkpt lat="45.10036" lon="-0.61062">
        <ele>18.9</ele>
        <time>2024-11-24T08:30:46Z</time>
      </trkpt>
      <trkpt lat="45.10036" lon="-0.61062">
        <ele>18.9</ele>
        <time>2024-11-24T08:30:47Z</time>
      </trkpt>
      <trkpt lat="45.10036" lon="-0.61062">
        <ele>18.9</ele>
        <time>2024-11-24T08:30:48Z</time>
      </trkpt>
      <trkpt lat="45.10036" lon="-0.61062">
        <ele>18.8</ele>
        <time>2024-11-24T08:30:49Z</time>
      </trkpt>
      <trkpt lat="45.10036" lon="-0.61062">
        <ele>18.8</ele>
        <time>2024-11-24T08:30:50Z</time>
      </trkpt>
      <trkpt lat="45.10036" lon="-0.61062">
        <ele>18.8</ele>
        <time>2024-11-24T08:30:51Z</time>
      </trkpt>
      <trkpt lat="45.10037" lon="-0.61062">
        <ele>18.8</ele>
        <time>2024-11-24T08:30:52Z</time>
      </trkpt>
      <trkpt lat="45.10038" lon="-0.61062">
        <ele>18.8</ele>
        <time>2024-11-24T08:30:53Z</time>
      </trkpt>
      <trkpt lat="45.10039" lon="-0.61061">
        <ele>18.8</ele>
        <time>2024-11-24T08:30:54Z</time>
      </trkpt>
      <trkpt lat="45.10041" lon="-0.6106">
        <ele>18.7</ele>
        <time>2024-11-24T08:30:55Z</time>
      </trkpt>
      <trkpt lat="45.10042" lon="-0.61058">
        <ele>18.7</ele>
        <time>2024-11-24T08:30:56Z</time>
      </trkpt>
      <trkpt lat="45.10043" lon="-0.61057">
        <ele>18.7</ele>
        <time>2024-11-24T08:30:57Z</time>
      </trkpt>
      <trkpt lat="45.10045" lon="-0.61056">
        <ele>18.6</ele>
        <time>2024-11-24T08:30:58Z</time>
      </trkpt>
      <trkpt lat="45.10046" lon="-0.61055">
        <ele>18.6</ele>
        <time>2024-11-24T08:30:59Z</time>
      </trkpt>
      <trkpt lat="45.10047" lon="-0.61054">
        <ele>18.6</ele>
        <time>2024-11-24T08:31:00Z</time>
      </trkpt>
      <trkpt lat="45.10048" lon="-0.61053">
        <ele>18.5</ele>
        <time>2024-11-24T08:31:01Z</time>
      </trkpt>
      <trkpt lat="45.10049" lon="-0.61052">
        <ele>18.5</ele>
        <time>2024-11-24T08:31:02Z</time>
      </trkpt>
      <trkpt lat="45.1005" lon="-0.61052">
        <ele>18.5</ele>
        <time>2024-11-24T08:31:03Z</time>
      </trkpt>
      <trkpt lat="45.10051" lon="-0.61052">
        <ele>18.5</ele>
        <time>2024-11-24T08:31:04Z</time>
      </trkpt>
      <trkpt lat="45.10051" lon="-0.61052">
        <ele>18.5</ele>
        <time>2024-11-24T08:31:05Z</time>
      </trkpt>
      <trkpt lat="45.10051" lon="-0.61052">
        <ele>18.5</ele>
        <time>2024-11-24T08:31:06Z</time>
      </trkpt>
      <trkpt lat="45.10053" lon="-0.61052">
        <ele>18.4</ele>
        <time>2024-11-24T08:31:07Z</time>
      </trkpt>
      <trkpt lat="45.10054" lon="-0.61053">
        <ele>18.4</ele>
        <time>2024-11-24T08:31:08Z</time>
      </trkpt>
      <trkpt lat="45.10054" lon="-0.61053">
        <ele>18.4</ele>
        <time>2024-11-24T08:31:09Z</time>
      </trkpt>
      <trkpt lat="45.10054" lon="-0.61053">
        <ele>18.4</ele>
        <time>2024-11-24T08:31:10Z</time>
      </trkpt>
      <trkpt lat="45.10054" lon="-0.61053">
        <ele>18.4</ele>
        <time>2024-11-24T08:31:11Z</time>
      </trkpt>
      <trkpt lat="45.10054" lon="-0.61053">
        <ele>18.4</ele>
        <time>2024-11-24T08:31:12Z</time>
      </trkpt>
      <trkpt lat="45.10054" lon="-0.61053">
        <ele>18.4</ele>
        <time>2024-11-24T08:31:13Z</time>
      </trkpt>
      <trkpt lat="45.10055" lon="-0.61054">
        <ele>18.4</ele>
        <time>2024-11-24T08:31:14Z</time>
      </trkpt>
      <trkpt lat="45.10055" lon="-0.61054">
        <ele>18.4</ele>
        <time>2024-11-24T08:31:15Z</time>
      </trkpt>
      <trkpt lat="45.10055" lon="-0.61053">
        <ele>18.4</ele>
        <time>2024-11-24T08:31:16Z</time>
      </trkpt>
      <trkpt lat="45.10057" lon="-0.61053">
        <ele>18.4</ele>
        <time>2024-11-24T08:31:17Z</time>
      </trkpt>
      <trkpt lat="45.10058" lon="-0.61052">
        <ele>18.3</ele>
        <time>2024-11-24T08:31:18Z</time>
      </trkpt>
      <trkpt lat="45.10059" lon="-0.6105">
        <ele>18.3</ele>
        <time>2024-11-24T08:31:19Z</time>
      </trkpt>
      <trkpt lat="45.10061" lon="-0.61049">
        <ele>18.3</ele>
        <time>2024-11-24T08:31:20Z</time>
      </trkpt>
      <trkpt lat="45.10061" lon="-0.61048">
        <ele>18.3</ele>
        <time>2024-11-24T08:31:21Z</time>
      </trkpt>
      <trkpt lat="45.10062" lon="-0.61047">
        <ele>18.3</ele>
        <time>2024-11-24T08:31:22Z</time>
      </trkpt>
      <trkpt lat="45.10063" lon="-0.61046">
        <ele>18.2</ele>
        <time>2024-11-24T08:31:23Z</time>
      </trkpt>
      <trkpt lat="45.10064" lon="-0.61046">
        <ele>18.2</ele>
        <time>2024-11-24T08:31:24Z</time>
      </trkpt>
      <trkpt lat="45.10065" lon="-0.61045">
        <ele>18.2</ele>
        <time>2024-11-24T08:31:25Z</time>
      </trkpt>
      <trkpt lat="45.10066" lon="-0.61045">
        <ele>18.2</ele>
        <time>2024-11-24T08:31:26Z</time>
      </trkpt>
      <trkpt lat="45.10067" lon="-0.61045">
        <ele>18.2</ele>
        <time>2024-11-24T08:31:27Z</time>
      </trkpt>
      <trkpt lat="45.10068" lon="-0.61044">
        <ele>18.1</ele>
        <time>2024-11-24T08:31:28Z</time>
      </trkpt>
      <trkpt lat="45.10069" lon="-0.61044">
        <ele>18.1</ele>
        <time>2024-11-24T08:31:29Z</time>
      </trkpt>
      <trkpt lat="45.1007" lon="-0.61043">
        <ele>18.1</ele>
        <time>2024-11-24T08:31:30Z</time>
      </trkpt>
      <trkpt lat="45.10071" lon="-0.61043">
        <ele>18.1</ele>
        <time>2024-11-24T08:31:31Z</time>
      </trkpt>
      <trkpt lat="45.10072" lon="-0.61043">
        <ele>18.1</ele>
        <time>2024-11-24T08:31:32Z</time>
      </trkpt>
      <trkpt lat="45.10073" lon="-0.61042">
        <ele>18</ele>
        <time>2024-11-24T08:31:33Z</time>
      </trkpt>
      <trkpt lat="45.10074" lon="-0.61042">
        <ele>18</ele>
        <time>2024-11-24T08:31:34Z</time>
      </trkpt>
      <trkpt lat="45.10075" lon="-0.61041">
        <ele>18</ele>
        <time>2024-11-24T08:31:35Z</time>
      </trkpt>
      <trkpt lat="45.10076" lon="-0.61041">
        <ele>18</ele>
        <time>2024-11-24T08:31:36Z</time>
      </trkpt>
      <trkpt lat="45.10077" lon="-0.6104">
        <ele>17.9</ele>
        <time>2024-11-24T08:31:37Z</time>
      </trkpt>
      <trkpt lat="45.10078" lon="-0.6104">
        <ele>17.9</ele>
        <time>2024-11-24T08:31:38Z</time>
      </trkpt>
      <trkpt lat="45.1008" lon="-0.61039">
        <ele>17.9</ele>
        <time>2024-11-24T08:31:39Z</time>
      </trkpt>
      <trkpt lat="45.10081" lon="-0.61038">
        <ele>17.9</ele>
        <time>2024-11-24T08:31:40Z</time>
      </trkpt>
      <trkpt lat="45.10082" lon="-0.61037">
        <ele>17.8</ele>
        <time>2024-11-24T08:31:41Z</time>
      </trkpt>
      <trkpt lat="45.10083" lon="-0.61037">
        <ele>17.8</ele>
        <time>2024-11-24T08:31:42Z</time>
      </trkpt>
      <trkpt lat="45.10084" lon="-0.61036">
        <ele>17.8</ele>
        <time>2024-11-24T08:31:43Z</time>
      </trkpt>
      <trkpt lat="45.10085" lon="-0.61034">
        <ele>17.8</ele>
        <time>2024-11-24T08:31:44Z</time>
      </trkpt>
      <trkpt lat="45.10087" lon="-0.61033">
        <ele>17.7</ele>
        <time>2024-11-24T08:31:45Z</time>
      </trkpt>
      <trkpt lat="45.10088" lon="-0.61033">
        <ele>17.7</ele>
        <time>2024-11-24T08:31:46Z</time>
      </trkpt>
      <trkpt lat="45.10089" lon="-0.61032">
        <ele>17.7</ele>
        <time>2024-11-24T08:31:47Z</time>
      </trkpt>
      <trkpt lat="45.1009" lon="-0.61031">
        <ele>17.7</ele>
        <time>2024-11-24T08:31:48Z</time>
      </trkpt>
      <trkpt lat="45.10091" lon="-0.61031">
        <ele>17.7</ele>
        <time>2024-11-24T08:31:49Z</time>
      </trkpt>
      <trkpt lat="45.10092" lon="-0.6103">
        <ele>17.6</ele>
        <time>2024-11-24T08:31:50Z</time>
      </trkpt>
      <trkpt lat="45.10093" lon="-0.6103">
        <ele>17.6</ele>
        <time>2024-11-24T08:31:51Z</time>
      </trkpt>
      <trkpt lat="45.10094" lon="-0.61029">
        <ele>17.6</ele>
        <time>2024-11-24T08:31:52Z</time>
      </trkpt>
      <trkpt lat="45.10095" lon="-0.61028">
        <ele>17.6</ele>
        <time>2024-11-24T08:31:53Z</time>
      </trkpt>
      <trkpt lat="45.10097" lon="-0.61027">
        <ele>17.6</ele>
        <time>2024-11-24T08:31:54Z</time>
      </trkpt>
      <trkpt lat="45.10098" lon="-0.61026">
        <ele>17.6</ele>
        <time>2024-11-24T08:31:55Z</time>
      </trkpt>
      <trkpt lat="45.10099" lon="-0.61024">
        <ele>17.5</ele>
        <time>2024-11-24T08:31:56Z</time>
      </trkpt>
      <trkpt lat="45.101" lon="-0.61024">
        <ele>17.5</ele>
        <time>2024-11-24T08:31:57Z</time>
      </trkpt>
      <trkpt lat="45.10101" lon="-0.61023">
        <ele>17.5</ele>
        <time>2024-11-24T08:31:58Z</time>
      </trkpt>
      <trkpt lat="45.10103" lon="-0.61021">
        <ele>17.5</ele>
        <time>2024-11-24T08:31:59Z</time>
      </trkpt>
      <trkpt lat="45.10103" lon="-0.61021">
        <ele>17.5</ele>
        <time>2024-11-24T08:32:00Z</time>
      </trkpt>
      <trkpt lat="45.10104" lon="-0.6102">
        <ele>17.5</ele>
        <time>2024-11-24T08:32:01Z</time>
      </trkpt>
      <trkpt lat="45.10105" lon="-0.61019">
        <ele>17.4</ele>
        <time>2024-11-24T08:32:02Z</time>
      </trkpt>
      <trkpt lat="45.10106" lon="-0.61018">
        <ele>17.4</ele>
        <time>2024-11-24T08:32:03Z</time>
      </trkpt>
      <trkpt lat="45.10108" lon="-0.61017">
        <ele>17.4</ele>
        <time>2024-11-24T08:32:04Z</time>
      </trkpt>
      <trkpt lat="45.10109" lon="-0.61016">
        <ele>17.4</ele>
        <time>2024-11-24T08:32:05Z</time>
      </trkpt>
      <trkpt lat="45.1011" lon="-0.61015">
        <ele>17.4</ele>
        <time>2024-11-24T08:32:06Z</time>
      </trkpt>
      <trkpt lat="45.10111" lon="-0.61014">
        <ele>17.4</ele>
        <time>2024-11-24T08:32:07Z</time>
      </trkpt>
      <trkpt lat="45.10112" lon="-0.61012">
        <ele>17.3</ele>
        <time>2024-11-24T08:32:08Z</time>
      </trkpt>
      <trkpt lat="45.10113" lon="-0.6101">
        <ele>17.3</ele>
        <time>2024-11-24T08:32:09Z</time>
      </trkpt>
      <trkpt lat="45.10114" lon="-0.61008">
        <ele>17.3</ele>
        <time>2024-11-24T08:32:10Z</time>
      </trkpt>
      <trkpt lat="45.10115" lon="-0.61008">
        <ele>17.3</ele>
        <time>2024-11-24T08:32:11Z</time>
      </trkpt>
      <trkpt lat="45.10116" lon="-0.61007">
        <ele>17.3</ele>
        <time>2024-11-24T08:32:12Z</time>
      </trkpt>
      <trkpt lat="45.10117" lon="-0.61006">
        <ele>17.2</ele>
        <time>2024-11-24T08:32:13Z</time>
      </trkpt>
      <trkpt lat="45.10118" lon="-0.61005">
        <ele>17.2</ele>
        <time>2024-11-24T08:32:14Z</time>
      </trkpt>
      <trkpt lat="45.10119" lon="-0.61004">
        <ele>17.2</ele>
        <time>2024-11-24T08:32:15Z</time>
      </trkpt>
      <trkpt lat="45.1012" lon="-0.61003">
        <ele>17.2</ele>
        <time>2024-11-24T08:32:16Z</time>
      </trkpt>
      <trkpt lat="45.10121" lon="-0.61002">
        <ele>17.2</ele>
        <time>2024-11-24T08:32:17Z</time>
      </trkpt>
      <trkpt lat="45.10122" lon="-0.61001">
        <ele>17.1</ele>
        <time>2024-11-24T08:32:18Z</time>
      </trkpt>
      <trkpt lat="45.10123" lon="-0.61">
        <ele>17.1</ele>
        <time>2024-11-24T08:32:19Z</time>
      </trkpt>
      <trkpt lat="45.10124" lon="-0.60999">
        <ele>17.1</ele>
        <time>2024-11-24T08:32:20Z</time>
      </trkpt>
      <trkpt lat="45.10126" lon="-0.60998">
        <ele>17.1</ele>
        <time>2024-11-24T08:32:21Z</time>
      </trkpt>
      <trkpt lat="45.10127" lon="-0.60998">
        <ele>17</ele>
        <time>2024-11-24T08:32:22Z</time>
      </trkpt>
      <trkpt lat="45.10127" lon="-0.60997">
        <ele>17</ele>
        <time>2024-11-24T08:32:23Z</time>
      </trkpt>
      <trkpt lat="45.10129" lon="-0.60996">
        <ele>17</ele>
        <time>2024-11-24T08:32:24Z</time>
      </trkpt>
      <trkpt lat="45.1013" lon="-0.60995">
        <ele>17</ele>
        <time>2024-11-24T08:32:25Z</time>
      </trkpt>
      <trkpt lat="45.10132" lon="-0.60994">
        <ele>16.9</ele>
        <time>2024-11-24T08:32:26Z</time>
      </trkpt>
      <trkpt lat="45.10133" lon="-0.60993">
        <ele>16.9</ele>
        <time>2024-11-24T08:32:27Z</time>
      </trkpt>
      <trkpt lat="45.10135" lon="-0.60992">
        <ele>16.9</ele>
        <time>2024-11-24T08:32:28Z</time>
      </trkpt>
      <trkpt lat="45.10137" lon="-0.60991">
        <ele>16.8</ele>
        <time>2024-11-24T08:32:29Z</time>
      </trkpt>
      <trkpt lat="45.10138" lon="-0.60991">
        <ele>16.8</ele>
        <time>2024-11-24T08:32:30Z</time>
      </trkpt>
      <trkpt lat="45.1014" lon="-0.6099">
        <ele>16.8</ele>
        <time>2024-11-24T08:32:31Z</time>
      </trkpt>
      <trkpt lat="45.10141" lon="-0.60989">
        <ele>16.7</ele>
        <time>2024-11-24T08:32:32Z</time>
      </trkpt>
      <trkpt lat="45.10143" lon="-0.60989">
        <ele>16.7</ele>
        <time>2024-11-24T08:32:33Z</time>
      </trkpt>
      <trkpt lat="45.10145" lon="-0.60988">
        <ele>16.7</ele>
        <time>2024-11-24T08:32:34Z</time>
      </trkpt>
      <trkpt lat="45.10146" lon="-0.60988">
        <ele>16.6</ele>
        <time>2024-11-24T08:32:35Z</time>
      </trkpt>
      <trkpt lat="45.10148" lon="-0.60987">
        <ele>16.6</ele>
        <time>2024-11-24T08:32:36Z</time>
      </trkpt>
      <trkpt lat="45.10149" lon="-0.60987">
        <ele>16.6</ele>
        <time>2024-11-24T08:32:37Z</time>
      </trkpt>
      <trkpt lat="45.1015" lon="-0.60987">
        <ele>16.6</ele>
        <time>2024-11-24T08:32:38Z</time>
      </trkpt>
      <trkpt lat="45.10152" lon="-0.60987">
        <ele>16.5</ele>
        <time>2024-11-24T08:32:39Z</time>
      </trkpt>
      <trkpt lat="45.10155" lon="-0.60987">
        <ele>16.5</ele>
        <time>2024-11-24T08:32:40Z</time>
      </trkpt>
      <trkpt lat="45.10156" lon="-0.60987">
        <ele>16.5</ele>
        <time>2024-11-24T08:32:41Z</time>
      </trkpt>
      <trkpt lat="45.10157" lon="-0.60987">
        <ele>16.5</ele>
        <time>2024-11-24T08:32:42Z</time>
      </trkpt>
      <trkpt lat="45.10159" lon="-0.60987">
        <ele>16.4</ele>
        <time>2024-11-24T08:32:43Z</time>
      </trkpt>
      <trkpt lat="45.1016" lon="-0.60987">
        <ele>16.4</ele>
        <time>2024-11-24T08:32:44Z</time>
      </trkpt>
      <trkpt lat="45.10162" lon="-0.60987">
        <ele>16.4</ele>
        <time>2024-11-24T08:32:45Z</time>
      </trkpt>
      <trkpt lat="45.10163" lon="-0.60987">
        <ele>16.4</ele>
        <time>2024-11-24T08:32:46Z</time>
      </trkpt>
      <trkpt lat="45.10165" lon="-0.60987">
        <ele>16.4</ele>
        <time>2024-11-24T08:32:47Z</time>
      </trkpt>
      <trkpt lat="45.10166" lon="-0.60987">
        <ele>16.4</ele>
        <time>2024-11-24T08:32:48Z</time>
      </trkpt>
      <trkpt lat="45.10168" lon="-0.60987">
        <ele>16.3</ele>
        <time>2024-11-24T08:32:49Z</time>
      </trkpt>
      <trkpt lat="45.1017" lon="-0.60987">
        <ele>16.3</ele>
        <time>2024-11-24T08:32:50Z</time>
      </trkpt>
      <trkpt lat="45.10171" lon="-0.60987">
        <ele>16.3</ele>
        <time>2024-11-24T08:32:51Z</time>
      </trkpt>
      <trkpt lat="45.10173" lon="-0.60987">
        <ele>16.3</ele>
        <time>2024-11-24T08:32:52Z</time>
      </trkpt>
      <trkpt lat="45.10174" lon="-0.60987">
        <ele>16.3</ele>
        <time>2024-11-24T08:32:53Z</time>
      </trkpt>
      <trkpt lat="45.10176" lon="-0.60987">
        <ele>16.3</ele>
        <time>2024-11-24T08:32:54Z</time>
      </trkpt>
      <trkpt lat="45.10178" lon="-0.60988">
        <ele>16.3</ele>
        <time>2024-11-24T08:32:55Z</time>
      </trkpt>
      <trkpt lat="45.10179" lon="-0.60988">
        <ele>16.2</ele>
        <time>2024-11-24T08:32:56Z</time>
      </trkpt>
      <trkpt lat="45.1018" lon="-0.60988">
        <ele>16.2</ele>
        <time>2024-11-24T08:32:57Z</time>
      </trkpt>
      <trkpt lat="45.10181" lon="-0.60988">
        <ele>16.2</ele>
        <time>2024-11-24T08:32:58Z</time>
      </trkpt>
      <trkpt lat="45.10183" lon="-0.60989">
        <ele>16.2</ele>
        <time>2024-11-24T08:32:59Z</time>
      </trkpt>
      <trkpt lat="45.10185" lon="-0.60989">
        <ele>16.2</ele>
        <time>2024-11-24T08:33:00Z</time>
      </trkpt>
      <trkpt lat="45.10186" lon="-0.60989">
        <ele>16.2</ele>
        <time>2024-11-24T08:33:01Z</time>
      </trkpt>
      <trkpt lat="45.10187" lon="-0.60989">
        <ele>16.2</ele>
        <time>2024-11-24T08:33:02Z</time>
      </trkpt>
      <trkpt lat="45.10188" lon="-0.60988">
        <ele>16.2</ele>
        <time>2024-11-24T08:33:03Z</time>
      </trkpt>
      <trkpt lat="45.1019" lon="-0.60988">
        <ele>16.2</ele>
        <time>2024-11-24T08:33:04Z</time>
      </trkpt>
      <trkpt lat="45.10191" lon="-0.60989">
        <ele>16.2</ele>
        <time>2024-11-24T08:33:05Z</time>
      </trkpt>
      <trkpt lat="45.10192" lon="-0.60989">
        <ele>16.2</ele>
        <time>2024-11-24T08:33:06Z</time>
      </trkpt>
      <trkpt lat="45.10193" lon="-0.60989">
        <ele>16.2</ele>
        <time>2024-11-24T08:33:07Z</time>
      </trkpt>
      <trkpt lat="45.10194" lon="-0.60988">
        <ele>16.2</ele>
        <time>2024-11-24T08:33:08Z</time>
      </trkpt>
      <trkpt lat="45.10196" lon="-0.60988">
        <ele>16.2</ele>
        <time>2024-11-24T08:33:09Z</time>
      </trkpt>
      <trkpt lat="45.10197" lon="-0.60988">
        <ele>16.2</ele>
        <time>2024-11-24T08:33:10Z</time>
      </trkpt>
      <trkpt lat="45.10198" lon="-0.60988">
        <ele>16.2</ele>
        <time>2024-11-24T08:33:11Z</time>
      </trkpt>
      <trkpt lat="45.102" lon="-0.60989">
        <ele>16.2</ele>
        <time>2024-11-24T08:33:12Z</time>
      </trkpt>
      <trkpt lat="45.10201" lon="-0.60989">
        <ele>16.2</ele>
        <time>2024-11-24T08:33:13Z</time>
      </trkpt>
      <trkpt lat="45.10203" lon="-0.60988">
        <ele>16.2</ele>
        <time>2024-11-24T08:33:14Z</time>
      </trkpt>
      <trkpt lat="45.10204" lon="-0.60988">
        <ele>16.2</ele>
        <time>2024-11-24T08:33:15Z</time>
      </trkpt>
      <trkpt lat="45.10205" lon="-0.60988">
        <ele>16.2</ele>
        <time>2024-11-24T08:33:16Z</time>
      </trkpt>
      <trkpt lat="45.10206" lon="-0.60988">
        <ele>16.2</ele>
        <time>2024-11-24T08:33:17Z</time>
      </trkpt>
      <trkpt lat="45.10208" lon="-0.60987">
        <ele>16.2</ele>
        <time>2024-11-24T08:33:18Z</time>
      </trkpt>
      <trkpt lat="45.10209" lon="-0.60987">
        <ele>16.2</ele>
        <time>2024-11-24T08:33:19Z</time>
      </trkpt>
      <trkpt lat="45.10211" lon="-0.60987">
        <ele>16.2</ele>
        <time>2024-11-24T08:33:20Z</time>
      </trkpt>
      <trkpt lat="45.10212" lon="-0.60987">
        <ele>16.2</ele>
        <time>2024-11-24T08:33:21Z</time>
      </trkpt>
      <trkpt lat="45.10213" lon="-0.60986">
        <ele>16.2</ele>
        <time>2024-11-24T08:33:22Z</time>
      </trkpt>
      <trkpt lat="45.10215" lon="-0.60986">
        <ele>16.1</ele>
        <time>2024-11-24T08:33:23Z</time>
      </trkpt>
      <trkpt lat="45.10216" lon="-0.60985">
        <ele>16.1</ele>
        <time>2024-11-24T08:33:24Z</time>
      </trkpt>
      <trkpt lat="45.10217" lon="-0.60985">
        <ele>16.1</ele>
        <time>2024-11-24T08:33:25Z</time>
      </trkpt>
      <trkpt lat="45.10219" lon="-0.60984">
        <ele>16.1</ele>
        <time>2024-11-24T08:33:26Z</time>
      </trkpt>
      <trkpt lat="45.1022" lon="-0.60984">
        <ele>16.1</ele>
        <time>2024-11-24T08:33:27Z</time>
      </trkpt>
      <trkpt lat="45.10222" lon="-0.60983">
        <ele>16.1</ele>
        <time>2024-11-24T08:33:28Z</time>
      </trkpt>
      <trkpt lat="45.10223" lon="-0.60983">
        <ele>16.1</ele>
        <time>2024-11-24T08:33:29Z</time>
      </trkpt>
      <trkpt lat="45.10225" lon="-0.60983">
        <ele>16.1</ele>
        <time>2024-11-24T08:33:30Z</time>
      </trkpt>
      <trkpt lat="45.10226" lon="-0.60983">
        <ele>16.1</ele>
        <time>2024-11-24T08:33:31Z</time>
      </trkpt>
      <trkpt lat="45.10227" lon="-0.60982">
        <ele>16.1</ele>
        <time>2024-11-24T08:33:32Z</time>
      </trkpt>
      <trkpt lat="45.10229" lon="-0.60982">
        <ele>16.1</ele>
        <time>2024-11-24T08:33:33Z</time>
      </trkpt>
      <trkpt lat="45.10231" lon="-0.60982">
        <ele>16.1</ele>
        <time>2024-11-24T08:33:34Z</time>
      </trkpt>
      <trkpt lat="45.10232" lon="-0.60982">
        <ele>16.1</ele>
        <time>2024-11-24T08:33:35Z</time>
      </trkpt>
      <trkpt lat="45.10233" lon="-0.60982">
        <ele>16.1</ele>
        <time>2024-11-24T08:33:36Z</time>
      </trkpt>
      <trkpt lat="45.10235" lon="-0.60983">
        <ele>16.1</ele>
        <time>2024-11-24T08:33:37Z</time>
      </trkpt>
      <trkpt lat="45.10236" lon="-0.60983">
        <ele>16.1</ele>
        <time>2024-11-24T08:33:38Z</time>
      </trkpt>
      <trkpt lat="45.10237" lon="-0.60984">
        <ele>16.1</ele>
        <time>2024-11-24T08:33:39Z</time>
      </trkpt>
      <trkpt lat="45.10239" lon="-0.60984">
        <ele>16.1</ele>
        <time>2024-11-24T08:33:40Z</time>
      </trkpt>
      <trkpt lat="45.1024" lon="-0.60985">
        <ele>16.1</ele>
        <time>2024-11-24T08:33:41Z</time>
      </trkpt>
      <trkpt lat="45.10241" lon="-0.60986">
        <ele>16.1</ele>
        <time>2024-11-24T08:33:42Z</time>
      </trkpt>
      <trkpt lat="45.10243" lon="-0.60987">
        <ele>16.1</ele>
        <time>2024-11-24T08:33:43Z</time>
      </trkpt>
      <trkpt lat="45.10244" lon="-0.60989">
        <ele>16.1</ele>
        <time>2024-11-24T08:33:44Z</time>
      </trkpt>
      <trkpt lat="45.10245" lon="-0.6099">
        <ele>16.1</ele>
        <time>2024-11-24T08:33:45Z</time>
      </trkpt>
      <trkpt lat="45.10246" lon="-0.60992">
        <ele>16.1</ele>
        <time>2024-11-24T08:33:46Z</time>
      </trkpt>
      <trkpt lat="45.10247" lon="-0.60993">
        <ele>16.1</ele>
        <time>2024-11-24T08:33:47Z</time>
      </trkpt>
      <trkpt lat="45.10248" lon="-0.60994">
        <ele>16.2</ele>
        <time>2024-11-24T08:33:48Z</time>
      </trkpt>
      <trkpt lat="45.10264" lon="-0.61047">
        <ele>17.5</ele>
        <time>2024-11-24T08:34:19Z</time>
      </trkpt>
      <trkpt lat="45.10265" lon="-0.61049">
        <ele>17.6</ele>
        <time>2024-11-24T08:34:20Z</time>
      </trkpt>
      <trkpt lat="45.10265" lon="-0.61051">
        <ele>17.7</ele>
        <time>2024-11-24T08:34:21Z</time>
      </trkpt>
      <trkpt lat="45.10265" lon="-0.61053">
        <ele>17.7</ele>
        <time>2024-11-24T08:34:22Z</time>
      </trkpt>
      <trkpt lat="45.10266" lon="-0.61054">
        <ele>17.8</ele>
        <time>2024-11-24T08:34:23Z</time>
      </trkpt>
      <trkpt lat="45.10266" lon="-0.61056">
        <ele>17.9</ele>
        <time>2024-11-24T08:34:24Z</time>
      </trkpt>
      <trkpt lat="45.10266" lon="-0.61058">
        <ele>17.9</ele>
        <time>2024-11-24T08:34:25Z</time>
      </trkpt>
      <trkpt lat="45.10267" lon="-0.61061">
        <ele>18</ele>
        <time>2024-11-24T08:34:26Z</time>
      </trkpt>
      <trkpt lat="45.10267" lon="-0.61062">
        <ele>18.1</ele>
        <time>2024-11-24T08:34:27Z</time>
      </trkpt>
      <trkpt lat="45.10268" lon="-0.61063">
        <ele>18.1</ele>
        <time>2024-11-24T08:34:28Z</time>
      </trkpt>
      <trkpt lat="45.10268" lon="-0.61065">
        <ele>18.2</ele>
        <time>2024-11-24T08:34:29Z</time>
      </trkpt>
      <trkpt lat="45.10268" lon="-0.61067">
        <ele>18.3</ele>
        <time>2024-11-24T08:34:30Z</time>
      </trkpt>
      <trkpt lat="45.10269" lon="-0.61069">
        <ele>18.4</ele>
        <time>2024-11-24T08:34:31Z</time>
      </trkpt>
      <trkpt lat="45.10269" lon="-0.61071">
        <ele>18.5</ele>
        <time>2024-11-24T08:34:32Z</time>
      </trkpt>
      <trkpt lat="45.10271" lon="-0.61089">
        <ele>19.3</ele>
        <time>2024-11-24T08:34:33Z</time>
      </trkpt>
      <trkpt lat="45.10272" lon="-0.61105">
        <ele>20.2</ele>
        <time>2024-11-24T08:35:14Z</time>
      </trkpt>
      <trkpt lat="45.10273" lon="-0.61122">
        <ele>21.1</ele>
        <time>2024-11-24T08:35:15Z</time>
      </trkpt>
      <trkpt lat="45.10275" lon="-0.61138">
        <ele>22.1</ele>
        <time>2024-11-24T08:35:16Z</time>
      </trkpt>
      <trkpt lat="45.10276" lon="-0.61154">
        <ele>23.2</ele>
        <time>2024-11-24T08:35:17Z</time>
      </trkpt>
      <trkpt lat="45.10279" lon="-0.61169">
        <ele>24.5</ele>
        <time>2024-11-24T08:35:18Z</time>
      </trkpt>
      <trkpt lat="45.10281" lon="-0.61183">
        <ele>25.7</ele>
        <time>2024-11-24T08:35:49Z</time>
      </trkpt>
      <trkpt lat="45.10284" lon="-0.61196">
        <ele>27</ele>
        <time>2024-11-24T08:35:50Z</time>
      </trkpt>
      <trkpt lat="45.10286" lon="-0.6121">
        <ele>28.3</ele>
        <time>2024-11-24T08:35:51Z</time>
      </trkpt>
      <trkpt lat="45.10286" lon="-0.61211">
        <ele>28.5</ele>
        <time>2024-11-24T08:35:52Z</time>
      </trkpt>
      <trkpt lat="45.10287" lon="-0.61213">
        <ele>28.6</ele>
        <time>2024-11-24T08:35:53Z</time>
      </trkpt>
      <trkpt lat="45.10287" lon="-0.61215">
        <ele>28.8</ele>
        <time>2024-11-24T08:35:54Z</time>
      </trkpt>
      <trkpt lat="45.10287" lon="-0.61216">
        <ele>28.9</ele>
        <time>2024-11-24T08:35:55Z</time>
      </trkpt>
      <trkpt lat="45.10287" lon="-0.61217">
        <ele>29</ele>
        <time>2024-11-24T08:35:56Z</time>
      </trkpt>
      <trkpt lat="45.10288" lon="-0.61218">
        <ele>29.1</ele>
        <time>2024-11-24T08:35:57Z</time>
      </trkpt>
      <trkpt lat="45.10288" lon="-0.61219">
        <ele>29.2</ele>
        <time>2024-11-24T08:35:58Z</time>
      </trkpt>
      <trkpt lat="45.10288" lon="-0.61219">
        <ele>29.2</ele>
        <time>2024-11-24T08:35:59Z</time>
      </trkpt>
      <trkpt lat="45.10287" lon="-0.61218">
        <ele>29.2</ele>
        <time>2024-11-24T08:36:00Z</time>
      </trkpt>
      <trkpt lat="45.10287" lon="-0.61218">
        <ele>29.3</ele>
        <time>2024-11-24T08:36:01Z</time>
      </trkpt>
      <trkpt lat="45.10287" lon="-0.61218">
        <ele>29.3</ele>
        <time>2024-11-24T08:36:02Z</time>
      </trkpt>
      <trkpt lat="45.10287" lon="-0.61217">
        <ele>29.3</ele>
        <time>2024-11-24T08:36:03Z</time>
      </trkpt>
      <trkpt lat="45.10287" lon="-0.61217">
        <ele>29.3</ele>
        <time>2024-11-24T08:36:04Z</time>
      </trkpt>
      <trkpt lat="45.10287" lon="-0.61217">
        <ele>29.3</ele>
        <time>2024-11-24T08:36:05Z</time>
      </trkpt>
      <trkpt lat="45.10287" lon="-0.61217">
        <ele>29.3</ele>
        <time>2024-11-24T08:36:06Z</time>
      </trkpt>
      <trkpt lat="45.10287" lon="-0.61217">
        <ele>29.4</ele>
        <time>2024-11-24T08:36:07Z</time>
      </trkpt>
      <trkpt lat="45.10287" lon="-0.61217">
        <ele>29.4</ele>
        <time>2024-11-24T08:36:08Z</time>
      </trkpt>
      <trkpt lat="45.10287" lon="-0.61217">
        <ele>29.4</ele>
        <time>2024-11-24T08:36:09Z</time>
      </trkpt>
      <trkpt lat="45.10287" lon="-0.61217">
        <ele>29.4</ele>
        <time>2024-11-24T08:36:10Z</time>
      </trkpt>
      <trkpt lat="45.10287" lon="-0.61217">
        <ele>29.4</ele>
        <time>2024-11-24T08:36:11Z</time>
      </trkpt>
      <trkpt lat="45.10287" lon="-0.61217">
        <ele>29.4</ele>
        <time>2024-11-24T08:36:12Z</time>
      </trkpt>
      <trkpt lat="45.10287" lon="-0.61217">
        <ele>29.4</ele>
        <time>2024-11-24T08:36:13Z</time>
      </trkpt>
      <trkpt lat="45.10287" lon="-0.61217">
        <ele>29.4</ele>
        <time>2024-11-24T08:36:14Z</time>
      </trkpt>
      <trkpt lat="45.10287" lon="-0.61217">
        <ele>29.4</ele>
        <time>2024-11-24T08:36:15Z</time>
      </trkpt>
      <trkpt lat="45.10287" lon="-0.61217">
        <ele>29.4</ele>
        <time>2024-11-24T08:36:16Z</time>
      </trkpt>
      <trkpt lat="45.10287" lon="-0.61217">
        <ele>29.4</ele>
        <time>2024-11-24T08:36:17Z</time>
      </trkpt>
      <trkpt lat="45.10287" lon="-0.61217">
        <ele>29.4</ele>
        <time>2024-11-24T08:36:18Z</time>
      </trkpt>
      <trkpt lat="45.10287" lon="-0.61217">
        <ele>29.4</ele>
        <time>2024-11-24T08:36:19Z</time>
      </trkpt>
      <trkpt lat="45.10287" lon="-0.61216">
        <ele>29.5</ele>
        <time>2024-11-24T08:36:20Z</time>
      </trkpt>
      <trkpt lat="45.10287" lon="-0.61215">
        <ele>29.6</ele>
        <time>2024-11-24T08:36:21Z</time>
      </trkpt>
      <trkpt lat="45.10287" lon="-0.61215">
        <ele>29.6</ele>
        <time>2024-11-24T08:36:22Z</time>
      </trkpt>
      <trkpt lat="45.10287" lon="-0.61215">
        <ele>29.6</ele>
        <time>2024-11-24T08:36:23Z</time>
      </trkpt>
      <trkpt lat="45.10287" lon="-0.61216">
        <ele>29.6</ele>
        <time>2024-11-24T08:36:24Z</time>
      </trkpt>
      <trkpt lat="45.10287" lon="-0.61216">
        <ele>29.7</ele>
        <time>2024-11-24T08:36:25Z</time>
      </trkpt>
      <trkpt lat="45.10286" lon="-0.61217">
        <ele>29.7</ele>
        <time>2024-11-24T08:36:26Z</time>
      </trkpt>
      <trkpt lat="45.10286" lon="-0.61218">
        <ele>29.8</ele>
        <time>2024-11-24T08:36:27Z</time>
      </trkpt>
      <trkpt lat="45.10286" lon="-0.61218">
        <ele>29.8</ele>
        <time>2024-11-24T08:36:28Z</time>
      </trkpt>
      <trkpt lat="45.10287" lon="-0.61218">
        <ele>29.8</ele>
        <time>2024-11-24T08:36:29Z</time>
      </trkpt>
      <trkpt lat="45.10287" lon="-0.61219">
        <ele>29.9</ele>
        <time>2024-11-24T08:36:30Z</time>
      </trkpt>
      <trkpt lat="45.10288" lon="-0.6122">
        <ele>30.1</ele>
        <time>2024-11-24T08:36:31Z</time>
      </trkpt>
      <trkpt lat="45.10287" lon="-0.6122">
        <ele>30.2</ele>
        <time>2024-11-24T08:36:32Z</time>
      </trkpt>
      <trkpt lat="45.10287" lon="-0.61222">
        <ele>30.4</ele>
        <time>2024-11-24T08:36:33Z</time>
      </trkpt>
      <trkpt lat="45.10288" lon="-0.61224">
        <ele>30.6</ele>
        <time>2024-11-24T08:36:34Z</time>
      </trkpt>
      <trkpt lat="45.10288" lon="-0.61226">
        <ele>30.8</ele>
        <time>2024-11-24T08:36:35Z</time>
      </trkpt>
      <trkpt lat="45.10289" lon="-0.61228">
        <ele>31</ele>
        <time>2024-11-24T08:36:36Z</time>
      </trkpt>
      <trkpt lat="45.1029" lon="-0.61231">
        <ele>31.4</ele>
        <time>2024-11-24T08:36:37Z</time>
      </trkpt>
      <trkpt lat="45.1029" lon="-0.61232">
        <ele>31.5</ele>
        <time>2024-11-24T08:36:38Z</time>
      </trkpt>
      <trkpt lat="45.10291" lon="-0.61233">
        <ele>31.6</ele>
        <time>2024-11-24T08:36:39Z</time>
      </trkpt>
      <trkpt lat="45.10291" lon="-0.61234">
        <ele>31.7</ele>
        <time>2024-11-24T08:36:40Z</time>
      </trkpt>
      <trkpt lat="45.10291" lon="-0.61236">
        <ele>31.9</ele>
        <time>2024-11-24T08:36:41Z</time>
      </trkpt>
      <trkpt lat="45.10291" lon="-0.61237">
        <ele>32.1</ele>
        <time>2024-11-24T08:36:42Z</time>
      </trkpt>
      <trkpt lat="45.10291" lon="-0.61239">
        <ele>32.3</ele>
        <time>2024-11-24T08:36:43Z</time>
      </trkpt>
      <trkpt lat="45.10291" lon="-0.6124">
        <ele>32.4</ele>
        <time>2024-11-24T08:36:44Z</time>
      </trkpt>
      <trkpt lat="45.10292" lon="-0.61242">
        <ele>32.6</ele>
        <time>2024-11-24T08:36:45Z</time>
      </trkpt>
      <trkpt lat="45.10292" lon="-0.61243">
        <ele>32.8</ele>
        <time>2024-11-24T08:36:46Z</time>
      </trkpt>
      <trkpt lat="45.10292" lon="-0.61245">
        <ele>32.9</ele>
        <time>2024-11-24T08:36:47Z</time>
      </trkpt>
      <trkpt lat="45.10292" lon="-0.61246">
        <ele>33.1</ele>
        <time>2024-11-24T08:36:48Z</time>
      </trkpt>
      <trkpt lat="45.10292" lon="-0.61248">
        <ele>33.3</ele>
        <time>2024-11-24T08:36:49Z</time>
      </trkpt>
      <trkpt lat="45.10292" lon="-0.6125">
        <ele>33.4</ele>
        <time>2024-11-24T08:36:50Z</time>
      </trkpt>
      <trkpt lat="45.10293" lon="-0.61251">
        <ele>33.6</ele>
        <time>2024-11-24T08:36:51Z</time>
      </trkpt>
      <trkpt lat="45.10293" lon="-0.61254">
        <ele>33.9</ele>
        <time>2024-11-24T08:36:52Z</time>
      </trkpt>
      <trkpt lat="45.10293" lon="-0.61255">
        <ele>34</ele>
        <time>2024-11-24T08:36:53Z</time>
      </trkpt>
      <trkpt lat="45.10294" lon="-0.61256">
        <ele>34.2</ele>
        <time>2024-11-24T08:36:54Z</time>
      </trkpt>
      <trkpt lat="45.10294" lon="-0.61258">
        <ele>34.3</ele>
        <time>2024-11-24T08:36:55Z</time>
      </trkpt>
      <trkpt lat="45.10294" lon="-0.61259">
        <ele>34.4</ele>
        <time>2024-11-24T08:36:56Z</time>
      </trkpt>
      <trkpt lat="45.10294" lon="-0.61261">
        <ele>34.6</ele>
        <time>2024-11-24T08:36:57Z</time>
      </trkpt>
      <trkpt lat="45.10294" lon="-0.61262">
        <ele>34.8</ele>
        <time>2024-11-24T08:36:58Z</time>
      </trkpt>
      <trkpt lat="45.10294" lon="-0.61265">
        <ele>35</ele>
        <time>2024-11-24T08:36:59Z</time>
      </trkpt>
      <trkpt lat="45.10294" lon="-0.61266">
        <ele>35.1</ele>
        <time>2024-11-24T08:37:00Z</time>
      </trkpt>
      <trkpt lat="45.10295" lon="-0.61267">
        <ele>35.2</ele>
        <time>2024-11-24T08:37:01Z</time>
      </trkpt>
      <trkpt lat="45.10295" lon="-0.61268">
        <ele>35.3</ele>
        <time>2024-11-24T08:37:02Z</time>
      </trkpt>
      <trkpt lat="45.10295" lon="-0.61269">
        <ele>35.5</ele>
        <time>2024-11-24T08:37:03Z</time>
      </trkpt>
      <trkpt lat="45.10296" lon="-0.61272">
        <ele>35.7</ele>
        <time>2024-11-24T08:37:04Z</time>
      </trkpt>
      <trkpt lat="45.10296" lon="-0.61273">
        <ele>35.8</ele>
        <time>2024-11-24T08:37:05Z</time>
      </trkpt>
      <trkpt lat="45.10296" lon="-0.61274">
        <ele>35.9</ele>
        <time>2024-11-24T08:37:06Z</time>
      </trkpt>
      <trkpt lat="45.10296" lon="-0.61277">
        <ele>36.2</ele>
        <time>2024-11-24T08:37:07Z</time>
      </trkpt>
      <trkpt lat="45.10296" lon="-0.61278">
        <ele>36.3</ele>
        <time>2024-11-24T08:37:08Z</time>
      </trkpt>
      <trkpt lat="45.10296" lon="-0.61279">
        <ele>36.4</ele>
        <time>2024-11-24T08:37:09Z</time>
      </trkpt>
      <trkpt lat="45.10296" lon="-0.6128">
        <ele>36.5</ele>
        <time>2024-11-24T08:37:10Z</time>
      </trkpt>
      <trkpt lat="45.10296" lon="-0.61282">
        <ele>36.6</ele>
        <time>2024-11-24T08:37:11Z</time>
      </trkpt>
      <trkpt lat="45.10296" lon="-0.61283">
        <ele>36.8</ele>
        <time>2024-11-24T08:37:12Z</time>
      </trkpt>
      <trkpt lat="45.10297" lon="-0.61284">
        <ele>36.9</ele>
        <time>2024-11-24T08:37:13Z</time>
      </trkpt>
      <trkpt lat="45.10297" lon="-0.61287">
        <ele>37.1</ele>
        <time>2024-11-24T08:37:14Z</time>
      </trkpt>
      <trkpt lat="45.10297" lon="-0.61288">
        <ele>37.2</ele>
        <time>2024-11-24T08:37:15Z</time>
      </trkpt>
      <trkpt lat="45.10297" lon="-0.61289">
        <ele>37.4</ele>
        <time>2024-11-24T08:37:16Z</time>
      </trkpt>
      <trkpt lat="45.10297" lon="-0.61291">
        <ele>37.5</ele>
        <time>2024-11-24T08:37:17Z</time>
      </trkpt>
      <trkpt lat="45.10297" lon="-0.61293">
        <ele>37.7</ele>
        <time>2024-11-24T08:37:18Z</time>
      </trkpt>
      <trkpt lat="45.10297" lon="-0.61295">
        <ele>37.9</ele>
        <time>2024-11-24T08:37:19Z</time>
      </trkpt>
      <trkpt lat="45.10298" lon="-0.61296">
        <ele>38</ele>
        <time>2024-11-24T08:37:20Z</time>
      </trkpt>
      <trkpt lat="45.10298" lon="-0.61298">
        <ele>38.1</ele>
        <time>2024-11-24T08:37:21Z</time>
      </trkpt>
      <trkpt lat="45.10298" lon="-0.613">
        <ele>38.4</ele>
        <time>2024-11-24T08:37:22Z</time>
      </trkpt>
      <trkpt lat="45.10299" lon="-0.61301">
        <ele>38.5</ele>
        <time>2024-11-24T08:37:23Z</time>
      </trkpt>
      <trkpt lat="45.10299" lon="-0.61303">
        <ele>38.6</ele>
        <time>2024-11-24T08:37:24Z</time>
      </trkpt>
      <trkpt lat="45.10299" lon="-0.61304">
        <ele>38.6</ele>
        <time>2024-11-24T08:37:25Z</time>
      </trkpt>
      <trkpt lat="45.10299" lon="-0.61305">
        <ele>38.8</ele>
        <time>2024-11-24T08:37:26Z</time>
      </trkpt>
      <trkpt lat="45.10299" lon="-0.61306">
        <ele>38.9</ele>
        <time>2024-11-24T08:37:27Z</time>
      </trkpt>
      <trkpt lat="45.10299" lon="-0.61308">
        <ele>39</ele>
        <time>2024-11-24T08:37:28Z</time>
      </trkpt>
      <trkpt lat="45.10299" lon="-0.61309">
        <ele>39.1</ele>
        <time>2024-11-24T08:37:29Z</time>
      </trkpt>
      <trkpt lat="45.10299" lon="-0.6131">
        <ele>39.2</ele>
        <time>2024-11-24T08:37:30Z</time>
      </trkpt>
      <trkpt lat="45.103" lon="-0.61311">
        <ele>39.3</ele>
        <time>2024-11-24T08:37:31Z</time>
      </trkpt>
      <trkpt lat="45.10301" lon="-0.61312">
        <ele>39.4</ele>
        <time>2024-11-24T08:37:32Z</time>
      </trkpt>
      <trkpt lat="45.10301" lon="-0.61314">
        <ele>39.5</ele>
        <time>2024-11-24T08:37:33Z</time>
      </trkpt>
      <trkpt lat="45.10301" lon="-0.61316">
        <ele>39.7</ele>
        <time>2024-11-24T08:37:34Z</time>
      </trkpt>
      <trkpt lat="45.10301" lon="-0.61317">
        <ele>39.8</ele>
        <time>2024-11-24T08:37:35Z</time>
      </trkpt>
      <trkpt lat="45.10301" lon="-0.61319">
        <ele>39.9</ele>
        <time>2024-11-24T08:37:36Z</time>
      </trkpt>
      <trkpt lat="45.10301" lon="-0.6132">
        <ele>40</ele>
        <time>2024-11-24T08:37:37Z</time>
      </trkpt>
      <trkpt lat="45.10301" lon="-0.61321">
        <ele>40.1</ele>
        <time>2024-11-24T08:37:38Z</time>
      </trkpt>
      <trkpt lat="45.10302" lon="-0.61323">
        <ele>40.3</ele>
        <time>2024-11-24T08:37:39Z</time>
      </trkpt>
      <trkpt lat="45.10301" lon="-0.61324">
        <ele>40.3</ele>
        <time>2024-11-24T08:37:40Z</time>
      </trkpt>
      <trkpt lat="45.10302" lon="-0.61325">
        <ele>40.4</ele>
        <time>2024-11-24T08:37:41Z</time>
      </trkpt>
      <trkpt lat="45.10302" lon="-0.61326">
        <ele>40.5</ele>
        <time>2024-11-24T08:37:42Z</time>
      </trkpt>
      <trkpt lat="45.10302" lon="-0.61327">
        <ele>40.6</ele>
        <time>2024-11-24T08:37:43Z</time>
      </trkpt>
      <trkpt lat="45.10302" lon="-0.61329">
        <ele>40.7</ele>
        <time>2024-11-24T08:37:44Z</time>
      </trkpt>
      <trkpt lat="45.10302" lon="-0.6133">
        <ele>40.8</ele>
        <time>2024-11-24T08:37:45Z</time>
      </trkpt>
      <trkpt lat="45.10302" lon="-0.61331">
        <ele>40.9</ele>
        <time>2024-11-24T08:37:46Z</time>
      </trkpt>
      <trkpt lat="45.10303" lon="-0.61333">
        <ele>41</ele>
        <time>2024-11-24T08:37:47Z</time>
      </trkpt>
      <trkpt lat="45.10303" lon="-0.61334">
        <ele>41.1</ele>
        <time>2024-11-24T08:37:48Z</time>
      </trkpt>
      <trkpt lat="45.10303" lon="-0.61336">
        <ele>41.2</ele>
        <time>2024-11-24T08:37:49Z</time>
      </trkpt>
      <trkpt lat="45.10303" lon="-0.61337">
        <ele>41.3</ele>
        <time>2024-11-24T08:37:50Z</time>
      </trkpt>
      <trkpt lat="45.10303" lon="-0.61338">
        <ele>41.4</ele>
        <time>2024-11-24T08:37:51Z</time>
      </trkpt>
      <trkpt lat="45.10304" lon="-0.61339">
        <ele>41.5</ele>
        <time>2024-11-24T08:37:52Z</time>
      </trkpt>
      <trkpt lat="45.10304" lon="-0.61341">
        <ele>41.6</ele>
        <time>2024-11-24T08:37:53Z</time>
      </trkpt>
      <trkpt lat="45.10304" lon="-0.61343">
        <ele>41.8</ele>
        <time>2024-11-24T08:37:54Z</time>
      </trkpt>
      <trkpt lat="45.10304" lon="-0.61344">
        <ele>41.8</ele>
        <time>2024-11-24T08:37:55Z</time>
      </trkpt>
      <trkpt lat="45.10304" lon="-0.61345">
        <ele>42</ele>
        <time>2024-11-24T08:37:56Z</time>
      </trkpt>
      <trkpt lat="45.10304" lon="-0.61347">
        <ele>42.1</ele>
        <time>2024-11-24T08:37:57Z</time>
      </trkpt>
      <trkpt lat="45.10304" lon="-0.61348">
        <ele>42.2</ele>
        <time>2024-11-24T08:37:58Z</time>
      </trkpt>
      <trkpt lat="45.10304" lon="-0.61351">
        <ele>42.4</ele>
        <time>2024-11-24T08:37:59Z</time>
      </trkpt>
      <trkpt lat="45.10304" lon="-0.61352">
        <ele>42.4</ele>
        <time>2024-11-24T08:38:00Z</time>
      </trkpt>
      <trkpt lat="45.10304" lon="-0.61353">
        <ele>42.6</ele>
        <time>2024-11-24T08:38:01Z</time>
      </trkpt>
      <trkpt lat="45.10305" lon="-0.61355">
        <ele>42.7</ele>
        <time>2024-11-24T08:38:02Z</time>
      </trkpt>
      <trkpt lat="45.10305" lon="-0.61357">
        <ele>42.8</ele>
        <time>2024-11-24T08:38:03Z</time>
      </trkpt>
      <trkpt lat="45.10305" lon="-0.61359">
        <ele>43</ele>
        <time>2024-11-24T08:38:04Z</time>
      </trkpt>
      <trkpt lat="45.10305" lon="-0.6136">
        <ele>43.1</ele>
        <time>2024-11-24T08:38:05Z</time>
      </trkpt>
      <trkpt lat="45.10305" lon="-0.61362">
        <ele>43.2</ele>
        <time>2024-11-24T08:38:06Z</time>
      </trkpt>
      <trkpt lat="45.10305" lon="-0.61364">
        <ele>43.4</ele>
        <time>2024-11-24T08:38:07Z</time>
      </trkpt>
      <trkpt lat="45.10305" lon="-0.61365">
        <ele>43.5</ele>
        <time>2024-11-24T08:38:08Z</time>
      </trkpt>
      <trkpt lat="45.10305" lon="-0.61368">
        <ele>43.7</ele>
        <time>2024-11-24T08:38:09Z</time>
      </trkpt>
      <trkpt lat="45.10305" lon="-0.61369">
        <ele>43.8</ele>
        <time>2024-11-24T08:38:10Z</time>
      </trkpt>
      <trkpt lat="45.10306" lon="-0.61371">
        <ele>43.9</ele>
        <time>2024-11-24T08:38:11Z</time>
      </trkpt>
      <trkpt lat="45.10305" lon="-0.61372">
        <ele>44</ele>
        <time>2024-11-24T08:38:12Z</time>
      </trkpt>
      <trkpt lat="45.10305" lon="-0.61374">
        <ele>44.2</ele>
        <time>2024-11-24T08:38:13Z</time>
      </trkpt>
      <trkpt lat="45.10305" lon="-0.61376">
        <ele>44.4</ele>
        <time>2024-11-24T08:38:14Z</time>
      </trkpt>
      <trkpt lat="45.10305" lon="-0.61378">
        <ele>44.5</ele>
        <time>2024-11-24T08:38:15Z</time>
      </trkpt>
      <trkpt lat="45.10306" lon="-0.61379">
        <ele>44.6</ele>
        <time>2024-11-24T08:38:16Z</time>
      </trkpt>
      <trkpt lat="45.10306" lon="-0.61382">
        <ele>44.8</ele>
        <time>2024-11-24T08:38:17Z</time>
      </trkpt>
      <trkpt lat="45.10306" lon="-0.61384">
        <ele>45</ele>
        <time>2024-11-24T08:38:18Z</time>
      </trkpt>
      <trkpt lat="45.10306" lon="-0.61385">
        <ele>45.1</ele>
        <time>2024-11-24T08:38:19Z</time>
      </trkpt>
      <trkpt lat="45.10309" lon="-0.614">
        <ele>46.4</ele>
        <time>2024-11-24T08:38:20Z</time>
      </trkpt>
      <trkpt lat="45.10312" lon="-0.61415">
        <ele>47.4</ele>
        <time>2024-11-24T08:38:54Z</time>
      </trkpt>
      <trkpt lat="45.10315" lon="-0.61429">
        <ele>48.6</ele>
        <time>2024-11-24T08:38:55Z</time>
      </trkpt>
      <trkpt lat="45.10318" lon="-0.61443">
        <ele>49.8</ele>
        <time>2024-11-24T08:38:56Z</time>
      </trkpt>
      <trkpt lat="45.10318" lon="-0.61444">
        <ele>49.9</ele>
        <time>2024-11-24T08:38:57Z</time>
      </trkpt>
      <trkpt lat="45.10319" lon="-0.61446">
        <ele>49.9</ele>
        <time>2024-11-24T08:38:58Z</time>
      </trkpt>
      <trkpt lat="45.10319" lon="-0.61447">
        <ele>50.1</ele>
        <time>2024-11-24T08:38:59Z</time>
      </trkpt>
      <trkpt lat="45.1032" lon="-0.61449">
        <ele>50.1</ele>
        <time>2024-11-24T08:39:00Z</time>
      </trkpt>
      <trkpt lat="45.10321" lon="-0.6145">
        <ele>50.1</ele>
        <time>2024-11-24T08:39:01Z</time>
      </trkpt>
      <trkpt lat="45.10321" lon="-0.61451">
        <ele>50.4</ele>
        <time>2024-11-24T08:39:02Z</time>
      </trkpt>
      <trkpt lat="45.10321" lon="-0.61453">
        <ele>50.4</ele>
        <time>2024-11-24T08:39:03Z</time>
      </trkpt>
      <trkpt lat="45.10322" lon="-0.61454">
        <ele>50.4</ele>
        <time>2024-11-24T08:39:04Z</time>
      </trkpt>
      <trkpt lat="45.10322" lon="-0.61456">
        <ele>50.6</ele>
        <time>2024-11-24T08:39:05Z</time>
      </trkpt>
      <trkpt lat="45.10326" lon="-0.61469">
        <ele>51.2</ele>
        <time>2024-11-24T08:39:06Z</time>
      </trkpt>
      <trkpt lat="45.10328" lon="-0.61481">
        <ele>51.5</ele>
        <time>2024-11-24T08:39:38Z</time>
      </trkpt>
      <trkpt lat="45.10331" lon="-0.61492">
        <ele>51.8</ele>
        <time>2024-11-24T08:39:39Z</time>
      </trkpt>
      <trkpt lat="45.10334" lon="-0.61503">
        <ele>52</ele>
        <time>2024-11-24T08:39:40Z</time>
      </trkpt>
      <trkpt lat="45.10337" lon="-0.61515">
        <ele>52.2</ele>
        <time>2024-11-24T08:39:41Z</time>
      </trkpt>
      <trkpt lat="45.10337" lon="-0.61516">
        <ele>52.2</ele>
        <time>2024-11-24T08:39:42Z</time>
      </trkpt>
      <trkpt lat="45.10338" lon="-0.61518">
        <ele>52.2</ele>
        <time>2024-11-24T08:39:43Z</time>
      </trkpt>
      <trkpt lat="45.10338" lon="-0.6152">
        <ele>52.3</ele>
        <time>2024-11-24T08:39:44Z</time>
      </trkpt>
      <trkpt lat="45.10339" lon="-0.61521">
        <ele>52.3</ele>
        <time>2024-11-24T08:39:45Z</time>
      </trkpt>
      <trkpt lat="45.10339" lon="-0.61522">
        <ele>52.3</ele>
        <time>2024-11-24T08:39:46Z</time>
      </trkpt>
      <trkpt lat="45.1034" lon="-0.61524">
        <ele>52.5</ele>
        <time>2024-11-24T08:39:47Z</time>
      </trkpt>
      <trkpt lat="45.1034" lon="-0.61526">
        <ele>52.5</ele>
        <time>2024-11-24T08:39:48Z</time>
      </trkpt>
      <trkpt lat="45.10341" lon="-0.61527">
        <ele>52.5</ele>
        <time>2024-11-24T08:39:49Z</time>
      </trkpt>
      <trkpt lat="45.10341" lon="-0.61529">
        <ele>52.6</ele>
        <time>2024-11-24T08:39:50Z</time>
      </trkpt>
      <trkpt lat="45.10344" lon="-0.61537">
        <ele>52.7</ele>
        <time>2024-11-24T08:39:51Z</time>
      </trkpt>
      <trkpt lat="45.10347" lon="-0.61544">
        <ele>52.8</ele>
        <time>2024-11-24T08:40:22Z</time>
      </trkpt>
      <trkpt lat="45.10349" lon="-0.61551">
        <ele>52.8</ele>
        <time>2024-11-24T08:40:23Z</time>
      </trkpt>
      <trkpt lat="45.10352" lon="-0.61558">
        <ele>52.9</ele>
        <time>2024-11-24T08:40:24Z</time>
      </trkpt>
      <trkpt lat="45.10353" lon="-0.61562">
        <ele>52.9</ele>
        <time>2024-11-24T08:40:25Z</time>
      </trkpt>
      <trkpt lat="45.10354" lon="-0.61565">
        <ele>52.9</ele>
        <time>2024-11-24T08:40:26Z</time>
      </trkpt>
      <trkpt lat="45.10356" lon="-0.61569">
        <ele>53</ele>
        <time>2024-11-24T08:40:27Z</time>
      </trkpt>
      <trkpt lat="45.10357" lon="-0.61573">
        <ele>53</ele>
        <time>2024-11-24T08:40:28Z</time>
      </trkpt>
      <trkpt lat="45.10358" lon="-0.61577">
        <ele>53.2</ele>
        <time>2024-11-24T08:40:29Z</time>
      </trkpt>
      <trkpt lat="45.1036" lon="-0.61581">
        <ele>53.2</ele>
        <time>2024-11-24T08:40:30Z</time>
      </trkpt>
      <trkpt lat="45.10361" lon="-0.61584">
        <ele>53.4</ele>
        <time>2024-11-24T08:40:31Z</time>
      </trkpt>
      <trkpt lat="45.10362" lon="-0.61588">
        <ele>53.5</ele>
        <time>2024-11-24T08:40:32Z</time>
      </trkpt>
      <trkpt lat="45.10363" lon="-0.61592">
        <ele>53.5</ele>
        <time>2024-11-24T08:40:33Z</time>
      </trkpt>
      <trkpt lat="45.10365" lon="-0.61596">
        <ele>53.6</ele>
        <time>2024-11-24T08:40:34Z</time>
      </trkpt>
      <trkpt lat="45.10366" lon="-0.61599">
        <ele>53.7</ele>
        <time>2024-11-24T08:40:35Z</time>
      </trkpt>
      <trkpt lat="45.10367" lon="-0.61603">
        <ele>54</ele>
        <time>2024-11-24T08:40:36Z</time>
      </trkpt>
      <trkpt lat="45.10369" lon="-0.61607">
        <ele>54.1</ele>
        <time>2024-11-24T08:40:37Z</time>
      </trkpt>
      <trkpt lat="45.1037" lon="-0.61611">
        <ele>54.4</ele>
        <time>2024-11-24T08:41:22Z</time>
      </trkpt>
      <trkpt lat="45.10371" lon="-0.61614">
        <ele>54.6</ele>
        <time>2024-11-24T08:41:23Z</time>
      </trkpt>
      <trkpt lat="45.10373" lon="-0.61618">
        <ele>54.8</ele>
        <time>2024-11-24T08:41:24Z</time>
      </trkpt>
      <trkpt lat="45.10374" lon="-0.61622">
        <ele>55</ele>
        <time>2024-11-24T08:41:25Z</time>
      </trkpt>
      <trkpt lat="45.10375" lon="-0.61625">
        <ele>55.2</ele>
        <time>2024-11-24T08:41:26Z</time>
      </trkpt>
      <trkpt lat="45.10375" lon="-0.61626">
        <ele>55.2</ele>
        <time>2024-11-24T08:41:27Z</time>
      </trkpt>
      <trkpt lat="45.10375" lon="-0.61627">
        <ele>55.4</ele>
        <time>2024-11-24T08:41:28Z</time>
      </trkpt>
      <trkpt lat="45.10376" lon="-0.6163">
        <ele>55.4</ele>
        <time>2024-11-24T08:41:29Z</time>
      </trkpt>
      <trkpt lat="45.10376" lon="-0.61631">
        <ele>55.8</ele>
        <time>2024-11-24T08:41:30Z</time>
      </trkpt>
      <trkpt lat="45.10376" lon="-0.61632">
        <ele>55.8</ele>
        <time>2024-11-24T08:41:31Z</time>
      </trkpt>
      <trkpt lat="45.10377" lon="-0.61633">
        <ele>55.8</ele>
        <time>2024-11-24T08:41:32Z</time>
      </trkpt>
      <trkpt lat="45.10377" lon="-0.61635">
        <ele>55.8</ele>
        <time>2024-11-24T08:41:33Z</time>
      </trkpt>
      <trkpt lat="45.10377" lon="-0.61637">
        <ele>56.1</ele>
        <time>2024-11-24T08:41:34Z</time>
      </trkpt>
      <trkpt lat="45.10378" lon="-0.61638">
        <ele>56.1</ele>
        <time>2024-11-24T08:41:35Z</time>
      </trkpt>
      <trkpt lat="45.10378" lon="-0.6164">
        <ele>56.3</ele>
        <time>2024-11-24T08:41:36Z</time>
      </trkpt>
      <trkpt lat="45.10378" lon="-0.61641">
        <ele>56.3</ele>
        <time>2024-11-24T08:41:37Z</time>
      </trkpt>
      <trkpt lat="45.10389" lon="-0.61715">
        <ele>62.3</ele>
        <time>2024-11-24T08:42:26Z</time>
      </trkpt>
      <trkpt lat="45.1039" lon="-0.6172">
        <ele>62.7</ele>
        <time>2024-11-24T08:42:27Z</time>
      </trkpt>
      <trkpt lat="45.10391" lon="-0.61724">
        <ele>63</ele>
        <time>2024-11-24T08:42:28Z</time>
      </trkpt>
      <trkpt lat="45.10391" lon="-0.61728">
        <ele>63.8</ele>
        <time>2024-11-24T08:42:29Z</time>
      </trkpt>
      <trkpt lat="45.10392" lon="-0.61731">
        <ele>64.1</ele>
        <time>2024-11-24T08:42:30Z</time>
      </trkpt>
      <trkpt lat="45.10392" lon="-0.61733">
        <ele>64.1</ele>
        <time>2024-11-24T08:42:31Z</time>
      </trkpt>
      <trkpt lat="45.10392" lon="-0.61734">
        <ele>64.5</ele>
        <time>2024-11-24T08:42:32Z</time>
      </trkpt>
      <trkpt lat="45.10392" lon="-0.61737">
        <ele>64.5</ele>
        <time>2024-11-24T08:42:33Z</time>
      </trkpt>
      <trkpt lat="45.10392" lon="-0.61738">
        <ele>64.5</ele>
        <time>2024-11-24T08:42:34Z</time>
      </trkpt>
      <trkpt lat="45.10392" lon="-0.61739">
        <ele>65</ele>
        <time>2024-11-24T08:42:35Z</time>
      </trkpt>
      <trkpt lat="45.10393" lon="-0.61741">
        <ele>65</ele>
        <time>2024-11-24T08:42:36Z</time>
      </trkpt>
      <trkpt lat="45.10393" lon="-0.61743">
        <ele>65.4</ele>
        <time>2024-11-24T08:42:37Z</time>
      </trkpt>
      <trkpt lat="45.10418" lon="-0.61824">
        <ele>72.1</ele>
        <time>2024-11-24T08:43:25Z</time>
      </trkpt>
      <trkpt lat="45.10419" lon="-0.61825">
        <ele>72.5</ele>
        <time>2024-11-24T08:43:26Z</time>
      </trkpt>
      <trkpt lat="45.1042" lon="-0.61827">
        <ele>72.5</ele>
        <time>2024-11-24T08:43:27Z</time>
      </trkpt>
      <trkpt lat="45.1042" lon="-0.61829">
        <ele>72.7</ele>
        <time>2024-11-24T08:43:28Z</time>
      </trkpt>
      <trkpt lat="45.10421" lon="-0.61832">
        <ele>72.7</ele>
        <time>2024-11-24T08:43:29Z</time>
      </trkpt>
      <trkpt lat="45.10422" lon="-0.61833">
        <ele>73.1</ele>
        <time>2024-11-24T08:43:30Z</time>
      </trkpt>
      <trkpt lat="45.10422" lon="-0.61834">
        <ele>73.1</ele>
        <time>2024-11-24T08:43:31Z</time>
      </trkpt>
      <trkpt lat="45.10423" lon="-0.61837">
        <ele>73.1</ele>
        <time>2024-11-24T08:43:32Z</time>
      </trkpt>
      <trkpt lat="45.10423" lon="-0.61838">
        <ele>73.3</ele>
        <time>2024-11-24T08:43:33Z</time>
      </trkpt>
      <trkpt lat="45.10424" lon="-0.61839">
        <ele>73.3</ele>
        <time>2024-11-24T08:43:34Z</time>
      </trkpt>
      <trkpt lat="45.10425" lon="-0.61842">
        <ele>73.5</ele>
        <time>2024-11-24T08:43:35Z</time>
      </trkpt>
      <trkpt lat="45.10425" lon="-0.61843">
        <ele>73.5</ele>
        <time>2024-11-24T08:43:36Z</time>
      </trkpt>
      <trkpt lat="45.10426" lon="-0.61844">
        <ele>73.5</ele>
        <time>2024-11-24T08:43:37Z</time>
      </trkpt>
      <trkpt lat="45.10428" lon="-0.6186">
        <ele>74.1</ele>
        <time>2024-11-24T08:43:38Z</time>
      </trkpt>
      <trkpt lat="45.1043" lon="-0.61874">
        <ele>74.3</ele>
        <time>2024-11-24T08:44:14Z</time>
      </trkpt>
      <trkpt lat="45.10432" lon="-0.61888">
        <ele>74.5</ele>
        <time>2024-11-24T08:44:15Z</time>
      </trkpt>
      <trkpt lat="45.10434" lon="-0.61903">
        <ele>74.5</ele>
        <time>2024-11-24T08:44:16Z</time>
      </trkpt>
      <trkpt lat="45.10436" lon="-0.61917">
        <ele>74.6</ele>
        <time>2024-11-24T08:44:17Z</time>
      </trkpt>
      <trkpt lat="45.10436" lon="-0.6192">
        <ele>74.6</ele>
        <time>2024-11-24T08:44:18Z</time>
      </trkpt>
      <trkpt lat="45.10437" lon="-0.61921">
        <ele>74.6</ele>
        <time>2024-11-24T08:44:19Z</time>
      </trkpt>
      <trkpt lat="45.10437" lon="-0.61922">
        <ele>74.6</ele>
        <time>2024-11-24T08:44:20Z</time>
      </trkpt>
      <trkpt lat="45.10437" lon="-0.61924">
        <ele>74.6</ele>
        <time>2024-11-24T08:44:21Z</time>
      </trkpt>
      <trkpt lat="45.10437" lon="-0.61926">
        <ele>74.7</ele>
        <time>2024-11-24T08:44:22Z</time>
      </trkpt>
      <trkpt lat="45.10438" lon="-0.61929">
        <ele>74.7</ele>
        <time>2024-11-24T08:44:23Z</time>
      </trkpt>
      <trkpt lat="45.10438" lon="-0.6193">
        <ele>74.7</ele>
        <time>2024-11-24T08:44:24Z</time>
      </trkpt>
      <trkpt lat="45.10438" lon="-0.61932">
        <ele>74.7</ele>
        <time>2024-11-24T08:44:25Z</time>
      </trkpt>
      <trkpt lat="45.10438" lon="-0.61934">
        <ele>74.7</ele>
        <time>2024-11-24T08:44:26Z</time>
      </trkpt>
      <trkpt lat="45.10439" lon="-0.61936">
        <ele>74.7</ele>
        <time>2024-11-24T08:44:27Z</time>
      </trkpt>
      <trkpt lat="45.10439" lon="-0.61938">
        <ele>74.7</ele>
        <time>2024-11-24T08:44:28Z</time>
      </trkpt>
      <trkpt lat="45.10439" lon="-0.61941">
        <ele>74.8</ele>
        <time>2024-11-24T08:44:29Z</time>
      </trkpt>
      <trkpt lat="45.10439" lon="-0.61943">
        <ele>74.8</ele>
        <time>2024-11-24T08:44:30Z</time>
      </trkpt>
      <trkpt lat="45.1044" lon="-0.61945">
        <ele>74.8</ele>
        <time>2024-11-24T08:44:31Z</time>
      </trkpt>
      <trkpt lat="45.1044" lon="-0.61948">
        <ele>74.7</ele>
        <time>2024-11-24T08:44:32Z</time>
      </trkpt>
      <trkpt lat="45.1044" lon="-0.61949">
        <ele>74.7</ele>
        <time>2024-11-24T08:44:33Z</time>
      </trkpt>
      <trkpt lat="45.1044" lon="-0.61951">
        <ele>74.7</ele>
        <time>2024-11-24T08:44:34Z</time>
      </trkpt>
      <trkpt lat="45.1044" lon="-0.61953">
        <ele>74.7</ele>
        <time>2024-11-24T08:44:35Z</time>
      </trkpt>
      <trkpt lat="45.1044" lon="-0.61955">
        <ele>74.7</ele>
        <time>2024-11-24T08:44:36Z</time>
      </trkpt>
      <trkpt lat="45.1044" lon="-0.61957">
        <ele>74.7</ele>
        <time>2024-11-24T08:44:37Z</time>
      </trkpt>
      <trkpt lat="45.1044" lon="-0.6196">
        <ele>74.7</ele>
        <time>2024-11-24T08:44:38Z</time>
      </trkpt>
      <trkpt lat="45.10445" lon="-0.62057">
        <ele>73.4</ele>
        <time>2024-11-24T08:45:26Z</time>
      </trkpt>
      <trkpt lat="45.10445" lon="-0.62059">
        <ele>73.4</ele>
        <time>2024-11-24T08:45:27Z</time>
      </trkpt>
      <trkpt lat="45.10444" lon="-0.62061">
        <ele>73.4</ele>
        <time>2024-11-24T08:45:28Z</time>
      </trkpt>
      <trkpt lat="45.10444" lon="-0.62064">
        <ele>73.3</ele>
        <time>2024-11-24T08:45:29Z</time>
      </trkpt>
      <trkpt lat="45.10444" lon="-0.62066">
        <ele>73.3</ele>
        <time>2024-11-24T08:45:30Z</time>
      </trkpt>
      <trkpt lat="45.10443" lon="-0.62068">
        <ele>73.2</ele>
        <time>2024-11-24T08:45:31Z</time>
      </trkpt>
      <trkpt lat="45.10443" lon="-0.6207">
        <ele>73.2</ele>
        <time>2024-11-24T08:45:32Z</time>
      </trkpt>
      <trkpt lat="45.10442" lon="-0.62072">
        <ele>73.2</ele>
        <time>2024-11-24T08:45:33Z</time>
      </trkpt>
      <trkpt lat="45.10441" lon="-0.62075">
        <ele>73.1</ele>
        <time>2024-11-24T08:45:34Z</time>
      </trkpt>
      <trkpt lat="45.10441" lon="-0.62076">
        <ele>73.1</ele>
        <time>2024-11-24T08:45:35Z</time>
      </trkpt>
      <trkpt lat="45.1044" lon="-0.62077">
        <ele>73.1</ele>
        <time>2024-11-24T08:45:36Z</time>
      </trkpt>
      <trkpt lat="45.1044" lon="-0.62079">
        <ele>73</ele>
        <time>2024-11-24T08:45:37Z</time>
      </trkpt>
      <trkpt lat="45.1044" lon="-0.62081">
        <ele>73</ele>
        <time>2024-11-24T08:45:38Z</time>
      </trkpt>
      <trkpt lat="45.10425" lon="-0.62186">
        <ele>71</ele>
        <time>2024-11-24T08:46:26Z</time>
      </trkpt>
      <trkpt lat="45.10425" lon="-0.62188">
        <ele>71</ele>
        <time>2024-11-24T08:46:27Z</time>
      </trkpt>
      <trkpt lat="45.10425" lon="-0.6219">
        <ele>70.9</ele>
        <time>2024-11-24T08:46:28Z</time>
      </trkpt>
      <trkpt lat="45.10425" lon="-0.62191">
        <ele>70.9</ele>
        <time>2024-11-24T08:46:29Z</time>
      </trkpt>
      <trkpt lat="45.10424" lon="-0.62194">
        <ele>70.8</ele>
        <time>2024-11-24T08:46:30Z</time>
      </trkpt>
      <trkpt lat="45.10424" lon="-0.62196">
        <ele>70.8</ele>
        <time>2024-11-24T08:46:31Z</time>
      </trkpt>
      <trkpt lat="45.10424" lon="-0.62197">
        <ele>70.8</ele>
        <time>2024-11-24T08:46:32Z</time>
      </trkpt>
      <trkpt lat="45.10423" lon="-0.622">
        <ele>70.7</ele>
        <time>2024-11-24T08:46:33Z</time>
      </trkpt>
      <trkpt lat="45.10423" lon="-0.62201">
        <ele>70.7</ele>
        <time>2024-11-24T08:46:34Z</time>
      </trkpt>
      <trkpt lat="45.10422" lon="-0.62202">
        <ele>70.6</ele>
        <time>2024-11-24T08:46:35Z</time>
      </trkpt>
      <trkpt lat="45.10422" lon="-0.62205">
        <ele>70.6</ele>
        <time>2024-11-24T08:46:36Z</time>
      </trkpt>
      <trkpt lat="45.10421" lon="-0.62206">
        <ele>70.5</ele>
        <time>2024-11-24T08:46:37Z</time>
      </trkpt>
      <trkpt lat="45.10421" lon="-0.62208">
        <ele>70.5</ele>
        <time>2024-11-24T08:46:38Z</time>
      </trkpt>
      <trkpt lat="45.10409" lon="-0.62275">
        <ele>69.5</ele>
        <time>2024-11-24T08:47:10Z</time>
      </trkpt>
      <trkpt lat="45.10409" lon="-0.62277">
        <ele>69.4</ele>
        <time>2024-11-24T08:47:11Z</time>
      </trkpt>
      <trkpt lat="45.10409" lon="-0.62278">
        <ele>69.4</ele>
        <time>2024-11-24T08:47:12Z</time>
      </trkpt>
      <trkpt lat="45.10409" lon="-0.6228">
        <ele>69.4</ele>
        <time>2024-11-24T08:47:13Z</time>
      </trkpt>
      <trkpt lat="45.10408" lon="-0.62282">
        <ele>69.4</ele>
        <time>2024-11-24T08:47:14Z</time>
      </trkpt>
      <trkpt lat="45.10408" lon="-0.62284">
        <ele>69.4</ele>
        <time>2024-11-24T08:47:15Z</time>
      </trkpt>
      <trkpt lat="45.10407" lon="-0.62286">
        <ele>69.3</ele>
        <time>2024-11-24T08:47:16Z</time>
      </trkpt>
      <trkpt lat="45.10407" lon="-0.62288">
        <ele>69.3</ele>
        <time>2024-11-24T08:47:17Z</time>
      </trkpt>
      <trkpt lat="45.10406" lon="-0.6229">
        <ele>69.3</ele>
        <time>2024-11-24T08:47:18Z</time>
      </trkpt>
      <trkpt lat="45.10406" lon="-0.62292">
        <ele>69.3</ele>
        <time>2024-11-24T08:47:19Z</time>
      </trkpt>
      <trkpt lat="45.10405" lon="-0.62294">
        <ele>69.3</ele>
        <time>2024-11-24T08:47:20Z</time>
      </trkpt>
      <trkpt lat="45.10405" lon="-0.62296">
        <ele>69.3</ele>
        <time>2024-11-24T08:47:21Z</time>
      </trkpt>
      <trkpt lat="45.10404" lon="-0.62298">
        <ele>69.2</ele>
        <time>2024-11-24T08:47:22Z</time>
      </trkpt>
      <trkpt lat="45.10403" lon="-0.623">
        <ele>69.2</ele>
        <time>2024-11-24T08:47:23Z</time>
      </trkpt>
      <trkpt lat="45.10388" lon="-0.62357">
        <ele>68.9</ele>
        <time>2024-11-24T08:47:54Z</time>
      </trkpt>
      <trkpt lat="45.10387" lon="-0.6236">
        <ele>68.9</ele>
        <time>2024-11-24T08:47:55Z</time>
      </trkpt>
      <trkpt lat="45.10387" lon="-0.62363">
        <ele>68.9</ele>
        <time>2024-11-24T08:47:56Z</time>
      </trkpt>
      <trkpt lat="45.10386" lon="-0.62367">
        <ele>68.9</ele>
        <time>2024-11-24T08:47:57Z</time>
      </trkpt>
      <trkpt lat="45.10386" lon="-0.62369">
        <ele>68.9</ele>
        <time>2024-11-24T08:47:58Z</time>
      </trkpt>
      <trkpt lat="45.10385" lon="-0.6237">
        <ele>68.9</ele>
        <time>2024-11-24T08:47:59Z</time>
      </trkpt>
      <trkpt lat="45.10385" lon="-0.62373">
        <ele>68.9</ele>
        <time>2024-11-24T08:48:00Z</time>
      </trkpt>
      <trkpt lat="45.10385" lon="-0.62375">
        <ele>68.9</ele>
        <time>2024-11-24T08:48:01Z</time>
      </trkpt>
      <trkpt lat="45.10384" lon="-0.62377">
        <ele>68.9</ele>
        <time>2024-11-24T08:48:02Z</time>
      </trkpt>
      <trkpt lat="45.10384" lon="-0.62379">
        <ele>68.9</ele>
        <time>2024-11-24T08:48:03Z</time>
      </trkpt>
      <trkpt lat="45.10384" lon="-0.62381">
        <ele>68.9</ele>
        <time>2024-11-24T08:48:04Z</time>
      </trkpt>
      <trkpt lat="45.10384" lon="-0.62383">
        <ele>68.9</ele>
        <time>2024-11-24T08:48:05Z</time>
      </trkpt>
      <trkpt lat="45.10383" lon="-0.62385">
        <ele>68.9</ele>
        <time>2024-11-24T08:48:06Z</time>
      </trkpt>
      <trkpt lat="45.10383" lon="-0.62387">
        <ele>68.9</ele>
        <time>2024-11-24T08:48:07Z</time>
      </trkpt>
      <trkpt lat="45.10381" lon="-0.62401">
        <ele>68.8</ele>
        <time>2024-11-24T08:48:08Z</time>
      </trkpt>
      <trkpt lat="45.10379" lon="-0.62413">
        <ele>68.8</ele>
        <time>2024-11-24T08:48:36Z</time>
      </trkpt>
      <trkpt lat="45.10376" lon="-0.62425">
        <ele>68.8</ele>
        <time>2024-11-24T08:48:37Z</time>
      </trkpt>
      <trkpt lat="45.10374" lon="-0.62437">
        <ele>68.8</ele>
        <time>2024-11-24T08:48:38Z</time>
      </trkpt>
      <trkpt lat="45.1032" lon="-0.6242">
        <ele>64.3</ele>
        <time>2024-11-24T08:49:16Z</time>
      </trkpt>
      <trkpt lat="45.10319" lon="-0.6242">
        <ele>64.2</ele>
        <time>2024-11-24T08:49:17Z</time>
      </trkpt>
      <trkpt lat="45.10318" lon="-0.6242">
        <ele>64.1</ele>
        <time>2024-11-24T08:49:18Z</time>
      </trkpt>
      <trkpt lat="45.10317" lon="-0.6242">
        <ele>64</ele>
        <time>2024-11-24T08:49:19Z</time>
      </trkpt>
      <trkpt lat="45.10316" lon="-0.62418">
        <ele>63.8</ele>
        <time>2024-11-24T08:49:20Z</time>
      </trkpt>
      <trkpt lat="45.10315" lon="-0.62417">
        <ele>63.7</ele>
        <time>2024-11-24T08:49:21Z</time>
      </trkpt>
      <trkpt lat="45.10314" lon="-0.62417">
        <ele>63.6</ele>
        <time>2024-11-24T08:49:22Z</time>
      </trkpt>
      <trkpt lat="45.10302" lon="-0.62413">
        <ele>62.4</ele>
        <time>2024-11-24T08:49:23Z</time>
      </trkpt>
      <trkpt lat="45.10291" lon="-0.62409">
        <ele>61</ele>
        <time>2024-11-24T08:49:24Z</time>
      </trkpt>
      <trkpt lat="45.1028" lon="-0.62406">
        <ele>59.7</ele>
        <time>2024-11-24T08:50:11Z</time>
      </trkpt>
      <trkpt lat="45.10269" lon="-0.62403">
        <ele>58.5</ele>
        <time>2024-11-24T08:50:12Z</time>
      </trkpt>
      <trkpt lat="45.10258" lon="-0.624">
        <ele>57.4</ele>
        <time>2024-11-24T08:50:13Z</time>
      </trkpt>
      <trkpt lat="45.10247" lon="-0.62397">
        <ele>56.3</ele>
        <time>2024-11-24T08:50:14Z</time>
      </trkpt>
      <trkpt lat="45.10245" lon="-0.62397">
        <ele>56.2</ele>
        <time>2024-11-24T08:50:15Z</time>
      </trkpt>
      <trkpt lat="45.10244" lon="-0.62397">
        <ele>56.1</ele>
        <time>2024-11-24T08:50:16Z</time>
      </trkpt>
      <trkpt lat="45.10242" lon="-0.62397">
        <ele>55.9</ele>
        <time>2024-11-24T08:50:17Z</time>
      </trkpt>
      <trkpt lat="45.10241" lon="-0.62396">
        <ele>55.9</ele>
        <time>2024-11-24T08:50:18Z</time>
      </trkpt>
      <trkpt lat="45.10241" lon="-0.62396">
        <ele>55.8</ele>
        <time>2024-11-24T08:50:19Z</time>
      </trkpt>
      <trkpt lat="45.10239" lon="-0.62396">
        <ele>55.7</ele>
        <time>2024-11-24T08:50:20Z</time>
      </trkpt>
      <trkpt lat="45.10238" lon="-0.62395">
        <ele>55.6</ele>
        <time>2024-11-24T08:50:21Z</time>
      </trkpt>
      <trkpt lat="45.10237" lon="-0.62395">
        <ele>55.5</ele>
        <time>2024-11-24T08:50:22Z</time>
      </trkpt>
      <trkpt lat="45.10236" lon="-0.62394">
        <ele>55.4</ele>
        <time>2024-11-24T08:50:23Z</time>
      </trkpt>
      <trkpt lat="45.10235" lon="-0.62394">
        <ele>55.3</ele>
        <time>2024-11-24T08:50:24Z</time>
      </trkpt>
      <trkpt lat="45.10233" lon="-0.62393">
        <ele>55.2</ele>
        <time>2024-11-24T08:50:26Z</time>
      </trkpt>
      <trkpt lat="45.10232" lon="-0.62392">
        <ele>55.1</ele>
        <time>2024-11-24T08:50:27Z</time>
      </trkpt>
      <trkpt lat="45.10231" lon="-0.62392">
        <ele>55</ele>
        <time>2024-11-24T08:50:28Z</time>
      </trkpt>
      <trkpt lat="45.1023" lon="-0.62392">
        <ele>54.9</ele>
        <time>2024-11-24T08:50:29Z</time>
      </trkpt>
      <trkpt lat="45.10229" lon="-0.62392">
        <ele>54.9</ele>
        <time>2024-11-24T08:50:30Z</time>
      </trkpt>
      <trkpt lat="45.10228" lon="-0.62391">
        <ele>54.8</ele>
        <time>2024-11-24T08:50:31Z</time>
      </trkpt>
      <trkpt lat="45.10226" lon="-0.6239">
        <ele>54.6</ele>
        <time>2024-11-24T08:50:32Z</time>
      </trkpt>
      <trkpt lat="45.10225" lon="-0.6239">
        <ele>54.6</ele>
        <time>2024-11-24T08:50:33Z</time>
      </trkpt>
      <trkpt lat="45.10224" lon="-0.62389">
        <ele>54.5</ele>
        <time>2024-11-24T08:50:34Z</time>
      </trkpt>
      <trkpt lat="45.10223" lon="-0.62388">
        <ele>54.4</ele>
        <time>2024-11-24T08:50:35Z</time>
      </trkpt>
      <trkpt lat="45.10222" lon="-0.62387">
        <ele>54.3</ele>
        <time>2024-11-24T08:50:36Z</time>
      </trkpt>
      <trkpt lat="45.10222" lon="-0.62385">
        <ele>54.2</ele>
        <time>2024-11-24T08:50:37Z</time>
      </trkpt>
      <trkpt lat="45.10221" lon="-0.62383">
        <ele>54.1</ele>
        <time>2024-11-24T08:50:38Z</time>
      </trkpt>
      <trkpt lat="45.10221" lon="-0.6238">
        <ele>54</ele>
        <time>2024-11-24T08:50:39Z</time>
      </trkpt>
      <trkpt lat="45.10221" lon="-0.62379">
        <ele>53.9</ele>
        <time>2024-11-24T08:50:40Z</time>
      </trkpt>
      <trkpt lat="45.10221" lon="-0.62377">
        <ele>53.9</ele>
        <time>2024-11-24T08:50:41Z</time>
      </trkpt>
      <trkpt lat="45.1022" lon="-0.62376">
        <ele>53.8</ele>
        <time>2024-11-24T08:50:42Z</time>
      </trkpt>
      <trkpt lat="45.10219" lon="-0.62374">
        <ele>53.7</ele>
        <time>2024-11-24T08:50:43Z</time>
      </trkpt>
      <trkpt lat="45.1022" lon="-0.62371">
        <ele>53.6</ele>
        <time>2024-11-24T08:50:44Z</time>
      </trkpt>
      <trkpt lat="45.1022" lon="-0.6237">
        <ele>53.5</ele>
        <time>2024-11-24T08:50:45Z</time>
      </trkpt>
      <trkpt lat="45.1022" lon="-0.62369">
        <ele>53.5</ele>
        <time>2024-11-24T08:50:46Z</time>
      </trkpt>
      <trkpt lat="45.10221" lon="-0.62367">
        <ele>53.4</ele>
        <time>2024-11-24T08:50:47Z</time>
      </trkpt>
      <trkpt lat="45.10222" lon="-0.62367">
        <ele>53.3</ele>
        <time>2024-11-24T08:50:48Z</time>
      </trkpt>
      <trkpt lat="45.10224" lon="-0.62367">
        <ele>53.3</ele>
        <time>2024-11-24T08:50:49Z</time>
      </trkpt>
      <trkpt lat="45.10225" lon="-0.62364">
        <ele>53.1</ele>
        <time>2024-11-24T08:50:50Z</time>
      </trkpt>
      <trkpt lat="45.10225" lon="-0.62363">
        <ele>53.1</ele>
        <time>2024-11-24T08:50:51Z</time>
      </trkpt>
      <trkpt lat="45.10226" lon="-0.62362">
        <ele>53</ele>
        <time>2024-11-24T08:50:52Z</time>
      </trkpt>
      <trkpt lat="45.10228" lon="-0.62355">
        <ele>52.8</ele>
        <time>2024-11-24T08:50:53Z</time>
      </trkpt>
      <trkpt lat="45.1023" lon="-0.6235">
        <ele>52.6</ele>
        <time>2024-11-24T08:50:54Z</time>
      </trkpt>
      <trkpt lat="45.10232" lon="-0.62344">
        <ele>52.4</ele>
        <time>2024-11-24T08:51:22Z</time>
      </trkpt>
      <trkpt lat="45.10234" lon="-0.62339">
        <ele>52.3</ele>
        <time>2024-11-24T08:51:23Z</time>
      </trkpt>
      <trkpt lat="45.10235" lon="-0.62333">
        <ele>52.1</ele>
        <time>2024-11-24T08:51:24Z</time>
      </trkpt>
      <trkpt lat="45.10243" lon="-0.62295">
        <ele>51.4</ele>
        <time>2024-11-24T08:52:01Z</time>
      </trkpt>
      <trkpt lat="45.10244" lon="-0.62291">
        <ele>51.4</ele>
        <time>2024-11-24T08:52:02Z</time>
      </trkpt>
      <trkpt lat="45.10246" lon="-0.62288">
        <ele>51.3</ele>
        <time>2024-11-24T08:52:03Z</time>
      </trkpt>
      <trkpt lat="45.10246" lon="-0.62286">
        <ele>51.3</ele>
        <time>2024-11-24T08:52:04Z</time>
      </trkpt>
      <trkpt lat="45.10245" lon="-0.62285">
        <ele>51.3</ele>
        <time>2024-11-24T08:52:05Z</time>
      </trkpt>
      <trkpt lat="45.10245" lon="-0.62285">
        <ele>51.3</ele>
        <time>2024-11-24T08:52:06Z</time>
      </trkpt>
      <trkpt lat="45.10245" lon="-0.62284">
        <ele>51.3</ele>
        <time>2024-11-24T08:52:07Z</time>
      </trkpt>
      <trkpt lat="45.10245" lon="-0.62284">
        <ele>51.3</ele>
        <time>2024-11-24T08:52:08Z</time>
      </trkpt>
      <trkpt lat="45.10249" lon="-0.62274">
        <ele>51.3</ele>
        <time>2024-11-24T08:52:09Z</time>
      </trkpt>
      <trkpt lat="45.10252" lon="-0.62264">
        <ele>51.4</ele>
        <time>2024-11-24T08:52:54Z</time>
      </trkpt>
      <trkpt lat="45.10255" lon="-0.62255">
        <ele>51.5</ele>
        <time>2024-11-24T08:52:55Z</time>
      </trkpt>
      <trkpt lat="45.10258" lon="-0.62245">
        <ele>51.6</ele>
        <time>2024-11-24T08:52:56Z</time>
      </trkpt>
      <trkpt lat="45.10261" lon="-0.62236">
        <ele>51.7</ele>
        <time>2024-11-24T08:52:57Z</time>
      </trkpt>
      <trkpt lat="45.10262" lon="-0.62233">
        <ele>51.7</ele>
        <time>2024-11-24T08:52:58Z</time>
      </trkpt>
      <trkpt lat="45.10262" lon="-0.62232">
        <ele>51.7</ele>
        <time>2024-11-24T08:52:59Z</time>
      </trkpt>
      <trkpt lat="45.10262" lon="-0.6223">
        <ele>51.8</ele>
        <time>2024-11-24T08:53:00Z</time>
      </trkpt>
      <trkpt lat="45.10262" lon="-0.62229">
        <ele>51.8</ele>
        <time>2024-11-24T08:53:01Z</time>
      </trkpt>
      <trkpt lat="45.10262" lon="-0.62227">
        <ele>51.8</ele>
        <time>2024-11-24T08:53:02Z</time>
      </trkpt>
      <trkpt lat="45.10262" lon="-0.62226">
        <ele>51.8</ele>
        <time>2024-11-24T08:53:03Z</time>
      </trkpt>
      <trkpt lat="45.10263" lon="-0.62222">
        <ele>51.8</ele>
        <time>2024-11-24T08:53:04Z</time>
      </trkpt>
      <trkpt lat="45.10263" lon="-0.6222">
        <ele>51.8</ele>
        <time>2024-11-24T08:53:05Z</time>
      </trkpt>
      <trkpt lat="45.10263" lon="-0.62217">
        <ele>51.8</ele>
        <time>2024-11-24T08:53:06Z</time>
      </trkpt>
      <trkpt lat="45.10263" lon="-0.62215">
        <ele>51.8</ele>
        <time>2024-11-24T08:53:07Z</time>
      </trkpt>
      <trkpt lat="45.10264" lon="-0.62212">
        <ele>51.8</ele>
        <time>2024-11-24T08:53:08Z</time>
      </trkpt>
      <trkpt lat="45.10264" lon="-0.6221">
        <ele>51.8</ele>
        <time>2024-11-24T08:53:09Z</time>
      </trkpt>
      <trkpt lat="45.10264" lon="-0.62207">
        <ele>51.8</ele>
        <time>2024-11-24T08:53:42Z</time>
      </trkpt>
      <trkpt lat="45.10265" lon="-0.62205">
        <ele>51.8</ele>
        <time>2024-11-24T08:53:43Z</time>
      </trkpt>
      <trkpt lat="45.10265" lon="-0.62203">
        <ele>51.8</ele>
        <time>2024-11-24T08:53:44Z</time>
      </trkpt>
      <trkpt lat="45.10266" lon="-0.622">
        <ele>51.8</ele>
        <time>2024-11-24T08:53:45Z</time>
      </trkpt>
      <trkpt lat="45.10266" lon="-0.62198">
        <ele>51.8</ele>
        <time>2024-11-24T08:53:46Z</time>
      </trkpt>
      <trkpt lat="45.10266" lon="-0.62197">
        <ele>51.8</ele>
        <time>2024-11-24T08:53:47Z</time>
      </trkpt>
      <trkpt lat="45.10266" lon="-0.62197">
        <ele>51.8</ele>
        <time>2024-11-24T08:53:48Z</time>
      </trkpt>
      <trkpt lat="45.10266" lon="-0.62196">
        <ele>51.8</ele>
        <time>2024-11-24T08:53:49Z</time>
      </trkpt>
      <trkpt lat="45.10266" lon="-0.62196">
        <ele>51.8</ele>
        <time>2024-11-24T08:53:50Z</time>
      </trkpt>
      <trkpt lat="45.10266" lon="-0.62195">
        <ele>51.8</ele>
        <time>2024-11-24T08:53:51Z</time>
      </trkpt>
      <trkpt lat="45.10266" lon="-0.62195">
        <ele>51.8</ele>
        <time>2024-11-24T08:53:52Z</time>
      </trkpt>
      <trkpt lat="45.10266" lon="-0.62194">
        <ele>51.8</ele>
        <time>2024-11-24T08:53:53Z</time>
      </trkpt>
      <trkpt lat="45.10265" lon="-0.62193">
        <ele>51.7</ele>
        <time>2024-11-24T08:53:54Z</time>
      </trkpt>
      <trkpt lat="45.10265" lon="-0.62192">
        <ele>51.7</ele>
        <time>2024-11-24T08:53:55Z</time>
      </trkpt>
      <trkpt lat="45.10265" lon="-0.62192">
        <ele>51.7</ele>
        <time>2024-11-24T08:53:56Z</time>
      </trkpt>
      <trkpt lat="45.10265" lon="-0.62192">
        <ele>51.7</ele>
        <time>2024-11-24T08:53:57Z</time>
      </trkpt>
      <trkpt lat="45.10265" lon="-0.62191">
        <ele>51.7</ele>
        <time>2024-11-24T08:53:58Z</time>
      </trkpt>
      <trkpt lat="45.10265" lon="-0.6219">
        <ele>51.7</ele>
        <time>2024-11-24T08:53:59Z</time>
      </trkpt>
      <trkpt lat="45.10264" lon="-0.6219">
        <ele>51.7</ele>
        <time>2024-11-24T08:54:00Z</time>
      </trkpt>
      <trkpt lat="45.10263" lon="-0.62189">
        <ele>51.7</ele>
        <time>2024-11-24T08:54:01Z</time>
      </trkpt>
      <trkpt lat="45.10263" lon="-0.62188">
        <ele>51.7</ele>
        <time>2024-11-24T08:54:02Z</time>
      </trkpt>
      <trkpt lat="45.10263" lon="-0.62188">
        <ele>51.7</ele>
        <time>2024-11-24T08:54:03Z</time>
      </trkpt>
      <trkpt lat="45.10262" lon="-0.62188">
        <ele>51.7</ele>
        <time>2024-11-24T08:54:04Z</time>
      </trkpt>
      <trkpt lat="45.10262" lon="-0.62188">
        <ele>51.7</ele>
        <time>2024-11-24T08:54:05Z</time>
      </trkpt>
      <trkpt lat="45.10262" lon="-0.62188">
        <ele>51.7</ele>
        <time>2024-11-24T08:54:06Z</time>
      </trkpt>
      <trkpt lat="45.10262" lon="-0.62188">
        <ele>51.7</ele>
        <time>2024-11-24T08:54:07Z</time>
      </trkpt>
      <trkpt lat="45.10262" lon="-0.62189">
        <ele>51.7</ele>
        <time>2024-11-24T08:54:08Z</time>
      </trkpt>
      <trkpt lat="45.10262" lon="-0.62187">
        <ele>51.7</ele>
        <time>2024-11-24T08:54:09Z</time>
      </trkpt>
      <trkpt lat="45.10261" lon="-0.62185">
        <ele>51.7</ele>
        <time>2024-11-24T08:54:10Z</time>
      </trkpt>
      <trkpt lat="45.10261" lon="-0.62186">
        <ele>51.7</ele>
        <time>2024-11-24T08:54:11Z</time>
      </trkpt>
      <trkpt lat="45.10261" lon="-0.62184">
        <ele>51.7</ele>
        <time>2024-11-24T08:54:12Z</time>
      </trkpt>
      <trkpt lat="45.10261" lon="-0.62184">
        <ele>51.7</ele>
        <time>2024-11-24T08:54:13Z</time>
      </trkpt>
      <trkpt lat="45.10261" lon="-0.62184">
        <ele>51.7</ele>
        <time>2024-11-24T08:54:14Z</time>
      </trkpt>
      <trkpt lat="45.10261" lon="-0.62184">
        <ele>51.7</ele>
        <time>2024-11-24T08:54:15Z</time>
      </trkpt>
      <trkpt lat="45.10261" lon="-0.62185">
        <ele>51.7</ele>
        <time>2024-11-24T08:54:16Z</time>
      </trkpt>
      <trkpt lat="45.10261" lon="-0.62185">
        <ele>51.7</ele>
        <time>2024-11-24T08:54:17Z</time>
      </trkpt>
      <trkpt lat="45.10261" lon="-0.62185">
        <ele>51.7</ele>
        <time>2024-11-24T08:54:18Z</time>
      </trkpt>
      <trkpt lat="45.10261" lon="-0.62185">
        <ele>51.7</ele>
        <time>2024-11-24T08:54:19Z</time>
      </trkpt>
      <trkpt lat="45.10261" lon="-0.62185">
        <ele>51.7</ele>
        <time>2024-11-24T08:54:20Z</time>
      </trkpt>
      <trkpt lat="45.10261" lon="-0.62185">
        <ele>51.7</ele>
        <time>2024-11-24T08:54:21Z</time>
      </trkpt>
      <trkpt lat="45.10261" lon="-0.62185">
        <ele>51.7</ele>
        <time>2024-11-24T08:54:22Z</time>
      </trkpt>
      <trkpt lat="45.10261" lon="-0.62185">
        <ele>51.7</ele>
        <time>2024-11-24T08:54:23Z</time>
      </trkpt>
      <trkpt lat="45.10261" lon="-0.62185">
        <ele>51.7</ele>
        <time>2024-11-24T08:54:24Z</time>
      </trkpt>
      <trkpt lat="45.10261" lon="-0.62185">
        <ele>51.7</ele>
        <time>2024-11-24T08:54:25Z</time>
      </trkpt>
      <trkpt lat="45.10261" lon="-0.62185">
        <ele>51.7</ele>
        <time>2024-11-24T08:54:26Z</time>
      </trkpt>
      <trkpt lat="45.10261" lon="-0.62185">
        <ele>51.7</ele>
        <time>2024-11-24T08:54:27Z</time>
      </trkpt>
      <trkpt lat="45.10261" lon="-0.62185">
        <ele>51.7</ele>
        <time>2024-11-24T08:54:28Z</time>
      </trkpt>
      <trkpt lat="45.10261" lon="-0.62186">
        <ele>51.7</ele>
        <time>2024-11-24T08:54:29Z</time>
      </trkpt>
      <trkpt lat="45.10261" lon="-0.62186">
        <ele>51.7</ele>
        <time>2024-11-24T08:54:30Z</time>
      </trkpt>
      <trkpt lat="45.10261" lon="-0.62187">
        <ele>51.7</ele>
        <time>2024-11-24T08:54:31Z</time>
      </trkpt>
      <trkpt lat="45.10261" lon="-0.62187">
        <ele>51.7</ele>
        <time>2024-11-24T08:54:32Z</time>
      </trkpt>
      <trkpt lat="45.10262" lon="-0.62189">
        <ele>51.6</ele>
        <time>2024-11-24T08:54:33Z</time>
      </trkpt>
      <trkpt lat="45.10262" lon="-0.6219">
        <ele>51.6</ele>
        <time>2024-11-24T08:54:34Z</time>
      </trkpt>
      <trkpt lat="45.10262" lon="-0.62192">
        <ele>51.6</ele>
        <time>2024-11-24T08:54:35Z</time>
      </trkpt>
      <trkpt lat="45.10262" lon="-0.62193">
        <ele>51.6</ele>
        <time>2024-11-24T08:54:36Z</time>
      </trkpt>
      <trkpt lat="45.10263" lon="-0.62195">
        <ele>51.6</ele>
        <time>2024-11-24T08:54:37Z</time>
      </trkpt>
      <trkpt lat="45.10263" lon="-0.62197">
        <ele>51.6</ele>
        <time>2024-11-24T08:54:38Z</time>
      </trkpt>
      <trkpt lat="45.10264" lon="-0.62204">
        <ele>51.5</ele>
        <time>2024-11-24T08:54:39Z</time>
      </trkpt>
      <trkpt lat="45.10257" lon="-0.62203">
        <ele>51.4</ele>
        <time>2024-11-24T08:54:47Z</time>
      </trkpt>
      <trkpt lat="45.10257" lon="-0.62202">
        <ele>51.4</ele>
        <time>2024-11-24T08:54:48Z</time>
      </trkpt>
      <trkpt lat="45.10257" lon="-0.622">
        <ele>51.4</ele>
        <time>2024-11-24T08:54:49Z</time>
      </trkpt>
      <trkpt lat="45.10258" lon="-0.62199">
        <ele>51.3</ele>
        <time>2024-11-24T08:54:50Z</time>
      </trkpt>
      <trkpt lat="45.10259" lon="-0.62198">
        <ele>51.3</ele>
        <time>2024-11-24T08:54:51Z</time>
      </trkpt>
      <trkpt lat="45.10261" lon="-0.62202">
        <ele>51.3</ele>
        <time>2024-11-24T08:54:52Z</time>
      </trkpt>
      <trkpt lat="45.10261" lon="-0.62197">
        <ele>51.2</ele>
        <time>2024-11-24T08:54:53Z</time>
      </trkpt>
      <trkpt lat="45.10259" lon="-0.62192">
        <ele>51.2</ele>
        <time>2024-11-24T08:54:54Z</time>
      </trkpt>
      <trkpt lat="45.10258" lon="-0.62186">
        <ele>51.2</ele>
        <time>2024-11-24T08:55:32Z</time>
      </trkpt>
      <trkpt lat="45.10257" lon="-0.62181">
        <ele>51.1</ele>
        <time>2024-11-24T08:55:33Z</time>
      </trkpt>
      <trkpt lat="45.10255" lon="-0.62175">
        <ele>51.1</ele>
        <time>2024-11-24T08:55:34Z</time>
      </trkpt>
      <trkpt lat="45.10254" lon="-0.6217">
        <ele>51.1</ele>
        <time>2024-11-24T08:55:35Z</time>
      </trkpt>
      <trkpt lat="45.10254" lon="-0.62164">
        <ele>51.2</ele>
        <time>2024-11-24T08:55:36Z</time>
      </trkpt>
      <trkpt lat="45.10253" lon="-0.62158">
        <ele>51.2</ele>
        <time>2024-11-24T08:55:37Z</time>
      </trkpt>
      <trkpt lat="45.10252" lon="-0.62152">
        <ele>51.2</ele>
        <time>2024-11-24T08:55:38Z</time>
      </trkpt>
      <trkpt lat="45.10251" lon="-0.62146">
        <ele>51.2</ele>
        <time>2024-11-24T08:55:39Z</time>
      </trkpt>
      <trkpt lat="45.1025" lon="-0.62141">
        <ele>51.2</ele>
        <time>2024-11-24T08:56:13Z</time>
      </trkpt>
      <trkpt lat="45.10249" lon="-0.62135">
        <ele>51.3</ele>
        <time>2024-11-24T08:56:14Z</time>
      </trkpt>
      <trkpt lat="45.10248" lon="-0.62129">
        <ele>51.3</ele>
        <time>2024-11-24T08:56:15Z</time>
      </trkpt>
      <trkpt lat="45.10249" lon="-0.62127">
        <ele>51.3</ele>
        <time>2024-11-24T08:56:16Z</time>
      </trkpt>
      <trkpt lat="45.1025" lon="-0.62125">
        <ele>51.3</ele>
        <time>2024-11-24T08:56:17Z</time>
      </trkpt>
      <trkpt lat="45.1025" lon="-0.62123">
        <ele>51.3</ele>
        <time>2024-11-24T08:56:18Z</time>
      </trkpt>
      <trkpt lat="45.10251" lon="-0.62121">
        <ele>51.2</ele>
        <time>2024-11-24T08:56:19Z</time>
      </trkpt>
      <trkpt lat="45.10252" lon="-0.62119">
        <ele>51.2</ele>
        <time>2024-11-24T08:56:20Z</time>
      </trkpt>
      <trkpt lat="45.10253" lon="-0.62116">
        <ele>51.2</ele>
        <time>2024-11-24T08:56:21Z</time>
      </trkpt>
      <trkpt lat="45.10254" lon="-0.62114">
        <ele>51.2</ele>
        <time>2024-11-24T08:56:22Z</time>
      </trkpt>
      <trkpt lat="45.10254" lon="-0.62112">
        <ele>51.2</ele>
        <time>2024-11-24T08:56:23Z</time>
      </trkpt>
      <trkpt lat="45.10255" lon="-0.6211">
        <ele>51.1</ele>
        <time>2024-11-24T08:56:24Z</time>
      </trkpt>
      <trkpt lat="45.10256" lon="-0.62108">
        <ele>51.1</ele>
        <time>2024-11-24T08:56:25Z</time>
      </trkpt>
      <trkpt lat="45.10257" lon="-0.62106">
        <ele>51.1</ele>
        <time>2024-11-24T08:56:56Z</time>
      </trkpt>
      <trkpt lat="45.10257" lon="-0.62104">
        <ele>51.1</ele>
        <time>2024-11-24T08:56:57Z</time>
      </trkpt>
      <trkpt lat="45.10258" lon="-0.62102">
        <ele>51.1</ele>
        <time>2024-11-24T08:56:58Z</time>
      </trkpt>
      <trkpt lat="45.10259" lon="-0.62101">
        <ele>51.1</ele>
        <time>2024-11-24T08:56:59Z</time>
      </trkpt>
      <trkpt lat="45.10258" lon="-0.62099">
        <ele>51.1</ele>
        <time>2024-11-24T08:57:00Z</time>
      </trkpt>
      <trkpt lat="45.10258" lon="-0.62098">
        <ele>51</ele>
        <time>2024-11-24T08:57:01Z</time>
      </trkpt>
      <trkpt lat="45.10257" lon="-0.62099">
        <ele>51</ele>
        <time>2024-11-24T08:57:02Z</time>
      </trkpt>
      <trkpt lat="45.10257" lon="-0.62099">
        <ele>51</ele>
        <time>2024-11-24T08:57:03Z</time>
      </trkpt>
      <trkpt lat="45.10257" lon="-0.621">
        <ele>51</ele>
        <time>2024-11-24T08:57:04Z</time>
      </trkpt>
      <trkpt lat="45.10257" lon="-0.62099">
        <ele>51</ele>
        <time>2024-11-24T08:57:05Z</time>
      </trkpt>
      <trkpt lat="45.10257" lon="-0.62098">
        <ele>51</ele>
        <time>2024-11-24T08:57:06Z</time>
      </trkpt>
      <trkpt lat="45.10258" lon="-0.62097">
        <ele>51.1</ele>
        <time>2024-11-24T08:57:07Z</time>
      </trkpt>
      <trkpt lat="45.10258" lon="-0.62095">
        <ele>51.1</ele>
        <time>2024-11-24T08:57:08Z</time>
      </trkpt>
      <trkpt lat="45.10258" lon="-0.62093">
        <ele>51.1</ele>
        <time>2024-11-24T08:57:09Z</time>
      </trkpt>
      <trkpt lat="45.10257" lon="-0.62082">
        <ele>51.2</ele>
        <time>2024-11-24T08:57:10Z</time>
      </trkpt>
      <trkpt lat="45.10257" lon="-0.62072">
        <ele>51.5</ele>
        <time>2024-11-24T08:57:47Z</time>
      </trkpt>
      <trkpt lat="45.10256" lon="-0.62062">
        <ele>51.8</ele>
        <time>2024-11-24T08:57:48Z</time>
      </trkpt>
      <trkpt lat="45.10255" lon="-0.62052">
        <ele>52</ele>
        <time>2024-11-24T08:57:49Z</time>
      </trkpt>
      <trkpt lat="45.10253" lon="-0.62049">
        <ele>52.1</ele>
        <time>2024-11-24T08:57:50Z</time>
      </trkpt>
      <trkpt lat="45.10251" lon="-0.62045">
        <ele>52.2</ele>
        <time>2024-11-24T08:57:51Z</time>
      </trkpt>
      <trkpt lat="45.10249" lon="-0.62042">
        <ele>52.3</ele>
        <time>2024-11-24T08:57:52Z</time>
      </trkpt>
      <trkpt lat="45.10247" lon="-0.62038">
        <ele>52.3</ele>
        <time>2024-11-24T08:57:53Z</time>
      </trkpt>
      <trkpt lat="45.10245" lon="-0.62035">
        <ele>52.3</ele>
        <time>2024-11-24T08:57:54Z</time>
      </trkpt>
      <trkpt lat="45.10243" lon="-0.62031">
        <ele>52.3</ele>
        <time>2024-11-24T08:57:55Z</time>
      </trkpt>
      <trkpt lat="45.10241" lon="-0.62027">
        <ele>52.3</ele>
        <time>2024-11-24T08:58:28Z</time>
      </trkpt>
      <trkpt lat="45.10239" lon="-0.62024">
        <ele>52.3</ele>
        <time>2024-11-24T08:58:29Z</time>
      </trkpt>
      <trkpt lat="45.10237" lon="-0.6202">
        <ele>52.3</ele>
        <time>2024-11-24T08:58:30Z</time>
      </trkpt>
      <trkpt lat="45.10235" lon="-0.62021">
        <ele>52.2</ele>
        <time>2024-11-24T08:58:31Z</time>
      </trkpt>
      <trkpt lat="45.10234" lon="-0.62021">
        <ele>52.2</ele>
        <time>2024-11-24T08:58:32Z</time>
      </trkpt>
      <trkpt lat="45.10233" lon="-0.62021">
        <ele>52.2</ele>
        <time>2024-11-24T08:58:33Z</time>
      </trkpt>
      <trkpt lat="45.10232" lon="-0.62021">
        <ele>52.2</ele>
        <time>2024-11-24T08:58:34Z</time>
      </trkpt>
      <trkpt lat="45.10231" lon="-0.6202">
        <ele>52.1</ele>
        <time>2024-11-24T08:58:35Z</time>
      </trkpt>
      <trkpt lat="45.1023" lon="-0.62021">
        <ele>52.1</ele>
        <time>2024-11-24T08:58:36Z</time>
      </trkpt>
      <trkpt lat="45.10229" lon="-0.62021">
        <ele>52.1</ele>
        <time>2024-11-24T08:58:37Z</time>
      </trkpt>
      <trkpt lat="45.10229" lon="-0.62022">
        <ele>52.1</ele>
        <time>2024-11-24T08:58:38Z</time>
      </trkpt>
      <trkpt lat="45.1023" lon="-0.62023">
        <ele>52</ele>
        <time>2024-11-24T08:58:39Z</time>
      </trkpt>
      <trkpt lat="45.1023" lon="-0.62023">
        <ele>52</ele>
        <time>2024-11-24T08:58:40Z</time>
      </trkpt>
      <trkpt lat="45.1023" lon="-0.62023">
        <ele>52</ele>
        <time>2024-11-24T08:58:41Z</time>
      </trkpt>
      <trkpt lat="45.1023" lon="-0.62023">
        <ele>52</ele>
        <time>2024-11-24T08:58:42Z</time>
      </trkpt>
      <trkpt lat="45.10229" lon="-0.62023">
        <ele>52</ele>
        <time>2024-11-24T08:58:43Z</time>
      </trkpt>
      <trkpt lat="45.10228" lon="-0.62023">
        <ele>52</ele>
        <time>2024-11-24T08:58:44Z</time>
      </trkpt>
      <trkpt lat="45.10226" lon="-0.62022">
        <ele>51.9</ele>
        <time>2024-11-24T08:58:45Z</time>
      </trkpt>
      <trkpt lat="45.10225" lon="-0.62022">
        <ele>51.9</ele>
        <time>2024-11-24T08:58:46Z</time>
      </trkpt>
      <trkpt lat="45.10224" lon="-0.62022">
        <ele>51.9</ele>
        <time>2024-11-24T08:58:47Z</time>
      </trkpt>
      <trkpt lat="45.10223" lon="-0.62022">
        <ele>51.8</ele>
        <time>2024-11-24T08:58:48Z</time>
      </trkpt>
      <trkpt lat="45.10222" lon="-0.62022">
        <ele>51.8</ele>
        <time>2024-11-24T08:58:49Z</time>
      </trkpt>
      <trkpt lat="45.10221" lon="-0.62022">
        <ele>51.8</ele>
        <time>2024-11-24T08:58:50Z</time>
      </trkpt>
      <trkpt lat="45.10219" lon="-0.62022">
        <ele>51.7</ele>
        <time>2024-11-24T08:58:51Z</time>
      </trkpt>
      <trkpt lat="45.10218" lon="-0.62023">
        <ele>51.7</ele>
        <time>2024-11-24T08:58:52Z</time>
      </trkpt>
      <trkpt lat="45.10216" lon="-0.62023">
        <ele>51.7</ele>
        <time>2024-11-24T08:58:53Z</time>
      </trkpt>
      <trkpt lat="45.10215" lon="-0.62023">
        <ele>51.7</ele>
        <time>2024-11-24T08:58:54Z</time>
      </trkpt>
      <trkpt lat="45.10214" lon="-0.62023">
        <ele>51.6</ele>
        <time>2024-11-24T08:58:55Z</time>
      </trkpt>
      <trkpt lat="45.10197" lon="-0.62037">
        <ele>51.1</ele>
        <time>2024-11-24T08:59:41Z</time>
      </trkpt>
      <trkpt lat="45.10197" lon="-0.62037">
        <ele>51</ele>
        <time>2024-11-24T08:59:42Z</time>
      </trkpt>
      <trkpt lat="45.10196" lon="-0.62037">
        <ele>51</ele>
        <time>2024-11-24T08:59:43Z</time>
      </trkpt>
      <trkpt lat="45.10196" lon="-0.62037">
        <ele>51</ele>
        <time>2024-11-24T08:59:44Z</time>
      </trkpt>
      <trkpt lat="45.10196" lon="-0.62037">
        <ele>51</ele>
        <time>2024-11-24T08:59:45Z</time>
      </trkpt>
      <trkpt lat="45.10196" lon="-0.62037">
        <ele>51</ele>
        <time>2024-11-24T08:59:46Z</time>
      </trkpt>
      <trkpt lat="45.10196" lon="-0.62037">
        <ele>51</ele>
        <time>2024-11-24T08:59:47Z</time>
      </trkpt>
      <trkpt lat="45.10196" lon="-0.62037">
        <ele>51</ele>
        <time>2024-11-24T08:59:48Z</time>
      </trkpt>
      <trkpt lat="45.10196" lon="-0.62036">
        <ele>51</ele>
        <time>2024-11-24T08:59:49Z</time>
      </trkpt>
      <trkpt lat="45.10196" lon="-0.62036">
        <ele>51</ele>
        <time>2024-11-24T08:59:50Z</time>
      </trkpt>
      <trkpt lat="45.10196" lon="-0.62036">
        <ele>51</ele>
        <time>2024-11-24T08:59:51Z</time>
      </trkpt>
      <trkpt lat="45.10196" lon="-0.62035">
        <ele>51</ele>
        <time>2024-11-24T08:59:52Z</time>
      </trkpt>
      <trkpt lat="45.10196" lon="-0.62035">
        <ele>50.9</ele>
        <time>2024-11-24T08:59:53Z</time>
      </trkpt>
      <trkpt lat="45.10195" lon="-0.62034">
        <ele>50.9</ele>
        <time>2024-11-24T08:59:54Z</time>
      </trkpt>
      <trkpt lat="45.10194" lon="-0.62033">
        <ele>50.8</ele>
        <time>2024-11-24T08:59:55Z</time>
      </trkpt>
      <trkpt lat="45.10193" lon="-0.62031">
        <ele>50.8</ele>
        <time>2024-11-24T08:59:56Z</time>
      </trkpt>
      <trkpt lat="45.10192" lon="-0.62031">
        <ele>50.7</ele>
        <time>2024-11-24T08:59:57Z</time>
      </trkpt>
      <trkpt lat="45.10191" lon="-0.6203">
        <ele>50.7</ele>
        <time>2024-11-24T08:59:58Z</time>
      </trkpt>
      <trkpt lat="45.1019" lon="-0.6203">
        <ele>50.6</ele>
        <time>2024-11-24T08:59:59Z</time>
      </trkpt>
      <trkpt lat="45.10189" lon="-0.62028">
        <ele>50.6</ele>
        <time>2024-11-24T09:00:00Z</time>
      </trkpt>
      <trkpt lat="45.10188" lon="-0.62025">
        <ele>50.4</ele>
        <time>2024-11-24T09:00:01Z</time>
      </trkpt>
      <trkpt lat="45.10186" lon="-0.62024">
        <ele>50.4</ele>
        <time>2024-11-24T09:00:02Z</time>
      </trkpt>
      <trkpt lat="45.10185" lon="-0.62022">
        <ele>50.3</ele>
        <time>2024-11-24T09:00:03Z</time>
      </trkpt>
      <trkpt lat="45.10183" lon="-0.62021">
        <ele>50.2</ele>
        <time>2024-11-24T09:00:04Z</time>
      </trkpt>
      <trkpt lat="45.10182" lon="-0.62019">
        <ele>50.2</ele>
        <time>2024-11-24T09:00:05Z</time>
      </trkpt>
      <trkpt lat="45.10181" lon="-0.62018">
        <ele>50.1</ele>
        <time>2024-11-24T09:00:06Z</time>
      </trkpt>
      <trkpt lat="45.10179" lon="-0.62016">
        <ele>50</ele>
        <time>2024-11-24T09:00:07Z</time>
      </trkpt>
      <trkpt lat="45.10178" lon="-0.62015">
        <ele>50</ele>
        <time>2024-11-24T09:00:08Z</time>
      </trkpt>
      <trkpt lat="45.10177" lon="-0.62014">
        <ele>49.9</ele>
        <time>2024-11-24T09:00:09Z</time>
      </trkpt>
      <trkpt lat="45.10175" lon="-0.62012">
        <ele>49.9</ele>
        <time>2024-11-24T09:00:10Z</time>
      </trkpt>
      <trkpt lat="45.10174" lon="-0.62011">
        <ele>49.8</ele>
        <time>2024-11-24T09:00:59Z</time>
      </trkpt>
      <trkpt lat="45.10172" lon="-0.62009">
        <ele>49.8</ele>
        <time>2024-11-24T09:01:00Z</time>
      </trkpt>
      <trkpt lat="45.10171" lon="-0.62008">
        <ele>49.7</ele>
        <time>2024-11-24T09:01:01Z</time>
      </trkpt>
      <trkpt lat="45.10171" lon="-0.62008">
        <ele>49.7</ele>
        <time>2024-11-24T09:01:02Z</time>
      </trkpt>
      <trkpt lat="45.10171" lon="-0.62009">
        <ele>49.7</ele>
        <time>2024-11-24T09:01:03Z</time>
      </trkpt>
      <trkpt lat="45.10171" lon="-0.62009">
        <ele>49.7</ele>
        <time>2024-11-24T09:01:04Z</time>
      </trkpt>
      <trkpt lat="45.10171" lon="-0.62009">
        <ele>49.7</ele>
        <time>2024-11-24T09:01:05Z</time>
      </trkpt>
      <trkpt lat="45.10171" lon="-0.6201">
        <ele>49.7</ele>
        <time>2024-11-24T09:01:06Z</time>
      </trkpt>
      <trkpt lat="45.10171" lon="-0.6201">
        <ele>49.7</ele>
        <time>2024-11-24T09:01:07Z</time>
      </trkpt>
      <trkpt lat="45.10171" lon="-0.62009">
        <ele>49.7</ele>
        <time>2024-11-24T09:01:09Z</time>
      </trkpt>
      <trkpt lat="45.10171" lon="-0.62009">
        <ele>49.6</ele>
        <time>2024-11-24T09:01:10Z</time>
      </trkpt>
      <trkpt lat="45.10172" lon="-0.62009">
        <ele>49.6</ele>
        <time>2024-11-24T09:01:11Z</time>
      </trkpt>
      <trkpt lat="45.10172" lon="-0.62009">
        <ele>49.6</ele>
        <time>2024-11-24T09:01:12Z</time>
      </trkpt>
      <trkpt lat="45.10172" lon="-0.62009">
        <ele>49.6</ele>
        <time>2024-11-24T09:01:13Z</time>
      </trkpt>
      <trkpt lat="45.10172" lon="-0.62009">
        <ele>49.6</ele>
        <time>2024-11-24T09:01:14Z</time>
      </trkpt>
      <trkpt lat="45.10172" lon="-0.62009">
        <ele>49.6</ele>
        <time>2024-11-24T09:01:15Z</time>
      </trkpt>
      <trkpt lat="45.10172" lon="-0.62009">
        <ele>49.6</ele>
        <time>2024-11-24T09:01:16Z</time>
      </trkpt>
      <trkpt lat="45.10172" lon="-0.62009">
        <ele>49.6</ele>
        <time>2024-11-24T09:01:17Z</time>
      </trkpt>
      <trkpt lat="45.10172" lon="-0.62009">
        <ele>49.6</ele>
        <time>2024-11-24T09:01:18Z</time>
      </trkpt>
      <trkpt lat="45.10172" lon="-0.62009">
        <ele>49.6</ele>
        <time>2024-11-24T09:01:19Z</time>
      </trkpt>
      <trkpt lat="45.10172" lon="-0.62009">
        <ele>49.6</ele>
        <time>2024-11-24T09:01:20Z</time>
      </trkpt>
      <trkpt lat="45.10172" lon="-0.62009">
        <ele>49.6</ele>
        <time>2024-11-24T09:01:21Z</time>
      </trkpt>
      <trkpt lat="45.10172" lon="-0.62009">
        <ele>49.6</ele>
        <time>2024-11-24T09:01:22Z</time>
      </trkpt>
      <trkpt lat="45.10172" lon="-0.62009">
        <ele>49.6</ele>
        <time>2024-11-24T09:01:23Z</time>
      </trkpt>
      <trkpt lat="45.10172" lon="-0.62009">
        <ele>49.6</ele>
        <time>2024-11-24T09:01:24Z</time>
      </trkpt>
      <trkpt lat="45.10172" lon="-0.62009">
        <ele>49.6</ele>
        <time>2024-11-24T09:01:25Z</time>
      </trkpt>
      <trkpt lat="45.10172" lon="-0.62009">
        <ele>49.6</ele>
        <time>2024-11-24T09:01:26Z</time>
      </trkpt>
      <trkpt lat="45.10172" lon="-0.62009">
        <ele>49.6</ele>
        <time>2024-11-24T09:01:27Z</time>
      </trkpt>
      <trkpt lat="45.10172" lon="-0.62009">
        <ele>49.6</ele>
        <time>2024-11-24T09:01:28Z</time>
      </trkpt>
      <trkpt lat="45.10172" lon="-0.62009">
        <ele>49.6</ele>
        <time>2024-11-24T09:01:29Z</time>
      </trkpt>
      <trkpt lat="45.10172" lon="-0.62009">
        <ele>49.6</ele>
        <time>2024-11-24T09:01:30Z</time>
      </trkpt>
      <trkpt lat="45.10172" lon="-0.62009">
        <ele>49.6</ele>
        <time>2024-11-24T09:01:31Z</time>
      </trkpt>
      <trkpt lat="45.10172" lon="-0.62009">
        <ele>49.6</ele>
        <time>2024-11-24T09:01:32Z</time>
      </trkpt>
      <trkpt lat="45.10172" lon="-0.62009">
        <ele>49.6</ele>
        <time>2024-11-24T09:01:33Z</time>
      </trkpt>
      <trkpt lat="45.10172" lon="-0.62009">
        <ele>49.6</ele>
        <time>2024-11-24T09:01:34Z</time>
      </trkpt>
      <trkpt lat="45.10172" lon="-0.62009">
        <ele>49.6</ele>
        <time>2024-11-24T09:01:35Z</time>
      </trkpt>
      <trkpt lat="45.10172" lon="-0.62009">
        <ele>49.6</ele>
        <time>2024-11-24T09:01:36Z</time>
      </trkpt>
      <trkpt lat="45.10172" lon="-0.62009">
        <ele>49.6</ele>
        <time>2024-11-24T09:01:37Z</time>
      </trkpt>
      <trkpt lat="45.10172" lon="-0.62009">
        <ele>49.6</ele>
        <time>2024-11-24T09:01:38Z</time>
      </trkpt>
      <trkpt lat="45.10172" lon="-0.62009">
        <ele>49.6</ele>
        <time>2024-11-24T09:01:39Z</time>
      </trkpt>
      <trkpt lat="45.10172" lon="-0.62008">
        <ele>49.6</ele>
        <time>2024-11-24T09:01:40Z</time>
      </trkpt>
      <trkpt lat="45.10171" lon="-0.62008">
        <ele>49.6</ele>
        <time>2024-11-24T09:01:41Z</time>
      </trkpt>
      <trkpt lat="45.1017" lon="-0.62007">
        <ele>49.5</ele>
        <time>2024-11-24T09:01:42Z</time>
      </trkpt>
      <trkpt lat="45.10169" lon="-0.62006">
        <ele>49.5</ele>
        <time>2024-11-24T09:01:43Z</time>
      </trkpt>
      <trkpt lat="45.10168" lon="-0.62006">
        <ele>49.5</ele>
        <time>2024-11-24T09:01:44Z</time>
      </trkpt>
      <trkpt lat="45.10166" lon="-0.62005">
        <ele>49.4</ele>
        <time>2024-11-24T09:01:45Z</time>
      </trkpt>
      <trkpt lat="45.10165" lon="-0.62005">
        <ele>49.4</ele>
        <time>2024-11-24T09:01:46Z</time>
      </trkpt>
      <trkpt lat="45.10165" lon="-0.62004">
        <ele>49.4</ele>
        <time>2024-11-24T09:01:47Z</time>
      </trkpt>
      <trkpt lat="45.10163" lon="-0.62003">
        <ele>49.3</ele>
        <time>2024-11-24T09:01:48Z</time>
      </trkpt>
      <trkpt lat="45.10162" lon="-0.62002">
        <ele>49.3</ele>
        <time>2024-11-24T09:01:49Z</time>
      </trkpt>
      <trkpt lat="45.10161" lon="-0.62001">
        <ele>49.2</ele>
        <time>2024-11-24T09:01:50Z</time>
      </trkpt>
      <trkpt lat="45.1016" lon="-0.62001">
        <ele>49.2</ele>
        <time>2024-11-24T09:01:51Z</time>
      </trkpt>
      <trkpt lat="45.10159" lon="-0.62001">
        <ele>49.2</ele>
        <time>2024-11-24T09:01:52Z</time>
      </trkpt>
      <trkpt lat="45.10158" lon="-0.62001">
        <ele>49.1</ele>
        <time>2024-11-24T09:01:53Z</time>
      </trkpt>
      <trkpt lat="45.10157" lon="-0.62001">
        <ele>49.1</ele>
        <time>2024-11-24T09:01:54Z</time>
      </trkpt>
      <trkpt lat="45.10156" lon="-0.62001">
        <ele>49</ele>
        <time>2024-11-24T09:01:55Z</time>
      </trkpt>
      <trkpt lat="45.10155" lon="-0.62001">
        <ele>49</ele>
        <time>2024-11-24T09:01:56Z</time>
      </trkpt>
      <trkpt lat="45.10154" lon="-0.62001">
        <ele>49</ele>
        <time>2024-11-24T09:01:57Z</time>
      </trkpt>
      <trkpt lat="45.10152" lon="-0.62">
        <ele>48.9</ele>
        <time>2024-11-24T09:01:58Z</time>
      </trkpt>
      <trkpt lat="45.10152" lon="-0.62">
        <ele>48.9</ele>
        <time>2024-11-24T09:01:59Z</time>
      </trkpt>
      <trkpt lat="45.1015" lon="-0.61999">
        <ele>48.9</ele>
        <time>2024-11-24T09:02:00Z</time>
      </trkpt>
      <trkpt lat="45.10149" lon="-0.61999">
        <ele>48.8</ele>
        <time>2024-11-24T09:02:01Z</time>
      </trkpt>
      <trkpt lat="45.10147" lon="-0.61998">
        <ele>48.7</ele>
        <time>2024-11-24T09:02:02Z</time>
      </trkpt>
      <trkpt lat="45.10147" lon="-0.61998">
        <ele>48.7</ele>
        <time>2024-11-24T09:02:03Z</time>
      </trkpt>
      <trkpt lat="45.10146" lon="-0.61997">
        <ele>48.7</ele>
        <time>2024-11-24T09:02:04Z</time>
      </trkpt>
      <trkpt lat="45.10144" lon="-0.61996">
        <ele>48.6</ele>
        <time>2024-11-24T09:02:05Z</time>
      </trkpt>
      <trkpt lat="45.10143" lon="-0.61996">
        <ele>48.5</ele>
        <time>2024-11-24T09:02:06Z</time>
      </trkpt>
      <trkpt lat="45.10142" lon="-0.61995">
        <ele>48.5</ele>
        <time>2024-11-24T09:02:07Z</time>
      </trkpt>
      <trkpt lat="45.10141" lon="-0.61994">
        <ele>48.4</ele>
        <time>2024-11-24T09:02:08Z</time>
      </trkpt>
      <trkpt lat="45.1014" lon="-0.61993">
        <ele>48.4</ele>
        <time>2024-11-24T09:02:09Z</time>
      </trkpt>
      <trkpt lat="45.10138" lon="-0.61992">
        <ele>48.3</ele>
        <time>2024-11-24T09:02:10Z</time>
      </trkpt>
      <trkpt lat="45.10137" lon="-0.61992">
        <ele>48.3</ele>
        <time>2024-11-24T09:02:11Z</time>
      </trkpt>
      <trkpt lat="45.10136" lon="-0.61991">
        <ele>48.2</ele>
        <time>2024-11-24T09:02:12Z</time>
      </trkpt>
      <trkpt lat="45.10135" lon="-0.6199">
        <ele>48.1</ele>
        <time>2024-11-24T09:02:13Z</time>
      </trkpt>
      <trkpt lat="45.10134" lon="-0.61989">
        <ele>47.9</ele>
        <time>2024-11-24T09:02:14Z</time>
      </trkpt>
      <trkpt lat="45.10133" lon="-0.61988">
        <ele>47.8</ele>
        <time>2024-11-24T09:02:15Z</time>
      </trkpt>
      <trkpt lat="45.10131" lon="-0.61987">
        <ele>47.7</ele>
        <time>2024-11-24T09:02:16Z</time>
      </trkpt>
      <trkpt lat="45.1013" lon="-0.61987">
        <ele>47.6</ele>
        <time>2024-11-24T09:02:17Z</time>
      </trkpt>
      <trkpt lat="45.10128" lon="-0.61987">
        <ele>47.4</ele>
        <time>2024-11-24T09:02:18Z</time>
      </trkpt>
      <trkpt lat="45.10128" lon="-0.61987">
        <ele>47.3</ele>
        <time>2024-11-24T09:02:19Z</time>
      </trkpt>
      <trkpt lat="45.10126" lon="-0.61986">
        <ele>47.2</ele>
        <time>2024-11-24T09:02:20Z</time>
      </trkpt>
      <trkpt lat="45.10125" lon="-0.61986">
        <ele>47.1</ele>
        <time>2024-11-24T09:02:21Z</time>
      </trkpt>
      <trkpt lat="45.10124" lon="-0.61985">
        <ele>47</ele>
        <time>2024-11-24T09:02:22Z</time>
      </trkpt>
      <trkpt lat="45.10123" lon="-0.61984">
        <ele>46.9</ele>
        <time>2024-11-24T09:02:23Z</time>
      </trkpt>
      <trkpt lat="45.10122" lon="-0.61983">
        <ele>46.8</ele>
        <time>2024-11-24T09:02:24Z</time>
      </trkpt>
      <trkpt lat="45.1012" lon="-0.61983">
        <ele>46.7</ele>
        <time>2024-11-24T09:02:25Z</time>
      </trkpt>
      <trkpt lat="45.10119" lon="-0.61982">
        <ele>46.5</ele>
        <time>2024-11-24T09:02:26Z</time>
      </trkpt>
      <trkpt lat="45.10118" lon="-0.61981">
        <ele>46.4</ele>
        <time>2024-11-24T09:02:27Z</time>
      </trkpt>
      <trkpt lat="45.10116" lon="-0.6198">
        <ele>46.3</ele>
        <time>2024-11-24T09:02:28Z</time>
      </trkpt>
      <trkpt lat="45.10115" lon="-0.6198">
        <ele>46.2</ele>
        <time>2024-11-24T09:02:29Z</time>
      </trkpt>
      <trkpt lat="45.10114" lon="-0.61979">
        <ele>46.1</ele>
        <time>2024-11-24T09:02:30Z</time>
      </trkpt>
      <trkpt lat="45.10112" lon="-0.61978">
        <ele>45.9</ele>
        <time>2024-11-24T09:02:31Z</time>
      </trkpt>
      <trkpt lat="45.10111" lon="-0.61978">
        <ele>45.8</ele>
        <time>2024-11-24T09:02:32Z</time>
      </trkpt>
      <trkpt lat="45.10109" lon="-0.61977">
        <ele>45.7</ele>
        <time>2024-11-24T09:02:33Z</time>
      </trkpt>
      <trkpt lat="45.10108" lon="-0.61976">
        <ele>45.6</ele>
        <time>2024-11-24T09:02:34Z</time>
      </trkpt>
      <trkpt lat="45.10106" lon="-0.61976">
        <ele>45.5</ele>
        <time>2024-11-24T09:02:35Z</time>
      </trkpt>
      <trkpt lat="45.10105" lon="-0.61976">
        <ele>45.3</ele>
        <time>2024-11-24T09:02:36Z</time>
      </trkpt>
      <trkpt lat="45.10103" lon="-0.61975">
        <ele>45.2</ele>
        <time>2024-11-24T09:02:37Z</time>
      </trkpt>
      <trkpt lat="45.10102" lon="-0.61975">
        <ele>45.1</ele>
        <time>2024-11-24T09:02:38Z</time>
      </trkpt>
      <trkpt lat="45.101" lon="-0.61973">
        <ele>44.9</ele>
        <time>2024-11-24T09:02:39Z</time>
      </trkpt>
      <trkpt lat="45.10099" lon="-0.61973">
        <ele>44.8</ele>
        <time>2024-11-24T09:02:40Z</time>
      </trkpt>
      <trkpt lat="45.10098" lon="-0.61973">
        <ele>44.8</ele>
        <time>2024-11-24T09:02:41Z</time>
      </trkpt>
      <trkpt lat="45.10097" lon="-0.61972">
        <ele>44.7</ele>
        <time>2024-11-24T09:02:42Z</time>
      </trkpt>
      <trkpt lat="45.10095" lon="-0.61971">
        <ele>44.6</ele>
        <time>2024-11-24T09:02:43Z</time>
      </trkpt>
      <trkpt lat="45.10094" lon="-0.61971">
        <ele>44.4</ele>
        <time>2024-11-24T09:02:44Z</time>
      </trkpt>
      <trkpt lat="45.10093" lon="-0.6197">
        <ele>44.3</ele>
        <time>2024-11-24T09:02:45Z</time>
      </trkpt>
      <trkpt lat="45.10091" lon="-0.6197">
        <ele>44.2</ele>
        <time>2024-11-24T09:02:46Z</time>
      </trkpt>
      <trkpt lat="45.1009" lon="-0.61969">
        <ele>44.1</ele>
        <time>2024-11-24T09:02:47Z</time>
      </trkpt>
      <trkpt lat="45.10088" lon="-0.61969">
        <ele>44</ele>
        <time>2024-11-24T09:02:48Z</time>
      </trkpt>
      <trkpt lat="45.10087" lon="-0.61968">
        <ele>43.8</ele>
        <time>2024-11-24T09:02:49Z</time>
      </trkpt>
      <trkpt lat="45.10086" lon="-0.61967">
        <ele>43.7</ele>
        <time>2024-11-24T09:02:50Z</time>
      </trkpt>
      <trkpt lat="45.10084" lon="-0.61967">
        <ele>43.6</ele>
        <time>2024-11-24T09:02:51Z</time>
      </trkpt>
      <trkpt lat="45.10083" lon="-0.61967">
        <ele>43.5</ele>
        <time>2024-11-24T09:02:52Z</time>
      </trkpt>
      <trkpt lat="45.10082" lon="-0.61966">
        <ele>43.4</ele>
        <time>2024-11-24T09:02:53Z</time>
      </trkpt>
      <trkpt lat="45.1008" lon="-0.61966">
        <ele>43.2</ele>
        <time>2024-11-24T09:02:54Z</time>
      </trkpt>
      <trkpt lat="45.10079" lon="-0.61965">
        <ele>43.1</ele>
        <time>2024-11-24T09:02:55Z</time>
      </trkpt>
      <trkpt lat="45.10077" lon="-0.61965">
        <ele>42.9</ele>
        <time>2024-11-24T09:02:56Z</time>
      </trkpt>
      <trkpt lat="45.10076" lon="-0.61965">
        <ele>42.8</ele>
        <time>2024-11-24T09:02:57Z</time>
      </trkpt>
      <trkpt lat="45.10075" lon="-0.61965">
        <ele>42.8</ele>
        <time>2024-11-24T09:02:58Z</time>
      </trkpt>
      <trkpt lat="45.10074" lon="-0.61964">
        <ele>42.6</ele>
        <time>2024-11-24T09:02:59Z</time>
      </trkpt>
      <trkpt lat="45.10072" lon="-0.61964">
        <ele>42.5</ele>
        <time>2024-11-24T09:03:00Z</time>
      </trkpt>
      <trkpt lat="45.10071" lon="-0.61964">
        <ele>42.4</ele>
        <time>2024-11-24T09:03:01Z</time>
      </trkpt>
      <trkpt lat="45.10069" lon="-0.61964">
        <ele>42.3</ele>
        <time>2024-11-24T09:03:02Z</time>
      </trkpt>
      <trkpt lat="45.10068" lon="-0.61964">
        <ele>42.1</ele>
        <time>2024-11-24T09:03:03Z</time>
      </trkpt>
      <trkpt lat="45.10066" lon="-0.61964">
        <ele>42</ele>
        <time>2024-11-24T09:03:04Z</time>
      </trkpt>
      <trkpt lat="45.10009" lon="-0.61946">
        <ele>36.6</ele>
        <time>2024-11-24T09:03:44Z</time>
      </trkpt>
      <trkpt lat="45.10008" lon="-0.61945">
        <ele>36.4</ele>
        <time>2024-11-24T09:03:45Z</time>
      </trkpt>
      <trkpt lat="45.10007" lon="-0.61945">
        <ele>36.3</ele>
        <time>2024-11-24T09:03:46Z</time>
      </trkpt>
      <trkpt lat="45.10006" lon="-0.61944">
        <ele>36.2</ele>
        <time>2024-11-24T09:03:47Z</time>
      </trkpt>
      <trkpt lat="45.10005" lon="-0.61943">
        <ele>36</ele>
        <time>2024-11-24T09:03:48Z</time>
      </trkpt>
      <trkpt lat="45.10003" lon="-0.61943">
        <ele>35.9</ele>
        <time>2024-11-24T09:03:49Z</time>
      </trkpt>
      <trkpt lat="45.09934" lon="-0.61929">
        <ele>28.6</ele>
        <time>2024-11-24T09:04:37Z</time>
      </trkpt>
      <trkpt lat="45.09933" lon="-0.61928">
        <ele>28.5</ele>
        <time>2024-11-24T09:04:38Z</time>
      </trkpt>
      <trkpt lat="45.09931" lon="-0.61928">
        <ele>28.3</ele>
        <time>2024-11-24T09:04:39Z</time>
      </trkpt>
      <trkpt lat="45.0993" lon="-0.61927">
        <ele>28.2</ele>
        <time>2024-11-24T09:04:40Z</time>
      </trkpt>
      <trkpt lat="45.09929" lon="-0.61926">
        <ele>28.1</ele>
        <time>2024-11-24T09:04:41Z</time>
      </trkpt>
      <trkpt lat="45.09928" lon="-0.61926">
        <ele>27.9</ele>
        <time>2024-11-24T09:04:42Z</time>
      </trkpt>
      <trkpt lat="45.09927" lon="-0.61925">
        <ele>27.7</ele>
        <time>2024-11-24T09:04:43Z</time>
      </trkpt>
      <trkpt lat="45.09925" lon="-0.61925">
        <ele>27.6</ele>
        <time>2024-11-24T09:04:44Z</time>
      </trkpt>
      <trkpt lat="45.09923" lon="-0.61924">
        <ele>27.3</ele>
        <time>2024-11-24T09:04:45Z</time>
      </trkpt>
      <trkpt lat="45.09922" lon="-0.61923">
        <ele>27.2</ele>
        <time>2024-11-24T09:04:46Z</time>
      </trkpt>
      <trkpt lat="45.09921" lon="-0.61923">
        <ele>27.1</ele>
        <time>2024-11-24T09:04:47Z</time>
      </trkpt>
      <trkpt lat="45.0992" lon="-0.61922">
        <ele>26.9</ele>
        <time>2024-11-24T09:04:48Z</time>
      </trkpt>
      <trkpt lat="45.09919" lon="-0.61921">
        <ele>26.7</ele>
        <time>2024-11-24T09:04:49Z</time>
      </trkpt>
      <trkpt lat="45.09872" lon="-0.61909">
        <ele>21.4</ele>
        <time>2024-11-24T09:05:24Z</time>
      </trkpt>
      <trkpt lat="45.09871" lon="-0.6191">
        <ele>21.3</ele>
        <time>2024-11-24T09:05:25Z</time>
      </trkpt>
      <trkpt lat="45.0987" lon="-0.61911">
        <ele>21.2</ele>
        <time>2024-11-24T09:05:26Z</time>
      </trkpt>
      <trkpt lat="45.0987" lon="-0.61912">
        <ele>21</ele>
        <time>2024-11-24T09:05:27Z</time>
      </trkpt>
      <trkpt lat="45.09869" lon="-0.61914">
        <ele>20.9</ele>
        <time>2024-11-24T09:05:28Z</time>
      </trkpt>
      <trkpt lat="45.09868" lon="-0.61916">
        <ele>20.8</ele>
        <time>2024-11-24T09:05:29Z</time>
      </trkpt>
      <trkpt lat="45.09867" lon="-0.61918">
        <ele>20.6</ele>
        <time>2024-11-24T09:05:30Z</time>
      </trkpt>
      <trkpt lat="45.09866" lon="-0.61919">
        <ele>20.5</ele>
        <time>2024-11-24T09:05:31Z</time>
      </trkpt>
      <trkpt lat="45.09865" lon="-0.61919">
        <ele>20.4</ele>
        <time>2024-11-24T09:05:32Z</time>
      </trkpt>
      <trkpt lat="45.09864" lon="-0.61921">
        <ele>20.3</ele>
        <time>2024-11-24T09:05:33Z</time>
      </trkpt>
      <trkpt lat="45.09863" lon="-0.61922">
        <ele>20.2</ele>
        <time>2024-11-24T09:05:34Z</time>
      </trkpt>
      <trkpt lat="45.09822" lon="-0.61945">
        <ele>15.5</ele>
        <time>2024-11-24T09:06:05Z</time>
      </trkpt>
      <trkpt lat="45.09821" lon="-0.61945">
        <ele>15.3</ele>
        <time>2024-11-24T09:06:06Z</time>
      </trkpt>
      <trkpt lat="45.0982" lon="-0.61945">
        <ele>15.3</ele>
        <time>2024-11-24T09:06:07Z</time>
      </trkpt>
      <trkpt lat="45.09818" lon="-0.61945">
        <ele>15.1</ele>
        <time>2024-11-24T09:06:08Z</time>
      </trkpt>
      <trkpt lat="45.09817" lon="-0.61945">
        <ele>15</ele>
        <time>2024-11-24T09:06:09Z</time>
      </trkpt>
      <trkpt lat="45.09815" lon="-0.61945">
        <ele>14.7</ele>
        <time>2024-11-24T09:06:10Z</time>
      </trkpt>
      <trkpt lat="45.09814" lon="-0.61945">
        <ele>14.6</ele>
        <time>2024-11-24T09:06:11Z</time>
      </trkpt>
      <trkpt lat="45.09813" lon="-0.61945">
        <ele>14.5</ele>
        <time>2024-11-24T09:06:12Z</time>
      </trkpt>
      <trkpt lat="45.09811" lon="-0.61945">
        <ele>14.4</ele>
        <time>2024-11-24T09:06:13Z</time>
      </trkpt>
      <trkpt lat="45.0981" lon="-0.61946">
        <ele>14.3</ele>
        <time>2024-11-24T09:06:14Z</time>
      </trkpt>
      <trkpt lat="45.09809" lon="-0.61946">
        <ele>14.2</ele>
        <time>2024-11-24T09:06:15Z</time>
      </trkpt>
      <trkpt lat="45.09807" lon="-0.61948">
        <ele>14.2</ele>
        <time>2024-11-24T09:06:16Z</time>
      </trkpt>
      <trkpt lat="45.09807" lon="-0.6195">
        <ele>14.3</ele>
        <time>2024-11-24T09:06:17Z</time>
      </trkpt>
      <trkpt lat="45.09806" lon="-0.61952">
        <ele>14.3</ele>
        <time>2024-11-24T09:06:18Z</time>
      </trkpt>
      <trkpt lat="45.09805" lon="-0.61954">
        <ele>14.3</ele>
        <time>2024-11-24T09:06:19Z</time>
      </trkpt>
      <trkpt lat="45.09804" lon="-0.61956">
        <ele>14.4</ele>
        <time>2024-11-24T09:06:20Z</time>
      </trkpt>
      <trkpt lat="45.09804" lon="-0.61958">
        <ele>14.4</ele>
        <time>2024-11-24T09:06:21Z</time>
      </trkpt>
      <trkpt lat="45.09804" lon="-0.6196">
        <ele>14.4</ele>
        <time>2024-11-24T09:06:22Z</time>
      </trkpt>
      <trkpt lat="45.09803" lon="-0.61962">
        <ele>14.4</ele>
        <time>2024-11-24T09:06:23Z</time>
      </trkpt>
      <trkpt lat="45.09803" lon="-0.61964">
        <ele>14.5</ele>
        <time>2024-11-24T09:06:24Z</time>
      </trkpt>
      <trkpt lat="45.09802" lon="-0.61966">
        <ele>14.5</ele>
        <time>2024-11-24T09:06:25Z</time>
      </trkpt>
      <trkpt lat="45.09802" lon="-0.61968">
        <ele>14.5</ele>
        <time>2024-11-24T09:06:26Z</time>
      </trkpt>
      <trkpt lat="45.09801" lon="-0.61969">
        <ele>14.6</ele>
        <time>2024-11-24T09:06:27Z</time>
      </trkpt>
      <trkpt lat="45.09799" lon="-0.6197">
        <ele>14.6</ele>
        <time>2024-11-24T09:06:28Z</time>
      </trkpt>
      <trkpt lat="45.09797" lon="-0.6197">
        <ele>14.7</ele>
        <time>2024-11-24T09:06:29Z</time>
      </trkpt>
      <trkpt lat="45.09796" lon="-0.6197">
        <ele>14.7</ele>
        <time>2024-11-24T09:06:30Z</time>
      </trkpt>
      <trkpt lat="45.09796" lon="-0.6197">
        <ele>14.7</ele>
        <time>2024-11-24T09:06:31Z</time>
      </trkpt>
      <trkpt lat="45.09794" lon="-0.6197">
        <ele>14.8</ele>
        <time>2024-11-24T09:06:32Z</time>
      </trkpt>
      <trkpt lat="45.09793" lon="-0.6197">
        <ele>14.8</ele>
        <time>2024-11-24T09:06:33Z</time>
      </trkpt>
      <trkpt lat="45.09792" lon="-0.6197">
        <ele>14.8</ele>
        <time>2024-11-24T09:06:34Z</time>
      </trkpt>
      <trkpt lat="45.09792" lon="-0.6197">
        <ele>14.8</ele>
        <time>2024-11-24T09:06:35Z</time>
      </trkpt>
      <trkpt lat="45.09789" lon="-0.61973">
        <ele>14.9</ele>
        <time>2024-11-24T09:07:01Z</time>
      </trkpt>
      <trkpt lat="45.09789" lon="-0.61973">
        <ele>15</ele>
        <time>2024-11-24T09:07:02Z</time>
      </trkpt>
      <trkpt lat="45.0979" lon="-0.61976">
        <ele>15</ele>
        <time>2024-11-24T09:07:03Z</time>
      </trkpt>
      <trkpt lat="45.0979" lon="-0.6198">
        <ele>15.1</ele>
        <time>2024-11-24T09:07:04Z</time>
      </trkpt>
      <trkpt lat="45.09791" lon="-0.61983">
        <ele>15.2</ele>
        <time>2024-11-24T09:08:11Z</time>
      </trkpt>
      <trkpt lat="45.09791" lon="-0.61986">
        <ele>15.3</ele>
        <time>2024-11-24T09:08:12Z</time>
      </trkpt>
      <trkpt lat="45.09791" lon="-0.61989">
        <ele>15.3</ele>
        <time>2024-11-24T09:08:13Z</time>
      </trkpt>
      <trkpt lat="45.09792" lon="-0.61993">
        <ele>15.4</ele>
        <time>2024-11-24T09:08:14Z</time>
      </trkpt>
      <trkpt lat="45.09792" lon="-0.61996">
        <ele>15.5</ele>
        <time>2024-11-24T09:08:15Z</time>
      </trkpt>
      <trkpt lat="45.09793" lon="-0.61999">
        <ele>15.6</ele>
        <time>2024-11-24T09:08:16Z</time>
      </trkpt>
      <trkpt lat="45.09793" lon="-0.62002">
        <ele>15.6</ele>
        <time>2024-11-24T09:08:17Z</time>
      </trkpt>
      <trkpt lat="45.09794" lon="-0.62006">
        <ele>15.6</ele>
        <time>2024-11-24T09:08:18Z</time>
      </trkpt>
      <trkpt lat="45.09794" lon="-0.62009">
        <ele>15.7</ele>
        <time>2024-11-24T09:08:19Z</time>
      </trkpt>
      <trkpt lat="45.09795" lon="-0.62012">
        <ele>15.7</ele>
        <time>2024-11-24T09:08:20Z</time>
      </trkpt>
      <trkpt lat="45.09795" lon="-0.62015">
        <ele>15.7</ele>
        <time>2024-11-24T09:08:50Z</time>
      </trkpt>
      <trkpt lat="45.09796" lon="-0.62019">
        <ele>15.7</ele>
        <time>2024-11-24T09:08:51Z</time>
      </trkpt>
      <trkpt lat="45.09796" lon="-0.62022">
        <ele>15.7</ele>
        <time>2024-11-24T09:08:52Z</time>
      </trkpt>
      <trkpt lat="45.09796" lon="-0.62024">
        <ele>15.7</ele>
        <time>2024-11-24T09:08:53Z</time>
      </trkpt>
      <trkpt lat="45.09796" lon="-0.62026">
        <ele>15.6</ele>
        <time>2024-11-24T09:08:54Z</time>
      </trkpt>
      <trkpt lat="45.09796" lon="-0.62027">
        <ele>15.6</ele>
        <time>2024-11-24T09:08:55Z</time>
      </trkpt>
      <trkpt lat="45.09796" lon="-0.62029">
        <ele>15.6</ele>
        <time>2024-11-24T09:08:56Z</time>
      </trkpt>
      <trkpt lat="45.09796" lon="-0.62031">
        <ele>15.5</ele>
        <time>2024-11-24T09:08:57Z</time>
      </trkpt>
      <trkpt lat="45.09796" lon="-0.62034">
        <ele>15.4</ele>
        <time>2024-11-24T09:08:58Z</time>
      </trkpt>
      <trkpt lat="45.09796" lon="-0.62035">
        <ele>15.4</ele>
        <time>2024-11-24T09:08:59Z</time>
      </trkpt>
      <trkpt lat="45.09795" lon="-0.62037">
        <ele>15.4</ele>
        <time>2024-11-24T09:09:00Z</time>
      </trkpt>
      <trkpt lat="45.09795" lon="-0.6204">
        <ele>15.3</ele>
        <time>2024-11-24T09:09:01Z</time>
      </trkpt>
      <trkpt lat="45.09795" lon="-0.62041">
        <ele>15.2</ele>
        <time>2024-11-24T09:09:02Z</time>
      </trkpt>
      <trkpt lat="45.09794" lon="-0.62042">
        <ele>15.2</ele>
        <time>2024-11-24T09:09:03Z</time>
      </trkpt>
      <trkpt lat="45.09794" lon="-0.62044">
        <ele>15.1</ele>
        <time>2024-11-24T09:09:04Z</time>
      </trkpt>
      <trkpt lat="45.09794" lon="-0.62046">
        <ele>15</ele>
        <time>2024-11-24T09:09:05Z</time>
      </trkpt>
      <trkpt lat="45.09791" lon="-0.62109">
        <ele>11.7</ele>
        <time>2024-11-24T09:09:52Z</time>
      </trkpt>
      <trkpt lat="45.09791" lon="-0.62118">
        <ele>11.5</ele>
        <time>2024-11-24T09:09:53Z</time>
      </trkpt>
      <trkpt lat="45.09791" lon="-0.62127">
        <ele>11.3</ele>
        <time>2024-11-24T09:09:54Z</time>
      </trkpt>
      <trkpt lat="45.09791" lon="-0.62137">
        <ele>11.2</ele>
        <time>2024-11-24T09:09:55Z</time>
      </trkpt>
      <trkpt lat="45.09791" lon="-0.62146">
        <ele>11.2</ele>
        <time>2024-11-24T09:09:56Z</time>
      </trkpt>
      <trkpt lat="45.09791" lon="-0.62148">
        <ele>11.2</ele>
        <time>2024-11-24T09:09:57Z</time>
      </trkpt>
      <trkpt lat="45.09791" lon="-0.6215">
        <ele>11.2</ele>
        <time>2024-11-24T09:09:58Z</time>
      </trkpt>
      <trkpt lat="45.09792" lon="-0.62154">
        <ele>11.2</ele>
        <time>2024-11-24T09:09:59Z</time>
      </trkpt>
      <trkpt lat="45.09792" lon="-0.62155">
        <ele>11.2</ele>
        <time>2024-11-24T09:10:00Z</time>
      </trkpt>
      <trkpt lat="45.09792" lon="-0.62156">
        <ele>11.2</ele>
        <time>2024-11-24T09:10:01Z</time>
      </trkpt>
      <trkpt lat="45.09791" lon="-0.62158">
        <ele>11.2</ele>
        <time>2024-11-24T09:10:02Z</time>
      </trkpt>
      <trkpt lat="45.09791" lon="-0.6216">
        <ele>11.3</ele>
        <time>2024-11-24T09:10:03Z</time>
      </trkpt>
      <trkpt lat="45.09791" lon="-0.62163">
        <ele>11.3</ele>
        <time>2024-11-24T09:10:04Z</time>
      </trkpt>
      <trkpt lat="45.09791" lon="-0.62164">
        <ele>11.3</ele>
        <time>2024-11-24T09:10:05Z</time>
      </trkpt>
      <trkpt lat="45.09791" lon="-0.62165">
        <ele>11.3</ele>
        <time>2024-11-24T09:10:06Z</time>
      </trkpt>
      <trkpt lat="45.09791" lon="-0.62168">
        <ele>11.4</ele>
        <time>2024-11-24T09:10:07Z</time>
      </trkpt>
      <trkpt lat="45.09791" lon="-0.6217">
        <ele>11.4</ele>
        <time>2024-11-24T09:10:08Z</time>
      </trkpt>
      <trkpt lat="45.09791" lon="-0.62171">
        <ele>11.4</ele>
        <time>2024-11-24T09:10:09Z</time>
      </trkpt>
      <trkpt lat="45.09791" lon="-0.62173">
        <ele>11.5</ele>
        <time>2024-11-24T09:10:10Z</time>
      </trkpt>
      <trkpt lat="45.09791" lon="-0.62175">
        <ele>11.5</ele>
        <time>2024-11-24T09:10:11Z</time>
      </trkpt>
      <trkpt lat="45.0979" lon="-0.62177">
        <ele>11.6</ele>
        <time>2024-11-24T09:10:12Z</time>
      </trkpt>
      <trkpt lat="45.0979" lon="-0.62179">
        <ele>11.6</ele>
        <time>2024-11-24T09:10:13Z</time>
      </trkpt>
      <trkpt lat="45.09789" lon="-0.62182">
        <ele>11.7</ele>
        <time>2024-11-24T09:10:14Z</time>
      </trkpt>
      <trkpt lat="45.09789" lon="-0.62184">
        <ele>11.8</ele>
        <time>2024-11-24T09:10:15Z</time>
      </trkpt>
      <trkpt lat="45.09789" lon="-0.62185">
        <ele>11.8</ele>
        <time>2024-11-24T09:10:16Z</time>
      </trkpt>
      <trkpt lat="45.09789" lon="-0.62187">
        <ele>11.9</ele>
        <time>2024-11-24T09:10:17Z</time>
      </trkpt>
      <trkpt lat="45.09789" lon="-0.62189">
        <ele>11.9</ele>
        <time>2024-11-24T09:10:18Z</time>
      </trkpt>
      <trkpt lat="45.09789" lon="-0.62191">
        <ele>12</ele>
        <time>2024-11-24T09:10:19Z</time>
      </trkpt>
      <trkpt lat="45.09789" lon="-0.62193">
        <ele>12.1</ele>
        <time>2024-11-24T09:10:20Z</time>
      </trkpt>
      <trkpt lat="45.09782" lon="-0.62261">
        <ele>15.9</ele>
        <time>2024-11-24T09:10:55Z</time>
      </trkpt>
      <trkpt lat="45.09782" lon="-0.62263">
        <ele>16</ele>
        <time>2024-11-24T09:10:56Z</time>
      </trkpt>
      <trkpt lat="45.09782" lon="-0.62264">
        <ele>16.1</ele>
        <time>2024-11-24T09:10:57Z</time>
      </trkpt>
      <trkpt lat="45.09782" lon="-0.62265">
        <ele>16.2</ele>
        <time>2024-11-24T09:10:58Z</time>
      </trkpt>
      <trkpt lat="45.09781" lon="-0.62268">
        <ele>16.4</ele>
        <time>2024-11-24T09:10:59Z</time>
      </trkpt>
      <trkpt lat="45.09781" lon="-0.6227">
        <ele>16.5</ele>
        <time>2024-11-24T09:11:00Z</time>
      </trkpt>
      <trkpt lat="45.09781" lon="-0.62272">
        <ele>16.6</ele>
        <time>2024-11-24T09:11:01Z</time>
      </trkpt>
      <trkpt lat="45.09781" lon="-0.62274">
        <ele>16.8</ele>
        <time>2024-11-24T09:11:02Z</time>
      </trkpt>
      <trkpt lat="45.0978" lon="-0.62277">
        <ele>16.9</ele>
        <time>2024-11-24T09:11:03Z</time>
      </trkpt>
      <trkpt lat="45.0978" lon="-0.62279">
        <ele>17</ele>
        <time>2024-11-24T09:11:04Z</time>
      </trkpt>
      <trkpt lat="45.09779" lon="-0.62292">
        <ele>17.8</ele>
        <time>2024-11-24T09:11:05Z</time>
      </trkpt>
      <trkpt lat="45.09778" lon="-0.62303">
        <ele>18.3</ele>
        <time>2024-11-24T09:11:26Z</time>
      </trkpt>
      <trkpt lat="45.09778" lon="-0.62315">
        <ele>18.8</ele>
        <time>2024-11-24T09:11:27Z</time>
      </trkpt>
      <trkpt lat="45.09777" lon="-0.62326">
        <ele>19.1</ele>
        <time>2024-11-24T09:11:28Z</time>
      </trkpt>
      <trkpt lat="45.09777" lon="-0.62329">
        <ele>19.2</ele>
        <time>2024-11-24T09:11:29Z</time>
      </trkpt>
      <trkpt lat="45.09776" lon="-0.6233">
        <ele>19.2</ele>
        <time>2024-11-24T09:11:30Z</time>
      </trkpt>
      <trkpt lat="45.09776" lon="-0.62332">
        <ele>19.3</ele>
        <time>2024-11-24T09:11:31Z</time>
      </trkpt>
      <trkpt lat="45.09776" lon="-0.62334">
        <ele>19.3</ele>
        <time>2024-11-24T09:11:32Z</time>
      </trkpt>
      <trkpt lat="45.09776" lon="-0.62336">
        <ele>19.4</ele>
        <time>2024-11-24T09:11:33Z</time>
      </trkpt>
      <trkpt lat="45.09776" lon="-0.62339">
        <ele>19.4</ele>
        <time>2024-11-24T09:11:34Z</time>
      </trkpt>
      <trkpt lat="45.09775" lon="-0.62361">
        <ele>19.7</ele>
        <time>2024-11-24T09:11:35Z</time>
      </trkpt>
      <trkpt lat="45.09775" lon="-0.62381">
        <ele>19.9</ele>
        <time>2024-11-24T09:12:23Z</time>
      </trkpt>
      <trkpt lat="45.09775" lon="-0.62402">
        <ele>20.2</ele>
        <time>2024-11-24T09:12:24Z</time>
      </trkpt>
      <trkpt lat="45.09775" lon="-0.62422">
        <ele>20.5</ele>
        <time>2024-11-24T09:12:25Z</time>
      </trkpt>
      <trkpt lat="45.09775" lon="-0.62443">
        <ele>20.9</ele>
        <time>2024-11-24T09:12:26Z</time>
      </trkpt>
      <trkpt lat="45.09775" lon="-0.62446">
        <ele>20.9</ele>
        <time>2024-11-24T09:12:27Z</time>
      </trkpt>
      <trkpt lat="45.09775" lon="-0.62447">
        <ele>20.9</ele>
        <time>2024-11-24T09:12:28Z</time>
      </trkpt>
      <trkpt lat="45.09775" lon="-0.62449">
        <ele>20.9</ele>
        <time>2024-11-24T09:12:29Z</time>
      </trkpt>
      <trkpt lat="45.09776" lon="-0.62451">
        <ele>21</ele>
        <time>2024-11-24T09:12:30Z</time>
      </trkpt>
      <trkpt lat="45.09776" lon="-0.62453">
        <ele>21</ele>
        <time>2024-11-24T09:12:31Z</time>
      </trkpt>
      <trkpt lat="45.09776" lon="-0.62455">
        <ele>21</ele>
        <time>2024-11-24T09:12:32Z</time>
      </trkpt>
      <trkpt lat="45.09776" lon="-0.62457">
        <ele>21</ele>
        <time>2024-11-24T09:12:33Z</time>
      </trkpt>
      <trkpt lat="45.09776" lon="-0.62459">
        <ele>21.1</ele>
        <time>2024-11-24T09:12:34Z</time>
      </trkpt>
      <trkpt lat="45.09776" lon="-0.62461">
        <ele>21.1</ele>
        <time>2024-11-24T09:12:35Z</time>
      </trkpt>
      <trkpt lat="45.09783" lon="-0.62557">
        <ele>21.7</ele>
        <time>2024-11-24T09:13:23Z</time>
      </trkpt>
      <trkpt lat="45.09783" lon="-0.62559">
        <ele>21.7</ele>
        <time>2024-11-24T09:13:24Z</time>
      </trkpt>
      <trkpt lat="45.09783" lon="-0.62561">
        <ele>21.7</ele>
        <time>2024-11-24T09:13:25Z</time>
      </trkpt>
      <trkpt lat="45.09783" lon="-0.62563">
        <ele>21.7</ele>
        <time>2024-11-24T09:13:26Z</time>
      </trkpt>
      <trkpt lat="45.09783" lon="-0.62565">
        <ele>21.7</ele>
        <time>2024-11-24T09:13:27Z</time>
      </trkpt>
      <trkpt lat="45.09783" lon="-0.62568">
        <ele>21.8</ele>
        <time>2024-11-24T09:13:28Z</time>
      </trkpt>
      <trkpt lat="45.09783" lon="-0.6257">
        <ele>21.8</ele>
        <time>2024-11-24T09:13:29Z</time>
      </trkpt>
      <trkpt lat="45.09784" lon="-0.62572">
        <ele>21.8</ele>
        <time>2024-11-24T09:13:30Z</time>
      </trkpt>
      <trkpt lat="45.09784" lon="-0.62574">
        <ele>21.8</ele>
        <time>2024-11-24T09:13:31Z</time>
      </trkpt>
      <trkpt lat="45.09784" lon="-0.62576">
        <ele>21.8</ele>
        <time>2024-11-24T09:13:32Z</time>
      </trkpt>
      <trkpt lat="45.09784" lon="-0.62578">
        <ele>21.8</ele>
        <time>2024-11-24T09:13:33Z</time>
      </trkpt>
      <trkpt lat="45.09784" lon="-0.62581">
        <ele>21.9</ele>
        <time>2024-11-24T09:13:34Z</time>
      </trkpt>
      <trkpt lat="45.09782" lon="-0.62595">
        <ele>22</ele>
        <time>2024-11-24T09:13:35Z</time>
      </trkpt>
      <trkpt lat="45.09779" lon="-0.62606">
        <ele>22</ele>
        <time>2024-11-24T09:14:01Z</time>
      </trkpt>
      <trkpt lat="45.09777" lon="-0.62618">
        <ele>22</ele>
        <time>2024-11-24T09:14:02Z</time>
      </trkpt>
      <trkpt lat="45.09775" lon="-0.62629">
        <ele>21.8</ele>
        <time>2024-11-24T09:14:03Z</time>
      </trkpt>
      <trkpt lat="45.09773" lon="-0.62629">
        <ele>21.7</ele>
        <time>2024-11-24T09:14:04Z</time>
      </trkpt>
      <trkpt lat="45.09772" lon="-0.62628">
        <ele>21.7</ele>
        <time>2024-11-24T09:14:05Z</time>
      </trkpt>
      <trkpt lat="45.09771" lon="-0.62628">
        <ele>21.6</ele>
        <time>2024-11-24T09:14:06Z</time>
      </trkpt>
      <trkpt lat="45.0977" lon="-0.62628">
        <ele>21.5</ele>
        <time>2024-11-24T09:14:07Z</time>
      </trkpt>
      <trkpt lat="45.09769" lon="-0.62628">
        <ele>21.3</ele>
        <time>2024-11-24T09:14:08Z</time>
      </trkpt>
      <trkpt lat="45.09768" lon="-0.62628">
        <ele>21.2</ele>
        <time>2024-11-24T09:14:09Z</time>
      </trkpt>
      <trkpt lat="45.09766" lon="-0.62627">
        <ele>21</ele>
        <time>2024-11-24T09:14:10Z</time>
      </trkpt>
      <trkpt lat="45.09765" lon="-0.62626">
        <ele>20.9</ele>
        <time>2024-11-24T09:14:11Z</time>
      </trkpt>
      <trkpt lat="45.09764" lon="-0.62626">
        <ele>20.8</ele>
        <time>2024-11-24T09:14:12Z</time>
      </trkpt>
      <trkpt lat="45.09763" lon="-0.62625">
        <ele>20.6</ele>
        <time>2024-11-24T09:14:13Z</time>
      </trkpt>
      <trkpt lat="45.09762" lon="-0.62625">
        <ele>20.5</ele>
        <time>2024-11-24T09:14:14Z</time>
      </trkpt>
      <trkpt lat="45.09759" lon="-0.62624">
        <ele>20.2</ele>
        <time>2024-11-24T09:14:15Z</time>
      </trkpt>
      <trkpt lat="45.09759" lon="-0.62624">
        <ele>20.2</ele>
        <time>2024-11-24T09:14:16Z</time>
      </trkpt>
      <trkpt lat="45.09758" lon="-0.62623">
        <ele>20.1</ele>
        <time>2024-11-24T09:14:17Z</time>
      </trkpt>
      <trkpt lat="45.09756" lon="-0.62623">
        <ele>19.9</ele>
        <time>2024-11-24T09:14:18Z</time>
      </trkpt>
      <trkpt lat="45.09755" lon="-0.62622">
        <ele>19.8</ele>
        <time>2024-11-24T09:14:19Z</time>
      </trkpt>
      <trkpt lat="45.09753" lon="-0.62622">
        <ele>19.5</ele>
        <time>2024-11-24T09:14:20Z</time>
      </trkpt>
      <trkpt lat="45.09752" lon="-0.62621">
        <ele>19.4</ele>
        <time>2024-11-24T09:14:21Z</time>
      </trkpt>
      <trkpt lat="45.09751" lon="-0.62621">
        <ele>19.4</ele>
        <time>2024-11-24T09:14:22Z</time>
      </trkpt>
      <trkpt lat="45.0975" lon="-0.6262">
        <ele>19.2</ele>
        <time>2024-11-24T09:14:23Z</time>
      </trkpt>
      <trkpt lat="45.09749" lon="-0.6262">
        <ele>19.1</ele>
        <time>2024-11-24T09:14:24Z</time>
      </trkpt>
      <trkpt lat="45.09748" lon="-0.6262">
        <ele>19</ele>
        <time>2024-11-24T09:14:25Z</time>
      </trkpt>
      <trkpt lat="45.09746" lon="-0.62619">
        <ele>18.8</ele>
        <time>2024-11-24T09:14:26Z</time>
      </trkpt>
      <trkpt lat="45.09745" lon="-0.62619">
        <ele>18.7</ele>
        <time>2024-11-24T09:14:27Z</time>
      </trkpt>
      <trkpt lat="45.09744" lon="-0.62618">
        <ele>18.6</ele>
        <time>2024-11-24T09:14:28Z</time>
      </trkpt>
      <trkpt lat="45.09744" lon="-0.62618">
        <ele>18.5</ele>
        <time>2024-11-24T09:14:29Z</time>
      </trkpt>
      <trkpt lat="45.09743" lon="-0.62618">
        <ele>18.5</ele>
        <time>2024-11-24T09:14:30Z</time>
      </trkpt>
      <trkpt lat="45.09744" lon="-0.62618">
        <ele>18.5</ele>
        <time>2024-11-24T09:14:31Z</time>
      </trkpt>
      <trkpt lat="45.09744" lon="-0.62618">
        <ele>18.5</ele>
        <time>2024-11-24T09:14:32Z</time>
      </trkpt>
      <trkpt lat="45.09744" lon="-0.62618">
        <ele>18.4</ele>
        <time>2024-11-24T09:14:33Z</time>
      </trkpt>
      <trkpt lat="45.09744" lon="-0.62618">
        <ele>18.4</ele>
        <time>2024-11-24T09:14:34Z</time>
      </trkpt>
      <trkpt lat="45.09744" lon="-0.62618">
        <ele>18.4</ele>
        <time>2024-11-24T09:14:35Z</time>
      </trkpt>
      <trkpt lat="45.09744" lon="-0.62618">
        <ele>18.4</ele>
        <time>2024-11-24T09:14:36Z</time>
      </trkpt>
      <trkpt lat="45.09744" lon="-0.62618">
        <ele>18.4</ele>
        <time>2024-11-24T09:14:37Z</time>
      </trkpt>
      <trkpt lat="45.09744" lon="-0.62618">
        <ele>18.4</ele>
        <time>2024-11-24T09:14:38Z</time>
      </trkpt>
      <trkpt lat="45.09744" lon="-0.62618">
        <ele>18.4</ele>
        <time>2024-11-24T09:14:39Z</time>
      </trkpt>
      <trkpt lat="45.09744" lon="-0.62618">
        <ele>18.4</ele>
        <time>2024-11-24T09:14:40Z</time>
      </trkpt>
      <trkpt lat="45.09745" lon="-0.62618">
        <ele>18.4</ele>
        <time>2024-11-24T09:14:41Z</time>
      </trkpt>
      <trkpt lat="45.09745" lon="-0.62618">
        <ele>18.4</ele>
        <time>2024-11-24T09:14:42Z</time>
      </trkpt>
      <trkpt lat="45.09745" lon="-0.62618">
        <ele>18.3</ele>
        <time>2024-11-24T09:14:43Z</time>
      </trkpt>
      <trkpt lat="45.09745" lon="-0.62618">
        <ele>18.3</ele>
        <time>2024-11-24T09:14:44Z</time>
      </trkpt>
      <trkpt lat="45.09745" lon="-0.62618">
        <ele>18.3</ele>
        <time>2024-11-24T09:14:45Z</time>
      </trkpt>
      <trkpt lat="45.09745" lon="-0.62618">
        <ele>18.3</ele>
        <time>2024-11-24T09:14:46Z</time>
      </trkpt>
      <trkpt lat="45.09745" lon="-0.62618">
        <ele>18.3</ele>
        <time>2024-11-24T09:14:47Z</time>
      </trkpt>
      <trkpt lat="45.09745" lon="-0.62618">
        <ele>18.3</ele>
        <time>2024-11-24T09:14:48Z</time>
      </trkpt>
      <trkpt lat="45.09745" lon="-0.62618">
        <ele>18.3</ele>
        <time>2024-11-24T09:14:49Z</time>
      </trkpt>
      <trkpt lat="45.09745" lon="-0.62618">
        <ele>18.3</ele>
        <time>2024-11-24T09:14:50Z</time>
      </trkpt>
      <trkpt lat="45.09745" lon="-0.62618">
        <ele>18.3</ele>
        <time>2024-11-24T09:14:51Z</time>
      </trkpt>
      <trkpt lat="45.09745" lon="-0.62618">
        <ele>18.3</ele>
        <time>2024-11-24T09:14:52Z</time>
      </trkpt>
      <trkpt lat="45.09745" lon="-0.62618">
        <ele>18.3</ele>
        <time>2024-11-24T09:14:53Z</time>
      </trkpt>
      <trkpt lat="45.09745" lon="-0.62618">
        <ele>18.3</ele>
        <time>2024-11-24T09:14:54Z</time>
      </trkpt>
      <trkpt lat="45.09745" lon="-0.62618">
        <ele>18.3</ele>
        <time>2024-11-24T09:14:55Z</time>
      </trkpt>
      <trkpt lat="45.09745" lon="-0.62618">
        <ele>18.3</ele>
        <time>2024-11-24T09:14:56Z</time>
      </trkpt>
      <trkpt lat="45.09745" lon="-0.62618">
        <ele>18.3</ele>
        <time>2024-11-24T09:14:57Z</time>
      </trkpt>
      <trkpt lat="45.09745" lon="-0.62618">
        <ele>18.3</ele>
        <time>2024-11-24T09:14:58Z</time>
      </trkpt>
      <trkpt lat="45.09745" lon="-0.62619">
        <ele>18.3</ele>
        <time>2024-11-24T09:14:59Z</time>
      </trkpt>
      <trkpt lat="45.09745" lon="-0.62619">
        <ele>18.3</ele>
        <time>2024-11-24T09:15:00Z</time>
      </trkpt>
      <trkpt lat="45.09745" lon="-0.62619">
        <ele>18.3</ele>
        <time>2024-11-24T09:15:01Z</time>
      </trkpt>
      <trkpt lat="45.09745" lon="-0.62619">
        <ele>18.3</ele>
        <time>2024-11-24T09:15:02Z</time>
      </trkpt>
      <trkpt lat="45.09745" lon="-0.62619">
        <ele>18.3</ele>
        <time>2024-11-24T09:15:03Z</time>
      </trkpt>
      <trkpt lat="45.09745" lon="-0.62619">
        <ele>18.3</ele>
        <time>2024-11-24T09:15:04Z</time>
      </trkpt>
      <trkpt lat="45.09745" lon="-0.62619">
        <ele>18.3</ele>
        <time>2024-11-24T09:15:05Z</time>
      </trkpt>
      <trkpt lat="45.09745" lon="-0.62619">
        <ele>18.3</ele>
        <time>2024-11-24T09:15:06Z</time>
      </trkpt>
      <trkpt lat="45.09745" lon="-0.62619">
        <ele>18.3</ele>
        <time>2024-11-24T09:15:07Z</time>
      </trkpt>
      <trkpt lat="45.09745" lon="-0.62619">
        <ele>18.3</ele>
        <time>2024-11-24T09:15:08Z</time>
      </trkpt>
      <trkpt lat="45.09745" lon="-0.62619">
        <ele>18.3</ele>
        <time>2024-11-24T09:15:09Z</time>
      </trkpt>
      <trkpt lat="45.09745" lon="-0.62619">
        <ele>18.3</ele>
        <time>2024-11-24T09:15:10Z</time>
      </trkpt>
      <trkpt lat="45.09745" lon="-0.62619">
        <ele>18.3</ele>
        <time>2024-11-24T09:15:11Z</time>
      </trkpt>
      <trkpt lat="45.09745" lon="-0.62619">
        <ele>18.3</ele>
        <time>2024-11-24T09:15:12Z</time>
      </trkpt>
      <trkpt lat="45.09745" lon="-0.62619">
        <ele>18.3</ele>
        <time>2024-11-24T09:15:13Z</time>
      </trkpt>
      <trkpt lat="45.09745" lon="-0.62619">
        <ele>18.3</ele>
        <time>2024-11-24T09:15:14Z</time>
      </trkpt>
      <trkpt lat="45.09745" lon="-0.62619">
        <ele>18.3</ele>
        <time>2024-11-24T09:15:15Z</time>
      </trkpt>
      <trkpt lat="45.09745" lon="-0.62619">
        <ele>18.2</ele>
        <time>2024-11-24T09:15:16Z</time>
      </trkpt>
      <trkpt lat="45.09745" lon="-0.62619">
        <ele>18.2</ele>
        <time>2024-11-24T09:15:17Z</time>
      </trkpt>
      <trkpt lat="45.09745" lon="-0.62618">
        <ele>18.2</ele>
        <time>2024-11-24T09:15:18Z</time>
      </trkpt>
      <trkpt lat="45.09745" lon="-0.62618">
        <ele>18.1</ele>
        <time>2024-11-24T09:15:19Z</time>
      </trkpt>
      <trkpt lat="45.09745" lon="-0.62618">
        <ele>18.1</ele>
        <time>2024-11-24T09:15:20Z</time>
      </trkpt>
      <trkpt lat="45.09745" lon="-0.62618">
        <ele>18.1</ele>
        <time>2024-11-24T09:15:21Z</time>
      </trkpt>
      <trkpt lat="45.09745" lon="-0.62619">
        <ele>18.1</ele>
        <time>2024-11-24T09:15:22Z</time>
      </trkpt>
      <trkpt lat="45.09745" lon="-0.62619">
        <ele>18</ele>
        <time>2024-11-24T09:15:23Z</time>
      </trkpt>
      <trkpt lat="45.09745" lon="-0.62619">
        <ele>18</ele>
        <time>2024-11-24T09:15:24Z</time>
      </trkpt>
      <trkpt lat="45.09746" lon="-0.6262">
        <ele>17.9</ele>
        <time>2024-11-24T09:15:25Z</time>
      </trkpt>
      <trkpt lat="45.09746" lon="-0.6262">
        <ele>17.9</ele>
        <time>2024-11-24T09:15:26Z</time>
      </trkpt>
      <trkpt lat="45.09746" lon="-0.6262">
        <ele>17.9</ele>
        <time>2024-11-24T09:15:27Z</time>
      </trkpt>
      <trkpt lat="45.09746" lon="-0.6262">
        <ele>17.9</ele>
        <time>2024-11-24T09:15:28Z</time>
      </trkpt>
      <trkpt lat="45.09746" lon="-0.6262">
        <ele>17.9</ele>
        <time>2024-11-24T09:15:29Z</time>
      </trkpt>
      <trkpt lat="45.09746" lon="-0.6262">
        <ele>17.9</ele>
        <time>2024-11-24T09:15:30Z</time>
      </trkpt>
      <trkpt lat="45.09746" lon="-0.6262">
        <ele>17.9</ele>
        <time>2024-11-24T09:15:31Z</time>
      </trkpt>
      <trkpt lat="45.09746" lon="-0.6262">
        <ele>17.9</ele>
        <time>2024-11-24T09:15:32Z</time>
      </trkpt>
      <trkpt lat="45.09746" lon="-0.6262">
        <ele>17.9</ele>
        <time>2024-11-24T09:15:33Z</time>
      </trkpt>
      <trkpt lat="45.09746" lon="-0.6262">
        <ele>17.9</ele>
        <time>2024-11-24T09:15:34Z</time>
      </trkpt>
      <trkpt lat="45.09746" lon="-0.6262">
        <ele>17.9</ele>
        <time>2024-11-24T09:15:35Z</time>
      </trkpt>
      <trkpt lat="45.09746" lon="-0.6262">
        <ele>17.9</ele>
        <time>2024-11-24T09:15:36Z</time>
      </trkpt>
      <trkpt lat="45.09746" lon="-0.6262">
        <ele>17.9</ele>
        <time>2024-11-24T09:15:37Z</time>
      </trkpt>
      <trkpt lat="45.09746" lon="-0.6262">
        <ele>17.9</ele>
        <time>2024-11-24T09:15:38Z</time>
      </trkpt>
      <trkpt lat="45.09746" lon="-0.6262">
        <ele>17.9</ele>
        <time>2024-11-24T09:15:39Z</time>
      </trkpt>
      <trkpt lat="45.09746" lon="-0.6262">
        <ele>17.9</ele>
        <time>2024-11-24T09:15:40Z</time>
      </trkpt>
      <trkpt lat="45.09746" lon="-0.6262">
        <ele>17.9</ele>
        <time>2024-11-24T09:15:41Z</time>
      </trkpt>
      <trkpt lat="45.09746" lon="-0.6262">
        <ele>17.9</ele>
        <time>2024-11-24T09:15:42Z</time>
      </trkpt>
      <trkpt lat="45.09746" lon="-0.6262">
        <ele>17.9</ele>
        <time>2024-11-24T09:15:43Z</time>
      </trkpt>
      <trkpt lat="45.09746" lon="-0.6262">
        <ele>17.9</ele>
        <time>2024-11-24T09:15:44Z</time>
      </trkpt>
      <trkpt lat="45.09746" lon="-0.6262">
        <ele>17.9</ele>
        <time>2024-11-24T09:15:45Z</time>
      </trkpt>
      <trkpt lat="45.09746" lon="-0.6262">
        <ele>17.9</ele>
        <time>2024-11-24T09:15:46Z</time>
      </trkpt>
      <trkpt lat="45.09746" lon="-0.6262">
        <ele>17.9</ele>
        <time>2024-11-24T09:15:47Z</time>
      </trkpt>
      <trkpt lat="45.09746" lon="-0.6262">
        <ele>17.9</ele>
        <time>2024-11-24T09:15:48Z</time>
      </trkpt>
      <trkpt lat="45.09746" lon="-0.6262">
        <ele>17.9</ele>
        <time>2024-11-24T09:15:49Z</time>
      </trkpt>
      <trkpt lat="45.09746" lon="-0.6262">
        <ele>17.9</ele>
        <time>2024-11-24T09:15:50Z</time>
      </trkpt>
      <trkpt lat="45.09746" lon="-0.6262">
        <ele>17.9</ele>
        <time>2024-11-24T09:15:51Z</time>
      </trkpt>
      <trkpt lat="45.09746" lon="-0.6262">
        <ele>17.9</ele>
        <time>2024-11-24T09:15:52Z</time>
      </trkpt>
      <trkpt lat="45.09746" lon="-0.6262">
        <ele>17.9</ele>
        <time>2024-11-24T09:15:53Z</time>
      </trkpt>
      <trkpt lat="45.09746" lon="-0.6262">
        <ele>17.9</ele>
        <time>2024-11-24T09:15:54Z</time>
      </trkpt>
      <trkpt lat="45.09746" lon="-0.6262">
        <ele>17.9</ele>
        <time>2024-11-24T09:15:55Z</time>
      </trkpt>
      <trkpt lat="45.09746" lon="-0.6262">
        <ele>17.9</ele>
        <time>2024-11-24T09:15:56Z</time>
      </trkpt>
      <trkpt lat="45.09746" lon="-0.6262">
        <ele>17.9</ele>
        <time>2024-11-24T09:15:57Z</time>
      </trkpt>
      <trkpt lat="45.09746" lon="-0.6262">
        <ele>17.9</ele>
        <time>2024-11-24T09:15:58Z</time>
      </trkpt>
      <trkpt lat="45.09746" lon="-0.6262">
        <ele>17.9</ele>
        <time>2024-11-24T09:15:59Z</time>
      </trkpt>
      <trkpt lat="45.09746" lon="-0.6262">
        <ele>17.9</ele>
        <time>2024-11-24T09:16:00Z</time>
      </trkpt>
      <trkpt lat="45.09746" lon="-0.6262">
        <ele>17.9</ele>
        <time>2024-11-24T09:16:01Z</time>
      </trkpt>
      <trkpt lat="45.09746" lon="-0.6262">
        <ele>17.9</ele>
        <time>2024-11-24T09:16:02Z</time>
      </trkpt>
      <trkpt lat="45.09746" lon="-0.6262">
        <ele>17.9</ele>
        <time>2024-11-24T09:16:03Z</time>
      </trkpt>
      <trkpt lat="45.09746" lon="-0.6262">
        <ele>17.9</ele>
        <time>2024-11-24T09:16:04Z</time>
      </trkpt>
      <trkpt lat="45.09746" lon="-0.6262">
        <ele>17.9</ele>
        <time>2024-11-24T09:16:05Z</time>
      </trkpt>
      <trkpt lat="45.09746" lon="-0.6262">
        <ele>17.9</ele>
        <time>2024-11-24T09:16:06Z</time>
      </trkpt>
      <trkpt lat="45.09746" lon="-0.6262">
        <ele>17.9</ele>
        <time>2024-11-24T09:16:07Z</time>
      </trkpt>
      <trkpt lat="45.09746" lon="-0.6262">
        <ele>17.9</ele>
        <time>2024-11-24T09:16:08Z</time>
      </trkpt>
      <trkpt lat="45.09746" lon="-0.6262">
        <ele>17.9</ele>
        <time>2024-11-24T09:16:09Z</time>
      </trkpt>
      <trkpt lat="45.09746" lon="-0.6262">
        <ele>17.9</ele>
        <time>2024-11-24T09:16:10Z</time>
      </trkpt>
      <trkpt lat="45.09746" lon="-0.6262">
        <ele>17.9</ele>
        <time>2024-11-24T09:16:11Z</time>
      </trkpt>
      <trkpt lat="45.09746" lon="-0.6262">
        <ele>17.9</ele>
        <time>2024-11-24T09:16:12Z</time>
      </trkpt>
      <trkpt lat="45.09746" lon="-0.6262">
        <ele>17.9</ele>
        <time>2024-11-24T09:16:13Z</time>
      </trkpt>
      <trkpt lat="45.09746" lon="-0.6262">
        <ele>17.9</ele>
        <time>2024-11-24T09:16:14Z</time>
      </trkpt>
      <trkpt lat="45.09746" lon="-0.6262">
        <ele>17.9</ele>
        <time>2024-11-24T09:16:15Z</time>
      </trkpt>
      <trkpt lat="45.09746" lon="-0.6262">
        <ele>17.9</ele>
        <time>2024-11-24T09:16:16Z</time>
      </trkpt>
      <trkpt lat="45.09746" lon="-0.6262">
        <ele>17.9</ele>
        <time>2024-11-24T09:16:17Z</time>
      </trkpt>
      <trkpt lat="45.09746" lon="-0.6262">
        <ele>17.9</ele>
        <time>2024-11-24T09:16:18Z</time>
      </trkpt>
      <trkpt lat="45.09746" lon="-0.6262">
        <ele>17.9</ele>
        <time>2024-11-24T09:16:19Z</time>
      </trkpt>
      <trkpt lat="45.09746" lon="-0.6262">
        <ele>17.9</ele>
        <time>2024-11-24T09:16:20Z</time>
      </trkpt>
      <trkpt lat="45.09746" lon="-0.6262">
        <ele>17.9</ele>
        <time>2024-11-24T09:16:21Z</time>
      </trkpt>
      <trkpt lat="45.09746" lon="-0.6262">
        <ele>17.9</ele>
        <time>2024-11-24T09:16:22Z</time>
      </trkpt>
      <trkpt lat="45.09746" lon="-0.6262">
        <ele>17.9</ele>
        <time>2024-11-24T09:16:23Z</time>
      </trkpt>
      <trkpt lat="45.09746" lon="-0.6262">
        <ele>17.9</ele>
        <time>2024-11-24T09:16:24Z</time>
      </trkpt>
      <trkpt lat="45.09746" lon="-0.6262">
        <ele>17.9</ele>
        <time>2024-11-24T09:16:25Z</time>
      </trkpt>
      <trkpt lat="45.09746" lon="-0.6262">
        <ele>17.9</ele>
        <time>2024-11-24T09:16:26Z</time>
      </trkpt>
      <trkpt lat="45.09746" lon="-0.6262">
        <ele>17.9</ele>
        <time>2024-11-24T09:16:27Z</time>
      </trkpt>
      <trkpt lat="45.09746" lon="-0.6262">
        <ele>17.9</ele>
        <time>2024-11-24T09:16:28Z</time>
      </trkpt>
      <trkpt lat="45.09746" lon="-0.6262">
        <ele>17.9</ele>
        <time>2024-11-24T09:16:29Z</time>
      </trkpt>
      <trkpt lat="45.09746" lon="-0.6262">
        <ele>17.9</ele>
        <time>2024-11-24T09:16:30Z</time>
      </trkpt>
      <trkpt lat="45.09746" lon="-0.6262">
        <ele>17.9</ele>
        <time>2024-11-24T09:16:31Z</time>
      </trkpt>
      <trkpt lat="45.09746" lon="-0.6262">
        <ele>17.9</ele>
        <time>2024-11-24T09:16:32Z</time>
      </trkpt>
      <trkpt lat="45.09746" lon="-0.6262">
        <ele>17.9</ele>
        <time>2024-11-24T09:16:33Z</time>
      </trkpt>
      <trkpt lat="45.09746" lon="-0.6262">
        <ele>17.9</ele>
        <time>2024-11-24T09:16:34Z</time>
      </trkpt>
      <trkpt lat="45.09746" lon="-0.6262">
        <ele>17.9</ele>
        <time>2024-11-24T09:16:35Z</time>
      </trkpt>
      <trkpt lat="45.09746" lon="-0.6262">
        <ele>17.9</ele>
        <time>2024-11-24T09:16:36Z</time>
      </trkpt>
      <trkpt lat="45.09746" lon="-0.6262">
        <ele>17.9</ele>
        <time>2024-11-24T09:16:37Z</time>
      </trkpt>
      <trkpt lat="45.09746" lon="-0.6262">
        <ele>17.9</ele>
        <time>2024-11-24T09:16:38Z</time>
      </trkpt>
      <trkpt lat="45.09746" lon="-0.6262">
        <ele>17.9</ele>
        <time>2024-11-24T09:16:39Z</time>
      </trkpt>
      <trkpt lat="45.09746" lon="-0.6262">
        <ele>17.9</ele>
        <time>2024-11-24T09:16:40Z</time>
      </trkpt>
      <trkpt lat="45.09746" lon="-0.6262">
        <ele>17.9</ele>
        <time>2024-11-24T09:16:41Z</time>
      </trkpt>
      <trkpt lat="45.09746" lon="-0.6262">
        <ele>17.9</ele>
        <time>2024-11-24T09:16:42Z</time>
      </trkpt>
      <trkpt lat="45.09746" lon="-0.6262">
        <ele>17.9</ele>
        <time>2024-11-24T09:16:43Z</time>
      </trkpt>
      <trkpt lat="45.09746" lon="-0.6262">
        <ele>17.9</ele>
        <time>2024-11-24T09:16:44Z</time>
      </trkpt>
      <trkpt lat="45.09746" lon="-0.6262">
        <ele>17.9</ele>
        <time>2024-11-24T09:16:45Z</time>
      </trkpt>
      <trkpt lat="45.09746" lon="-0.6262">
        <ele>17.9</ele>
        <time>2024-11-24T09:16:46Z</time>
      </trkpt>
      <trkpt lat="45.09746" lon="-0.6262">
        <ele>17.9</ele>
        <time>2024-11-24T09:16:47Z</time>
      </trkpt>
      <trkpt lat="45.09746" lon="-0.6262">
        <ele>17.9</ele>
        <time>2024-11-24T09:16:48Z</time>
      </trkpt>
      <trkpt lat="45.09746" lon="-0.6262">
        <ele>17.9</ele>
        <time>2024-11-24T09:16:49Z</time>
      </trkpt>
      <trkpt lat="45.09746" lon="-0.6262">
        <ele>17.9</ele>
        <time>2024-11-24T09:16:50Z</time>
      </trkpt>
      <trkpt lat="45.09746" lon="-0.6262">
        <ele>17.9</ele>
        <time>2024-11-24T09:16:51Z</time>
      </trkpt>
      <trkpt lat="45.09746" lon="-0.6262">
        <ele>17.9</ele>
        <time>2024-11-24T09:16:52Z</time>
      </trkpt>
      <trkpt lat="45.09746" lon="-0.6262">
        <ele>17.9</ele>
        <time>2024-11-24T09:16:53Z</time>
      </trkpt>
      <trkpt lat="45.09746" lon="-0.6262">
        <ele>17.9</ele>
        <time>2024-11-24T09:16:54Z</time>
      </trkpt>
      <trkpt lat="45.09746" lon="-0.6262">
        <ele>17.9</ele>
        <time>2024-11-24T09:16:55Z</time>
      </trkpt>
      <trkpt lat="45.09746" lon="-0.6262">
        <ele>17.9</ele>
        <time>2024-11-24T09:16:56Z</time>
      </trkpt>
      <trkpt lat="45.09746" lon="-0.6262">
        <ele>17.9</ele>
        <time>2024-11-24T09:16:57Z</time>
      </trkpt>
      <trkpt lat="45.09746" lon="-0.6262">
        <ele>17.9</ele>
        <time>2024-11-24T09:16:58Z</time>
      </trkpt>
      <trkpt lat="45.09746" lon="-0.6262">
        <ele>17.9</ele>
        <time>2024-11-24T09:16:59Z</time>
      </trkpt>
      <trkpt lat="45.09746" lon="-0.6262">
        <ele>17.8</ele>
        <time>2024-11-24T09:17:00Z</time>
      </trkpt>
      <trkpt lat="45.09745" lon="-0.6262">
        <ele>17.7</ele>
        <time>2024-11-24T09:17:01Z</time>
      </trkpt>
      <trkpt lat="45.09744" lon="-0.62619">
        <ele>17.7</ele>
        <time>2024-11-24T09:17:02Z</time>
      </trkpt>
      <trkpt lat="45.09743" lon="-0.62619">
        <ele>17.6</ele>
        <time>2024-11-24T09:17:03Z</time>
      </trkpt>
      <trkpt lat="45.09742" lon="-0.62618">
        <ele>17.4</ele>
        <time>2024-11-24T09:17:04Z</time>
      </trkpt>
      <trkpt lat="45.09741" lon="-0.62618">
        <ele>17.3</ele>
        <time>2024-11-24T09:17:05Z</time>
      </trkpt>
      <trkpt lat="45.0974" lon="-0.62618">
        <ele>17.2</ele>
        <time>2024-11-24T09:17:06Z</time>
      </trkpt>
      <trkpt lat="45.09738" lon="-0.62617">
        <ele>17.1</ele>
        <time>2024-11-24T09:17:07Z</time>
      </trkpt>
      <trkpt lat="45.09737" lon="-0.62616">
        <ele>17</ele>
        <time>2024-11-24T09:17:08Z</time>
      </trkpt>
      <trkpt lat="45.09737" lon="-0.62616">
        <ele>16.9</ele>
        <time>2024-11-24T09:17:09Z</time>
      </trkpt>
      <trkpt lat="45.09736" lon="-0.62616">
        <ele>16.8</ele>
        <time>2024-11-24T09:17:10Z</time>
      </trkpt>
      <trkpt lat="45.09735" lon="-0.62615">
        <ele>16.7</ele>
        <time>2024-11-24T09:17:11Z</time>
      </trkpt>
      <trkpt lat="45.09732" lon="-0.62615">
        <ele>16.5</ele>
        <time>2024-11-24T09:17:12Z</time>
      </trkpt>
      <trkpt lat="45.09731" lon="-0.62614">
        <ele>16.4</ele>
        <time>2024-11-24T09:17:13Z</time>
      </trkpt>
      <trkpt lat="45.09729" lon="-0.62614">
        <ele>16.2</ele>
        <time>2024-11-24T09:17:14Z</time>
      </trkpt>
      <trkpt lat="45.09728" lon="-0.62613">
        <ele>16.1</ele>
        <time>2024-11-24T09:17:15Z</time>
      </trkpt>
      <trkpt lat="45.09727" lon="-0.62613">
        <ele>16</ele>
        <time>2024-11-24T09:17:16Z</time>
      </trkpt>
      <trkpt lat="45.09725" lon="-0.62613">
        <ele>15.8</ele>
        <time>2024-11-24T09:17:17Z</time>
      </trkpt>
      <trkpt lat="45.09724" lon="-0.62612">
        <ele>15.7</ele>
        <time>2024-11-24T09:17:18Z</time>
      </trkpt>
      <trkpt lat="45.09723" lon="-0.62612">
        <ele>15.6</ele>
        <time>2024-11-24T09:17:19Z</time>
      </trkpt>
      <trkpt lat="45.09721" lon="-0.62611">
        <ele>15.4</ele>
        <time>2024-11-24T09:17:20Z</time>
      </trkpt>
      <trkpt lat="45.0972" lon="-0.62611">
        <ele>15.3</ele>
        <time>2024-11-24T09:17:21Z</time>
      </trkpt>
      <trkpt lat="45.09718" lon="-0.62611">
        <ele>15.2</ele>
        <time>2024-11-24T09:17:22Z</time>
      </trkpt>
      <trkpt lat="45.09717" lon="-0.62609">
        <ele>15</ele>
        <time>2024-11-24T09:17:23Z</time>
      </trkpt>
      <trkpt lat="45.09716" lon="-0.62609">
        <ele>14.9</ele>
        <time>2024-11-24T09:17:24Z</time>
      </trkpt>
      <trkpt lat="45.09714" lon="-0.62609">
        <ele>14.7</ele>
        <time>2024-11-24T09:17:25Z</time>
      </trkpt>
      <trkpt lat="45.09712" lon="-0.62609">
        <ele>14.5</ele>
        <time>2024-11-24T09:17:26Z</time>
      </trkpt>
      <trkpt lat="45.09711" lon="-0.62609">
        <ele>14.5</ele>
        <time>2024-11-24T09:17:27Z</time>
      </trkpt>
      <trkpt lat="45.0971" lon="-0.62608">
        <ele>14.4</ele>
        <time>2024-11-24T09:17:28Z</time>
      </trkpt>
      <trkpt lat="45.09707" lon="-0.62608">
        <ele>14.1</ele>
        <time>2024-11-24T09:17:29Z</time>
      </trkpt>
      <trkpt lat="45.09706" lon="-0.62608">
        <ele>14</ele>
        <time>2024-11-24T09:17:30Z</time>
      </trkpt>
      <trkpt lat="45.09704" lon="-0.62607">
        <ele>13.8</ele>
        <time>2024-11-24T09:17:31Z</time>
      </trkpt>
      <trkpt lat="45.09703" lon="-0.62607">
        <ele>13.7</ele>
        <time>2024-11-24T09:17:32Z</time>
      </trkpt>
      <trkpt lat="45.09702" lon="-0.62606">
        <ele>13.6</ele>
        <time>2024-11-24T09:17:33Z</time>
      </trkpt>
      <trkpt lat="45.097" lon="-0.62606">
        <ele>13.5</ele>
        <time>2024-11-24T09:17:34Z</time>
      </trkpt>
      <trkpt lat="45.09698" lon="-0.62605">
        <ele>13.3</ele>
        <time>2024-11-24T09:17:35Z</time>
      </trkpt>
      <trkpt lat="45.09697" lon="-0.62605">
        <ele>13.2</ele>
        <time>2024-11-24T09:17:36Z</time>
      </trkpt>
      <trkpt lat="45.09696" lon="-0.62604">
        <ele>13.1</ele>
        <time>2024-11-24T09:17:37Z</time>
      </trkpt>
      <trkpt lat="45.09694" lon="-0.62604">
        <ele>13</ele>
        <time>2024-11-24T09:17:38Z</time>
      </trkpt>
      <trkpt lat="45.09693" lon="-0.62603">
        <ele>12.8</ele>
        <time>2024-11-24T09:17:39Z</time>
      </trkpt>
      <trkpt lat="45.09692" lon="-0.62603">
        <ele>12.7</ele>
        <time>2024-11-24T09:17:40Z</time>
      </trkpt>
      <trkpt lat="45.0969" lon="-0.62602">
        <ele>12.6</ele>
        <time>2024-11-24T09:17:41Z</time>
      </trkpt>
      <trkpt lat="45.09689" lon="-0.62602">
        <ele>12.5</ele>
        <time>2024-11-24T09:17:42Z</time>
      </trkpt>
      <trkpt lat="45.09687" lon="-0.62601">
        <ele>12.4</ele>
        <time>2024-11-24T09:17:43Z</time>
      </trkpt>
      <trkpt lat="45.09686" lon="-0.62601">
        <ele>12.2</ele>
        <time>2024-11-24T09:17:44Z</time>
      </trkpt>
      <trkpt lat="45.09684" lon="-0.62601">
        <ele>12.1</ele>
        <time>2024-11-24T09:17:45Z</time>
      </trkpt>
      <trkpt lat="45.09683" lon="-0.626">
        <ele>12</ele>
        <time>2024-11-24T09:17:46Z</time>
      </trkpt>
      <trkpt lat="45.09681" lon="-0.626">
        <ele>11.9</ele>
        <time>2024-11-24T09:17:47Z</time>
      </trkpt>
      <trkpt lat="45.0968" lon="-0.62599">
        <ele>11.8</ele>
        <time>2024-11-24T09:17:48Z</time>
      </trkpt>
      <trkpt lat="45.09678" lon="-0.62599">
        <ele>11.7</ele>
        <time>2024-11-24T09:17:49Z</time>
      </trkpt>
      <trkpt lat="45.09677" lon="-0.62599">
        <ele>11.6</ele>
        <time>2024-11-24T09:17:50Z</time>
      </trkpt>
      <trkpt lat="45.09676" lon="-0.62597">
        <ele>11.5</ele>
        <time>2024-11-24T09:17:51Z</time>
      </trkpt>
      <trkpt lat="45.09674" lon="-0.62597">
        <ele>11.4</ele>
        <time>2024-11-24T09:17:52Z</time>
      </trkpt>
      <trkpt lat="45.09673" lon="-0.62597">
        <ele>11.3</ele>
        <time>2024-11-24T09:17:53Z</time>
      </trkpt>
      <trkpt lat="45.09671" lon="-0.62596">
        <ele>11.2</ele>
        <time>2024-11-24T09:17:54Z</time>
      </trkpt>
      <trkpt lat="45.0967" lon="-0.62595">
        <ele>11.1</ele>
        <time>2024-11-24T09:17:55Z</time>
      </trkpt>
      <trkpt lat="45.09669" lon="-0.62595">
        <ele>11.1</ele>
        <time>2024-11-24T09:17:56Z</time>
      </trkpt>
      <trkpt lat="45.09667" lon="-0.62594">
        <ele>11</ele>
        <time>2024-11-24T09:17:57Z</time>
      </trkpt>
      <trkpt lat="45.09665" lon="-0.62593">
        <ele>10.8</ele>
        <time>2024-11-24T09:17:58Z</time>
      </trkpt>
      <trkpt lat="45.09664" lon="-0.62593">
        <ele>10.8</ele>
        <time>2024-11-24T09:17:59Z</time>
      </trkpt>
      <trkpt lat="45.09663" lon="-0.62593">
        <ele>10.7</ele>
        <time>2024-11-24T09:18:00Z</time>
      </trkpt>
      <trkpt lat="45.09662" lon="-0.62592">
        <ele>10.7</ele>
        <time>2024-11-24T09:18:01Z</time>
      </trkpt>
      <trkpt lat="45.0966" lon="-0.62591">
        <ele>10.6</ele>
        <time>2024-11-24T09:18:02Z</time>
      </trkpt>
      <trkpt lat="45.09658" lon="-0.62591">
        <ele>10.5</ele>
        <time>2024-11-24T09:18:03Z</time>
      </trkpt>
      <trkpt lat="45.09657" lon="-0.6259">
        <ele>10.4</ele>
        <time>2024-11-24T09:18:04Z</time>
      </trkpt>
      <trkpt lat="45.09655" lon="-0.6259">
        <ele>10.4</ele>
        <time>2024-11-24T09:18:05Z</time>
      </trkpt>
      <trkpt lat="45.09654" lon="-0.62589">
        <ele>10.3</ele>
        <time>2024-11-24T09:18:06Z</time>
      </trkpt>
      <trkpt lat="45.09652" lon="-0.62589">
        <ele>10.2</ele>
        <time>2024-11-24T09:18:07Z</time>
      </trkpt>
      <trkpt lat="45.09651" lon="-0.62588">
        <ele>10.1</ele>
        <time>2024-11-24T09:18:08Z</time>
      </trkpt>
      <trkpt lat="45.09649" lon="-0.62588">
        <ele>10.1</ele>
        <time>2024-11-24T09:18:09Z</time>
      </trkpt>
      <trkpt lat="45.09648" lon="-0.62587">
        <ele>10</ele>
        <time>2024-11-24T09:18:10Z</time>
      </trkpt>
      <trkpt lat="45.09646" lon="-0.62587">
        <ele>9.9</ele>
        <time>2024-11-24T09:18:11Z</time>
      </trkpt>
      <trkpt lat="45.09645" lon="-0.62586">
        <ele>9.9</ele>
        <time>2024-11-24T09:18:12Z</time>
      </trkpt>
      <trkpt lat="45.09644" lon="-0.62586">
        <ele>9.8</ele>
        <time>2024-11-24T09:18:13Z</time>
      </trkpt>
      <trkpt lat="45.09642" lon="-0.62585">
        <ele>9.7</ele>
        <time>2024-11-24T09:18:14Z</time>
      </trkpt>
      <trkpt lat="45.09641" lon="-0.62585">
        <ele>9.7</ele>
        <time>2024-11-24T09:18:15Z</time>
      </trkpt>
      <trkpt lat="45.09639" lon="-0.62584">
        <ele>9.6</ele>
        <time>2024-11-24T09:18:16Z</time>
      </trkpt>
      <trkpt lat="45.09638" lon="-0.62583">
        <ele>9.5</ele>
        <time>2024-11-24T09:18:17Z</time>
      </trkpt>
      <trkpt lat="45.09636" lon="-0.62583">
        <ele>9.5</ele>
        <time>2024-11-24T09:18:18Z</time>
      </trkpt>
      <trkpt lat="45.09635" lon="-0.62582">
        <ele>9.4</ele>
        <time>2024-11-24T09:18:19Z</time>
      </trkpt>
      <trkpt lat="45.09634" lon="-0.62582">
        <ele>9.3</ele>
        <time>2024-11-24T09:18:20Z</time>
      </trkpt>
      <trkpt lat="45.09632" lon="-0.6258">
        <ele>9.3</ele>
        <time>2024-11-24T09:18:21Z</time>
      </trkpt>
      <trkpt lat="45.0963" lon="-0.6258">
        <ele>9.2</ele>
        <time>2024-11-24T09:18:22Z</time>
      </trkpt>
      <trkpt lat="45.09629" lon="-0.62579">
        <ele>9.1</ele>
        <time>2024-11-24T09:18:23Z</time>
      </trkpt>
      <trkpt lat="45.09627" lon="-0.62579">
        <ele>9.1</ele>
        <time>2024-11-24T09:18:24Z</time>
      </trkpt>
      <trkpt lat="45.09625" lon="-0.62579">
        <ele>9</ele>
        <time>2024-11-24T09:18:25Z</time>
      </trkpt>
      <trkpt lat="45.09624" lon="-0.62578">
        <ele>8.9</ele>
        <time>2024-11-24T09:18:26Z</time>
      </trkpt>
      <trkpt lat="45.09622" lon="-0.62577">
        <ele>8.8</ele>
        <time>2024-11-24T09:18:27Z</time>
      </trkpt>
      <trkpt lat="45.09621" lon="-0.62576">
        <ele>8.8</ele>
        <time>2024-11-24T09:18:28Z</time>
      </trkpt>
      <trkpt lat="45.09619" lon="-0.62576">
        <ele>8.7</ele>
        <time>2024-11-24T09:18:29Z</time>
      </trkpt>
      <trkpt lat="45.09618" lon="-0.62574">
        <ele>8.6</ele>
        <time>2024-11-24T09:18:30Z</time>
      </trkpt>
      <trkpt lat="45.09551" lon="-0.62553">
        <ele>6.1</ele>
        <time>2024-11-24T09:19:17Z</time>
      </trkpt>
      <trkpt lat="45.09542" lon="-0.62549">
        <ele>6</ele>
        <time>2024-11-24T09:19:18Z</time>
      </trkpt>
      <trkpt lat="45.0954" lon="-0.62548">
        <ele>6</ele>
        <time>2024-11-24T09:19:19Z</time>
      </trkpt>
      <trkpt lat="45.0954" lon="-0.62548">
        <ele>6</ele>
        <time>2024-11-24T09:19:20Z</time>
      </trkpt>
      <trkpt lat="45.09538" lon="-0.62547">
        <ele>6</ele>
        <time>2024-11-24T09:19:21Z</time>
      </trkpt>
      <trkpt lat="45.09536" lon="-0.62547">
        <ele>6</ele>
        <time>2024-11-24T09:19:22Z</time>
      </trkpt>
      <trkpt lat="45.09535" lon="-0.62547">
        <ele>6</ele>
        <time>2024-11-24T09:19:23Z</time>
      </trkpt>
      <trkpt lat="45.09534" lon="-0.62545">
        <ele>6</ele>
        <time>2024-11-24T09:19:24Z</time>
      </trkpt>
      <trkpt lat="45.09532" lon="-0.62545">
        <ele>6</ele>
        <time>2024-11-24T09:19:25Z</time>
      </trkpt>
      <trkpt lat="45.09531" lon="-0.62545">
        <ele>6</ele>
        <time>2024-11-24T09:19:26Z</time>
      </trkpt>
      <trkpt lat="45.09529" lon="-0.62545">
        <ele>6</ele>
        <time>2024-11-24T09:19:27Z</time>
      </trkpt>
      <trkpt lat="45.09528" lon="-0.62545">
        <ele>6</ele>
        <time>2024-11-24T09:19:28Z</time>
      </trkpt>
      <trkpt lat="45.09527" lon="-0.62545">
        <ele>6</ele>
        <time>2024-11-24T09:19:29Z</time>
      </trkpt>
      <trkpt lat="45.09518" lon="-0.62543">
        <ele>6.1</ele>
        <time>2024-11-24T09:19:30Z</time>
      </trkpt>
      <trkpt lat="45.0951" lon="-0.62541">
        <ele>6.1</ele>
        <time>2024-11-24T09:19:31Z</time>
      </trkpt>
      <trkpt lat="45.09502" lon="-0.62538">
        <ele>6.3</ele>
        <time>2024-11-24T09:19:57Z</time>
      </trkpt>
      <trkpt lat="45.09494" lon="-0.62536">
        <ele>6.4</ele>
        <time>2024-11-24T09:19:58Z</time>
      </trkpt>
      <trkpt lat="45.09486" lon="-0.62533">
        <ele>6.5</ele>
        <time>2024-11-24T09:19:59Z</time>
      </trkpt>
      <trkpt lat="45.09473" lon="-0.62531">
        <ele>6.4</ele>
        <time>2024-11-24T09:20:00Z</time>
      </trkpt>
      <trkpt lat="45.09462" lon="-0.62529">
        <ele>6.4</ele>
        <time>2024-11-24T09:20:01Z</time>
      </trkpt>
      <trkpt lat="45.09451" lon="-0.62528">
        <ele>6.4</ele>
        <time>2024-11-24T09:20:40Z</time>
      </trkpt>
      <trkpt lat="45.0944" lon="-0.62526">
        <ele>6.4</ele>
        <time>2024-11-24T09:20:41Z</time>
      </trkpt>
      <trkpt lat="45.09428" lon="-0.62525">
        <ele>6.6</ele>
        <time>2024-11-24T09:20:42Z</time>
      </trkpt>
      <trkpt lat="45.09417" lon="-0.62523">
        <ele>6.7</ele>
        <time>2024-11-24T09:20:43Z</time>
      </trkpt>
      <trkpt lat="45.09416" lon="-0.62523">
        <ele>6.8</ele>
        <time>2024-11-24T09:20:44Z</time>
      </trkpt>
      <trkpt lat="45.09414" lon="-0.62523">
        <ele>6.8</ele>
        <time>2024-11-24T09:20:45Z</time>
      </trkpt>
      <trkpt lat="45.09359" lon="-0.62515">
        <ele>8.5</ele>
        <time>2024-11-24T09:21:18Z</time>
      </trkpt>
      <trkpt lat="45.09357" lon="-0.62515">
        <ele>8.6</ele>
        <time>2024-11-24T09:21:20Z</time>
      </trkpt>
      <trkpt lat="45.09355" lon="-0.62515">
        <ele>8.7</ele>
        <time>2024-11-24T09:21:21Z</time>
      </trkpt>
      <trkpt lat="45.09354" lon="-0.62515">
        <ele>8.8</ele>
        <time>2024-11-24T09:21:22Z</time>
      </trkpt>
      <trkpt lat="45.09352" lon="-0.62514">
        <ele>8.9</ele>
        <time>2024-11-24T09:21:23Z</time>
      </trkpt>
      <trkpt lat="45.0935" lon="-0.62514">
        <ele>8.9</ele>
        <time>2024-11-24T09:21:24Z</time>
      </trkpt>
      <trkpt lat="45.09349" lon="-0.62515">
        <ele>9</ele>
        <time>2024-11-24T09:21:25Z</time>
      </trkpt>
      <trkpt lat="45.09347" lon="-0.62515">
        <ele>9.1</ele>
        <time>2024-11-24T09:21:26Z</time>
      </trkpt>
      <trkpt lat="45.09346" lon="-0.62515">
        <ele>9.1</ele>
        <time>2024-11-24T09:21:27Z</time>
      </trkpt>
      <trkpt lat="45.09346" lon="-0.62515">
        <ele>9.1</ele>
        <time>2024-11-24T09:21:28Z</time>
      </trkpt>
      <trkpt lat="45.09345" lon="-0.62516">
        <ele>9.2</ele>
        <time>2024-11-24T09:21:29Z</time>
      </trkpt>
      <trkpt lat="45.09343" lon="-0.62516">
        <ele>9.3</ele>
        <time>2024-11-24T09:21:30Z</time>
      </trkpt>
      <trkpt lat="45.09342" lon="-0.62517">
        <ele>9.4</ele>
        <time>2024-11-24T09:21:31Z</time>
      </trkpt>
      <trkpt lat="45.09341" lon="-0.62517">
        <ele>9.5</ele>
        <time>2024-11-24T09:21:32Z</time>
      </trkpt>
      <trkpt lat="45.09339" lon="-0.62518">
        <ele>9.6</ele>
        <time>2024-11-24T09:21:33Z</time>
      </trkpt>
      <trkpt lat="45.09337" lon="-0.62518">
        <ele>9.7</ele>
        <time>2024-11-24T09:21:34Z</time>
      </trkpt>
      <trkpt lat="45.09336" lon="-0.62519">
        <ele>9.8</ele>
        <time>2024-11-24T09:21:35Z</time>
      </trkpt>
      <trkpt lat="45.09334" lon="-0.62519">
        <ele>9.8</ele>
        <time>2024-11-24T09:21:36Z</time>
      </trkpt>
      <trkpt lat="45.09333" lon="-0.6252">
        <ele>9.9</ele>
        <time>2024-11-24T09:21:37Z</time>
      </trkpt>
      <trkpt lat="45.09331" lon="-0.6252">
        <ele>10</ele>
        <time>2024-11-24T09:21:38Z</time>
      </trkpt>
      <trkpt lat="45.0933" lon="-0.62521">
        <ele>10.1</ele>
        <time>2024-11-24T09:21:39Z</time>
      </trkpt>
      <trkpt lat="45.09328" lon="-0.62522">
        <ele>10.2</ele>
        <time>2024-11-24T09:21:40Z</time>
      </trkpt>
      <trkpt lat="45.09327" lon="-0.62522">
        <ele>10.2</ele>
        <time>2024-11-24T09:21:41Z</time>
      </trkpt>
      <trkpt lat="45.09325" lon="-0.62522">
        <ele>10.3</ele>
        <time>2024-11-24T09:21:42Z</time>
      </trkpt>
      <trkpt lat="45.09324" lon="-0.62522">
        <ele>10.3</ele>
        <time>2024-11-24T09:21:43Z</time>
      </trkpt>
      <trkpt lat="45.09323" lon="-0.62523">
        <ele>10.3</ele>
        <time>2024-11-24T09:21:44Z</time>
      </trkpt>
      <trkpt lat="45.09321" lon="-0.62523">
        <ele>10.4</ele>
        <time>2024-11-24T09:21:45Z</time>
      </trkpt>
      <trkpt lat="45.09307" lon="-0.62529">
        <ele>11</ele>
        <time>2024-11-24T09:21:46Z</time>
      </trkpt>
      <trkpt lat="45.09295" lon="-0.62535">
        <ele>11.5</ele>
        <time>2024-11-24T09:22:24Z</time>
      </trkpt>
      <trkpt lat="45.09282" lon="-0.62541">
        <ele>11.9</ele>
        <time>2024-11-24T09:22:25Z</time>
      </trkpt>
      <trkpt lat="45.0927" lon="-0.62547">
        <ele>12.3</ele>
        <time>2024-11-24T09:22:26Z</time>
      </trkpt>
      <trkpt lat="45.09258" lon="-0.62553">
        <ele>12.6</ele>
        <time>2024-11-24T09:22:27Z</time>
      </trkpt>
      <trkpt lat="45.09257" lon="-0.62554">
        <ele>12.6</ele>
        <time>2024-11-24T09:22:28Z</time>
      </trkpt>
      <trkpt lat="45.09255" lon="-0.62554">
        <ele>12.6</ele>
        <time>2024-11-24T09:22:29Z</time>
      </trkpt>
      <trkpt lat="45.09253" lon="-0.62555">
        <ele>12.6</ele>
        <time>2024-11-24T09:22:30Z</time>
      </trkpt>
      <trkpt lat="45.09252" lon="-0.62555">
        <ele>12.6</ele>
        <time>2024-11-24T09:22:31Z</time>
      </trkpt>
      <trkpt lat="45.0921" lon="-0.62632">
        <ele>13.7</ele>
        <time>2024-11-24T09:23:19Z</time>
      </trkpt>
      <trkpt lat="45.09209" lon="-0.62635">
        <ele>13.7</ele>
        <time>2024-11-24T09:23:20Z</time>
      </trkpt>
      <trkpt lat="45.09209" lon="-0.62638">
        <ele>13.8</ele>
        <time>2024-11-24T09:23:21Z</time>
      </trkpt>
      <trkpt lat="45.09208" lon="-0.62641">
        <ele>13.8</ele>
        <time>2024-11-24T09:23:22Z</time>
      </trkpt>
      <trkpt lat="45.09207" lon="-0.62643">
        <ele>13.8</ele>
        <time>2024-11-24T09:23:23Z</time>
      </trkpt>
      <trkpt lat="45.09206" lon="-0.62645">
        <ele>13.9</ele>
        <time>2024-11-24T09:23:24Z</time>
      </trkpt>
      <trkpt lat="45.09205" lon="-0.62647">
        <ele>13.9</ele>
        <time>2024-11-24T09:23:25Z</time>
      </trkpt>
      <trkpt lat="45.09205" lon="-0.62649">
        <ele>13.9</ele>
        <time>2024-11-24T09:23:26Z</time>
      </trkpt>
      <trkpt lat="45.09204" lon="-0.62652">
        <ele>14</ele>
        <time>2024-11-24T09:23:27Z</time>
      </trkpt>
      <trkpt lat="45.09204" lon="-0.62653">
        <ele>14</ele>
        <time>2024-11-24T09:23:28Z</time>
      </trkpt>
      <trkpt lat="45.09203" lon="-0.62655">
        <ele>14</ele>
        <time>2024-11-24T09:23:29Z</time>
      </trkpt>
      <trkpt lat="45.09202" lon="-0.62657">
        <ele>14.1</ele>
        <time>2024-11-24T09:23:30Z</time>
      </trkpt>
      <trkpt lat="45.09197" lon="-0.62673">
        <ele>14.4</ele>
        <time>2024-11-24T09:23:31Z</time>
      </trkpt>
      <trkpt lat="45.09191" lon="-0.62687">
        <ele>14.6</ele>
        <time>2024-11-24T09:24:12Z</time>
      </trkpt>
      <trkpt lat="45.09185" lon="-0.62701">
        <ele>14.8</ele>
        <time>2024-11-24T09:24:13Z</time>
      </trkpt>
      <trkpt lat="45.0918" lon="-0.62714">
        <ele>15.1</ele>
        <time>2024-11-24T09:24:14Z</time>
      </trkpt>
      <trkpt lat="45.09174" lon="-0.62728">
        <ele>15.3</ele>
        <time>2024-11-24T09:24:15Z</time>
      </trkpt>
      <trkpt lat="45.09169" lon="-0.62741">
        <ele>15.5</ele>
        <time>2024-11-24T09:24:16Z</time>
      </trkpt>
      <trkpt lat="45.09143" lon="-0.628">
        <ele>15.7</ele>
        <time>2024-11-24T09:24:48Z</time>
      </trkpt>
      <trkpt lat="45.09142" lon="-0.62802">
        <ele>15.7</ele>
        <time>2024-11-24T09:24:49Z</time>
      </trkpt>
      <trkpt lat="45.09142" lon="-0.62803">
        <ele>15.7</ele>
        <time>2024-11-24T09:24:50Z</time>
      </trkpt>
      <trkpt lat="45.09141" lon="-0.62805">
        <ele>15.7</ele>
        <time>2024-11-24T09:24:51Z</time>
      </trkpt>
      <trkpt lat="45.0914" lon="-0.62806">
        <ele>15.7</ele>
        <time>2024-11-24T09:24:52Z</time>
      </trkpt>
      <trkpt lat="45.0914" lon="-0.62808">
        <ele>15.7</ele>
        <time>2024-11-24T09:24:53Z</time>
      </trkpt>
      <trkpt lat="45.09139" lon="-0.6281">
        <ele>15.7</ele>
        <time>2024-11-24T09:24:54Z</time>
      </trkpt>
      <trkpt lat="45.09138" lon="-0.62812">
        <ele>15.7</ele>
        <time>2024-11-24T09:24:55Z</time>
      </trkpt>
      <trkpt lat="45.09138" lon="-0.62814">
        <ele>15.7</ele>
        <time>2024-11-24T09:24:56Z</time>
      </trkpt>
      <trkpt lat="45.09137" lon="-0.62816">
        <ele>15.7</ele>
        <time>2024-11-24T09:24:57Z</time>
      </trkpt>
      <trkpt lat="45.09136" lon="-0.62819">
        <ele>15.7</ele>
        <time>2024-11-24T09:24:58Z</time>
      </trkpt>
      <trkpt lat="45.09136" lon="-0.6282">
        <ele>15.7</ele>
        <time>2024-11-24T09:24:59Z</time>
      </trkpt>
      <trkpt lat="45.09135" lon="-0.62821">
        <ele>15.7</ele>
        <time>2024-11-24T09:25:00Z</time>
      </trkpt>
      <trkpt lat="45.0913" lon="-0.62834">
        <ele>15.7</ele>
        <time>2024-11-24T09:25:01Z</time>
      </trkpt>
      <trkpt lat="45.09125" lon="-0.62843">
        <ele>15.7</ele>
        <time>2024-11-24T09:25:26Z</time>
      </trkpt>
      <trkpt lat="45.0912" lon="-0.62853">
        <ele>15.8</ele>
        <time>2024-11-24T09:25:27Z</time>
      </trkpt>
      <trkpt lat="45.09115" lon="-0.62863">
        <ele>15.8</ele>
        <time>2024-11-24T09:25:28Z</time>
      </trkpt>
      <trkpt lat="45.0911" lon="-0.62873">
        <ele>15.9</ele>
        <time>2024-11-24T09:25:29Z</time>
      </trkpt>
      <trkpt lat="45.09108" lon="-0.62874">
        <ele>16</ele>
        <time>2024-11-24T09:25:30Z</time>
      </trkpt>
      <trkpt lat="45.09107" lon="-0.62875">
        <ele>16</ele>
        <time>2024-11-24T09:25:32Z</time>
      </trkpt>
      <trkpt lat="45.09061" lon="-0.62867">
        <ele>16.3</ele>
        <time>2024-11-24T09:26:03Z</time>
      </trkpt>
      <trkpt lat="45.09059" lon="-0.62866">
        <ele>16.3</ele>
        <time>2024-11-24T09:26:04Z</time>
      </trkpt>
      <trkpt lat="45.09057" lon="-0.62866">
        <ele>16.3</ele>
        <time>2024-11-24T09:26:05Z</time>
      </trkpt>
      <trkpt lat="45.09054" lon="-0.62865">
        <ele>16.4</ele>
        <time>2024-11-24T09:26:06Z</time>
      </trkpt>
      <trkpt lat="45.09053" lon="-0.62865">
        <ele>16.4</ele>
        <time>2024-11-24T09:26:07Z</time>
      </trkpt>
      <trkpt lat="45.09052" lon="-0.62864">
        <ele>16.5</ele>
        <time>2024-11-24T09:26:08Z</time>
      </trkpt>
      <trkpt lat="45.09049" lon="-0.62863">
        <ele>16.6</ele>
        <time>2024-11-24T09:26:09Z</time>
      </trkpt>
      <trkpt lat="45.09048" lon="-0.62863">
        <ele>16.6</ele>
        <time>2024-11-24T09:26:10Z</time>
      </trkpt>
      <trkpt lat="45.09046" lon="-0.62863">
        <ele>16.6</ele>
        <time>2024-11-24T09:26:11Z</time>
      </trkpt>
      <trkpt lat="45.09045" lon="-0.62862">
        <ele>16.7</ele>
        <time>2024-11-24T09:26:12Z</time>
      </trkpt>
      <trkpt lat="45.09043" lon="-0.62862">
        <ele>16.7</ele>
        <time>2024-11-24T09:26:13Z</time>
      </trkpt>
      <trkpt lat="45.09042" lon="-0.62862">
        <ele>16.7</ele>
        <time>2024-11-24T09:26:14Z</time>
      </trkpt>
      <trkpt lat="45.0904" lon="-0.62862">
        <ele>16.8</ele>
        <time>2024-11-24T09:26:15Z</time>
      </trkpt>
      <trkpt lat="45.09039" lon="-0.62861">
        <ele>16.8</ele>
        <time>2024-11-24T09:26:16Z</time>
      </trkpt>
      <trkpt lat="45.09035" lon="-0.62861">
        <ele>16.9</ele>
        <time>2024-11-24T09:26:17Z</time>
      </trkpt>
      <trkpt lat="45.09031" lon="-0.62861">
        <ele>17.1</ele>
        <time>2024-11-24T09:26:26Z</time>
      </trkpt>
      <trkpt lat="45.09027" lon="-0.62861">
        <ele>17.2</ele>
        <time>2024-11-24T09:26:27Z</time>
      </trkpt>
      <trkpt lat="45.09027" lon="-0.62861">
        <ele>17.2</ele>
        <time>2024-11-24T09:26:28Z</time>
      </trkpt>
      <trkpt lat="45.09027" lon="-0.62861">
        <ele>17.2</ele>
        <time>2024-11-24T09:26:29Z</time>
      </trkpt>
      <trkpt lat="45.09027" lon="-0.6286">
        <ele>17.2</ele>
        <time>2024-11-24T09:26:30Z</time>
      </trkpt>
      <trkpt lat="45.09027" lon="-0.6286">
        <ele>17.2</ele>
        <time>2024-11-24T09:26:31Z</time>
      </trkpt>
      <trkpt lat="45.09026" lon="-0.6286">
        <ele>17.2</ele>
        <time>2024-11-24T09:26:32Z</time>
      </trkpt>
      <trkpt lat="45.09026" lon="-0.6286">
        <ele>17.2</ele>
        <time>2024-11-24T09:26:33Z</time>
      </trkpt>
      <trkpt lat="45.09026" lon="-0.6286">
        <ele>17.2</ele>
        <time>2024-11-24T09:26:34Z</time>
      </trkpt>
      <trkpt lat="45.09026" lon="-0.62859">
        <ele>17.2</ele>
        <time>2024-11-24T09:26:35Z</time>
      </trkpt>
      <trkpt lat="45.09026" lon="-0.62859">
        <ele>17.2</ele>
        <time>2024-11-24T09:26:36Z</time>
      </trkpt>
      <trkpt lat="45.09026" lon="-0.62859">
        <ele>17.2</ele>
        <time>2024-11-24T09:26:37Z</time>
      </trkpt>
      <trkpt lat="45.09026" lon="-0.62859">
        <ele>17.2</ele>
        <time>2024-11-24T09:26:38Z</time>
      </trkpt>
      <trkpt lat="45.09026" lon="-0.62859">
        <ele>17.3</ele>
        <time>2024-11-24T09:26:39Z</time>
      </trkpt>
      <trkpt lat="45.09026" lon="-0.62858">
        <ele>17.3</ele>
        <time>2024-11-24T09:26:40Z</time>
      </trkpt>
      <trkpt lat="45.09025" lon="-0.62858">
        <ele>17.3</ele>
        <time>2024-11-24T09:26:41Z</time>
      </trkpt>
      <trkpt lat="45.09025" lon="-0.62858">
        <ele>17.3</ele>
        <time>2024-11-24T09:26:42Z</time>
      </trkpt>
      <trkpt lat="45.09025" lon="-0.62858">
        <ele>17.3</ele>
        <time>2024-11-24T09:26:43Z</time>
      </trkpt>
      <trkpt lat="45.09025" lon="-0.62858">
        <ele>17.3</ele>
        <time>2024-11-24T09:26:44Z</time>
      </trkpt>
      <trkpt lat="45.09025" lon="-0.62858">
        <ele>17.3</ele>
        <time>2024-11-24T09:26:45Z</time>
      </trkpt>
      <trkpt lat="45.09025" lon="-0.62857">
        <ele>17.3</ele>
        <time>2024-11-24T09:26:46Z</time>
      </trkpt>
      <trkpt lat="45.09025" lon="-0.62857">
        <ele>17.3</ele>
        <time>2024-11-24T09:26:47Z</time>
      </trkpt>
      <trkpt lat="45.09025" lon="-0.62857">
        <ele>17.3</ele>
        <time>2024-11-24T09:26:48Z</time>
      </trkpt>
      <trkpt lat="45.09025" lon="-0.62857">
        <ele>17.3</ele>
        <time>2024-11-24T09:26:49Z</time>
      </trkpt>
      <trkpt lat="45.09024" lon="-0.62855">
        <ele>17.3</ele>
        <time>2024-11-24T09:26:50Z</time>
      </trkpt>
      <trkpt lat="45.09023" lon="-0.62855">
        <ele>17.4</ele>
        <time>2024-11-24T09:26:51Z</time>
      </trkpt>
      <trkpt lat="45.09022" lon="-0.62854">
        <ele>17.4</ele>
        <time>2024-11-24T09:26:52Z</time>
      </trkpt>
      <trkpt lat="45.09019" lon="-0.62853">
        <ele>17.5</ele>
        <time>2024-11-24T09:26:53Z</time>
      </trkpt>
      <trkpt lat="45.09018" lon="-0.62853">
        <ele>17.5</ele>
        <time>2024-11-24T09:26:54Z</time>
      </trkpt>
      <trkpt lat="45.09017" lon="-0.62853">
        <ele>17.6</ele>
        <time>2024-11-24T09:26:55Z</time>
      </trkpt>
      <trkpt lat="45.09016" lon="-0.62852">
        <ele>17.6</ele>
        <time>2024-11-24T09:26:56Z</time>
      </trkpt>
      <trkpt lat="45.09014" lon="-0.62852">
        <ele>17.7</ele>
        <time>2024-11-24T09:26:57Z</time>
      </trkpt>
      <trkpt lat="45.09013" lon="-0.62852">
        <ele>17.7</ele>
        <time>2024-11-24T09:26:58Z</time>
      </trkpt>
      <trkpt lat="45.09011" lon="-0.62851">
        <ele>17.8</ele>
        <time>2024-11-24T09:26:59Z</time>
      </trkpt>
      <trkpt lat="45.09009" lon="-0.62851">
        <ele>17.8</ele>
        <time>2024-11-24T09:27:00Z</time>
      </trkpt>
      <trkpt lat="45.09008" lon="-0.6285">
        <ele>17.8</ele>
        <time>2024-11-24T09:27:01Z</time>
      </trkpt>
      <trkpt lat="45.09006" lon="-0.6285">
        <ele>17.9</ele>
        <time>2024-11-24T09:27:02Z</time>
      </trkpt>
      <trkpt lat="45.09004" lon="-0.62849">
        <ele>17.9</ele>
        <time>2024-11-24T09:27:03Z</time>
      </trkpt>
      <trkpt lat="45.09003" lon="-0.62849">
        <ele>18</ele>
        <time>2024-11-24T09:27:04Z</time>
      </trkpt>
      <trkpt lat="45.09001" lon="-0.62848">
        <ele>18</ele>
        <time>2024-11-24T09:27:05Z</time>
      </trkpt>
      <trkpt lat="45.09" lon="-0.62848">
        <ele>18</ele>
        <time>2024-11-24T09:27:06Z</time>
      </trkpt>
      <trkpt lat="45.08998" lon="-0.62848">
        <ele>18.1</ele>
        <time>2024-11-24T09:27:07Z</time>
      </trkpt>
      <trkpt lat="45.08997" lon="-0.62847">
        <ele>18.1</ele>
        <time>2024-11-24T09:27:08Z</time>
      </trkpt>
      <trkpt lat="45.08995" lon="-0.62847">
        <ele>18.1</ele>
        <time>2024-11-24T09:27:09Z</time>
      </trkpt>
      <trkpt lat="45.08994" lon="-0.62847">
        <ele>18.2</ele>
        <time>2024-11-24T09:27:10Z</time>
      </trkpt>
      <trkpt lat="45.08993" lon="-0.62847">
        <ele>18.2</ele>
        <time>2024-11-24T09:27:11Z</time>
      </trkpt>
      <trkpt lat="45.08991" lon="-0.62847">
        <ele>18.2</ele>
        <time>2024-11-24T09:27:12Z</time>
      </trkpt>
      <trkpt lat="45.0899" lon="-0.62847">
        <ele>18.3</ele>
        <time>2024-11-24T09:27:13Z</time>
      </trkpt>
      <trkpt lat="45.08988" lon="-0.62846">
        <ele>18.3</ele>
        <time>2024-11-24T09:27:14Z</time>
      </trkpt>
      <trkpt lat="45.08987" lon="-0.62846">
        <ele>18.3</ele>
        <time>2024-11-24T09:27:15Z</time>
      </trkpt>
      <trkpt lat="45.08985" lon="-0.62846">
        <ele>18.4</ele>
        <time>2024-11-24T09:27:16Z</time>
      </trkpt>
      <trkpt lat="45.08984" lon="-0.62845">
        <ele>18.4</ele>
        <time>2024-11-24T09:27:17Z</time>
      </trkpt>
      <trkpt lat="45.08983" lon="-0.62845">
        <ele>18.5</ele>
        <time>2024-11-24T09:27:18Z</time>
      </trkpt>
      <trkpt lat="45.08981" lon="-0.62845">
        <ele>18.5</ele>
        <time>2024-11-24T09:27:19Z</time>
      </trkpt>
      <trkpt lat="45.0898" lon="-0.62844">
        <ele>18.5</ele>
        <time>2024-11-24T09:27:20Z</time>
      </trkpt>
      <trkpt lat="45.08978" lon="-0.62844">
        <ele>18.6</ele>
        <time>2024-11-24T09:27:21Z</time>
      </trkpt>
      <trkpt lat="45.08977" lon="-0.62844">
        <ele>18.6</ele>
        <time>2024-11-24T09:27:22Z</time>
      </trkpt>
      <trkpt lat="45.08976" lon="-0.62844">
        <ele>18.6</ele>
        <time>2024-11-24T09:27:23Z</time>
      </trkpt>
      <trkpt lat="45.08974" lon="-0.62844">
        <ele>18.7</ele>
        <time>2024-11-24T09:27:24Z</time>
      </trkpt>
      <trkpt lat="45.08972" lon="-0.62844">
        <ele>18.7</ele>
        <time>2024-11-24T09:27:25Z</time>
      </trkpt>
      <trkpt lat="45.08971" lon="-0.62844">
        <ele>18.7</ele>
        <time>2024-11-24T09:27:26Z</time>
      </trkpt>
      <trkpt lat="45.0897" lon="-0.62844">
        <ele>18.8</ele>
        <time>2024-11-24T09:27:27Z</time>
      </trkpt>
      <trkpt lat="45.08969" lon="-0.62844">
        <ele>18.8</ele>
        <time>2024-11-24T09:27:28Z</time>
      </trkpt>
      <trkpt lat="45.08968" lon="-0.62843">
        <ele>18.8</ele>
        <time>2024-11-24T09:27:29Z</time>
      </trkpt>
      <trkpt lat="45.08966" lon="-0.62843">
        <ele>18.9</ele>
        <time>2024-11-24T09:27:30Z</time>
      </trkpt>
      <trkpt lat="45.08965" lon="-0.62843">
        <ele>18.9</ele>
        <time>2024-11-24T09:27:31Z</time>
      </trkpt>
      <trkpt lat="45.08963" lon="-0.62843">
        <ele>18.9</ele>
        <time>2024-11-24T09:27:32Z</time>
      </trkpt>
      <trkpt lat="45.08962" lon="-0.62843">
        <ele>19</ele>
        <time>2024-11-24T09:27:33Z</time>
      </trkpt>
      <trkpt lat="45.08961" lon="-0.62843">
        <ele>19</ele>
        <time>2024-11-24T09:27:34Z</time>
      </trkpt>
      <trkpt lat="45.08959" lon="-0.62843">
        <ele>19</ele>
        <time>2024-11-24T09:27:35Z</time>
      </trkpt>
      <trkpt lat="45.08958" lon="-0.62842">
        <ele>19.1</ele>
        <time>2024-11-24T09:27:36Z</time>
      </trkpt>
      <trkpt lat="45.08956" lon="-0.62842">
        <ele>19.1</ele>
        <time>2024-11-24T09:27:37Z</time>
      </trkpt>
      <trkpt lat="45.08955" lon="-0.62842">
        <ele>19.1</ele>
        <time>2024-11-24T09:27:38Z</time>
      </trkpt>
      <trkpt lat="45.08954" lon="-0.62842">
        <ele>19.1</ele>
        <time>2024-11-24T09:27:39Z</time>
      </trkpt>
      <trkpt lat="45.08952" lon="-0.62841">
        <ele>19.2</ele>
        <time>2024-11-24T09:27:40Z</time>
      </trkpt>
      <trkpt lat="45.08951" lon="-0.62841">
        <ele>19.2</ele>
        <time>2024-11-24T09:27:41Z</time>
      </trkpt>
      <trkpt lat="45.08949" lon="-0.62841">
        <ele>19.2</ele>
        <time>2024-11-24T09:27:42Z</time>
      </trkpt>
      <trkpt lat="45.08948" lon="-0.62841">
        <ele>19.2</ele>
        <time>2024-11-24T09:27:43Z</time>
      </trkpt>
      <trkpt lat="45.08947" lon="-0.62841">
        <ele>19.3</ele>
        <time>2024-11-24T09:27:44Z</time>
      </trkpt>
      <trkpt lat="45.08945" lon="-0.62841">
        <ele>19.3</ele>
        <time>2024-11-24T09:27:45Z</time>
      </trkpt>
      <trkpt lat="45.08944" lon="-0.62841">
        <ele>19.3</ele>
        <time>2024-11-24T09:27:46Z</time>
      </trkpt>
      <trkpt lat="45.08942" lon="-0.62841">
        <ele>19.3</ele>
        <time>2024-11-24T09:27:47Z</time>
      </trkpt>
      <trkpt lat="45.08941" lon="-0.6284">
        <ele>19.3</ele>
        <time>2024-11-24T09:27:48Z</time>
      </trkpt>
      <trkpt lat="45.08939" lon="-0.6284">
        <ele>19.4</ele>
        <time>2024-11-24T09:27:49Z</time>
      </trkpt>
      <trkpt lat="45.08937" lon="-0.6284">
        <ele>19.4</ele>
        <time>2024-11-24T09:27:50Z</time>
      </trkpt>
      <trkpt lat="45.08935" lon="-0.6284">
        <ele>19.4</ele>
        <time>2024-11-24T09:27:51Z</time>
      </trkpt>
      <trkpt lat="45.08934" lon="-0.6284">
        <ele>19.4</ele>
        <time>2024-11-24T09:27:52Z</time>
      </trkpt>
      <trkpt lat="45.08933" lon="-0.6284">
        <ele>19.4</ele>
        <time>2024-11-24T09:27:53Z</time>
      </trkpt>
      <trkpt lat="45.08932" lon="-0.62839">
        <ele>19.5</ele>
        <time>2024-11-24T09:27:54Z</time>
      </trkpt>
      <trkpt lat="45.0893" lon="-0.62839">
        <ele>19.5</ele>
        <time>2024-11-24T09:27:55Z</time>
      </trkpt>
      <trkpt lat="45.08928" lon="-0.62839">
        <ele>19.5</ele>
        <time>2024-11-24T09:27:56Z</time>
      </trkpt>
      <trkpt lat="45.08927" lon="-0.62839">
        <ele>19.5</ele>
        <time>2024-11-24T09:27:57Z</time>
      </trkpt>
      <trkpt lat="45.08926" lon="-0.62839">
        <ele>19.5</ele>
        <time>2024-11-24T09:27:58Z</time>
      </trkpt>
      <trkpt lat="45.08925" lon="-0.62839">
        <ele>19.6</ele>
        <time>2024-11-24T09:27:59Z</time>
      </trkpt>
      <trkpt lat="45.08923" lon="-0.62838">
        <ele>19.6</ele>
        <time>2024-11-24T09:28:00Z</time>
      </trkpt>
      <trkpt lat="45.08922" lon="-0.62838">
        <ele>19.6</ele>
        <time>2024-11-24T09:28:01Z</time>
      </trkpt>
      <trkpt lat="45.08921" lon="-0.62837">
        <ele>19.6</ele>
        <time>2024-11-24T09:28:02Z</time>
      </trkpt>
      <trkpt lat="45.08919" lon="-0.62836">
        <ele>19.6</ele>
        <time>2024-11-24T09:28:03Z</time>
      </trkpt>
      <trkpt lat="45.08918" lon="-0.62836">
        <ele>19.6</ele>
        <time>2024-11-24T09:28:04Z</time>
      </trkpt>
      <trkpt lat="45.08916" lon="-0.62836">
        <ele>19.6</ele>
        <time>2024-11-24T09:28:05Z</time>
      </trkpt>
      <trkpt lat="45.08915" lon="-0.62836">
        <ele>19.7</ele>
        <time>2024-11-24T09:28:06Z</time>
      </trkpt>
      <trkpt lat="45.08913" lon="-0.62836">
        <ele>19.7</ele>
        <time>2024-11-24T09:28:07Z</time>
      </trkpt>
      <trkpt lat="45.08911" lon="-0.62836">
        <ele>19.7</ele>
        <time>2024-11-24T09:28:08Z</time>
      </trkpt>
      <trkpt lat="45.0891" lon="-0.62835">
        <ele>19.7</ele>
        <time>2024-11-24T09:28:09Z</time>
      </trkpt>
      <trkpt lat="45.08908" lon="-0.62835">
        <ele>19.7</ele>
        <time>2024-11-24T09:28:10Z</time>
      </trkpt>
      <trkpt lat="45.08906" lon="-0.62835">
        <ele>19.7</ele>
        <time>2024-11-24T09:28:11Z</time>
      </trkpt>
      <trkpt lat="45.08905" lon="-0.62835">
        <ele>19.7</ele>
        <time>2024-11-24T09:28:12Z</time>
      </trkpt>
      <trkpt lat="45.08903" lon="-0.62835">
        <ele>19.7</ele>
        <time>2024-11-24T09:28:13Z</time>
      </trkpt>
      <trkpt lat="45.08902" lon="-0.62834">
        <ele>19.7</ele>
        <time>2024-11-24T09:28:14Z</time>
      </trkpt>
      <trkpt lat="45.0883" lon="-0.62841">
        <ele>21.1</ele>
        <time>2024-11-24T09:29:02Z</time>
      </trkpt>
      <trkpt lat="45.08828" lon="-0.62841">
        <ele>21.2</ele>
        <time>2024-11-24T09:29:03Z</time>
      </trkpt>
      <trkpt lat="45.08825" lon="-0.62841">
        <ele>21.3</ele>
        <time>2024-11-24T09:29:04Z</time>
      </trkpt>
      <trkpt lat="45.08822" lon="-0.62841">
        <ele>21.3</ele>
        <time>2024-11-24T09:29:05Z</time>
      </trkpt>
      <trkpt lat="45.0882" lon="-0.62841">
        <ele>21.4</ele>
        <time>2024-11-24T09:29:06Z</time>
      </trkpt>
      <trkpt lat="45.08819" lon="-0.62841">
        <ele>21.4</ele>
        <time>2024-11-24T09:29:07Z</time>
      </trkpt>
      <trkpt lat="45.08818" lon="-0.62841">
        <ele>21.5</ele>
        <time>2024-11-24T09:29:08Z</time>
      </trkpt>
      <trkpt lat="45.08816" lon="-0.62841">
        <ele>21.5</ele>
        <time>2024-11-24T09:29:09Z</time>
      </trkpt>
      <trkpt lat="45.08814" lon="-0.62841">
        <ele>21.6</ele>
        <time>2024-11-24T09:29:10Z</time>
      </trkpt>
      <trkpt lat="45.08813" lon="-0.62841">
        <ele>21.6</ele>
        <time>2024-11-24T09:29:11Z</time>
      </trkpt>
      <trkpt lat="45.08811" lon="-0.62842">
        <ele>21.6</ele>
        <time>2024-11-24T09:29:12Z</time>
      </trkpt>
      <trkpt lat="45.0881" lon="-0.62842">
        <ele>21.7</ele>
        <time>2024-11-24T09:29:13Z</time>
      </trkpt>
      <trkpt lat="45.088" lon="-0.62841">
        <ele>22</ele>
        <time>2024-11-24T09:29:14Z</time>
      </trkpt>
      <trkpt lat="45.08792" lon="-0.62842">
        <ele>22.3</ele>
        <time>2024-11-24T09:29:35Z</time>
      </trkpt>
      <trkpt lat="45.08783" lon="-0.62842">
        <ele>22.7</ele>
        <time>2024-11-24T09:29:36Z</time>
      </trkpt>
      <trkpt lat="45.08775" lon="-0.62842">
        <ele>23</ele>
        <time>2024-11-24T09:29:37Z</time>
      </trkpt>
      <trkpt lat="45.08773" lon="-0.62841">
        <ele>23.1</ele>
        <time>2024-11-24T09:29:38Z</time>
      </trkpt>
      <trkpt lat="45.08772" lon="-0.62841">
        <ele>23.1</ele>
        <time>2024-11-24T09:29:39Z</time>
      </trkpt>
      <trkpt lat="45.0877" lon="-0.62841">
        <ele>23.2</ele>
        <time>2024-11-24T09:29:40Z</time>
      </trkpt>
      <trkpt lat="45.08769" lon="-0.62841">
        <ele>23.3</ele>
        <time>2024-11-24T09:29:41Z</time>
      </trkpt>
      <trkpt lat="45.08767" lon="-0.62841">
        <ele>23.4</ele>
        <time>2024-11-24T09:29:42Z</time>
      </trkpt>
      <trkpt lat="45.08765" lon="-0.62841">
        <ele>23.4</ele>
        <time>2024-11-24T09:29:43Z</time>
      </trkpt>
      <trkpt lat="45.08756" lon="-0.62832">
        <ele>24.1</ele>
        <time>2024-11-24T09:29:44Z</time>
      </trkpt>
      <trkpt lat="45.08748" lon="-0.62823">
        <ele>24.8</ele>
        <time>2024-11-24T09:30:32Z</time>
      </trkpt>
      <trkpt lat="45.08741" lon="-0.62813">
        <ele>25.5</ele>
        <time>2024-11-24T09:30:33Z</time>
      </trkpt>
      <trkpt lat="45.08733" lon="-0.62804">
        <ele>26.3</ele>
        <time>2024-11-24T09:30:34Z</time>
      </trkpt>
      <trkpt lat="45.08725" lon="-0.62795">
        <ele>26.4</ele>
        <time>2024-11-24T09:30:35Z</time>
      </trkpt>
      <trkpt lat="45.08726" lon="-0.62794">
        <ele>26.4</ele>
        <time>2024-11-24T09:30:36Z</time>
      </trkpt>
      <trkpt lat="45.08727" lon="-0.62793">
        <ele>26.4</ele>
        <time>2024-11-24T09:30:37Z</time>
      </trkpt>
      <trkpt lat="45.08727" lon="-0.62792">
        <ele>26.4</ele>
        <time>2024-11-24T09:30:38Z</time>
      </trkpt>
      <trkpt lat="45.08729" lon="-0.62791">
        <ele>26.4</ele>
        <time>2024-11-24T09:30:39Z</time>
      </trkpt>
      <trkpt lat="45.0873" lon="-0.62789">
        <ele>26.4</ele>
        <time>2024-11-24T09:30:40Z</time>
      </trkpt>
      <trkpt lat="45.08731" lon="-0.62788">
        <ele>26.4</ele>
        <time>2024-11-24T09:30:41Z</time>
      </trkpt>
      <trkpt lat="45.08732" lon="-0.62786">
        <ele>26.5</ele>
        <time>2024-11-24T09:30:42Z</time>
      </trkpt>
      <trkpt lat="45.08733" lon="-0.62784">
        <ele>26.5</ele>
        <time>2024-11-24T09:30:43Z</time>
      </trkpt>
      <trkpt lat="45.08733" lon="-0.62782">
        <ele>26.5</ele>
        <time>2024-11-24T09:30:44Z</time>
      </trkpt>
      <trkpt lat="45.0874" lon="-0.62767">
        <ele>26.5</ele>
        <time>2024-11-24T09:30:51Z</time>
      </trkpt>
      <trkpt lat="45.08741" lon="-0.62766">
        <ele>26.5</ele>
        <time>2024-11-24T09:30:52Z</time>
      </trkpt>
      <trkpt lat="45.08741" lon="-0.62764">
        <ele>26.5</ele>
        <time>2024-11-24T09:30:53Z</time>
      </trkpt>
      <trkpt lat="45.08742" lon="-0.62762">
        <ele>26.5</ele>
        <time>2024-11-24T09:30:54Z</time>
      </trkpt>
      <trkpt lat="45.08743" lon="-0.6276">
        <ele>26.5</ele>
        <time>2024-11-24T09:30:55Z</time>
      </trkpt>
      <trkpt lat="45.08744" lon="-0.62759">
        <ele>26.5</ele>
        <time>2024-11-24T09:30:56Z</time>
      </trkpt>
      <trkpt lat="45.08744" lon="-0.62757">
        <ele>26.5</ele>
        <time>2024-11-24T09:30:57Z</time>
      </trkpt>
      <trkpt lat="45.08744" lon="-0.62756">
        <ele>26.5</ele>
        <time>2024-11-24T09:30:58Z</time>
      </trkpt>
      <trkpt lat="45.08745" lon="-0.62755">
        <ele>26.5</ele>
        <time>2024-11-24T09:30:59Z</time>
      </trkpt>
      <trkpt lat="45.08745" lon="-0.62753">
        <ele>26.5</ele>
        <time>2024-11-24T09:31:00Z</time>
      </trkpt>
      <trkpt lat="45.08746" lon="-0.6275">
        <ele>26.5</ele>
        <time>2024-11-24T09:31:01Z</time>
      </trkpt>
      <trkpt lat="45.08746" lon="-0.62749">
        <ele>26.5</ele>
        <time>2024-11-24T09:31:02Z</time>
      </trkpt>
      <trkpt lat="45.08747" lon="-0.62748">
        <ele>26.5</ele>
        <time>2024-11-24T09:31:03Z</time>
      </trkpt>
      <trkpt lat="45.08747" lon="-0.62745">
        <ele>26.5</ele>
        <time>2024-11-24T09:31:04Z</time>
      </trkpt>
      <trkpt lat="45.08748" lon="-0.62744">
        <ele>26.5</ele>
        <time>2024-11-24T09:31:05Z</time>
      </trkpt>
      <trkpt lat="45.08748" lon="-0.62741">
        <ele>26.5</ele>
        <time>2024-11-24T09:31:06Z</time>
      </trkpt>
      <trkpt lat="45.08749" lon="-0.6274">
        <ele>26.5</ele>
        <time>2024-11-24T09:31:07Z</time>
      </trkpt>
      <trkpt lat="45.08749" lon="-0.62739">
        <ele>26.5</ele>
        <time>2024-11-24T09:31:08Z</time>
      </trkpt>
      <trkpt lat="45.0875" lon="-0.62736">
        <ele>26.5</ele>
        <time>2024-11-24T09:31:09Z</time>
      </trkpt>
      <trkpt lat="45.0875" lon="-0.62735">
        <ele>26.6</ele>
        <time>2024-11-24T09:31:10Z</time>
      </trkpt>
      <trkpt lat="45.0875" lon="-0.62734">
        <ele>26.6</ele>
        <time>2024-11-24T09:31:11Z</time>
      </trkpt>
      <trkpt lat="45.08751" lon="-0.62731">
        <ele>26.6</ele>
        <time>2024-11-24T09:31:12Z</time>
      </trkpt>
      <trkpt lat="45.08752" lon="-0.6273">
        <ele>26.6</ele>
        <time>2024-11-24T09:31:13Z</time>
      </trkpt>
      <trkpt lat="45.08752" lon="-0.62729">
        <ele>26.6</ele>
        <time>2024-11-24T09:31:14Z</time>
      </trkpt>
      <trkpt lat="45.08752" lon="-0.62727">
        <ele>26.6</ele>
        <time>2024-11-24T09:31:15Z</time>
      </trkpt>
      <trkpt lat="45.08753" lon="-0.62726">
        <ele>26.6</ele>
        <time>2024-11-24T09:31:16Z</time>
      </trkpt>
      <trkpt lat="45.08753" lon="-0.62724">
        <ele>26.7</ele>
        <time>2024-11-24T09:31:17Z</time>
      </trkpt>
      <trkpt lat="45.08753" lon="-0.62722">
        <ele>26.7</ele>
        <time>2024-11-24T09:31:18Z</time>
      </trkpt>
      <trkpt lat="45.08754" lon="-0.6272">
        <ele>26.7</ele>
        <time>2024-11-24T09:31:19Z</time>
      </trkpt>
      <trkpt lat="45.08754" lon="-0.62719">
        <ele>26.7</ele>
        <time>2024-11-24T09:31:20Z</time>
      </trkpt>
      <trkpt lat="45.08754" lon="-0.62717">
        <ele>26.7</ele>
        <time>2024-11-24T09:31:21Z</time>
      </trkpt>
      <trkpt lat="45.08754" lon="-0.62715">
        <ele>26.7</ele>
        <time>2024-11-24T09:31:22Z</time>
      </trkpt>
      <trkpt lat="45.08754" lon="-0.62713">
        <ele>26.7</ele>
        <time>2024-11-24T09:31:23Z</time>
      </trkpt>
      <trkpt lat="45.08755" lon="-0.62711">
        <ele>26.8</ele>
        <time>2024-11-24T09:31:24Z</time>
      </trkpt>
      <trkpt lat="45.08755" lon="-0.6271">
        <ele>26.8</ele>
        <time>2024-11-24T09:31:25Z</time>
      </trkpt>
      <trkpt lat="45.08755" lon="-0.62708">
        <ele>26.8</ele>
        <time>2024-11-24T09:31:26Z</time>
      </trkpt>
      <trkpt lat="45.08755" lon="-0.62706">
        <ele>26.8</ele>
        <time>2024-11-24T09:31:27Z</time>
      </trkpt>
      <trkpt lat="45.08755" lon="-0.62703">
        <ele>26.8</ele>
        <time>2024-11-24T09:31:28Z</time>
      </trkpt>
      <trkpt lat="45.08755" lon="-0.62702">
        <ele>26.8</ele>
        <time>2024-11-24T09:31:29Z</time>
      </trkpt>
      <trkpt lat="45.08755" lon="-0.62701">
        <ele>26.8</ele>
        <time>2024-11-24T09:31:30Z</time>
      </trkpt>
      <trkpt lat="45.08755" lon="-0.62699">
        <ele>26.8</ele>
        <time>2024-11-24T09:31:31Z</time>
      </trkpt>
      <trkpt lat="45.08755" lon="-0.62696">
        <ele>26.8</ele>
        <time>2024-11-24T09:31:32Z</time>
      </trkpt>
      <trkpt lat="45.08755" lon="-0.62693">
        <ele>26.9</ele>
        <time>2024-11-24T09:31:33Z</time>
      </trkpt>
      <trkpt lat="45.08755" lon="-0.62691">
        <ele>26.9</ele>
        <time>2024-11-24T09:31:34Z</time>
      </trkpt>
      <trkpt lat="45.08755" lon="-0.62689">
        <ele>26.9</ele>
        <time>2024-11-24T09:31:35Z</time>
      </trkpt>
      <trkpt lat="45.08755" lon="-0.62688">
        <ele>26.9</ele>
        <time>2024-11-24T09:31:36Z</time>
      </trkpt>
      <trkpt lat="45.08754" lon="-0.62687">
        <ele>26.9</ele>
        <time>2024-11-24T09:31:37Z</time>
      </trkpt>
      <trkpt lat="45.08754" lon="-0.62686">
        <ele>26.9</ele>
        <time>2024-11-24T09:31:38Z</time>
      </trkpt>
      <trkpt lat="45.08755" lon="-0.62684">
        <ele>26.9</ele>
        <time>2024-11-24T09:31:39Z</time>
      </trkpt>
      <trkpt lat="45.08755" lon="-0.62682">
        <ele>26.9</ele>
        <time>2024-11-24T09:31:40Z</time>
      </trkpt>
      <trkpt lat="45.08755" lon="-0.62679">
        <ele>26.9</ele>
        <time>2024-11-24T09:31:41Z</time>
      </trkpt>
      <trkpt lat="45.08755" lon="-0.62678">
        <ele>26.9</ele>
        <time>2024-11-24T09:31:42Z</time>
      </trkpt>
      <trkpt lat="45.08754" lon="-0.62676">
        <ele>26.9</ele>
        <time>2024-11-24T09:31:43Z</time>
      </trkpt>
      <trkpt lat="45.08754" lon="-0.62674">
        <ele>26.9</ele>
        <time>2024-11-24T09:31:44Z</time>
      </trkpt>
      <trkpt lat="45.08754" lon="-0.62672">
        <ele>26.9</ele>
        <time>2024-11-24T09:31:45Z</time>
      </trkpt>
      <trkpt lat="45.08753" lon="-0.62669">
        <ele>26.9</ele>
        <time>2024-11-24T09:31:46Z</time>
      </trkpt>
      <trkpt lat="45.08753" lon="-0.62668">
        <ele>26.9</ele>
        <time>2024-11-24T09:31:47Z</time>
      </trkpt>
      <trkpt lat="45.08753" lon="-0.62667">
        <ele>26.9</ele>
        <time>2024-11-24T09:31:48Z</time>
      </trkpt>
      <trkpt lat="45.08753" lon="-0.62664">
        <ele>27</ele>
        <time>2024-11-24T09:31:49Z</time>
      </trkpt>
      <trkpt lat="45.08752" lon="-0.62662">
        <ele>27</ele>
        <time>2024-11-24T09:31:50Z</time>
      </trkpt>
      <trkpt lat="45.08752" lon="-0.6266">
        <ele>27</ele>
        <time>2024-11-24T09:31:51Z</time>
      </trkpt>
      <trkpt lat="45.08751" lon="-0.62658">
        <ele>27</ele>
        <time>2024-11-24T09:31:52Z</time>
      </trkpt>
      <trkpt lat="45.08751" lon="-0.62655">
        <ele>27</ele>
        <time>2024-11-24T09:31:53Z</time>
      </trkpt>
      <trkpt lat="45.08751" lon="-0.62653">
        <ele>27</ele>
        <time>2024-11-24T09:31:54Z</time>
      </trkpt>
      <trkpt lat="45.08751" lon="-0.62652">
        <ele>27</ele>
        <time>2024-11-24T09:31:55Z</time>
      </trkpt>
      <trkpt lat="45.08751" lon="-0.6265">
        <ele>27</ele>
        <time>2024-11-24T09:31:56Z</time>
      </trkpt>
      <trkpt lat="45.08751" lon="-0.62648">
        <ele>27</ele>
        <time>2024-11-24T09:31:57Z</time>
      </trkpt>
      <trkpt lat="45.08751" lon="-0.62646">
        <ele>27</ele>
        <time>2024-11-24T09:31:58Z</time>
      </trkpt>
      <trkpt lat="45.08751" lon="-0.62643">
        <ele>27</ele>
        <time>2024-11-24T09:31:59Z</time>
      </trkpt>
      <trkpt lat="45.08751" lon="-0.62641">
        <ele>27.1</ele>
        <time>2024-11-24T09:32:00Z</time>
      </trkpt>
      <trkpt lat="45.08751" lon="-0.62639">
        <ele>27.1</ele>
        <time>2024-11-24T09:32:01Z</time>
      </trkpt>
      <trkpt lat="45.08751" lon="-0.62637">
        <ele>27.1</ele>
        <time>2024-11-24T09:32:02Z</time>
      </trkpt>
      <trkpt lat="45.0875" lon="-0.62634">
        <ele>27.1</ele>
        <time>2024-11-24T09:32:03Z</time>
      </trkpt>
      <trkpt lat="45.0875" lon="-0.62632">
        <ele>27.1</ele>
        <time>2024-11-24T09:32:04Z</time>
      </trkpt>
      <trkpt lat="45.0875" lon="-0.6263">
        <ele>27.1</ele>
        <time>2024-11-24T09:32:05Z</time>
      </trkpt>
      <trkpt lat="45.0875" lon="-0.62628">
        <ele>27.2</ele>
        <time>2024-11-24T09:32:06Z</time>
      </trkpt>
      <trkpt lat="45.0875" lon="-0.62626">
        <ele>27.2</ele>
        <time>2024-11-24T09:32:07Z</time>
      </trkpt>
      <trkpt lat="45.08749" lon="-0.62624">
        <ele>27.2</ele>
        <time>2024-11-24T09:32:08Z</time>
      </trkpt>
      <trkpt lat="45.08749" lon="-0.62622">
        <ele>27.2</ele>
        <time>2024-11-24T09:32:09Z</time>
      </trkpt>
      <trkpt lat="45.08749" lon="-0.62619">
        <ele>27.3</ele>
        <time>2024-11-24T09:32:10Z</time>
      </trkpt>
      <trkpt lat="45.08748" lon="-0.62617">
        <ele>27.3</ele>
        <time>2024-11-24T09:32:11Z</time>
      </trkpt>
      <trkpt lat="45.08748" lon="-0.62615">
        <ele>27.3</ele>
        <time>2024-11-24T09:32:12Z</time>
      </trkpt>
      <trkpt lat="45.08747" lon="-0.62614">
        <ele>27.3</ele>
        <time>2024-11-24T09:32:13Z</time>
      </trkpt>
      <trkpt lat="45.08747" lon="-0.6261">
        <ele>27.4</ele>
        <time>2024-11-24T09:32:14Z</time>
      </trkpt>
      <trkpt lat="45.08747" lon="-0.62609">
        <ele>27.4</ele>
        <time>2024-11-24T09:32:15Z</time>
      </trkpt>
      <trkpt lat="45.08747" lon="-0.62608">
        <ele>27.4</ele>
        <time>2024-11-24T09:32:16Z</time>
      </trkpt>
      <trkpt lat="45.08747" lon="-0.62605">
        <ele>27.5</ele>
        <time>2024-11-24T09:32:17Z</time>
      </trkpt>
      <trkpt lat="45.08746" lon="-0.62603">
        <ele>27.5</ele>
        <time>2024-11-24T09:32:18Z</time>
      </trkpt>
      <trkpt lat="45.08746" lon="-0.62602">
        <ele>27.5</ele>
        <time>2024-11-24T09:32:19Z</time>
      </trkpt>
      <trkpt lat="45.08746" lon="-0.62598">
        <ele>27.6</ele>
        <time>2024-11-24T09:32:20Z</time>
      </trkpt>
      <trkpt lat="45.08746" lon="-0.62597">
        <ele>27.6</ele>
        <time>2024-11-24T09:32:21Z</time>
      </trkpt>
      <trkpt lat="45.08747" lon="-0.62596">
        <ele>27.6</ele>
        <time>2024-11-24T09:32:22Z</time>
      </trkpt>
      <trkpt lat="45.08747" lon="-0.62594">
        <ele>27.6</ele>
        <time>2024-11-24T09:32:23Z</time>
      </trkpt>
      <trkpt lat="45.08747" lon="-0.62592">
        <ele>27.7</ele>
        <time>2024-11-24T09:32:24Z</time>
      </trkpt>
      <trkpt lat="45.08747" lon="-0.62588">
        <ele>27.7</ele>
        <time>2024-11-24T09:32:25Z</time>
      </trkpt>
      <trkpt lat="45.08747" lon="-0.62587">
        <ele>27.8</ele>
        <time>2024-11-24T09:32:26Z</time>
      </trkpt>
      <trkpt lat="45.08747" lon="-0.62586">
        <ele>27.8</ele>
        <time>2024-11-24T09:32:27Z</time>
      </trkpt>
      <trkpt lat="45.08748" lon="-0.62584">
        <ele>27.8</ele>
        <time>2024-11-24T09:32:28Z</time>
      </trkpt>
      <trkpt lat="45.08749" lon="-0.62582">
        <ele>27.9</ele>
        <time>2024-11-24T09:32:29Z</time>
      </trkpt>
      <trkpt lat="45.08749" lon="-0.62579">
        <ele>27.9</ele>
        <time>2024-11-24T09:32:30Z</time>
      </trkpt>
      <trkpt lat="45.0875" lon="-0.62577">
        <ele>28</ele>
        <time>2024-11-24T09:32:31Z</time>
      </trkpt>
      <trkpt lat="45.0875" lon="-0.62576">
        <ele>28</ele>
        <time>2024-11-24T09:32:32Z</time>
      </trkpt>
      <trkpt lat="45.0875" lon="-0.62574">
        <ele>28.1</ele>
        <time>2024-11-24T09:32:33Z</time>
      </trkpt>
      <trkpt lat="45.08751" lon="-0.62572">
        <ele>28.1</ele>
        <time>2024-11-24T09:32:34Z</time>
      </trkpt>
      <trkpt lat="45.08752" lon="-0.6257">
        <ele>28.2</ele>
        <time>2024-11-24T09:32:35Z</time>
      </trkpt>
      <trkpt lat="45.08752" lon="-0.62568">
        <ele>28.2</ele>
        <time>2024-11-24T09:32:36Z</time>
      </trkpt>
      <trkpt lat="45.08753" lon="-0.62566">
        <ele>28.3</ele>
        <time>2024-11-24T09:32:37Z</time>
      </trkpt>
      <trkpt lat="45.08753" lon="-0.62563">
        <ele>28.4</ele>
        <time>2024-11-24T09:32:38Z</time>
      </trkpt>
      <trkpt lat="45.08754" lon="-0.62561">
        <ele>28.4</ele>
        <time>2024-11-24T09:32:39Z</time>
      </trkpt>
      <trkpt lat="45.08754" lon="-0.62559">
        <ele>28.5</ele>
        <time>2024-11-24T09:32:40Z</time>
      </trkpt>
      <trkpt lat="45.08755" lon="-0.62557">
        <ele>28.6</ele>
        <time>2024-11-24T09:32:41Z</time>
      </trkpt>
      <trkpt lat="45.08755" lon="-0.62555">
        <ele>28.7</ele>
        <time>2024-11-24T09:32:42Z</time>
      </trkpt>
      <trkpt lat="45.08756" lon="-0.62552">
        <ele>28.7</ele>
        <time>2024-11-24T09:32:43Z</time>
      </trkpt>
      <trkpt lat="45.08757" lon="-0.6255">
        <ele>28.8</ele>
        <time>2024-11-24T09:32:44Z</time>
      </trkpt>
      <trkpt lat="45.08757" lon="-0.62549">
        <ele>28.9</ele>
        <time>2024-11-24T09:32:45Z</time>
      </trkpt>
      <trkpt lat="45.08758" lon="-0.62546">
        <ele>28.9</ele>
        <time>2024-11-24T09:32:46Z</time>
      </trkpt>
      <trkpt lat="45.08758" lon="-0.62544">
        <ele>29</ele>
        <time>2024-11-24T09:32:47Z</time>
      </trkpt>
      <trkpt lat="45.08758" lon="-0.62542">
        <ele>29.1</ele>
        <time>2024-11-24T09:32:48Z</time>
      </trkpt>
      <trkpt lat="45.08759" lon="-0.62539">
        <ele>29.2</ele>
        <time>2024-11-24T09:32:49Z</time>
      </trkpt>
      <trkpt lat="45.08759" lon="-0.62537">
        <ele>29.2</ele>
        <time>2024-11-24T09:32:50Z</time>
      </trkpt>
      <trkpt lat="45.0876" lon="-0.62535">
        <ele>29.3</ele>
        <time>2024-11-24T09:32:51Z</time>
      </trkpt>
      <trkpt lat="45.0876" lon="-0.62533">
        <ele>29.4</ele>
        <time>2024-11-24T09:32:52Z</time>
      </trkpt>
      <trkpt lat="45.08761" lon="-0.62531">
        <ele>29.4</ele>
        <time>2024-11-24T09:32:53Z</time>
      </trkpt>
      <trkpt lat="45.08761" lon="-0.6253">
        <ele>29.4</ele>
        <time>2024-11-24T09:32:54Z</time>
      </trkpt>
      <trkpt lat="45.08762" lon="-0.62528">
        <ele>29.5</ele>
        <time>2024-11-24T09:32:55Z</time>
      </trkpt>
      <trkpt lat="45.08762" lon="-0.62526">
        <ele>29.5</ele>
        <time>2024-11-24T09:32:56Z</time>
      </trkpt>
      <trkpt lat="45.08763" lon="-0.62524">
        <ele>29.6</ele>
        <time>2024-11-24T09:32:57Z</time>
      </trkpt>
      <trkpt lat="45.08763" lon="-0.62522">
        <ele>29.6</ele>
        <time>2024-11-24T09:32:58Z</time>
      </trkpt>
      <trkpt lat="45.08764" lon="-0.62521">
        <ele>29.7</ele>
        <time>2024-11-24T09:32:59Z</time>
      </trkpt>
      <trkpt lat="45.08765" lon="-0.62518">
        <ele>29.8</ele>
        <time>2024-11-24T09:33:00Z</time>
      </trkpt>
      <trkpt lat="45.08766" lon="-0.62517">
        <ele>29.8</ele>
        <time>2024-11-24T09:33:01Z</time>
      </trkpt>
      <trkpt lat="45.08766" lon="-0.62515">
        <ele>29.9</ele>
        <time>2024-11-24T09:33:02Z</time>
      </trkpt>
      <trkpt lat="45.08767" lon="-0.62513">
        <ele>29.9</ele>
        <time>2024-11-24T09:33:03Z</time>
      </trkpt>
      <trkpt lat="45.08768" lon="-0.62511">
        <ele>30</ele>
        <time>2024-11-24T09:33:04Z</time>
      </trkpt>
      <trkpt lat="45.08768" lon="-0.62509">
        <ele>30</ele>
        <time>2024-11-24T09:33:05Z</time>
      </trkpt>
      <trkpt lat="45.08769" lon="-0.62507">
        <ele>30.1</ele>
        <time>2024-11-24T09:33:06Z</time>
      </trkpt>
      <trkpt lat="45.0877" lon="-0.62505">
        <ele>30.2</ele>
        <time>2024-11-24T09:33:07Z</time>
      </trkpt>
      <trkpt lat="45.0877" lon="-0.62503">
        <ele>30.2</ele>
        <time>2024-11-24T09:33:08Z</time>
      </trkpt>
      <trkpt lat="45.08771" lon="-0.62501">
        <ele>30.3</ele>
        <time>2024-11-24T09:33:09Z</time>
      </trkpt>
      <trkpt lat="45.08771" lon="-0.62499">
        <ele>30.4</ele>
        <time>2024-11-24T09:33:10Z</time>
      </trkpt>
      <trkpt lat="45.08772" lon="-0.62497">
        <ele>30.4</ele>
        <time>2024-11-24T09:33:11Z</time>
      </trkpt>
      <trkpt lat="45.08772" lon="-0.62494">
        <ele>30.5</ele>
        <time>2024-11-24T09:33:12Z</time>
      </trkpt>
      <trkpt lat="45.08773" lon="-0.62492">
        <ele>30.6</ele>
        <time>2024-11-24T09:33:13Z</time>
      </trkpt>
      <trkpt lat="45.08773" lon="-0.6249">
        <ele>30.6</ele>
        <time>2024-11-24T09:33:14Z</time>
      </trkpt>
      <trkpt lat="45.08773" lon="-0.62487">
        <ele>30.7</ele>
        <time>2024-11-24T09:33:15Z</time>
      </trkpt>
      <trkpt lat="45.08773" lon="-0.62486">
        <ele>30.7</ele>
        <time>2024-11-24T09:33:16Z</time>
      </trkpt>
      <trkpt lat="45.08773" lon="-0.62485">
        <ele>30.8</ele>
        <time>2024-11-24T09:33:17Z</time>
      </trkpt>
      <trkpt lat="45.08773" lon="-0.62482">
        <ele>30.8</ele>
        <time>2024-11-24T09:33:18Z</time>
      </trkpt>
      <trkpt lat="45.08774" lon="-0.62481">
        <ele>30.9</ele>
        <time>2024-11-24T09:33:19Z</time>
      </trkpt>
      <trkpt lat="45.08774" lon="-0.62479">
        <ele>30.9</ele>
        <time>2024-11-24T09:33:20Z</time>
      </trkpt>
      <trkpt lat="45.08774" lon="-0.62477">
        <ele>30.9</ele>
        <time>2024-11-24T09:33:21Z</time>
      </trkpt>
      <trkpt lat="45.08774" lon="-0.62475">
        <ele>30.9</ele>
        <time>2024-11-24T09:33:22Z</time>
      </trkpt>
      <trkpt lat="45.08778" lon="-0.62461">
        <ele>31</ele>
        <time>2024-11-24T09:33:23Z</time>
      </trkpt>
      <trkpt lat="45.08782" lon="-0.6245">
        <ele>31</ele>
        <time>2024-11-24T09:33:47Z</time>
      </trkpt>
      <trkpt lat="45.08786" lon="-0.62438">
        <ele>30.7</ele>
        <time>2024-11-24T09:33:48Z</time>
      </trkpt>
      <trkpt lat="45.0879" lon="-0.62427">
        <ele>30.4</ele>
        <time>2024-11-24T09:33:49Z</time>
      </trkpt>
      <trkpt lat="45.08791" lon="-0.62426">
        <ele>30.4</ele>
        <time>2024-11-24T09:33:50Z</time>
      </trkpt>
      <trkpt lat="45.08793" lon="-0.62425">
        <ele>30.3</ele>
        <time>2024-11-24T09:33:51Z</time>
      </trkpt>
      <trkpt lat="45.08794" lon="-0.62425">
        <ele>30.3</ele>
        <time>2024-11-24T09:33:52Z</time>
      </trkpt>
      <trkpt lat="45.08795" lon="-0.62424">
        <ele>30.3</ele>
        <time>2024-11-24T09:33:53Z</time>
      </trkpt>
      <trkpt lat="45.08873" lon="-0.62381">
        <ele>30.7</ele>
        <time>2024-11-24T09:34:46Z</time>
      </trkpt>
      <trkpt lat="45.08874" lon="-0.6238">
        <ele>30.7</ele>
        <time>2024-11-24T09:34:47Z</time>
      </trkpt>
      <trkpt lat="45.08875" lon="-0.62379">
        <ele>30.7</ele>
        <time>2024-11-24T09:34:48Z</time>
      </trkpt>
      <trkpt lat="45.08876" lon="-0.62378">
        <ele>30.8</ele>
        <time>2024-11-24T09:34:49Z</time>
      </trkpt>
      <trkpt lat="45.08877" lon="-0.62377">
        <ele>30.8</ele>
        <time>2024-11-24T09:34:50Z</time>
      </trkpt>
      <trkpt lat="45.08878" lon="-0.62375">
        <ele>30.8</ele>
        <time>2024-11-24T09:34:51Z</time>
      </trkpt>
      <trkpt lat="45.08879" lon="-0.62373">
        <ele>30.9</ele>
        <time>2024-11-24T09:34:52Z</time>
      </trkpt>
      <trkpt lat="45.0888" lon="-0.62372">
        <ele>30.9</ele>
        <time>2024-11-24T09:34:53Z</time>
      </trkpt>
      <trkpt lat="45.08881" lon="-0.6237">
        <ele>31</ele>
        <time>2024-11-24T09:34:54Z</time>
      </trkpt>
      <trkpt lat="45.08926" lon="-0.62343">
        <ele>32</ele>
        <time>2024-11-24T09:35:25Z</time>
      </trkpt>
      <trkpt lat="45.08927" lon="-0.62343">
        <ele>32</ele>
        <time>2024-11-24T09:35:26Z</time>
      </trkpt>
      <trkpt lat="45.08928" lon="-0.62342">
        <ele>32.1</ele>
        <time>2024-11-24T09:35:27Z</time>
      </trkpt>
      <trkpt lat="45.08929" lon="-0.62341">
        <ele>32.1</ele>
        <time>2024-11-24T09:35:28Z</time>
      </trkpt>
      <trkpt lat="45.08931" lon="-0.6234">
        <ele>32.1</ele>
        <time>2024-11-24T09:35:29Z</time>
      </trkpt>
      <trkpt lat="45.08932" lon="-0.62338">
        <ele>32.1</ele>
        <time>2024-11-24T09:35:30Z</time>
      </trkpt>
      <trkpt lat="45.08934" lon="-0.62337">
        <ele>32.2</ele>
        <time>2024-11-24T09:35:31Z</time>
      </trkpt>
      <trkpt lat="45.08935" lon="-0.62336">
        <ele>32.2</ele>
        <time>2024-11-24T09:35:32Z</time>
      </trkpt>
      <trkpt lat="45.08936" lon="-0.62334">
        <ele>32.3</ele>
        <time>2024-11-24T09:35:33Z</time>
      </trkpt>
      <trkpt lat="45.08938" lon="-0.62333">
        <ele>32.3</ele>
        <time>2024-11-24T09:35:34Z</time>
      </trkpt>
      <trkpt lat="45.08938" lon="-0.62331">
        <ele>32.3</ele>
        <time>2024-11-24T09:35:35Z</time>
      </trkpt>
      <trkpt lat="45.08939" lon="-0.6233">
        <ele>32.3</ele>
        <time>2024-11-24T09:35:36Z</time>
      </trkpt>
      <trkpt lat="45.0894" lon="-0.62328">
        <ele>32.4</ele>
        <time>2024-11-24T09:35:37Z</time>
      </trkpt>
      <trkpt lat="45.08941" lon="-0.62327">
        <ele>32.4</ele>
        <time>2024-11-24T09:35:38Z</time>
      </trkpt>
      <trkpt lat="45.08942" lon="-0.62325">
        <ele>32.4</ele>
        <time>2024-11-24T09:35:39Z</time>
      </trkpt>
      <trkpt lat="45.08943" lon="-0.62323">
        <ele>32.5</ele>
        <time>2024-11-24T09:35:40Z</time>
      </trkpt>
      <trkpt lat="45.08944" lon="-0.62322">
        <ele>32.5</ele>
        <time>2024-11-24T09:35:41Z</time>
      </trkpt>
      <trkpt lat="45.08944" lon="-0.62319">
        <ele>32.5</ele>
        <time>2024-11-24T09:35:42Z</time>
      </trkpt>
      <trkpt lat="45.08945" lon="-0.62317">
        <ele>32.6</ele>
        <time>2024-11-24T09:35:43Z</time>
      </trkpt>
      <trkpt lat="45.08946" lon="-0.62316">
        <ele>32.6</ele>
        <time>2024-11-24T09:35:44Z</time>
      </trkpt>
      <trkpt lat="45.08946" lon="-0.62314">
        <ele>32.6</ele>
        <time>2024-11-24T09:35:45Z</time>
      </trkpt>
      <trkpt lat="45.08945" lon="-0.62312">
        <ele>32.7</ele>
        <time>2024-11-24T09:35:46Z</time>
      </trkpt>
      <trkpt lat="45.08945" lon="-0.62311">
        <ele>32.7</ele>
        <time>2024-11-24T09:35:47Z</time>
      </trkpt>
      <trkpt lat="45.08944" lon="-0.62311">
        <ele>32.7</ele>
        <time>2024-11-24T09:35:48Z</time>
      </trkpt>
      <trkpt lat="45.08942" lon="-0.62309">
        <ele>32.8</ele>
        <time>2024-11-24T09:35:49Z</time>
      </trkpt>
      <trkpt lat="45.08942" lon="-0.62307">
        <ele>32.8</ele>
        <time>2024-11-24T09:35:50Z</time>
      </trkpt>
      <trkpt lat="45.08942" lon="-0.62306">
        <ele>32.8</ele>
        <time>2024-11-24T09:35:51Z</time>
      </trkpt>
      <trkpt lat="45.08945" lon="-0.62304">
        <ele>32.9</ele>
        <time>2024-11-24T09:35:52Z</time>
      </trkpt>
      <trkpt lat="45.08946" lon="-0.62304">
        <ele>32.9</ele>
        <time>2024-11-24T09:35:53Z</time>
      </trkpt>
      <trkpt lat="45.08946" lon="-0.62304">
        <ele>33</ele>
        <time>2024-11-24T09:35:54Z</time>
      </trkpt>
      <trkpt lat="45.08946" lon="-0.62303">
        <ele>33</ele>
        <time>2024-11-24T09:35:55Z</time>
      </trkpt>
      <trkpt lat="45.08946" lon="-0.62301">
        <ele>33</ele>
        <time>2024-11-24T09:35:56Z</time>
      </trkpt>
      <trkpt lat="45.08946" lon="-0.623">
        <ele>33.1</ele>
        <time>2024-11-24T09:35:57Z</time>
      </trkpt>
      <trkpt lat="45.08946" lon="-0.62298">
        <ele>33.1</ele>
        <time>2024-11-24T09:35:58Z</time>
      </trkpt>
      <trkpt lat="45.08946" lon="-0.62295">
        <ele>33.1</ele>
        <time>2024-11-24T09:35:59Z</time>
      </trkpt>
      <trkpt lat="45.08946" lon="-0.62293">
        <ele>33.2</ele>
        <time>2024-11-24T09:36:00Z</time>
      </trkpt>
      <trkpt lat="45.08946" lon="-0.6229">
        <ele>33.2</ele>
        <time>2024-11-24T09:36:01Z</time>
      </trkpt>
      <trkpt lat="45.08946" lon="-0.62288">
        <ele>33.3</ele>
        <time>2024-11-24T09:36:02Z</time>
      </trkpt>
      <trkpt lat="45.08946" lon="-0.62286">
        <ele>33.3</ele>
        <time>2024-11-24T09:36:03Z</time>
      </trkpt>
      <trkpt lat="45.08945" lon="-0.62284">
        <ele>33.3</ele>
        <time>2024-11-24T09:36:04Z</time>
      </trkpt>
      <trkpt lat="45.08945" lon="-0.62282">
        <ele>33.4</ele>
        <time>2024-11-24T09:36:05Z</time>
      </trkpt>
      <trkpt lat="45.08944" lon="-0.6228">
        <ele>33.4</ele>
        <time>2024-11-24T09:36:06Z</time>
      </trkpt>
      <trkpt lat="45.08944" lon="-0.62277">
        <ele>33.4</ele>
        <time>2024-11-24T09:36:07Z</time>
      </trkpt>
      <trkpt lat="45.08944" lon="-0.62275">
        <ele>33.5</ele>
        <time>2024-11-24T09:36:08Z</time>
      </trkpt>
      <trkpt lat="45.08933" lon="-0.62266">
        <ele>34</ele>
        <time>2024-11-24T09:36:09Z</time>
      </trkpt>
      <trkpt lat="45.08923" lon="-0.62259">
        <ele>34.8</ele>
        <time>2024-11-24T09:36:39Z</time>
      </trkpt>
      <trkpt lat="45.08913" lon="-0.62252">
        <ele>35.6</ele>
        <time>2024-11-24T09:36:40Z</time>
      </trkpt>
      <trkpt lat="45.08904" lon="-0.62245">
        <ele>36.3</ele>
        <time>2024-11-24T09:36:41Z</time>
      </trkpt>
      <trkpt lat="45.08902" lon="-0.62244">
        <ele>36.3</ele>
        <time>2024-11-24T09:36:42Z</time>
      </trkpt>
      <trkpt lat="45.08901" lon="-0.62243">
        <ele>36.4</ele>
        <time>2024-11-24T09:36:43Z</time>
      </trkpt>
      <trkpt lat="45.089" lon="-0.62243">
        <ele>36.5</ele>
        <time>2024-11-24T09:36:44Z</time>
      </trkpt>
      <trkpt lat="45.08899" lon="-0.62243">
        <ele>36.5</ele>
        <time>2024-11-24T09:36:45Z</time>
      </trkpt>
      <trkpt lat="45.08898" lon="-0.62242">
        <ele>36.6</ele>
        <time>2024-11-24T09:36:46Z</time>
      </trkpt>
      <trkpt lat="45.08896" lon="-0.62241">
        <ele>36.7</ele>
        <time>2024-11-24T09:36:47Z</time>
      </trkpt>
      <trkpt lat="45.08895" lon="-0.6224">
        <ele>36.8</ele>
        <time>2024-11-24T09:36:48Z</time>
      </trkpt>
      <trkpt lat="45.08894" lon="-0.62239">
        <ele>36.9</ele>
        <time>2024-11-24T09:36:49Z</time>
      </trkpt>
      <trkpt lat="45.08892" lon="-0.62238">
        <ele>36.9</ele>
        <time>2024-11-24T09:36:50Z</time>
      </trkpt>
      <trkpt lat="45.08891" lon="-0.62237">
        <ele>37</ele>
        <time>2024-11-24T09:36:51Z</time>
      </trkpt>
      <trkpt lat="45.0889" lon="-0.62236">
        <ele>37</ele>
        <time>2024-11-24T09:36:52Z</time>
      </trkpt>
      <trkpt lat="45.08889" lon="-0.62235">
        <ele>37</ele>
        <time>2024-11-24T09:36:53Z</time>
      </trkpt>
      <trkpt lat="45.08889" lon="-0.62234">
        <ele>37</ele>
        <time>2024-11-24T09:36:54Z</time>
      </trkpt>
      <trkpt lat="45.08832" lon="-0.62175">
        <ele>35.4</ele>
        <time>2024-11-24T09:37:42Z</time>
      </trkpt>
      <trkpt lat="45.0883" lon="-0.62175">
        <ele>35.3</ele>
        <time>2024-11-24T09:37:43Z</time>
      </trkpt>
      <trkpt lat="45.08828" lon="-0.62175">
        <ele>35.3</ele>
        <time>2024-11-24T09:37:44Z</time>
      </trkpt>
      <trkpt lat="45.08827" lon="-0.62175">
        <ele>35.3</ele>
        <time>2024-11-24T09:37:45Z</time>
      </trkpt>
      <trkpt lat="45.08825" lon="-0.62175">
        <ele>35.3</ele>
        <time>2024-11-24T09:37:46Z</time>
      </trkpt>
      <trkpt lat="45.08824" lon="-0.62175">
        <ele>35.2</ele>
        <time>2024-11-24T09:37:47Z</time>
      </trkpt>
      <trkpt lat="45.08822" lon="-0.62175">
        <ele>35.2</ele>
        <time>2024-11-24T09:37:48Z</time>
      </trkpt>
      <trkpt lat="45.08821" lon="-0.62174">
        <ele>35.2</ele>
        <time>2024-11-24T09:37:49Z</time>
      </trkpt>
      <trkpt lat="45.08819" lon="-0.62174">
        <ele>35.2</ele>
        <time>2024-11-24T09:37:50Z</time>
      </trkpt>
      <trkpt lat="45.08818" lon="-0.62173">
        <ele>35.2</ele>
        <time>2024-11-24T09:37:51Z</time>
      </trkpt>
      <trkpt lat="45.08816" lon="-0.62173">
        <ele>35.2</ele>
        <time>2024-11-24T09:37:52Z</time>
      </trkpt>
      <trkpt lat="45.08815" lon="-0.62173">
        <ele>35.2</ele>
        <time>2024-11-24T09:37:53Z</time>
      </trkpt>
      <trkpt lat="45.08809" lon="-0.62173">
        <ele>35.2</ele>
        <time>2024-11-24T09:37:54Z</time>
      </trkpt>
      <trkpt lat="45.08806" lon="-0.62172">
        <ele>35.2</ele>
        <time>2024-11-24T09:38:02Z</time>
      </trkpt>
      <trkpt lat="45.08802" lon="-0.62171">
        <ele>35.2</ele>
        <time>2024-11-24T09:38:03Z</time>
      </trkpt>
      <trkpt lat="45.08798" lon="-0.62171">
        <ele>35.2</ele>
        <time>2024-11-24T09:38:04Z</time>
      </trkpt>
      <trkpt lat="45.08797" lon="-0.62171">
        <ele>35.2</ele>
        <time>2024-11-24T09:38:05Z</time>
      </trkpt>
      <trkpt lat="45.08795" lon="-0.62171">
        <ele>35.3</ele>
        <time>2024-11-24T09:38:06Z</time>
      </trkpt>
      <trkpt lat="45.08794" lon="-0.62172">
        <ele>35.3</ele>
        <time>2024-11-24T09:38:07Z</time>
      </trkpt>
      <trkpt lat="45.08792" lon="-0.62171">
        <ele>35.3</ele>
        <time>2024-11-24T09:38:08Z</time>
      </trkpt>
      <trkpt lat="45.0878" lon="-0.6217">
        <ele>35.5</ele>
        <time>2024-11-24T09:38:09Z</time>
      </trkpt>
      <trkpt lat="45.08769" lon="-0.62169">
        <ele>35.8</ele>
        <time>2024-11-24T09:38:41Z</time>
      </trkpt>
      <trkpt lat="45.08759" lon="-0.62168">
        <ele>36.1</ele>
        <time>2024-11-24T09:38:42Z</time>
      </trkpt>
      <trkpt lat="45.08748" lon="-0.62168">
        <ele>36.5</ele>
        <time>2024-11-24T09:38:43Z</time>
      </trkpt>
      <trkpt lat="45.08738" lon="-0.62167">
        <ele>37</ele>
        <time>2024-11-24T09:38:44Z</time>
      </trkpt>
      <trkpt lat="45.08736" lon="-0.62167">
        <ele>37</ele>
        <time>2024-11-24T09:38:45Z</time>
      </trkpt>
      <trkpt lat="45.08735" lon="-0.62167">
        <ele>37.1</ele>
        <time>2024-11-24T09:38:46Z</time>
      </trkpt>
      <trkpt lat="45.08733" lon="-0.62166">
        <ele>37.2</ele>
        <time>2024-11-24T09:38:47Z</time>
      </trkpt>
      <trkpt lat="45.08732" lon="-0.62166">
        <ele>37.3</ele>
        <time>2024-11-24T09:38:48Z</time>
      </trkpt>
      <trkpt lat="45.0873" lon="-0.62166">
        <ele>37.4</ele>
        <time>2024-11-24T09:38:49Z</time>
      </trkpt>
      <trkpt lat="45.08729" lon="-0.62166">
        <ele>37.4</ele>
        <time>2024-11-24T09:38:50Z</time>
      </trkpt>
      <trkpt lat="45.08727" lon="-0.62166">
        <ele>37.5</ele>
        <time>2024-11-24T09:38:51Z</time>
      </trkpt>
      <trkpt lat="45.08725" lon="-0.62166">
        <ele>37.6</ele>
        <time>2024-11-24T09:38:52Z</time>
      </trkpt>
      <trkpt lat="45.08724" lon="-0.62165">
        <ele>37.7</ele>
        <time>2024-11-24T09:38:53Z</time>
      </trkpt>
      <trkpt lat="45.08722" lon="-0.62165">
        <ele>37.8</ele>
        <time>2024-11-24T09:38:54Z</time>
      </trkpt>
      <trkpt lat="45.08671" lon="-0.62163">
        <ele>40.7</ele>
        <time>2024-11-24T09:39:32Z</time>
      </trkpt>
      <trkpt lat="45.08668" lon="-0.62162">
        <ele>40.8</ele>
        <time>2024-11-24T09:39:33Z</time>
      </trkpt>
      <trkpt lat="45.08665" lon="-0.62162">
        <ele>40.9</ele>
        <time>2024-11-24T09:39:34Z</time>
      </trkpt>
      <trkpt lat="45.08662" lon="-0.62162">
        <ele>41.1</ele>
        <time>2024-11-24T09:39:35Z</time>
      </trkpt>
      <trkpt lat="45.08661" lon="-0.62162">
        <ele>41.1</ele>
        <time>2024-11-24T09:39:36Z</time>
      </trkpt>
      <trkpt lat="45.08659" lon="-0.62161">
        <ele>41.2</ele>
        <time>2024-11-24T09:39:37Z</time>
      </trkpt>
      <trkpt lat="45.08658" lon="-0.62161">
        <ele>41.2</ele>
        <time>2024-11-24T09:39:38Z</time>
      </trkpt>
      <trkpt lat="45.08656" lon="-0.62161">
        <ele>41.3</ele>
        <time>2024-11-24T09:39:39Z</time>
      </trkpt>
      <trkpt lat="45.08584" lon="-0.62151">
        <ele>43.6</ele>
        <time>2024-11-24T09:40:27Z</time>
      </trkpt>
      <trkpt lat="45.08583" lon="-0.62151">
        <ele>43.6</ele>
        <time>2024-11-24T09:40:28Z</time>
      </trkpt>
      <trkpt lat="45.08582" lon="-0.62151">
        <ele>43.6</ele>
        <time>2024-11-24T09:40:29Z</time>
      </trkpt>
      <trkpt lat="45.08581" lon="-0.62151">
        <ele>43.6</ele>
        <time>2024-11-24T09:40:30Z</time>
      </trkpt>
      <trkpt lat="45.0858" lon="-0.6215">
        <ele>43.6</ele>
        <time>2024-11-24T09:40:31Z</time>
      </trkpt>
      <trkpt lat="45.08578" lon="-0.6215">
        <ele>43.7</ele>
        <time>2024-11-24T09:40:32Z</time>
      </trkpt>
      <trkpt lat="45.08576" lon="-0.62149">
        <ele>43.7</ele>
        <time>2024-11-24T09:40:33Z</time>
      </trkpt>
      <trkpt lat="45.08575" lon="-0.62149">
        <ele>43.7</ele>
        <time>2024-11-24T09:40:34Z</time>
      </trkpt>
      <trkpt lat="45.08574" lon="-0.62149">
        <ele>43.7</ele>
        <time>2024-11-24T09:40:35Z</time>
      </trkpt>
      <trkpt lat="45.08573" lon="-0.62149">
        <ele>43.7</ele>
        <time>2024-11-24T09:40:36Z</time>
      </trkpt>
      <trkpt lat="45.08571" lon="-0.62149">
        <ele>43.7</ele>
        <time>2024-11-24T09:40:37Z</time>
      </trkpt>
      <trkpt lat="45.08569" lon="-0.62149">
        <ele>43.7</ele>
        <time>2024-11-24T09:40:38Z</time>
      </trkpt>
      <trkpt lat="45.08568" lon="-0.62149">
        <ele>43.7</ele>
        <time>2024-11-24T09:40:39Z</time>
      </trkpt>
      <trkpt lat="45.08502" lon="-0.62138">
        <ele>43.7</ele>
        <time>2024-11-24T09:41:20Z</time>
      </trkpt>
      <trkpt lat="45.08501" lon="-0.62137">
        <ele>43.7</ele>
        <time>2024-11-24T09:41:21Z</time>
      </trkpt>
      <trkpt lat="45.085" lon="-0.62137">
        <ele>43.7</ele>
        <time>2024-11-24T09:41:22Z</time>
      </trkpt>
      <trkpt lat="45.08498" lon="-0.62137">
        <ele>43.7</ele>
        <time>2024-11-24T09:41:23Z</time>
      </trkpt>
      <trkpt lat="45.08497" lon="-0.62136">
        <ele>43.7</ele>
        <time>2024-11-24T09:41:24Z</time>
      </trkpt>
      <trkpt lat="45.08495" lon="-0.62136">
        <ele>43.7</ele>
        <time>2024-11-24T09:41:25Z</time>
      </trkpt>
      <trkpt lat="45.08445" lon="-0.62128">
        <ele>43.1</ele>
        <time>2024-11-24T09:41:56Z</time>
      </trkpt>
      <trkpt lat="45.08444" lon="-0.62128">
        <ele>43</ele>
        <time>2024-11-24T09:41:57Z</time>
      </trkpt>
      <trkpt lat="45.08443" lon="-0.62128">
        <ele>43</ele>
        <time>2024-11-24T09:41:58Z</time>
      </trkpt>
      <trkpt lat="45.08442" lon="-0.62127">
        <ele>43</ele>
        <time>2024-11-24T09:41:59Z</time>
      </trkpt>
      <trkpt lat="45.0844" lon="-0.62127">
        <ele>43</ele>
        <time>2024-11-24T09:42:00Z</time>
      </trkpt>
      <trkpt lat="45.08439" lon="-0.62127">
        <ele>43</ele>
        <time>2024-11-24T09:42:01Z</time>
      </trkpt>
      <trkpt lat="45.08438" lon="-0.62127">
        <ele>43</ele>
        <time>2024-11-24T09:42:02Z</time>
      </trkpt>
      <trkpt lat="45.08436" lon="-0.62127">
        <ele>42.9</ele>
        <time>2024-11-24T09:42:03Z</time>
      </trkpt>
      <trkpt lat="45.08435" lon="-0.62127">
        <ele>42.9</ele>
        <time>2024-11-24T09:42:04Z</time>
      </trkpt>
      <trkpt lat="45.08433" lon="-0.62127">
        <ele>42.9</ele>
        <time>2024-11-24T09:42:05Z</time>
      </trkpt>
      <trkpt lat="45.08432" lon="-0.62127">
        <ele>42.9</ele>
        <time>2024-11-24T09:42:06Z</time>
      </trkpt>
      <trkpt lat="45.0843" lon="-0.62128">
        <ele>42.8</ele>
        <time>2024-11-24T09:42:07Z</time>
      </trkpt>
      <trkpt lat="45.08429" lon="-0.62129">
        <ele>42.8</ele>
        <time>2024-11-24T09:42:08Z</time>
      </trkpt>
      <trkpt lat="45.08428" lon="-0.6213">
        <ele>42.7</ele>
        <time>2024-11-24T09:42:09Z</time>
      </trkpt>
      <trkpt lat="45.08424" lon="-0.62145">
        <ele>42.3</ele>
        <time>2024-11-24T09:42:10Z</time>
      </trkpt>
      <trkpt lat="45.08422" lon="-0.62159">
        <ele>41.9</ele>
        <time>2024-11-24T09:42:39Z</time>
      </trkpt>
      <trkpt lat="45.08419" lon="-0.62172">
        <ele>41.5</ele>
        <time>2024-11-24T09:42:40Z</time>
      </trkpt>
      <trkpt lat="45.08417" lon="-0.62185">
        <ele>41.1</ele>
        <time>2024-11-24T09:42:41Z</time>
      </trkpt>
      <trkpt lat="45.08414" lon="-0.62199">
        <ele>40.6</ele>
        <time>2024-11-24T09:42:42Z</time>
      </trkpt>
      <trkpt lat="45.08414" lon="-0.62201">
        <ele>40.6</ele>
        <time>2024-11-24T09:42:43Z</time>
      </trkpt>
      <trkpt lat="45.08414" lon="-0.62204">
        <ele>40.5</ele>
        <time>2024-11-24T09:42:44Z</time>
      </trkpt>
      <trkpt lat="45.08414" lon="-0.62206">
        <ele>40.4</ele>
        <time>2024-11-24T09:42:45Z</time>
      </trkpt>
      <trkpt lat="45.08414" lon="-0.62208">
        <ele>40.4</ele>
        <time>2024-11-24T09:42:46Z</time>
      </trkpt>
      <trkpt lat="45.08413" lon="-0.62212">
        <ele>40.3</ele>
        <time>2024-11-24T09:42:47Z</time>
      </trkpt>
      <trkpt lat="45.08413" lon="-0.62213">
        <ele>40.2</ele>
        <time>2024-11-24T09:42:48Z</time>
      </trkpt>
      <trkpt lat="45.08413" lon="-0.62214">
        <ele>40.2</ele>
        <time>2024-11-24T09:42:49Z</time>
      </trkpt>
      <trkpt lat="45.08413" lon="-0.62217">
        <ele>40.1</ele>
        <time>2024-11-24T09:42:50Z</time>
      </trkpt>
      <trkpt lat="45.08413" lon="-0.62219">
        <ele>40</ele>
        <time>2024-11-24T09:42:51Z</time>
      </trkpt>
      <trkpt lat="45.08412" lon="-0.62221">
        <ele>40</ele>
        <time>2024-11-24T09:42:52Z</time>
      </trkpt>
      <trkpt lat="45.08412" lon="-0.62223">
        <ele>39.9</ele>
        <time>2024-11-24T09:42:53Z</time>
      </trkpt>
      <trkpt lat="45.08411" lon="-0.62237">
        <ele>39.5</ele>
        <time>2024-11-24T09:42:54Z</time>
      </trkpt>
      <trkpt lat="45.0841" lon="-0.62249">
        <ele>39.2</ele>
        <time>2024-11-24T09:42:55Z</time>
      </trkpt>
      <trkpt lat="45.08409" lon="-0.62261">
        <ele>38.7</ele>
        <time>2024-11-24T09:43:26Z</time>
      </trkpt>
      <trkpt lat="45.08408" lon="-0.62272">
        <ele>38.3</ele>
        <time>2024-11-24T09:43:27Z</time>
      </trkpt>
      <trkpt lat="45.08407" lon="-0.62284">
        <ele>37.9</ele>
        <time>2024-11-24T09:43:28Z</time>
      </trkpt>
      <trkpt lat="45.08406" lon="-0.62296">
        <ele>37.5</ele>
        <time>2024-11-24T09:43:29Z</time>
      </trkpt>
      <trkpt lat="45.08406" lon="-0.62298">
        <ele>37.4</ele>
        <time>2024-11-24T09:43:30Z</time>
      </trkpt>
      <trkpt lat="45.08405" lon="-0.623">
        <ele>37.3</ele>
        <time>2024-11-24T09:43:31Z</time>
      </trkpt>
      <trkpt lat="45.08405" lon="-0.62303">
        <ele>37.2</ele>
        <time>2024-11-24T09:43:32Z</time>
      </trkpt>
      <trkpt lat="45.08405" lon="-0.62305">
        <ele>37.1</ele>
        <time>2024-11-24T09:43:33Z</time>
      </trkpt>
      <trkpt lat="45.08405" lon="-0.62306">
        <ele>37.1</ele>
        <time>2024-11-24T09:43:34Z</time>
      </trkpt>
      <trkpt lat="45.08405" lon="-0.62309">
        <ele>37</ele>
        <time>2024-11-24T09:43:35Z</time>
      </trkpt>
      <trkpt lat="45.08405" lon="-0.62311">
        <ele>36.9</ele>
        <time>2024-11-24T09:43:36Z</time>
      </trkpt>
      <trkpt lat="45.08405" lon="-0.62313">
        <ele>36.8</ele>
        <time>2024-11-24T09:43:37Z</time>
      </trkpt>
      <trkpt lat="45.08405" lon="-0.62315">
        <ele>36.8</ele>
        <time>2024-11-24T09:43:38Z</time>
      </trkpt>
      <trkpt lat="45.08405" lon="-0.62316">
        <ele>36.7</ele>
        <time>2024-11-24T09:43:39Z</time>
      </trkpt>
      <trkpt lat="45.08405" lon="-0.62317">
        <ele>36.7</ele>
        <time>2024-11-24T09:43:40Z</time>
      </trkpt>
      <trkpt lat="45.08381" lon="-0.62312">
        <ele>37.5</ele>
        <time>2024-11-24T09:44:06Z</time>
      </trkpt>
      <trkpt lat="45.08381" lon="-0.62311">
        <ele>37.5</ele>
        <time>2024-11-24T09:44:07Z</time>
      </trkpt>
      <trkpt lat="45.0838" lon="-0.6231">
        <ele>37.6</ele>
        <time>2024-11-24T09:44:08Z</time>
      </trkpt>
      <trkpt lat="45.08379" lon="-0.62309">
        <ele>37.7</ele>
        <time>2024-11-24T09:44:09Z</time>
      </trkpt>
      <trkpt lat="45.08378" lon="-0.62307">
        <ele>37.7</ele>
        <time>2024-11-24T09:44:10Z</time>
      </trkpt>
      <trkpt lat="45.08346" lon="-0.62285">
        <ele>38</ele>
        <time>2024-11-24T09:44:35Z</time>
      </trkpt>
      <trkpt lat="45.08344" lon="-0.62285">
        <ele>38</ele>
        <time>2024-11-24T09:44:36Z</time>
      </trkpt>
      <trkpt lat="45.08343" lon="-0.62285">
        <ele>38</ele>
        <time>2024-11-24T09:44:37Z</time>
      </trkpt>
      <trkpt lat="45.08342" lon="-0.62285">
        <ele>37.9</ele>
        <time>2024-11-24T09:44:38Z</time>
      </trkpt>
      <trkpt lat="45.08341" lon="-0.62285">
        <ele>37.9</ele>
        <time>2024-11-24T09:44:39Z</time>
      </trkpt>
      <trkpt lat="45.0834" lon="-0.62285">
        <ele>37.8</ele>
        <time>2024-11-24T09:44:40Z</time>
      </trkpt>
      <trkpt lat="45.08318" lon="-0.62286">
        <ele>36.7</ele>
        <time>2024-11-24T09:45:11Z</time>
      </trkpt>
      <trkpt lat="45.08307" lon="-0.62286">
        <ele>36.1</ele>
        <time>2024-11-24T09:45:12Z</time>
      </trkpt>
      <trkpt lat="45.08297" lon="-0.62285">
        <ele>35.5</ele>
        <time>2024-11-24T09:45:13Z</time>
      </trkpt>
      <trkpt lat="45.08287" lon="-0.62285">
        <ele>34.9</ele>
        <time>2024-11-24T09:45:14Z</time>
      </trkpt>
      <trkpt lat="45.08285" lon="-0.62285">
        <ele>34.8</ele>
        <time>2024-11-24T09:45:15Z</time>
      </trkpt>
      <trkpt lat="45.08284" lon="-0.62285">
        <ele>34.8</ele>
        <time>2024-11-24T09:45:16Z</time>
      </trkpt>
      <trkpt lat="45.08282" lon="-0.62285">
        <ele>34.7</ele>
        <time>2024-11-24T09:45:17Z</time>
      </trkpt>
      <trkpt lat="45.08281" lon="-0.62285">
        <ele>34.6</ele>
        <time>2024-11-24T09:45:18Z</time>
      </trkpt>
      <trkpt lat="45.08279" lon="-0.62285">
        <ele>34.5</ele>
        <time>2024-11-24T09:45:19Z</time>
      </trkpt>
      <trkpt lat="45.08277" lon="-0.62284">
        <ele>34.4</ele>
        <time>2024-11-24T09:45:20Z</time>
      </trkpt>
      <trkpt lat="45.08276" lon="-0.62285">
        <ele>34.3</ele>
        <time>2024-11-24T09:45:21Z</time>
      </trkpt>
      <trkpt lat="45.08274" lon="-0.62285">
        <ele>34.3</ele>
        <time>2024-11-24T09:45:22Z</time>
      </trkpt>
      <trkpt lat="45.08273" lon="-0.62285">
        <ele>34.2</ele>
        <time>2024-11-24T09:45:23Z</time>
      </trkpt>
      <trkpt lat="45.08271" lon="-0.62285">
        <ele>34.1</ele>
        <time>2024-11-24T09:45:24Z</time>
      </trkpt>
      <trkpt lat="45.08262" lon="-0.62282">
        <ele>33.6</ele>
        <time>2024-11-24T09:45:25Z</time>
      </trkpt>
      <trkpt lat="45.08253" lon="-0.6228">
        <ele>33.1</ele>
        <time>2024-11-24T09:45:50Z</time>
      </trkpt>
      <trkpt lat="45.08245" lon="-0.62278">
        <ele>32.8</ele>
        <time>2024-11-24T09:45:51Z</time>
      </trkpt>
      <trkpt lat="45.08237" lon="-0.62276">
        <ele>32.8</ele>
        <time>2024-11-24T09:45:52Z</time>
      </trkpt>
      <trkpt lat="45.08229" lon="-0.62273">
        <ele>32.7</ele>
        <time>2024-11-24T09:45:53Z</time>
      </trkpt>
      <trkpt lat="45.08227" lon="-0.62273">
        <ele>32.7</ele>
        <time>2024-11-24T09:45:54Z</time>
      </trkpt>
      <trkpt lat="45.08226" lon="-0.62273">
        <ele>32.7</ele>
        <time>2024-11-24T09:45:55Z</time>
      </trkpt>
      <trkpt lat="45.0818" lon="-0.62248">
        <ele>32.3</ele>
        <time>2024-11-24T09:46:26Z</time>
      </trkpt>
      <trkpt lat="45.08179" lon="-0.62248">
        <ele>32.4</ele>
        <time>2024-11-24T09:46:27Z</time>
      </trkpt>
      <trkpt lat="45.08178" lon="-0.62247">
        <ele>32.4</ele>
        <time>2024-11-24T09:46:28Z</time>
      </trkpt>
      <trkpt lat="45.08177" lon="-0.62247">
        <ele>32.4</ele>
        <time>2024-11-24T09:46:29Z</time>
      </trkpt>
      <trkpt lat="45.08175" lon="-0.62247">
        <ele>32.4</ele>
        <time>2024-11-24T09:46:30Z</time>
      </trkpt>
      <trkpt lat="45.08174" lon="-0.62246">
        <ele>32.4</ele>
        <time>2024-11-24T09:46:31Z</time>
      </trkpt>
      <trkpt lat="45.08172" lon="-0.62245">
        <ele>32.4</ele>
        <time>2024-11-24T09:46:32Z</time>
      </trkpt>
      <trkpt lat="45.08171" lon="-0.62245">
        <ele>32.5</ele>
        <time>2024-11-24T09:46:33Z</time>
      </trkpt>
      <trkpt lat="45.08169" lon="-0.62245">
        <ele>32.5</ele>
        <time>2024-11-24T09:46:34Z</time>
      </trkpt>
      <trkpt lat="45.08168" lon="-0.62244">
        <ele>32.5</ele>
        <time>2024-11-24T09:46:35Z</time>
      </trkpt>
      <trkpt lat="45.08167" lon="-0.62244">
        <ele>32.5</ele>
        <time>2024-11-24T09:46:36Z</time>
      </trkpt>
      <trkpt lat="45.08165" lon="-0.62244">
        <ele>32.6</ele>
        <time>2024-11-24T09:46:37Z</time>
      </trkpt>
      <trkpt lat="45.08163" lon="-0.62244">
        <ele>32.6</ele>
        <time>2024-11-24T09:46:38Z</time>
      </trkpt>
      <trkpt lat="45.08162" lon="-0.62243">
        <ele>32.6</ele>
        <time>2024-11-24T09:46:39Z</time>
      </trkpt>
      <trkpt lat="45.08151" lon="-0.62241">
        <ele>32.9</ele>
        <time>2024-11-24T09:46:40Z</time>
      </trkpt>
      <trkpt lat="45.08141" lon="-0.62238">
        <ele>33.2</ele>
        <time>2024-11-24T09:47:09Z</time>
      </trkpt>
      <trkpt lat="45.08131" lon="-0.62236">
        <ele>33.5</ele>
        <time>2024-11-24T09:47:10Z</time>
      </trkpt>
      <trkpt lat="45.08122" lon="-0.62233">
        <ele>33.9</ele>
        <time>2024-11-24T09:47:11Z</time>
      </trkpt>
      <trkpt lat="45.08112" lon="-0.62231">
        <ele>34.4</ele>
        <time>2024-11-24T09:47:12Z</time>
      </trkpt>
      <trkpt lat="45.08111" lon="-0.62231">
        <ele>34.4</ele>
        <time>2024-11-24T09:47:13Z</time>
      </trkpt>
      <trkpt lat="45.08109" lon="-0.6223">
        <ele>34.5</ele>
        <time>2024-11-24T09:47:14Z</time>
      </trkpt>
      <trkpt lat="45.08108" lon="-0.6223">
        <ele>34.6</ele>
        <time>2024-11-24T09:47:15Z</time>
      </trkpt>
      <trkpt lat="45.08106" lon="-0.6223">
        <ele>34.7</ele>
        <time>2024-11-24T09:47:16Z</time>
      </trkpt>
      <trkpt lat="45.08104" lon="-0.6223">
        <ele>34.8</ele>
        <time>2024-11-24T09:47:17Z</time>
      </trkpt>
      <trkpt lat="45.08103" lon="-0.6223">
        <ele>34.8</ele>
        <time>2024-11-24T09:47:18Z</time>
      </trkpt>
      <trkpt lat="45.08102" lon="-0.6223">
        <ele>34.9</ele>
        <time>2024-11-24T09:47:19Z</time>
      </trkpt>
      <trkpt lat="45.08101" lon="-0.6223">
        <ele>35</ele>
        <time>2024-11-24T09:47:20Z</time>
      </trkpt>
      <trkpt lat="45.08099" lon="-0.6223">
        <ele>35.1</ele>
        <time>2024-11-24T09:47:21Z</time>
      </trkpt>
      <trkpt lat="45.08098" lon="-0.62229">
        <ele>35.2</ele>
        <time>2024-11-24T09:47:22Z</time>
      </trkpt>
      <trkpt lat="45.08096" lon="-0.62229">
        <ele>35.2</ele>
        <time>2024-11-24T09:47:23Z</time>
      </trkpt>
      <trkpt lat="45.08095" lon="-0.62229">
        <ele>35.4</ele>
        <time>2024-11-24T09:47:24Z</time>
      </trkpt>
      <trkpt lat="45.08093" lon="-0.62229">
        <ele>35.4</ele>
        <time>2024-11-24T09:47:25Z</time>
      </trkpt>
      <trkpt lat="45.08092" lon="-0.62229">
        <ele>35.5</ele>
        <time>2024-11-24T09:47:26Z</time>
      </trkpt>
      <trkpt lat="45.0809" lon="-0.62229">
        <ele>35.6</ele>
        <time>2024-11-24T09:47:27Z</time>
      </trkpt>
      <trkpt lat="45.08088" lon="-0.6223">
        <ele>35.8</ele>
        <time>2024-11-24T09:47:28Z</time>
      </trkpt>
      <trkpt lat="45.08087" lon="-0.6223">
        <ele>35.8</ele>
        <time>2024-11-24T09:47:29Z</time>
      </trkpt>
      <trkpt lat="45.08087" lon="-0.6223">
        <ele>35.9</ele>
        <time>2024-11-24T09:47:30Z</time>
      </trkpt>
      <trkpt lat="45.08085" lon="-0.62231">
        <ele>35.9</ele>
        <time>2024-11-24T09:47:31Z</time>
      </trkpt>
      <trkpt lat="45.08084" lon="-0.62231">
        <ele>36</ele>
        <time>2024-11-24T09:47:32Z</time>
      </trkpt>
      <trkpt lat="45.08082" lon="-0.62232">
        <ele>36.1</ele>
        <time>2024-11-24T09:47:33Z</time>
      </trkpt>
      <trkpt lat="45.08081" lon="-0.62232">
        <ele>36.2</ele>
        <time>2024-11-24T09:47:34Z</time>
      </trkpt>
      <trkpt lat="45.08079" lon="-0.62232">
        <ele>36.3</ele>
        <time>2024-11-24T09:47:35Z</time>
      </trkpt>
      <trkpt lat="45.08078" lon="-0.62232">
        <ele>36.4</ele>
        <time>2024-11-24T09:47:36Z</time>
      </trkpt>
      <trkpt lat="45.08077" lon="-0.62232">
        <ele>36.4</ele>
        <time>2024-11-24T09:47:37Z</time>
      </trkpt>
      <trkpt lat="45.08075" lon="-0.62233">
        <ele>36.5</ele>
        <time>2024-11-24T09:47:38Z</time>
      </trkpt>
      <trkpt lat="45.08074" lon="-0.62233">
        <ele>36.6</ele>
        <time>2024-11-24T09:47:39Z</time>
      </trkpt>
      <trkpt lat="45.08073" lon="-0.62234">
        <ele>36.7</ele>
        <time>2024-11-24T09:47:40Z</time>
      </trkpt>
      <trkpt lat="45.08071" lon="-0.62234">
        <ele>36.8</ele>
        <time>2024-11-24T09:47:41Z</time>
      </trkpt>
      <trkpt lat="45.0807" lon="-0.62235">
        <ele>36.9</ele>
        <time>2024-11-24T09:47:42Z</time>
      </trkpt>
      <trkpt lat="45.08069" lon="-0.62235">
        <ele>37</ele>
        <time>2024-11-24T09:47:43Z</time>
      </trkpt>
      <trkpt lat="45.08067" lon="-0.62236">
        <ele>37.1</ele>
        <time>2024-11-24T09:47:44Z</time>
      </trkpt>
      <trkpt lat="45.08066" lon="-0.62236">
        <ele>37.1</ele>
        <time>2024-11-24T09:47:45Z</time>
      </trkpt>
      <trkpt lat="45.08064" lon="-0.62236">
        <ele>37.2</ele>
        <time>2024-11-24T09:47:46Z</time>
      </trkpt>
      <trkpt lat="45.08062" lon="-0.62236">
        <ele>37.3</ele>
        <time>2024-11-24T09:47:47Z</time>
      </trkpt>
      <trkpt lat="45.0806" lon="-0.62236">
        <ele>37.5</ele>
        <time>2024-11-24T09:47:48Z</time>
      </trkpt>
      <trkpt lat="45.08059" lon="-0.62236">
        <ele>37.5</ele>
        <time>2024-11-24T09:47:49Z</time>
      </trkpt>
      <trkpt lat="45.08057" lon="-0.62236">
        <ele>37.6</ele>
        <time>2024-11-24T09:47:50Z</time>
      </trkpt>
      <trkpt lat="45.08055" lon="-0.62235">
        <ele>37.7</ele>
        <time>2024-11-24T09:47:51Z</time>
      </trkpt>
      <trkpt lat="45.08054" lon="-0.62235">
        <ele>37.8</ele>
        <time>2024-11-24T09:47:52Z</time>
      </trkpt>
      <trkpt lat="45.08053" lon="-0.62234">
        <ele>37.9</ele>
        <time>2024-11-24T09:47:53Z</time>
      </trkpt>
      <trkpt lat="45.08051" lon="-0.62233">
        <ele>38</ele>
        <time>2024-11-24T09:47:54Z</time>
      </trkpt>
      <trkpt lat="45.0805" lon="-0.62233">
        <ele>38.1</ele>
        <time>2024-11-24T09:47:55Z</time>
      </trkpt>
      <trkpt lat="45.08048" lon="-0.62232">
        <ele>38.2</ele>
        <time>2024-11-24T09:47:56Z</time>
      </trkpt>
      <trkpt lat="45.08047" lon="-0.62231">
        <ele>38.2</ele>
        <time>2024-11-24T09:47:57Z</time>
      </trkpt>
      <trkpt lat="45.08046" lon="-0.62231">
        <ele>38.3</ele>
        <time>2024-11-24T09:47:58Z</time>
      </trkpt>
      <trkpt lat="45.08045" lon="-0.62231">
        <ele>38.4</ele>
        <time>2024-11-24T09:47:59Z</time>
      </trkpt>
      <trkpt lat="45.08043" lon="-0.6223">
        <ele>38.4</ele>
        <time>2024-11-24T09:48:00Z</time>
      </trkpt>
      <trkpt lat="45.08042" lon="-0.62229">
        <ele>38.5</ele>
        <time>2024-11-24T09:48:01Z</time>
      </trkpt>
      <trkpt lat="45.08041" lon="-0.62228">
        <ele>38.6</ele>
        <time>2024-11-24T09:48:02Z</time>
      </trkpt>
      <trkpt lat="45.08039" lon="-0.62227">
        <ele>38.7</ele>
        <time>2024-11-24T09:48:03Z</time>
      </trkpt>
      <trkpt lat="45.08038" lon="-0.62226">
        <ele>38.8</ele>
        <time>2024-11-24T09:48:04Z</time>
      </trkpt>
      <trkpt lat="45.08036" lon="-0.62225">
        <ele>38.9</ele>
        <time>2024-11-24T09:48:05Z</time>
      </trkpt>
      <trkpt lat="45.08035" lon="-0.62224">
        <ele>39</ele>
        <time>2024-11-24T09:48:06Z</time>
      </trkpt>
      <trkpt lat="45.08034" lon="-0.62223">
        <ele>39.1</ele>
        <time>2024-11-24T09:48:07Z</time>
      </trkpt>
      <trkpt lat="45.08033" lon="-0.62222">
        <ele>39.2</ele>
        <time>2024-11-24T09:48:08Z</time>
      </trkpt>
      <trkpt lat="45.08031" lon="-0.62221">
        <ele>39.3</ele>
        <time>2024-11-24T09:48:09Z</time>
      </trkpt>
      <trkpt lat="45.0803" lon="-0.6222">
        <ele>39.3</ele>
        <time>2024-11-24T09:48:10Z</time>
      </trkpt>
      <trkpt lat="45.08029" lon="-0.6222">
        <ele>39.4</ele>
        <time>2024-11-24T09:48:11Z</time>
      </trkpt>
      <trkpt lat="45.08027" lon="-0.62219">
        <ele>39.5</ele>
        <time>2024-11-24T09:48:12Z</time>
      </trkpt>
      <trkpt lat="45.08026" lon="-0.62217">
        <ele>39.6</ele>
        <time>2024-11-24T09:48:13Z</time>
      </trkpt>
      <trkpt lat="45.08025" lon="-0.62216">
        <ele>39.7</ele>
        <time>2024-11-24T09:48:14Z</time>
      </trkpt>
      <trkpt lat="45.08023" lon="-0.62215">
        <ele>39.8</ele>
        <time>2024-11-24T09:48:15Z</time>
      </trkpt>
      <trkpt lat="45.08022" lon="-0.62215">
        <ele>39.8</ele>
        <time>2024-11-24T09:48:16Z</time>
      </trkpt>
      <trkpt lat="45.0802" lon="-0.62214">
        <ele>39.9</ele>
        <time>2024-11-24T09:48:17Z</time>
      </trkpt>
      <trkpt lat="45.08019" lon="-0.62213">
        <ele>40</ele>
        <time>2024-11-24T09:48:18Z</time>
      </trkpt>
      <trkpt lat="45.08017" lon="-0.62213">
        <ele>40.1</ele>
        <time>2024-11-24T09:48:19Z</time>
      </trkpt>
      <trkpt lat="45.08016" lon="-0.62212">
        <ele>40.1</ele>
        <time>2024-11-24T09:48:20Z</time>
      </trkpt>
      <trkpt lat="45.08015" lon="-0.62211">
        <ele>40.2</ele>
        <time>2024-11-24T09:48:21Z</time>
      </trkpt>
      <trkpt lat="45.08013" lon="-0.6221">
        <ele>40.2</ele>
        <time>2024-11-24T09:48:22Z</time>
      </trkpt>
      <trkpt lat="45.08012" lon="-0.62209">
        <ele>40.3</ele>
        <time>2024-11-24T09:48:23Z</time>
      </trkpt>
      <trkpt lat="45.08011" lon="-0.62208">
        <ele>40.3</ele>
        <time>2024-11-24T09:48:24Z</time>
      </trkpt>
      <trkpt lat="45.08009" lon="-0.62207">
        <ele>40.4</ele>
        <time>2024-11-24T09:48:25Z</time>
      </trkpt>
      <trkpt lat="45.08008" lon="-0.62207">
        <ele>40.4</ele>
        <time>2024-11-24T09:48:26Z</time>
      </trkpt>
      <trkpt lat="45.08006" lon="-0.62206">
        <ele>40.5</ele>
        <time>2024-11-24T09:48:27Z</time>
      </trkpt>
      <trkpt lat="45.08005" lon="-0.62205">
        <ele>40.5</ele>
        <time>2024-11-24T09:48:28Z</time>
      </trkpt>
      <trkpt lat="45.08004" lon="-0.62204">
        <ele>40.6</ele>
        <time>2024-11-24T09:48:29Z</time>
      </trkpt>
      <trkpt lat="45.08002" lon="-0.62203">
        <ele>40.6</ele>
        <time>2024-11-24T09:48:30Z</time>
      </trkpt>
      <trkpt lat="45.08" lon="-0.62202">
        <ele>40.7</ele>
        <time>2024-11-24T09:48:31Z</time>
      </trkpt>
      <trkpt lat="45.08" lon="-0.62201">
        <ele>40.7</ele>
        <time>2024-11-24T09:48:32Z</time>
      </trkpt>
      <trkpt lat="45.07999" lon="-0.62201">
        <ele>40.7</ele>
        <time>2024-11-24T09:48:33Z</time>
      </trkpt>
      <trkpt lat="45.07934" lon="-0.62107">
        <ele>42.9</ele>
        <time>2024-11-24T09:49:37Z</time>
      </trkpt>
      <trkpt lat="45.07933" lon="-0.62106">
        <ele>43</ele>
        <time>2024-11-24T09:49:38Z</time>
      </trkpt>
      <trkpt lat="45.07932" lon="-0.62105">
        <ele>43.1</ele>
        <time>2024-11-24T09:49:39Z</time>
      </trkpt>
      <trkpt lat="45.07931" lon="-0.62104">
        <ele>43.1</ele>
        <time>2024-11-24T09:49:40Z</time>
      </trkpt>
      <trkpt lat="45.0793" lon="-0.62102">
        <ele>43.1</ele>
        <time>2024-11-24T09:49:41Z</time>
      </trkpt>
      <trkpt lat="45.07929" lon="-0.62102">
        <ele>43.2</ele>
        <time>2024-11-24T09:49:42Z</time>
      </trkpt>
      <trkpt lat="45.07928" lon="-0.621">
        <ele>43.2</ele>
        <time>2024-11-24T09:49:43Z</time>
      </trkpt>
      <trkpt lat="45.07926" lon="-0.621">
        <ele>43.3</ele>
        <time>2024-11-24T09:49:44Z</time>
      </trkpt>
      <trkpt lat="45.07925" lon="-0.62099">
        <ele>43.3</ele>
        <time>2024-11-24T09:49:45Z</time>
      </trkpt>
      <trkpt lat="45.07924" lon="-0.62098">
        <ele>43.4</ele>
        <time>2024-11-24T09:49:46Z</time>
      </trkpt>
      <trkpt lat="45.07923" lon="-0.62096">
        <ele>43.4</ele>
        <time>2024-11-24T09:49:47Z</time>
      </trkpt>
      <trkpt lat="45.07914" lon="-0.6209">
        <ele>43.6</ele>
        <time>2024-11-24T09:49:48Z</time>
      </trkpt>
      <trkpt lat="45.07907" lon="-0.62085">
        <ele>43.7</ele>
        <time>2024-11-24T09:50:12Z</time>
      </trkpt>
      <trkpt lat="45.07899" lon="-0.62079">
        <ele>43.7</ele>
        <time>2024-11-24T09:50:13Z</time>
      </trkpt>
      <trkpt lat="45.07892" lon="-0.62074">
        <ele>43.5</ele>
        <time>2024-11-24T09:50:14Z</time>
      </trkpt>
      <trkpt lat="45.07885" lon="-0.62069">
        <ele>43.3</ele>
        <time>2024-11-24T09:50:15Z</time>
      </trkpt>
      <trkpt lat="45.07883" lon="-0.62067">
        <ele>43.2</ele>
        <time>2024-11-24T09:50:16Z</time>
      </trkpt>
      <trkpt lat="45.07883" lon="-0.62066">
        <ele>43.2</ele>
        <time>2024-11-24T09:50:17Z</time>
      </trkpt>
      <trkpt lat="45.07881" lon="-0.62065">
        <ele>43.2</ele>
        <time>2024-11-24T09:50:18Z</time>
      </trkpt>
      <trkpt lat="45.07899" lon="-0.61907">
        <ele>42.2</ele>
        <time>2024-11-24T09:51:38Z</time>
      </trkpt>
      <trkpt lat="45.07899" lon="-0.61904">
        <ele>42.2</ele>
        <time>2024-11-24T09:51:39Z</time>
      </trkpt>
      <trkpt lat="45.079" lon="-0.61902">
        <ele>42.3</ele>
        <time>2024-11-24T09:51:40Z</time>
      </trkpt>
      <trkpt lat="45.079" lon="-0.61901">
        <ele>42.3</ele>
        <time>2024-11-24T09:51:41Z</time>
      </trkpt>
      <trkpt lat="45.07901" lon="-0.61899">
        <ele>42.3</ele>
        <time>2024-11-24T09:51:42Z</time>
      </trkpt>
      <trkpt lat="45.07901" lon="-0.61897">
        <ele>42.4</ele>
        <time>2024-11-24T09:51:43Z</time>
      </trkpt>
      <trkpt lat="45.07901" lon="-0.61895">
        <ele>42.4</ele>
        <time>2024-11-24T09:51:44Z</time>
      </trkpt>
      <trkpt lat="45.07902" lon="-0.61893">
        <ele>42.5</ele>
        <time>2024-11-24T09:51:45Z</time>
      </trkpt>
      <trkpt lat="45.07903" lon="-0.61891">
        <ele>42.5</ele>
        <time>2024-11-24T09:51:46Z</time>
      </trkpt>
      <trkpt lat="45.07903" lon="-0.61889">
        <ele>42.6</ele>
        <time>2024-11-24T09:51:47Z</time>
      </trkpt>
      <trkpt lat="45.07904" lon="-0.61886">
        <ele>42.7</ele>
        <time>2024-11-24T09:51:48Z</time>
      </trkpt>
      <trkpt lat="45.07924" lon="-0.61783">
        <ele>38.7</ele>
        <time>2024-11-24T09:52:36Z</time>
      </trkpt>
      <trkpt lat="45.07924" lon="-0.61782">
        <ele>38.7</ele>
        <time>2024-11-24T09:52:37Z</time>
      </trkpt>
      <trkpt lat="45.07925" lon="-0.6178">
        <ele>38.6</ele>
        <time>2024-11-24T09:52:38Z</time>
      </trkpt>
      <trkpt lat="45.07926" lon="-0.61779">
        <ele>38.6</ele>
        <time>2024-11-24T09:52:39Z</time>
      </trkpt>
      <trkpt lat="45.07926" lon="-0.61777">
        <ele>38.5</ele>
        <time>2024-11-24T09:52:40Z</time>
      </trkpt>
      <trkpt lat="45.07927" lon="-0.61775">
        <ele>38.4</ele>
        <time>2024-11-24T09:52:41Z</time>
      </trkpt>
      <trkpt lat="45.07927" lon="-0.61772">
        <ele>38.3</ele>
        <time>2024-11-24T09:52:42Z</time>
      </trkpt>
      <trkpt lat="45.07928" lon="-0.6177">
        <ele>38.3</ele>
        <time>2024-11-24T09:52:43Z</time>
      </trkpt>
      <trkpt lat="45.07929" lon="-0.61768">
        <ele>38.2</ele>
        <time>2024-11-24T09:52:44Z</time>
      </trkpt>
      <trkpt lat="45.07929" lon="-0.61766">
        <ele>38.2</ele>
        <time>2024-11-24T09:52:45Z</time>
      </trkpt>
      <trkpt lat="45.07929" lon="-0.61764">
        <ele>38.1</ele>
        <time>2024-11-24T09:52:46Z</time>
      </trkpt>
      <trkpt lat="45.0793" lon="-0.61762">
        <ele>38.1</ele>
        <time>2024-11-24T09:52:47Z</time>
      </trkpt>
      <trkpt lat="45.07922" lon="-0.61747">
        <ele>36.9</ele>
        <time>2024-11-24T09:52:48Z</time>
      </trkpt>
      <trkpt lat="45.07914" lon="-0.61735">
        <ele>36.4</ele>
        <time>2024-11-24T09:53:27Z</time>
      </trkpt>
      <trkpt lat="45.07906" lon="-0.61722">
        <ele>35.4</ele>
        <time>2024-11-24T09:53:28Z</time>
      </trkpt>
      <trkpt lat="45.07897" lon="-0.6171">
        <ele>34.1</ele>
        <time>2024-11-24T09:53:29Z</time>
      </trkpt>
      <trkpt lat="45.07895" lon="-0.61709">
        <ele>33.9</ele>
        <time>2024-11-24T09:53:30Z</time>
      </trkpt>
      <trkpt lat="45.07894" lon="-0.6171">
        <ele>33.8</ele>
        <time>2024-11-24T09:53:31Z</time>
      </trkpt>
      <trkpt lat="45.07892" lon="-0.61709">
        <ele>33.6</ele>
        <time>2024-11-24T09:53:32Z</time>
      </trkpt>
      <trkpt lat="45.07891" lon="-0.61708">
        <ele>33.5</ele>
        <time>2024-11-24T09:53:33Z</time>
      </trkpt>
      <trkpt lat="45.0789" lon="-0.61707">
        <ele>33.4</ele>
        <time>2024-11-24T09:53:34Z</time>
      </trkpt>
      <trkpt lat="45.07818" lon="-0.6166">
        <ele>26.6</ele>
        <time>2024-11-24T09:54:35Z</time>
      </trkpt>
      <trkpt lat="45.07817" lon="-0.61661">
        <ele>26.5</ele>
        <time>2024-11-24T09:54:36Z</time>
      </trkpt>
      <trkpt lat="45.07815" lon="-0.61661">
        <ele>26.4</ele>
        <time>2024-11-24T09:54:37Z</time>
      </trkpt>
      <trkpt lat="45.07814" lon="-0.61661">
        <ele>26.3</ele>
        <time>2024-11-24T09:54:38Z</time>
      </trkpt>
      <trkpt lat="45.07813" lon="-0.61662">
        <ele>26.1</ele>
        <time>2024-11-24T09:54:39Z</time>
      </trkpt>
      <trkpt lat="45.07811" lon="-0.61662">
        <ele>26</ele>
        <time>2024-11-24T09:54:40Z</time>
      </trkpt>
      <trkpt lat="45.0781" lon="-0.61662">
        <ele>25.9</ele>
        <time>2024-11-24T09:54:41Z</time>
      </trkpt>
      <trkpt lat="45.07808" lon="-0.61662">
        <ele>25.7</ele>
        <time>2024-11-24T09:54:42Z</time>
      </trkpt>
      <trkpt lat="45.07807" lon="-0.61662">
        <ele>25.5</ele>
        <time>2024-11-24T09:54:43Z</time>
      </trkpt>
      <trkpt lat="45.07806" lon="-0.61662">
        <ele>25.4</ele>
        <time>2024-11-24T09:54:44Z</time>
      </trkpt>
      <trkpt lat="45.07804" lon="-0.61661">
        <ele>25.2</ele>
        <time>2024-11-24T09:54:45Z</time>
      </trkpt>
      <trkpt lat="45.07802" lon="-0.61661">
        <ele>25</ele>
        <time>2024-11-24T09:54:46Z</time>
      </trkpt>
      <trkpt lat="45.07801" lon="-0.61661">
        <ele>24.9</ele>
        <time>2024-11-24T09:54:47Z</time>
      </trkpt>
      <trkpt lat="45.078" lon="-0.61661">
        <ele>24.7</ele>
        <time>2024-11-24T09:54:48Z</time>
      </trkpt>
      <trkpt lat="45.07787" lon="-0.61666">
        <ele>23.2</ele>
        <time>2024-11-24T09:54:49Z</time>
      </trkpt>
      <trkpt lat="45.07776" lon="-0.61672">
        <ele>21.8</ele>
        <time>2024-11-24T09:55:37Z</time>
      </trkpt>
      <trkpt lat="45.07764" lon="-0.61678">
        <ele>20.3</ele>
        <time>2024-11-24T09:55:38Z</time>
      </trkpt>
      <trkpt lat="45.07753" lon="-0.61684">
        <ele>18.9</ele>
        <time>2024-11-24T09:55:39Z</time>
      </trkpt>
      <trkpt lat="45.07742" lon="-0.61689">
        <ele>17.6</ele>
        <time>2024-11-24T09:55:40Z</time>
      </trkpt>
      <trkpt lat="45.07741" lon="-0.61692">
        <ele>17.4</ele>
        <time>2024-11-24T09:55:41Z</time>
      </trkpt>
      <trkpt lat="45.07741" lon="-0.61694">
        <ele>17.3</ele>
        <time>2024-11-24T09:55:42Z</time>
      </trkpt>
      <trkpt lat="45.0774" lon="-0.61695">
        <ele>17.2</ele>
        <time>2024-11-24T09:55:43Z</time>
      </trkpt>
      <trkpt lat="45.07739" lon="-0.61698">
        <ele>16.9</ele>
        <time>2024-11-24T09:55:44Z</time>
      </trkpt>
      <trkpt lat="45.07739" lon="-0.61699">
        <ele>16.8</ele>
        <time>2024-11-24T09:55:45Z</time>
      </trkpt>
      <trkpt lat="45.07738" lon="-0.617">
        <ele>16.7</ele>
        <time>2024-11-24T09:55:46Z</time>
      </trkpt>
      <trkpt lat="45.07738" lon="-0.61702">
        <ele>16.6</ele>
        <time>2024-11-24T09:55:47Z</time>
      </trkpt>
      <trkpt lat="45.07737" lon="-0.61704">
        <ele>16.4</ele>
        <time>2024-11-24T09:55:48Z</time>
      </trkpt>
      <trkpt lat="45.07725" lon="-0.61711">
        <ele>15.2</ele>
        <time>2024-11-24T09:55:49Z</time>
      </trkpt>
      <trkpt lat="45.07714" lon="-0.61716">
        <ele>14.2</ele>
        <time>2024-11-24T09:56:28Z</time>
      </trkpt>
      <trkpt lat="45.07702" lon="-0.61722">
        <ele>13.5</ele>
        <time>2024-11-24T09:56:29Z</time>
      </trkpt>
      <trkpt lat="45.07691" lon="-0.61727">
        <ele>12.9</ele>
        <time>2024-11-24T09:56:30Z</time>
      </trkpt>
      <trkpt lat="45.07679" lon="-0.61732">
        <ele>12.4</ele>
        <time>2024-11-24T09:56:31Z</time>
      </trkpt>
      <trkpt lat="45.07678" lon="-0.61733">
        <ele>12.3</ele>
        <time>2024-11-24T09:56:32Z</time>
      </trkpt>
      <trkpt lat="45.07676" lon="-0.61734">
        <ele>12.2</ele>
        <time>2024-11-24T09:56:33Z</time>
      </trkpt>
      <trkpt lat="45.07673" lon="-0.61748">
        <ele>11.8</ele>
        <time>2024-11-24T09:56:34Z</time>
      </trkpt>
      <trkpt lat="45.0767" lon="-0.61761">
        <ele>11.5</ele>
        <time>2024-11-24T09:57:02Z</time>
      </trkpt>
      <trkpt lat="45.07668" lon="-0.61774">
        <ele>11.1</ele>
        <time>2024-11-24T09:57:03Z</time>
      </trkpt>
      <trkpt lat="45.07666" lon="-0.61787">
        <ele>10.8</ele>
        <time>2024-11-24T09:57:04Z</time>
      </trkpt>
      <trkpt lat="45.07664" lon="-0.61799">
        <ele>10.5</ele>
        <time>2024-11-24T09:57:05Z</time>
      </trkpt>
      <trkpt lat="45.07663" lon="-0.61802">
        <ele>10.5</ele>
        <time>2024-11-24T09:57:06Z</time>
      </trkpt>
      <trkpt lat="45.07664" lon="-0.61804">
        <ele>10.4</ele>
        <time>2024-11-24T09:57:07Z</time>
      </trkpt>
      <trkpt lat="45.07663" lon="-0.61806">
        <ele>10.4</ele>
        <time>2024-11-24T09:57:08Z</time>
      </trkpt>
      <trkpt lat="45.07664" lon="-0.61808">
        <ele>10.4</ele>
        <time>2024-11-24T09:57:09Z</time>
      </trkpt>
      <trkpt lat="45.07663" lon="-0.6181">
        <ele>10.3</ele>
        <time>2024-11-24T09:57:10Z</time>
      </trkpt>
      <trkpt lat="45.07663" lon="-0.61812">
        <ele>10.3</ele>
        <time>2024-11-24T09:57:11Z</time>
      </trkpt>
      <trkpt lat="45.07663" lon="-0.61814">
        <ele>10.2</ele>
        <time>2024-11-24T09:57:12Z</time>
      </trkpt>
      <trkpt lat="45.07663" lon="-0.61815">
        <ele>10.2</ele>
        <time>2024-11-24T09:57:13Z</time>
      </trkpt>
      <trkpt lat="45.07663" lon="-0.61815">
        <ele>10.2</ele>
        <time>2024-11-24T09:57:14Z</time>
      </trkpt>
      <trkpt lat="45.07663" lon="-0.61815">
        <ele>10.2</ele>
        <time>2024-11-24T09:57:15Z</time>
      </trkpt>
      <trkpt lat="45.07663" lon="-0.61816">
        <ele>10.2</ele>
        <time>2024-11-24T09:57:16Z</time>
      </trkpt>
      <trkpt lat="45.07663" lon="-0.61816">
        <ele>10.2</ele>
        <time>2024-11-24T09:57:17Z</time>
      </trkpt>
      <trkpt lat="45.07662" lon="-0.61818">
        <ele>10.1</ele>
        <time>2024-11-24T09:57:18Z</time>
      </trkpt>
      <trkpt lat="45.07662" lon="-0.6182">
        <ele>10.1</ele>
        <time>2024-11-24T09:57:19Z</time>
      </trkpt>
      <trkpt lat="45.07663" lon="-0.61822">
        <ele>10</ele>
        <time>2024-11-24T09:57:20Z</time>
      </trkpt>
      <trkpt lat="45.07663" lon="-0.61825">
        <ele>10</ele>
        <time>2024-11-24T09:57:21Z</time>
      </trkpt>
      <trkpt lat="45.07663" lon="-0.61827">
        <ele>10</ele>
        <time>2024-11-24T09:57:22Z</time>
      </trkpt>
      <trkpt lat="45.07663" lon="-0.61829">
        <ele>9.9</ele>
        <time>2024-11-24T09:57:23Z</time>
      </trkpt>
      <trkpt lat="45.07664" lon="-0.61831">
        <ele>9.9</ele>
        <time>2024-11-24T09:57:24Z</time>
      </trkpt>
      <trkpt lat="45.07664" lon="-0.61833">
        <ele>9.8</ele>
        <time>2024-11-24T09:57:25Z</time>
      </trkpt>
      <trkpt lat="45.07664" lon="-0.61835">
        <ele>9.8</ele>
        <time>2024-11-24T09:57:26Z</time>
      </trkpt>
      <trkpt lat="45.07664" lon="-0.61837">
        <ele>9.8</ele>
        <time>2024-11-24T09:57:27Z</time>
      </trkpt>
      <trkpt lat="45.07664" lon="-0.61839">
        <ele>9.7</ele>
        <time>2024-11-24T09:57:28Z</time>
      </trkpt>
      <trkpt lat="45.07664" lon="-0.61841">
        <ele>9.7</ele>
        <time>2024-11-24T09:57:29Z</time>
      </trkpt>
      <trkpt lat="45.07663" lon="-0.61843">
        <ele>9.7</ele>
        <time>2024-11-24T09:57:30Z</time>
      </trkpt>
      <trkpt lat="45.07663" lon="-0.61846">
        <ele>9.6</ele>
        <time>2024-11-24T09:57:31Z</time>
      </trkpt>
      <trkpt lat="45.07663" lon="-0.61848">
        <ele>9.6</ele>
        <time>2024-11-24T09:57:32Z</time>
      </trkpt>
      <trkpt lat="45.07663" lon="-0.6185">
        <ele>9.5</ele>
        <time>2024-11-24T09:57:33Z</time>
      </trkpt>
      <trkpt lat="45.07663" lon="-0.61852">
        <ele>9.5</ele>
        <time>2024-11-24T09:57:34Z</time>
      </trkpt>
      <trkpt lat="45.07663" lon="-0.61854">
        <ele>9.5</ele>
        <time>2024-11-24T09:57:35Z</time>
      </trkpt>
      <trkpt lat="45.07663" lon="-0.61857">
        <ele>9.4</ele>
        <time>2024-11-24T09:57:36Z</time>
      </trkpt>
      <trkpt lat="45.07662" lon="-0.61858">
        <ele>9.4</ele>
        <time>2024-11-24T09:57:37Z</time>
      </trkpt>
      <trkpt lat="45.07662" lon="-0.6186">
        <ele>9.4</ele>
        <time>2024-11-24T09:57:38Z</time>
      </trkpt>
      <trkpt lat="45.07662" lon="-0.61862">
        <ele>9.3</ele>
        <time>2024-11-24T09:57:39Z</time>
      </trkpt>
      <trkpt lat="45.07662" lon="-0.61864">
        <ele>9.3</ele>
        <time>2024-11-24T09:57:40Z</time>
      </trkpt>
      <trkpt lat="45.07661" lon="-0.61866">
        <ele>9.3</ele>
        <time>2024-11-24T09:57:41Z</time>
      </trkpt>
      <trkpt lat="45.07661" lon="-0.61868">
        <ele>9.2</ele>
        <time>2024-11-24T09:57:42Z</time>
      </trkpt>
      <trkpt lat="45.0766" lon="-0.6187">
        <ele>9.2</ele>
        <time>2024-11-24T09:57:43Z</time>
      </trkpt>
      <trkpt lat="45.07659" lon="-0.61872">
        <ele>9.2</ele>
        <time>2024-11-24T09:57:44Z</time>
      </trkpt>
      <trkpt lat="45.07658" lon="-0.61873">
        <ele>9.2</ele>
        <time>2024-11-24T09:57:45Z</time>
      </trkpt>
      <trkpt lat="45.07657" lon="-0.61875">
        <ele>9.1</ele>
        <time>2024-11-24T09:57:46Z</time>
      </trkpt>
      <trkpt lat="45.07656" lon="-0.61876">
        <ele>9.1</ele>
        <time>2024-11-24T09:57:47Z</time>
      </trkpt>
      <trkpt lat="45.07656" lon="-0.61877">
        <ele>9.1</ele>
        <time>2024-11-24T09:57:48Z</time>
      </trkpt>
      <trkpt lat="45.07654" lon="-0.61878">
        <ele>9.1</ele>
        <time>2024-11-24T09:57:49Z</time>
      </trkpt>
      <trkpt lat="45.07653" lon="-0.6188">
        <ele>9.1</ele>
        <time>2024-11-24T09:57:50Z</time>
      </trkpt>
      <trkpt lat="45.07652" lon="-0.61881">
        <ele>9</ele>
        <time>2024-11-24T09:57:51Z</time>
      </trkpt>
      <trkpt lat="45.07651" lon="-0.61882">
        <ele>9</ele>
        <time>2024-11-24T09:57:52Z</time>
      </trkpt>
      <trkpt lat="45.0765" lon="-0.61884">
        <ele>9</ele>
        <time>2024-11-24T09:57:53Z</time>
      </trkpt>
      <trkpt lat="45.07648" lon="-0.61885">
        <ele>9</ele>
        <time>2024-11-24T09:57:54Z</time>
      </trkpt>
      <trkpt lat="45.07647" lon="-0.61886">
        <ele>8.9</ele>
        <time>2024-11-24T09:57:55Z</time>
      </trkpt>
      <trkpt lat="45.07646" lon="-0.61887">
        <ele>8.9</ele>
        <time>2024-11-24T09:57:56Z</time>
      </trkpt>
      <trkpt lat="45.07645" lon="-0.61888">
        <ele>8.9</ele>
        <time>2024-11-24T09:57:57Z</time>
      </trkpt>
      <trkpt lat="45.07644" lon="-0.6189">
        <ele>8.9</ele>
        <time>2024-11-24T09:57:58Z</time>
      </trkpt>
      <trkpt lat="45.07643" lon="-0.61891">
        <ele>8.8</ele>
        <time>2024-11-24T09:57:59Z</time>
      </trkpt>
      <trkpt lat="45.07641" lon="-0.61892">
        <ele>8.8</ele>
        <time>2024-11-24T09:58:00Z</time>
      </trkpt>
      <trkpt lat="45.0764" lon="-0.61894">
        <ele>8.8</ele>
        <time>2024-11-24T09:58:01Z</time>
      </trkpt>
      <trkpt lat="45.07639" lon="-0.61895">
        <ele>8.8</ele>
        <time>2024-11-24T09:58:02Z</time>
      </trkpt>
      <trkpt lat="45.07638" lon="-0.61896">
        <ele>8.8</ele>
        <time>2024-11-24T09:58:03Z</time>
      </trkpt>
      <trkpt lat="45.07637" lon="-0.61898">
        <ele>8.7</ele>
        <time>2024-11-24T09:58:04Z</time>
      </trkpt>
      <trkpt lat="45.07636" lon="-0.619">
        <ele>8.7</ele>
        <time>2024-11-24T09:58:05Z</time>
      </trkpt>
      <trkpt lat="45.07635" lon="-0.61901">
        <ele>8.7</ele>
        <time>2024-11-24T09:58:06Z</time>
      </trkpt>
      <trkpt lat="45.07634" lon="-0.61902">
        <ele>8.7</ele>
        <time>2024-11-24T09:58:07Z</time>
      </trkpt>
      <trkpt lat="45.07632" lon="-0.61904">
        <ele>8.6</ele>
        <time>2024-11-24T09:58:08Z</time>
      </trkpt>
      <trkpt lat="45.07631" lon="-0.61905">
        <ele>8.6</ele>
        <time>2024-11-24T09:58:09Z</time>
      </trkpt>
      <trkpt lat="45.0763" lon="-0.61907">
        <ele>8.6</ele>
        <time>2024-11-24T09:58:10Z</time>
      </trkpt>
      <trkpt lat="45.0763" lon="-0.61908">
        <ele>8.6</ele>
        <time>2024-11-24T09:58:11Z</time>
      </trkpt>
      <trkpt lat="45.07629" lon="-0.6191">
        <ele>8.5</ele>
        <time>2024-11-24T09:58:12Z</time>
      </trkpt>
      <trkpt lat="45.07627" lon="-0.61912">
        <ele>8.5</ele>
        <time>2024-11-24T09:58:13Z</time>
      </trkpt>
      <trkpt lat="45.07626" lon="-0.61912">
        <ele>8.5</ele>
        <time>2024-11-24T09:58:14Z</time>
      </trkpt>
      <trkpt lat="45.07625" lon="-0.61913">
        <ele>8.5</ele>
        <time>2024-11-24T09:58:15Z</time>
      </trkpt>
      <trkpt lat="45.07624" lon="-0.61914">
        <ele>8.4</ele>
        <time>2024-11-24T09:58:16Z</time>
      </trkpt>
      <trkpt lat="45.07624" lon="-0.61916">
        <ele>8.4</ele>
        <time>2024-11-24T09:58:17Z</time>
      </trkpt>
      <trkpt lat="45.07622" lon="-0.61919">
        <ele>8.4</ele>
        <time>2024-11-24T09:58:18Z</time>
      </trkpt>
      <trkpt lat="45.07622" lon="-0.6192">
        <ele>8.4</ele>
        <time>2024-11-24T09:58:19Z</time>
      </trkpt>
      <trkpt lat="45.07622" lon="-0.61921">
        <ele>8.4</ele>
        <time>2024-11-24T09:58:20Z</time>
      </trkpt>
      <trkpt lat="45.0762" lon="-0.61923">
        <ele>8.3</ele>
        <time>2024-11-24T09:58:21Z</time>
      </trkpt>
      <trkpt lat="45.0762" lon="-0.61925">
        <ele>8.3</ele>
        <time>2024-11-24T09:58:22Z</time>
      </trkpt>
      <trkpt lat="45.0762" lon="-0.61926">
        <ele>8.3</ele>
        <time>2024-11-24T09:58:23Z</time>
      </trkpt>
      <trkpt lat="45.07619" lon="-0.61928">
        <ele>8.3</ele>
        <time>2024-11-24T09:58:24Z</time>
      </trkpt>
      <trkpt lat="45.07618" lon="-0.6193">
        <ele>8.3</ele>
        <time>2024-11-24T09:58:25Z</time>
      </trkpt>
      <trkpt lat="45.07617" lon="-0.61931">
        <ele>8.2</ele>
        <time>2024-11-24T09:58:26Z</time>
      </trkpt>
      <trkpt lat="45.07616" lon="-0.61934">
        <ele>8.2</ele>
        <time>2024-11-24T09:58:27Z</time>
      </trkpt>
      <trkpt lat="45.07615" lon="-0.61935">
        <ele>8.2</ele>
        <time>2024-11-24T09:58:28Z</time>
      </trkpt>
      <trkpt lat="45.07614" lon="-0.61937">
        <ele>8.2</ele>
        <time>2024-11-24T09:58:29Z</time>
      </trkpt>
      <trkpt lat="45.07614" lon="-0.61939">
        <ele>8.2</ele>
        <time>2024-11-24T09:58:30Z</time>
      </trkpt>
      <trkpt lat="45.07613" lon="-0.61941">
        <ele>8.1</ele>
        <time>2024-11-24T09:58:31Z</time>
      </trkpt>
      <trkpt lat="45.07612" lon="-0.61942">
        <ele>8.1</ele>
        <time>2024-11-24T09:58:32Z</time>
      </trkpt>
      <trkpt lat="45.07612" lon="-0.61944">
        <ele>8.1</ele>
        <time>2024-11-24T09:58:33Z</time>
      </trkpt>
      <trkpt lat="45.07611" lon="-0.61946">
        <ele>8.1</ele>
        <time>2024-11-24T09:58:34Z</time>
      </trkpt>
      <trkpt lat="45.0761" lon="-0.61948">
        <ele>8.1</ele>
        <time>2024-11-24T09:58:35Z</time>
      </trkpt>
      <trkpt lat="45.07609" lon="-0.61952">
        <ele>8.1</ele>
        <time>2024-11-24T09:58:36Z</time>
      </trkpt>
      <trkpt lat="45.07608" lon="-0.61954">
        <ele>8.1</ele>
        <time>2024-11-24T09:58:37Z</time>
      </trkpt>
      <trkpt lat="45.07608" lon="-0.61957">
        <ele>8.1</ele>
        <time>2024-11-24T09:58:38Z</time>
      </trkpt>
      <trkpt lat="45.07606" lon="-0.61958">
        <ele>8.1</ele>
        <time>2024-11-24T09:58:39Z</time>
      </trkpt>
      <trkpt lat="45.07606" lon="-0.6196">
        <ele>8.1</ele>
        <time>2024-11-24T09:58:40Z</time>
      </trkpt>
      <trkpt lat="45.07605" lon="-0.61962">
        <ele>8.1</ele>
        <time>2024-11-24T09:58:41Z</time>
      </trkpt>
      <trkpt lat="45.07604" lon="-0.61963">
        <ele>8.1</ele>
        <time>2024-11-24T09:58:42Z</time>
      </trkpt>
      <trkpt lat="45.07603" lon="-0.61965">
        <ele>8.1</ele>
        <time>2024-11-24T09:58:43Z</time>
      </trkpt>
      <trkpt lat="45.07602" lon="-0.61967">
        <ele>8.1</ele>
        <time>2024-11-24T09:58:44Z</time>
      </trkpt>
      <trkpt lat="45.07601" lon="-0.61969">
        <ele>8.1</ele>
        <time>2024-11-24T09:58:45Z</time>
      </trkpt>
      <trkpt lat="45.07601" lon="-0.6197">
        <ele>8.1</ele>
        <time>2024-11-24T09:58:46Z</time>
      </trkpt>
      <trkpt lat="45.07599" lon="-0.61972">
        <ele>8.1</ele>
        <time>2024-11-24T09:58:47Z</time>
      </trkpt>
      <trkpt lat="45.07598" lon="-0.61973">
        <ele>8</ele>
        <time>2024-11-24T09:58:48Z</time>
      </trkpt>
      <trkpt lat="45.07597" lon="-0.61974">
        <ele>8</ele>
        <time>2024-11-24T09:58:49Z</time>
      </trkpt>
      <trkpt lat="45.07596" lon="-0.61975">
        <ele>8</ele>
        <time>2024-11-24T09:58:50Z</time>
      </trkpt>
      <trkpt lat="45.07594" lon="-0.61977">
        <ele>8</ele>
        <time>2024-11-24T09:58:51Z</time>
      </trkpt>
      <trkpt lat="45.07593" lon="-0.61977">
        <ele>8</ele>
        <time>2024-11-24T09:58:52Z</time>
      </trkpt>
      <trkpt lat="45.07593" lon="-0.61978">
        <ele>8</ele>
        <time>2024-11-24T09:58:53Z</time>
      </trkpt>
      <trkpt lat="45.07591" lon="-0.61978">
        <ele>8</ele>
        <time>2024-11-24T09:58:54Z</time>
      </trkpt>
      <trkpt lat="45.0759" lon="-0.61979">
        <ele>8</ele>
        <time>2024-11-24T09:58:55Z</time>
      </trkpt>
      <trkpt lat="45.07536" lon="-0.6203">
        <ele>8.5</ele>
        <time>2024-11-24T09:59:52Z</time>
      </trkpt>
      <trkpt lat="45.07518" lon="-0.62019">
        <ele>8.9</ele>
        <time>2024-11-24T09:59:53Z</time>
      </trkpt>
      <trkpt lat="45.07517" lon="-0.62017">
        <ele>9</ele>
        <time>2024-11-24T09:59:54Z</time>
      </trkpt>
      <trkpt lat="45.07516" lon="-0.62015">
        <ele>9</ele>
        <time>2024-11-24T09:59:55Z</time>
      </trkpt>
      <trkpt lat="45.07468" lon="-0.61893">
        <ele>10.1</ele>
        <time>2024-11-24T10:01:01Z</time>
      </trkpt>
      <trkpt lat="45.07469" lon="-0.6189">
        <ele>10.2</ele>
        <time>2024-11-24T10:01:02Z</time>
      </trkpt>
      <trkpt lat="45.07469" lon="-0.61888">
        <ele>10.2</ele>
        <time>2024-11-24T10:01:03Z</time>
      </trkpt>
      <trkpt lat="45.07469" lon="-0.61887">
        <ele>10.2</ele>
        <time>2024-11-24T10:01:04Z</time>
      </trkpt>
      <trkpt lat="45.07469" lon="-0.61885">
        <ele>10.2</ele>
        <time>2024-11-24T10:01:05Z</time>
      </trkpt>
      <trkpt lat="45.07469" lon="-0.61883">
        <ele>10.2</ele>
        <time>2024-11-24T10:01:06Z</time>
      </trkpt>
      <trkpt lat="45.07469" lon="-0.61881">
        <ele>10.2</ele>
        <time>2024-11-24T10:01:07Z</time>
      </trkpt>
      <trkpt lat="45.07469" lon="-0.61878">
        <ele>10.3</ele>
        <time>2024-11-24T10:01:08Z</time>
      </trkpt>
      <trkpt lat="45.07469" lon="-0.61877">
        <ele>10.3</ele>
        <time>2024-11-24T10:01:09Z</time>
      </trkpt>
      <trkpt lat="45.07469" lon="-0.61875">
        <ele>10.3</ele>
        <time>2024-11-24T10:01:10Z</time>
      </trkpt>
      <trkpt lat="45.07469" lon="-0.61873">
        <ele>10.3</ele>
        <time>2024-11-24T10:01:11Z</time>
      </trkpt>
      <trkpt lat="45.0747" lon="-0.61871">
        <ele>10.3</ele>
        <time>2024-11-24T10:01:12Z</time>
      </trkpt>
      <trkpt lat="45.0747" lon="-0.61869">
        <ele>10.4</ele>
        <time>2024-11-24T10:01:13Z</time>
      </trkpt>
      <trkpt lat="45.0747" lon="-0.61867">
        <ele>10.4</ele>
        <time>2024-11-24T10:01:14Z</time>
      </trkpt>
      <trkpt lat="45.0747" lon="-0.61865">
        <ele>10.4</ele>
        <time>2024-11-24T10:01:15Z</time>
      </trkpt>
      <trkpt lat="45.07469" lon="-0.61863">
        <ele>10.4</ele>
        <time>2024-11-24T10:01:16Z</time>
      </trkpt>
      <trkpt lat="45.07469" lon="-0.61861">
        <ele>10.4</ele>
        <time>2024-11-24T10:01:17Z</time>
      </trkpt>
      <trkpt lat="45.0747" lon="-0.61858">
        <ele>10.4</ele>
        <time>2024-11-24T10:01:18Z</time>
      </trkpt>
      <trkpt lat="45.0747" lon="-0.61856">
        <ele>10.5</ele>
        <time>2024-11-24T10:01:19Z</time>
      </trkpt>
      <trkpt lat="45.0747" lon="-0.61854">
        <ele>10.5</ele>
        <time>2024-11-24T10:01:20Z</time>
      </trkpt>
      <trkpt lat="45.0747" lon="-0.61852">
        <ele>10.5</ele>
        <time>2024-11-24T10:01:21Z</time>
      </trkpt>
      <trkpt lat="45.0747" lon="-0.6185">
        <ele>10.5</ele>
        <time>2024-11-24T10:01:22Z</time>
      </trkpt>
      <trkpt lat="45.07471" lon="-0.61847">
        <ele>10.5</ele>
        <time>2024-11-24T10:01:23Z</time>
      </trkpt>
      <trkpt lat="45.07471" lon="-0.61846">
        <ele>10.5</ele>
        <time>2024-11-24T10:01:24Z</time>
      </trkpt>
      <trkpt lat="45.07471" lon="-0.61845">
        <ele>10.6</ele>
        <time>2024-11-24T10:01:25Z</time>
      </trkpt>
      <trkpt lat="45.07471" lon="-0.61842">
        <ele>10.6</ele>
        <time>2024-11-24T10:01:26Z</time>
      </trkpt>
      <trkpt lat="45.07471" lon="-0.6184">
        <ele>10.6</ele>
        <time>2024-11-24T10:01:27Z</time>
      </trkpt>
      <trkpt lat="45.07471" lon="-0.61839">
        <ele>10.6</ele>
        <time>2024-11-24T10:01:28Z</time>
      </trkpt>
      <trkpt lat="45.07471" lon="-0.61837">
        <ele>10.6</ele>
        <time>2024-11-24T10:01:29Z</time>
      </trkpt>
      <trkpt lat="45.07471" lon="-0.61835">
        <ele>10.6</ele>
        <time>2024-11-24T10:01:30Z</time>
      </trkpt>
      <trkpt lat="45.07471" lon="-0.61834">
        <ele>10.6</ele>
        <time>2024-11-24T10:01:31Z</time>
      </trkpt>
      <trkpt lat="45.07471" lon="-0.61831">
        <ele>10.7</ele>
        <time>2024-11-24T10:01:32Z</time>
      </trkpt>
      <trkpt lat="45.07471" lon="-0.61829">
        <ele>10.7</ele>
        <time>2024-11-24T10:01:33Z</time>
      </trkpt>
      <trkpt lat="45.07471" lon="-0.61827">
        <ele>10.7</ele>
        <time>2024-11-24T10:01:34Z</time>
      </trkpt>
      <trkpt lat="45.07472" lon="-0.61824">
        <ele>10.7</ele>
        <time>2024-11-24T10:01:35Z</time>
      </trkpt>
      <trkpt lat="45.07472" lon="-0.61822">
        <ele>10.7</ele>
        <time>2024-11-24T10:01:36Z</time>
      </trkpt>
      <trkpt lat="45.07472" lon="-0.6182">
        <ele>10.7</ele>
        <time>2024-11-24T10:01:37Z</time>
      </trkpt>
      <trkpt lat="45.07472" lon="-0.61818">
        <ele>10.8</ele>
        <time>2024-11-24T10:01:38Z</time>
      </trkpt>
      <trkpt lat="45.07472" lon="-0.61815">
        <ele>10.8</ele>
        <time>2024-11-24T10:01:39Z</time>
      </trkpt>
      <trkpt lat="45.07472" lon="-0.61813">
        <ele>10.8</ele>
        <time>2024-11-24T10:01:40Z</time>
      </trkpt>
      <trkpt lat="45.07476" lon="-0.61791">
        <ele>10.9</ele>
        <time>2024-11-24T10:01:41Z</time>
      </trkpt>
      <trkpt lat="45.07479" lon="-0.61771">
        <ele>11.1</ele>
        <time>2024-11-24T10:02:28Z</time>
      </trkpt>
      <trkpt lat="45.07482" lon="-0.61752">
        <ele>11.3</ele>
        <time>2024-11-24T10:02:29Z</time>
      </trkpt>
      <trkpt lat="45.07486" lon="-0.61732">
        <ele>11.5</ele>
        <time>2024-11-24T10:02:30Z</time>
      </trkpt>
      <trkpt lat="45.07489" lon="-0.61712">
        <ele>11.8</ele>
        <time>2024-11-24T10:02:31Z</time>
      </trkpt>
      <trkpt lat="45.07489" lon="-0.6171">
        <ele>11.8</ele>
        <time>2024-11-24T10:02:32Z</time>
      </trkpt>
      <trkpt lat="45.07489" lon="-0.61708">
        <ele>11.8</ele>
        <time>2024-11-24T10:02:33Z</time>
      </trkpt>
      <trkpt lat="45.0749" lon="-0.61705">
        <ele>11.8</ele>
        <time>2024-11-24T10:02:34Z</time>
      </trkpt>
      <trkpt lat="45.0749" lon="-0.61704">
        <ele>11.9</ele>
        <time>2024-11-24T10:02:35Z</time>
      </trkpt>
      <trkpt lat="45.0749" lon="-0.61703">
        <ele>11.9</ele>
        <time>2024-11-24T10:02:36Z</time>
      </trkpt>
      <trkpt lat="45.0749" lon="-0.617">
        <ele>11.9</ele>
        <time>2024-11-24T10:02:37Z</time>
      </trkpt>
      <trkpt lat="45.0749" lon="-0.61698">
        <ele>11.9</ele>
        <time>2024-11-24T10:02:38Z</time>
      </trkpt>
      <trkpt lat="45.0749" lon="-0.61697">
        <ele>11.9</ele>
        <time>2024-11-24T10:02:39Z</time>
      </trkpt>
      <trkpt lat="45.0749" lon="-0.61695">
        <ele>12</ele>
        <time>2024-11-24T10:02:40Z</time>
      </trkpt>
      <trkpt lat="45.0749" lon="-0.61693">
        <ele>12</ele>
        <time>2024-11-24T10:02:41Z</time>
      </trkpt>
      <trkpt lat="45.07494" lon="-0.61636">
        <ele>12.9</ele>
        <time>2024-11-24T10:03:14Z</time>
      </trkpt>
      <trkpt lat="45.07494" lon="-0.61634">
        <ele>12.9</ele>
        <time>2024-11-24T10:03:15Z</time>
      </trkpt>
      <trkpt lat="45.07494" lon="-0.61633">
        <ele>12.9</ele>
        <time>2024-11-24T10:03:16Z</time>
      </trkpt>
      <trkpt lat="45.07494" lon="-0.61631">
        <ele>13</ele>
        <time>2024-11-24T10:03:17Z</time>
      </trkpt>
      <trkpt lat="45.07494" lon="-0.61628">
        <ele>13</ele>
        <time>2024-11-24T10:03:18Z</time>
      </trkpt>
      <trkpt lat="45.07494" lon="-0.61626">
        <ele>13</ele>
        <time>2024-11-24T10:03:19Z</time>
      </trkpt>
      <trkpt lat="45.07494" lon="-0.61624">
        <ele>13</ele>
        <time>2024-11-24T10:03:20Z</time>
      </trkpt>
      <trkpt lat="45.07494" lon="-0.61622">
        <ele>13.1</ele>
        <time>2024-11-24T10:03:21Z</time>
      </trkpt>
      <trkpt lat="45.07494" lon="-0.61619">
        <ele>13.1</ele>
        <time>2024-11-24T10:03:22Z</time>
      </trkpt>
      <trkpt lat="45.07494" lon="-0.61618">
        <ele>13.1</ele>
        <time>2024-11-24T10:03:23Z</time>
      </trkpt>
      <trkpt lat="45.07494" lon="-0.61617">
        <ele>13.1</ele>
        <time>2024-11-24T10:03:24Z</time>
      </trkpt>
      <trkpt lat="45.07493" lon="-0.61615">
        <ele>13.2</ele>
        <time>2024-11-24T10:03:25Z</time>
      </trkpt>
      <trkpt lat="45.07493" lon="-0.61613">
        <ele>13.2</ele>
        <time>2024-11-24T10:03:26Z</time>
      </trkpt>
      <trkpt lat="45.07486" lon="-0.61571">
        <ele>13.2</ele>
        <time>2024-11-24T10:03:47Z</time>
      </trkpt>
      <trkpt lat="45.07486" lon="-0.61569">
        <ele>13.2</ele>
        <time>2024-11-24T10:03:48Z</time>
      </trkpt>
      <trkpt lat="45.07486" lon="-0.61568">
        <ele>13.2</ele>
        <time>2024-11-24T10:03:49Z</time>
      </trkpt>
      <trkpt lat="45.07486" lon="-0.61565">
        <ele>13.2</ele>
        <time>2024-11-24T10:03:50Z</time>
      </trkpt>
      <trkpt lat="45.07486" lon="-0.61563">
        <ele>13.2</ele>
        <time>2024-11-24T10:03:51Z</time>
      </trkpt>
      <trkpt lat="45.07487" lon="-0.61561">
        <ele>13.1</ele>
        <time>2024-11-24T10:03:52Z</time>
      </trkpt>
      <trkpt lat="45.07487" lon="-0.61559">
        <ele>13.1</ele>
        <time>2024-11-24T10:03:53Z</time>
      </trkpt>
      <trkpt lat="45.07487" lon="-0.61556">
        <ele>13.1</ele>
        <time>2024-11-24T10:03:54Z</time>
      </trkpt>
      <trkpt lat="45.07487" lon="-0.61554">
        <ele>13.1</ele>
        <time>2024-11-24T10:03:55Z</time>
      </trkpt>
      <trkpt lat="45.07487" lon="-0.61538">
        <ele>12.9</ele>
        <time>2024-11-24T10:03:56Z</time>
      </trkpt>
      <trkpt lat="45.07487" lon="-0.61524">
        <ele>12.8</ele>
        <time>2024-11-24T10:04:27Z</time>
      </trkpt>
      <trkpt lat="45.07487" lon="-0.61509">
        <ele>12.7</ele>
        <time>2024-11-24T10:04:28Z</time>
      </trkpt>
      <trkpt lat="45.07487" lon="-0.61495">
        <ele>12.7</ele>
        <time>2024-11-24T10:04:29Z</time>
      </trkpt>
      <trkpt lat="45.07486" lon="-0.6148">
        <ele>12.6</ele>
        <time>2024-11-24T10:04:30Z</time>
      </trkpt>
      <trkpt lat="45.07486" lon="-0.61478">
        <ele>12.6</ele>
        <time>2024-11-24T10:04:31Z</time>
      </trkpt>
      <trkpt lat="45.07486" lon="-0.61476">
        <ele>12.6</ele>
        <time>2024-11-24T10:04:32Z</time>
      </trkpt>
      <trkpt lat="45.07485" lon="-0.61474">
        <ele>12.6</ele>
        <time>2024-11-24T10:04:33Z</time>
      </trkpt>
      <trkpt lat="45.07485" lon="-0.61472">
        <ele>12.6</ele>
        <time>2024-11-24T10:04:34Z</time>
      </trkpt>
      <trkpt lat="45.07484" lon="-0.6147">
        <ele>12.6</ele>
        <time>2024-11-24T10:04:35Z</time>
      </trkpt>
      <trkpt lat="45.07484" lon="-0.61468">
        <ele>12.6</ele>
        <time>2024-11-24T10:04:36Z</time>
      </trkpt>
      <trkpt lat="45.07483" lon="-0.61466">
        <ele>12.6</ele>
        <time>2024-11-24T10:04:37Z</time>
      </trkpt>
      <trkpt lat="45.07483" lon="-0.61465">
        <ele>12.6</ele>
        <time>2024-11-24T10:04:38Z</time>
      </trkpt>
      <trkpt lat="45.07482" lon="-0.61463">
        <ele>12.6</ele>
        <time>2024-11-24T10:04:39Z</time>
      </trkpt>
      <trkpt lat="45.07482" lon="-0.61461">
        <ele>12.6</ele>
        <time>2024-11-24T10:04:40Z</time>
      </trkpt>
      <trkpt lat="45.07481" lon="-0.61459">
        <ele>12.6</ele>
        <time>2024-11-24T10:04:41Z</time>
      </trkpt>
      <trkpt lat="45.07474" lon="-0.61385">
        <ele>12.8</ele>
        <time>2024-11-24T10:05:16Z</time>
      </trkpt>
      <trkpt lat="45.07475" lon="-0.61384">
        <ele>12.8</ele>
        <time>2024-11-24T10:05:17Z</time>
      </trkpt>
      <trkpt lat="45.07475" lon="-0.61383">
        <ele>12.8</ele>
        <time>2024-11-24T10:05:18Z</time>
      </trkpt>
      <trkpt lat="45.07475" lon="-0.61381">
        <ele>12.9</ele>
        <time>2024-11-24T10:05:19Z</time>
      </trkpt>
      <trkpt lat="45.07476" lon="-0.61379">
        <ele>12.9</ele>
        <time>2024-11-24T10:05:20Z</time>
      </trkpt>
      <trkpt lat="45.07476" lon="-0.61377">
        <ele>12.9</ele>
        <time>2024-11-24T10:05:21Z</time>
      </trkpt>
      <trkpt lat="45.07477" lon="-0.61375">
        <ele>12.9</ele>
        <time>2024-11-24T10:05:22Z</time>
      </trkpt>
      <trkpt lat="45.07477" lon="-0.61372">
        <ele>12.9</ele>
        <time>2024-11-24T10:05:23Z</time>
      </trkpt>
      <trkpt lat="45.07478" lon="-0.6137">
        <ele>12.9</ele>
        <time>2024-11-24T10:05:24Z</time>
      </trkpt>
      <trkpt lat="45.07478" lon="-0.61368">
        <ele>12.9</ele>
        <time>2024-11-24T10:05:25Z</time>
      </trkpt>
      <trkpt lat="45.07482" lon="-0.6135">
        <ele>12.9</ele>
        <time>2024-11-24T10:05:26Z</time>
      </trkpt>
      <trkpt lat="45.07486" lon="-0.61334">
        <ele>12.9</ele>
        <time>2024-11-24T10:06:04Z</time>
      </trkpt>
      <trkpt lat="45.0749" lon="-0.61319">
        <ele>12.9</ele>
        <time>2024-11-24T10:06:05Z</time>
      </trkpt>
      <trkpt lat="45.07493" lon="-0.61303">
        <ele>13</ele>
        <time>2024-11-24T10:06:06Z</time>
      </trkpt>
      <trkpt lat="45.07497" lon="-0.61287">
        <ele>13</ele>
        <time>2024-11-24T10:06:07Z</time>
      </trkpt>
      <trkpt lat="45.07497" lon="-0.61284">
        <ele>13</ele>
        <time>2024-11-24T10:06:08Z</time>
      </trkpt>
      <trkpt lat="45.07497" lon="-0.61282">
        <ele>13</ele>
        <time>2024-11-24T10:06:09Z</time>
      </trkpt>
      <trkpt lat="45.07497" lon="-0.61281">
        <ele>13</ele>
        <time>2024-11-24T10:06:10Z</time>
      </trkpt>
      <trkpt lat="45.07498" lon="-0.61268">
        <ele>13</ele>
        <time>2024-11-24T10:06:11Z</time>
      </trkpt>
      <trkpt lat="45.07499" lon="-0.61257">
        <ele>13.1</ele>
        <time>2024-11-24T10:06:36Z</time>
      </trkpt>
      <trkpt lat="45.07499" lon="-0.61245">
        <ele>13.2</ele>
        <time>2024-11-24T10:06:37Z</time>
      </trkpt>
      <trkpt lat="45.075" lon="-0.61234">
        <ele>13.3</ele>
        <time>2024-11-24T10:06:38Z</time>
      </trkpt>
      <trkpt lat="45.07501" lon="-0.61223">
        <ele>13.4</ele>
        <time>2024-11-24T10:06:39Z</time>
      </trkpt>
      <trkpt lat="45.07505" lon="-0.61208">
        <ele>13.5</ele>
        <time>2024-11-24T10:06:40Z</time>
      </trkpt>
      <trkpt lat="45.07509" lon="-0.61195">
        <ele>13.5</ele>
        <time>2024-11-24T10:06:41Z</time>
      </trkpt>
      <trkpt lat="45.07512" lon="-0.61182">
        <ele>13.5</ele>
        <time>2024-11-24T10:07:18Z</time>
      </trkpt>
      <trkpt lat="45.07516" lon="-0.61169">
        <ele>13.4</ele>
        <time>2024-11-24T10:07:19Z</time>
      </trkpt>
      <trkpt lat="45.0752" lon="-0.61156">
        <ele>13.4</ele>
        <time>2024-11-24T10:07:20Z</time>
      </trkpt>
      <trkpt lat="45.07524" lon="-0.61143">
        <ele>13.4</ele>
        <time>2024-11-24T10:07:21Z</time>
      </trkpt>
      <trkpt lat="45.07525" lon="-0.61142">
        <ele>13.4</ele>
        <time>2024-11-24T10:07:22Z</time>
      </trkpt>
      <trkpt lat="45.07525" lon="-0.6114">
        <ele>13.4</ele>
        <time>2024-11-24T10:07:23Z</time>
      </trkpt>
      <trkpt lat="45.07526" lon="-0.61137">
        <ele>13.4</ele>
        <time>2024-11-24T10:07:24Z</time>
      </trkpt>
      <trkpt lat="45.07527" lon="-0.61136">
        <ele>13.4</ele>
        <time>2024-11-24T10:07:25Z</time>
      </trkpt>
      <trkpt lat="45.07527" lon="-0.61135">
        <ele>13.4</ele>
        <time>2024-11-24T10:07:26Z</time>
      </trkpt>
      <trkpt lat="45.0753" lon="-0.61072">
        <ele>13.5</ele>
        <time>2024-11-24T10:07:57Z</time>
      </trkpt>
      <trkpt lat="45.0753" lon="-0.61071">
        <ele>13.5</ele>
        <time>2024-11-24T10:07:58Z</time>
      </trkpt>
      <trkpt lat="45.0753" lon="-0.61069">
        <ele>13.5</ele>
        <time>2024-11-24T10:07:59Z</time>
      </trkpt>
      <trkpt lat="45.0753" lon="-0.61067">
        <ele>13.5</ele>
        <time>2024-11-24T10:08:00Z</time>
      </trkpt>
      <trkpt lat="45.07529" lon="-0.61065">
        <ele>13.5</ele>
        <time>2024-11-24T10:08:01Z</time>
      </trkpt>
      <trkpt lat="45.07529" lon="-0.61064">
        <ele>13.5</ele>
        <time>2024-11-24T10:08:02Z</time>
      </trkpt>
      <trkpt lat="45.07529" lon="-0.61062">
        <ele>13.5</ele>
        <time>2024-11-24T10:08:03Z</time>
      </trkpt>
      <trkpt lat="45.07529" lon="-0.61061">
        <ele>13.5</ele>
        <time>2024-11-24T10:08:04Z</time>
      </trkpt>
      <trkpt lat="45.07529" lon="-0.61059">
        <ele>13.5</ele>
        <time>2024-11-24T10:08:05Z</time>
      </trkpt>
      <trkpt lat="45.07528" lon="-0.61057">
        <ele>13.5</ele>
        <time>2024-11-24T10:08:06Z</time>
      </trkpt>
      <trkpt lat="45.07527" lon="-0.61055">
        <ele>13.5</ele>
        <time>2024-11-24T10:08:07Z</time>
      </trkpt>
      <trkpt lat="45.07527" lon="-0.61053">
        <ele>13.6</ele>
        <time>2024-11-24T10:08:08Z</time>
      </trkpt>
      <trkpt lat="45.07527" lon="-0.61051">
        <ele>13.6</ele>
        <time>2024-11-24T10:08:09Z</time>
      </trkpt>
      <trkpt lat="45.07527" lon="-0.6105">
        <ele>13.6</ele>
        <time>2024-11-24T10:08:10Z</time>
      </trkpt>
      <trkpt lat="45.07527" lon="-0.61047">
        <ele>13.6</ele>
        <time>2024-11-24T10:08:11Z</time>
      </trkpt>
      <trkpt lat="45.07525" lon="-0.6103">
        <ele>13.6</ele>
        <time>2024-11-24T10:08:12Z</time>
      </trkpt>
      <trkpt lat="45.07524" lon="-0.61014">
        <ele>13.7</ele>
        <time>2024-11-24T10:08:49Z</time>
      </trkpt>
      <trkpt lat="45.07522" lon="-0.60998">
        <ele>13.8</ele>
        <time>2024-11-24T10:08:50Z</time>
      </trkpt>
      <trkpt lat="45.0752" lon="-0.60982">
        <ele>13.9</ele>
        <time>2024-11-24T10:08:51Z</time>
      </trkpt>
      <trkpt lat="45.07519" lon="-0.60966">
        <ele>14.2</ele>
        <time>2024-11-24T10:08:52Z</time>
      </trkpt>
      <trkpt lat="45.0752" lon="-0.60964">
        <ele>14.2</ele>
        <time>2024-11-24T10:08:53Z</time>
      </trkpt>
      <trkpt lat="45.07521" lon="-0.60963">
        <ele>14.3</ele>
        <time>2024-11-24T10:08:54Z</time>
      </trkpt>
      <trkpt lat="45.07523" lon="-0.60961">
        <ele>14.3</ele>
        <time>2024-11-24T10:08:55Z</time>
      </trkpt>
      <trkpt lat="45.07523" lon="-0.6096">
        <ele>14.4</ele>
        <time>2024-11-24T10:08:56Z</time>
      </trkpt>
      <trkpt lat="45.07525" lon="-0.60957">
        <ele>14.5</ele>
        <time>2024-11-24T10:08:57Z</time>
      </trkpt>
      <trkpt lat="45.07526" lon="-0.60957">
        <ele>14.4</ele>
        <time>2024-11-24T10:08:58Z</time>
      </trkpt>
      <trkpt lat="45.07527" lon="-0.60956">
        <ele>14.4</ele>
        <time>2024-11-24T10:08:59Z</time>
      </trkpt>
      <trkpt lat="45.07528" lon="-0.60955">
        <ele>14.3</ele>
        <time>2024-11-24T10:09:00Z</time>
      </trkpt>
      <trkpt lat="45.0753" lon="-0.60953">
        <ele>14.3</ele>
        <time>2024-11-24T10:09:01Z</time>
      </trkpt>
      <trkpt lat="45.07531" lon="-0.60952">
        <ele>14.2</ele>
        <time>2024-11-24T10:09:02Z</time>
      </trkpt>
      <trkpt lat="45.07532" lon="-0.60951">
        <ele>14.1</ele>
        <time>2024-11-24T10:09:03Z</time>
      </trkpt>
      <trkpt lat="45.07533" lon="-0.60949">
        <ele>14.1</ele>
        <time>2024-11-24T10:09:04Z</time>
      </trkpt>
      <trkpt lat="45.07534" lon="-0.60948">
        <ele>14</ele>
        <time>2024-11-24T10:09:05Z</time>
      </trkpt>
      <trkpt lat="45.07535" lon="-0.60947">
        <ele>14</ele>
        <time>2024-11-24T10:09:06Z</time>
      </trkpt>
      <trkpt lat="45.07536" lon="-0.60945">
        <ele>13.9</ele>
        <time>2024-11-24T10:09:07Z</time>
      </trkpt>
      <trkpt lat="45.07538" lon="-0.60944">
        <ele>13.8</ele>
        <time>2024-11-24T10:09:08Z</time>
      </trkpt>
      <trkpt lat="45.07539" lon="-0.60943">
        <ele>13.8</ele>
        <time>2024-11-24T10:09:09Z</time>
      </trkpt>
      <trkpt lat="45.0754" lon="-0.60942">
        <ele>13.7</ele>
        <time>2024-11-24T10:09:10Z</time>
      </trkpt>
      <trkpt lat="45.07542" lon="-0.60941">
        <ele>13.7</ele>
        <time>2024-11-24T10:09:11Z</time>
      </trkpt>
      <trkpt lat="45.07549" lon="-0.60937">
        <ele>13.4</ele>
        <time>2024-11-24T10:09:12Z</time>
      </trkpt>
      <trkpt lat="45.07554" lon="-0.60934">
        <ele>13.2</ele>
        <time>2024-11-24T10:10:15Z</time>
      </trkpt>
      <trkpt lat="45.07559" lon="-0.60931">
        <ele>13.1</ele>
        <time>2024-11-24T10:10:16Z</time>
      </trkpt>
      <trkpt lat="45.07565" lon="-0.60928">
        <ele>13</ele>
        <time>2024-11-24T10:10:17Z</time>
      </trkpt>
      <trkpt lat="45.07565" lon="-0.60928">
        <ele>13</ele>
        <time>2024-11-24T10:10:18Z</time>
      </trkpt>
      <trkpt lat="45.07565" lon="-0.60928">
        <ele>13</ele>
        <time>2024-11-24T10:10:19Z</time>
      </trkpt>
      <trkpt lat="45.07565" lon="-0.60928">
        <ele>13</ele>
        <time>2024-11-24T10:10:20Z</time>
      </trkpt>
      <trkpt lat="45.07565" lon="-0.60928">
        <ele>13</ele>
        <time>2024-11-24T10:10:21Z</time>
      </trkpt>
      <trkpt lat="45.07565" lon="-0.60928">
        <ele>13</ele>
        <time>2024-11-24T10:10:22Z</time>
      </trkpt>
      <trkpt lat="45.07565" lon="-0.60928">
        <ele>13</ele>
        <time>2024-11-24T10:10:23Z</time>
      </trkpt>
      <trkpt lat="45.07565" lon="-0.60928">
        <ele>13</ele>
        <time>2024-11-24T10:10:24Z</time>
      </trkpt>
      <trkpt lat="45.07565" lon="-0.60928">
        <ele>13</ele>
        <time>2024-11-24T10:10:25Z</time>
      </trkpt>
      <trkpt lat="45.07565" lon="-0.60928">
        <ele>13</ele>
        <time>2024-11-24T10:10:26Z</time>
      </trkpt>
      <trkpt lat="45.07565" lon="-0.60928">
        <ele>13</ele>
        <time>2024-11-24T10:10:27Z</time>
      </trkpt>
      <trkpt lat="45.07565" lon="-0.60928">
        <ele>13</ele>
        <time>2024-11-24T10:11:09Z</time>
      </trkpt>
      <trkpt lat="45.07565" lon="-0.60928">
        <ele>13</ele>
        <time>2024-11-24T10:11:10Z</time>
      </trkpt>
      <trkpt lat="45.07565" lon="-0.60928">
        <ele>13</ele>
        <time>2024-11-24T10:11:11Z</time>
      </trkpt>
      <trkpt lat="45.07565" lon="-0.60928">
        <ele>13</ele>
        <time>2024-11-24T10:11:12Z</time>
      </trkpt>
      <trkpt lat="45.07565" lon="-0.60928">
        <ele>13</ele>
        <time>2024-11-24T10:11:13Z</time>
      </trkpt>
      <trkpt lat="45.07565" lon="-0.60928">
        <ele>13</ele>
        <time>2024-11-24T10:11:14Z</time>
      </trkpt>
      <trkpt lat="45.07565" lon="-0.60928">
        <ele>13</ele>
        <time>2024-11-24T10:11:15Z</time>
      </trkpt>
      <trkpt lat="45.07565" lon="-0.60928">
        <ele>13</ele>
        <time>2024-11-24T10:11:16Z</time>
      </trkpt>
      <trkpt lat="45.07565" lon="-0.60928">
        <ele>13</ele>
        <time>2024-11-24T10:11:17Z</time>
      </trkpt>
      <trkpt lat="45.07566" lon="-0.60927">
        <ele>13</ele>
        <time>2024-11-24T10:11:18Z</time>
      </trkpt>
      <trkpt lat="45.07566" lon="-0.60926">
        <ele>13</ele>
        <time>2024-11-24T10:11:19Z</time>
      </trkpt>
      <trkpt lat="45.07566" lon="-0.60926">
        <ele>13</ele>
        <time>2024-11-24T10:11:20Z</time>
      </trkpt>
      <trkpt lat="45.07566" lon="-0.60925">
        <ele>13</ele>
        <time>2024-11-24T10:11:21Z</time>
      </trkpt>
      <trkpt lat="45.07567" lon="-0.60925">
        <ele>13</ele>
        <time>2024-11-24T10:11:22Z</time>
      </trkpt>
      <trkpt lat="45.07567" lon="-0.60924">
        <ele>12.9</ele>
        <time>2024-11-24T10:11:23Z</time>
      </trkpt>
      <trkpt lat="45.07567" lon="-0.60924">
        <ele>12.9</ele>
        <time>2024-11-24T10:11:24Z</time>
      </trkpt>
      <trkpt lat="45.07567" lon="-0.60924">
        <ele>12.9</ele>
        <time>2024-11-24T10:11:25Z</time>
      </trkpt>
      <trkpt lat="45.07567" lon="-0.60924">
        <ele>12.9</ele>
        <time>2024-11-24T10:11:26Z</time>
      </trkpt>
      <trkpt lat="45.07568" lon="-0.60924">
        <ele>12.9</ele>
        <time>2024-11-24T10:11:27Z</time>
      </trkpt>
      <trkpt lat="45.07568" lon="-0.60923">
        <ele>12.9</ele>
        <time>2024-11-24T10:11:28Z</time>
      </trkpt>
      <trkpt lat="45.07568" lon="-0.60923">
        <ele>12.9</ele>
        <time>2024-11-24T10:11:29Z</time>
      </trkpt>
      <trkpt lat="45.07568" lon="-0.60923">
        <ele>12.9</ele>
        <time>2024-11-24T10:11:30Z</time>
      </trkpt>
      <trkpt lat="45.07568" lon="-0.60923">
        <ele>12.9</ele>
        <time>2024-11-24T10:11:31Z</time>
      </trkpt>
      <trkpt lat="45.07568" lon="-0.60923">
        <ele>12.9</ele>
        <time>2024-11-24T10:11:32Z</time>
      </trkpt>
      <trkpt lat="45.07568" lon="-0.60923">
        <ele>12.9</ele>
        <time>2024-11-24T10:11:33Z</time>
      </trkpt>
      <trkpt lat="45.07568" lon="-0.60923">
        <ele>12.9</ele>
        <time>2024-11-24T10:11:34Z</time>
      </trkpt>
      <trkpt lat="45.07569" lon="-0.60923">
        <ele>12.9</ele>
        <time>2024-11-24T10:11:35Z</time>
      </trkpt>
      <trkpt lat="45.07569" lon="-0.60922">
        <ele>12.9</ele>
        <time>2024-11-24T10:11:36Z</time>
      </trkpt>
      <trkpt lat="45.0757" lon="-0.60921">
        <ele>12.9</ele>
        <time>2024-11-24T10:11:37Z</time>
      </trkpt>
      <trkpt lat="45.07571" lon="-0.6092">
        <ele>12.9</ele>
        <time>2024-11-24T10:11:38Z</time>
      </trkpt>
      <trkpt lat="45.07572" lon="-0.60919">
        <ele>12.8</ele>
        <time>2024-11-24T10:11:39Z</time>
      </trkpt>
      <trkpt lat="45.07573" lon="-0.60918">
        <ele>12.8</ele>
        <time>2024-11-24T10:11:40Z</time>
      </trkpt>
      <trkpt lat="45.07575" lon="-0.60918">
        <ele>12.8</ele>
        <time>2024-11-24T10:11:41Z</time>
      </trkpt>
      <trkpt lat="45.07576" lon="-0.60918">
        <ele>12.8</ele>
        <time>2024-11-24T10:11:42Z</time>
      </trkpt>
      <trkpt lat="45.07577" lon="-0.60917">
        <ele>12.8</ele>
        <time>2024-11-24T10:11:43Z</time>
      </trkpt>
      <trkpt lat="45.0758" lon="-0.60916">
        <ele>12.7</ele>
        <time>2024-11-24T10:11:44Z</time>
      </trkpt>
      <trkpt lat="45.0758" lon="-0.60916">
        <ele>12.7</ele>
        <time>2024-11-24T10:11:45Z</time>
      </trkpt>
      <trkpt lat="45.07581" lon="-0.60916">
        <ele>12.7</ele>
        <time>2024-11-24T10:11:46Z</time>
      </trkpt>
      <trkpt lat="45.07583" lon="-0.60915">
        <ele>12.7</ele>
        <time>2024-11-24T10:11:47Z</time>
      </trkpt>
      <trkpt lat="45.07584" lon="-0.60915">
        <ele>12.6</ele>
        <time>2024-11-24T10:11:48Z</time>
      </trkpt>
      <trkpt lat="45.07585" lon="-0.60914">
        <ele>12.6</ele>
        <time>2024-11-24T10:11:49Z</time>
      </trkpt>
      <trkpt lat="45.07587" lon="-0.60914">
        <ele>12.6</ele>
        <time>2024-11-24T10:11:50Z</time>
      </trkpt>
      <trkpt lat="45.07588" lon="-0.60914">
        <ele>12.6</ele>
        <time>2024-11-24T10:11:51Z</time>
      </trkpt>
      <trkpt lat="45.07589" lon="-0.60914">
        <ele>12.6</ele>
        <time>2024-11-24T10:11:52Z</time>
      </trkpt>
      <trkpt lat="45.07591" lon="-0.60913">
        <ele>12.5</ele>
        <time>2024-11-24T10:11:53Z</time>
      </trkpt>
      <trkpt lat="45.07592" lon="-0.60913">
        <ele>12.5</ele>
        <time>2024-11-24T10:11:54Z</time>
      </trkpt>
      <trkpt lat="45.07592" lon="-0.60913">
        <ele>12.5</ele>
        <time>2024-11-24T10:11:55Z</time>
      </trkpt>
      <trkpt lat="45.07594" lon="-0.60913">
        <ele>12.5</ele>
        <time>2024-11-24T10:11:56Z</time>
      </trkpt>
      <trkpt lat="45.07596" lon="-0.60912">
        <ele>12.5</ele>
        <time>2024-11-24T10:11:57Z</time>
      </trkpt>
      <trkpt lat="45.07598" lon="-0.60912">
        <ele>12.5</ele>
        <time>2024-11-24T10:11:58Z</time>
      </trkpt>
      <trkpt lat="45.07598" lon="-0.60912">
        <ele>12.4</ele>
        <time>2024-11-24T10:11:59Z</time>
      </trkpt>
      <trkpt lat="45.07599" lon="-0.60912">
        <ele>12.4</ele>
        <time>2024-11-24T10:12:00Z</time>
      </trkpt>
      <trkpt lat="45.07601" lon="-0.60911">
        <ele>12.4</ele>
        <time>2024-11-24T10:12:01Z</time>
      </trkpt>
      <trkpt lat="45.07602" lon="-0.60911">
        <ele>12.4</ele>
        <time>2024-11-24T10:12:02Z</time>
      </trkpt>
      <trkpt lat="45.07604" lon="-0.60911">
        <ele>12.4</ele>
        <time>2024-11-24T10:12:03Z</time>
      </trkpt>
      <trkpt lat="45.07605" lon="-0.60911">
        <ele>12.4</ele>
        <time>2024-11-24T10:12:04Z</time>
      </trkpt>
      <trkpt lat="45.07606" lon="-0.60911">
        <ele>12.4</ele>
        <time>2024-11-24T10:12:05Z</time>
      </trkpt>
      <trkpt lat="45.07608" lon="-0.60911">
        <ele>12.4</ele>
        <time>2024-11-24T10:12:06Z</time>
      </trkpt>
      <trkpt lat="45.07609" lon="-0.60911">
        <ele>12.4</ele>
        <time>2024-11-24T10:12:07Z</time>
      </trkpt>
      <trkpt lat="45.07611" lon="-0.60911">
        <ele>12.5</ele>
        <time>2024-11-24T10:12:08Z</time>
      </trkpt>
      <trkpt lat="45.07612" lon="-0.60911">
        <ele>12.5</ele>
        <time>2024-11-24T10:12:09Z</time>
      </trkpt>
      <trkpt lat="45.07613" lon="-0.60911">
        <ele>12.5</ele>
        <time>2024-11-24T10:12:10Z</time>
      </trkpt>
      <trkpt lat="45.07614" lon="-0.60911">
        <ele>12.5</ele>
        <time>2024-11-24T10:12:11Z</time>
      </trkpt>
      <trkpt lat="45.07616" lon="-0.60911">
        <ele>12.5</ele>
        <time>2024-11-24T10:12:12Z</time>
      </trkpt>
      <trkpt lat="45.07617" lon="-0.60911">
        <ele>12.5</ele>
        <time>2024-11-24T10:12:13Z</time>
      </trkpt>
      <trkpt lat="45.07618" lon="-0.60911">
        <ele>12.5</ele>
        <time>2024-11-24T10:12:14Z</time>
      </trkpt>
      <trkpt lat="45.07619" lon="-0.60911">
        <ele>12.5</ele>
        <time>2024-11-24T10:12:15Z</time>
      </trkpt>
      <trkpt lat="45.07621" lon="-0.60912">
        <ele>12.5</ele>
        <time>2024-11-24T10:12:16Z</time>
      </trkpt>
      <trkpt lat="45.07622" lon="-0.60913">
        <ele>12.5</ele>
        <time>2024-11-24T10:12:17Z</time>
      </trkpt>
      <trkpt lat="45.07623" lon="-0.60914">
        <ele>12.5</ele>
        <time>2024-11-24T10:12:18Z</time>
      </trkpt>
      <trkpt lat="45.07624" lon="-0.60915">
        <ele>12.5</ele>
        <time>2024-11-24T10:12:19Z</time>
      </trkpt>
      <trkpt lat="45.07625" lon="-0.60917">
        <ele>12.5</ele>
        <time>2024-11-24T10:12:20Z</time>
      </trkpt>
      <trkpt lat="45.07626" lon="-0.60918">
        <ele>12.5</ele>
        <time>2024-11-24T10:12:21Z</time>
      </trkpt>
      <trkpt lat="45.07627" lon="-0.6092">
        <ele>12.5</ele>
        <time>2024-11-24T10:12:22Z</time>
      </trkpt>
      <trkpt lat="45.07628" lon="-0.60921">
        <ele>12.5</ele>
        <time>2024-11-24T10:12:23Z</time>
      </trkpt>
      <trkpt lat="45.0763" lon="-0.60922">
        <ele>12.4</ele>
        <time>2024-11-24T10:12:24Z</time>
      </trkpt>
      <trkpt lat="45.07631" lon="-0.60923">
        <ele>12.4</ele>
        <time>2024-11-24T10:12:25Z</time>
      </trkpt>
      <trkpt lat="45.07632" lon="-0.60924">
        <ele>12.4</ele>
        <time>2024-11-24T10:12:26Z</time>
      </trkpt>
      <trkpt lat="45.07635" lon="-0.60926">
        <ele>12.3</ele>
        <time>2024-11-24T10:12:27Z</time>
      </trkpt>
      <trkpt lat="45.07635" lon="-0.60926">
        <ele>12.3</ele>
        <time>2024-11-24T10:12:28Z</time>
      </trkpt>
      <trkpt lat="45.07637" lon="-0.60927">
        <ele>12.2</ele>
        <time>2024-11-24T10:12:29Z</time>
      </trkpt>
      <trkpt lat="45.07638" lon="-0.60928">
        <ele>12.2</ele>
        <time>2024-11-24T10:12:30Z</time>
      </trkpt>
      <trkpt lat="45.0764" lon="-0.60928">
        <ele>12.1</ele>
        <time>2024-11-24T10:12:31Z</time>
      </trkpt>
      <trkpt lat="45.07641" lon="-0.60929">
        <ele>12.1</ele>
        <time>2024-11-24T10:12:32Z</time>
      </trkpt>
      <trkpt lat="45.07642" lon="-0.6093">
        <ele>12</ele>
        <time>2024-11-24T10:12:33Z</time>
      </trkpt>
      <trkpt lat="45.07644" lon="-0.60931">
        <ele>12</ele>
        <time>2024-11-24T10:12:34Z</time>
      </trkpt>
      <trkpt lat="45.07645" lon="-0.60931">
        <ele>12</ele>
        <time>2024-11-24T10:12:35Z</time>
      </trkpt>
      <trkpt lat="45.07646" lon="-0.60932">
        <ele>11.9</ele>
        <time>2024-11-24T10:12:36Z</time>
      </trkpt>
      <trkpt lat="45.07648" lon="-0.60933">
        <ele>11.9</ele>
        <time>2024-11-24T10:12:37Z</time>
      </trkpt>
      <trkpt lat="45.07649" lon="-0.60933">
        <ele>11.8</ele>
        <time>2024-11-24T10:12:38Z</time>
      </trkpt>
      <trkpt lat="45.0765" lon="-0.60934">
        <ele>11.8</ele>
        <time>2024-11-24T10:12:39Z</time>
      </trkpt>
      <trkpt lat="45.07652" lon="-0.60934">
        <ele>11.8</ele>
        <time>2024-11-24T10:12:40Z</time>
      </trkpt>
      <trkpt lat="45.07653" lon="-0.60935">
        <ele>11.8</ele>
        <time>2024-11-24T10:12:41Z</time>
      </trkpt>
      <trkpt lat="45.07655" lon="-0.60936">
        <ele>11.7</ele>
        <time>2024-11-24T10:12:42Z</time>
      </trkpt>
      <trkpt lat="45.07657" lon="-0.60938">
        <ele>11.7</ele>
        <time>2024-11-24T10:12:43Z</time>
      </trkpt>
      <trkpt lat="45.07657" lon="-0.60939">
        <ele>11.7</ele>
        <time>2024-11-24T10:12:44Z</time>
      </trkpt>
      <trkpt lat="45.07658" lon="-0.60939">
        <ele>11.6</ele>
        <time>2024-11-24T10:12:45Z</time>
      </trkpt>
      <trkpt lat="45.07659" lon="-0.60941">
        <ele>11.6</ele>
        <time>2024-11-24T10:12:46Z</time>
      </trkpt>
      <trkpt lat="45.07661" lon="-0.60943">
        <ele>11.6</ele>
        <time>2024-11-24T10:12:47Z</time>
      </trkpt>
      <trkpt lat="45.07661" lon="-0.60944">
        <ele>11.6</ele>
        <time>2024-11-24T10:12:48Z</time>
      </trkpt>
      <trkpt lat="45.07662" lon="-0.60944">
        <ele>11.6</ele>
        <time>2024-11-24T10:12:49Z</time>
      </trkpt>
      <trkpt lat="45.07663" lon="-0.60946">
        <ele>11.6</ele>
        <time>2024-11-24T10:12:50Z</time>
      </trkpt>
      <trkpt lat="45.07665" lon="-0.60947">
        <ele>11.6</ele>
        <time>2024-11-24T10:12:51Z</time>
      </trkpt>
      <trkpt lat="45.07666" lon="-0.60948">
        <ele>11.6</ele>
        <time>2024-11-24T10:12:52Z</time>
      </trkpt>
      <trkpt lat="45.07667" lon="-0.60949">
        <ele>11.6</ele>
        <time>2024-11-24T10:12:53Z</time>
      </trkpt>
      <trkpt lat="45.07668" lon="-0.60951">
        <ele>11.6</ele>
        <time>2024-11-24T10:12:54Z</time>
      </trkpt>
      <trkpt lat="45.07669" lon="-0.60952">
        <ele>11.6</ele>
        <time>2024-11-24T10:12:55Z</time>
      </trkpt>
      <trkpt lat="45.0767" lon="-0.60952">
        <ele>11.6</ele>
        <time>2024-11-24T10:12:56Z</time>
      </trkpt>
      <trkpt lat="45.07671" lon="-0.60954">
        <ele>11.6</ele>
        <time>2024-11-24T10:12:57Z</time>
      </trkpt>
      <trkpt lat="45.07672" lon="-0.60955">
        <ele>11.6</ele>
        <time>2024-11-24T10:12:58Z</time>
      </trkpt>
      <trkpt lat="45.07674" lon="-0.60957">
        <ele>11.6</ele>
        <time>2024-11-24T10:12:59Z</time>
      </trkpt>
      <trkpt lat="45.07674" lon="-0.60958">
        <ele>11.7</ele>
        <time>2024-11-24T10:13:00Z</time>
      </trkpt>
      <trkpt lat="45.07675" lon="-0.60958">
        <ele>11.7</ele>
        <time>2024-11-24T10:13:01Z</time>
      </trkpt>
      <trkpt lat="45.07676" lon="-0.6096">
        <ele>11.7</ele>
        <time>2024-11-24T10:13:02Z</time>
      </trkpt>
      <trkpt lat="45.07677" lon="-0.60961">
        <ele>11.7</ele>
        <time>2024-11-24T10:13:03Z</time>
      </trkpt>
      <trkpt lat="45.07679" lon="-0.60963">
        <ele>11.8</ele>
        <time>2024-11-24T10:13:04Z</time>
      </trkpt>
      <trkpt lat="45.0768" lon="-0.60964">
        <ele>11.8</ele>
        <time>2024-11-24T10:13:05Z</time>
      </trkpt>
      <trkpt lat="45.0768" lon="-0.60964">
        <ele>11.8</ele>
        <time>2024-11-24T10:13:06Z</time>
      </trkpt>
      <trkpt lat="45.07682" lon="-0.60966">
        <ele>11.9</ele>
        <time>2024-11-24T10:13:07Z</time>
      </trkpt>
      <trkpt lat="45.07682" lon="-0.60967">
        <ele>11.9</ele>
        <time>2024-11-24T10:13:08Z</time>
      </trkpt>
      <trkpt lat="45.07684" lon="-0.6097">
        <ele>12</ele>
        <time>2024-11-24T10:13:09Z</time>
      </trkpt>
      <trkpt lat="45.07684" lon="-0.60971">
        <ele>12.1</ele>
        <time>2024-11-24T10:13:10Z</time>
      </trkpt>
      <trkpt lat="45.07685" lon="-0.60972">
        <ele>12.1</ele>
        <time>2024-11-24T10:13:11Z</time>
      </trkpt>
      <trkpt lat="45.07686" lon="-0.60974">
        <ele>12.2</ele>
        <time>2024-11-24T10:13:12Z</time>
      </trkpt>
      <trkpt lat="45.07687" lon="-0.60975">
        <ele>12.2</ele>
        <time>2024-11-24T10:13:13Z</time>
      </trkpt>
      <trkpt lat="45.07687" lon="-0.60976">
        <ele>12.3</ele>
        <time>2024-11-24T10:13:14Z</time>
      </trkpt>
      <trkpt lat="45.07688" lon="-0.60978">
        <ele>12.4</ele>
        <time>2024-11-24T10:13:15Z</time>
      </trkpt>
      <trkpt lat="45.07689" lon="-0.60979">
        <ele>12.5</ele>
        <time>2024-11-24T10:13:16Z</time>
      </trkpt>
      <trkpt lat="45.0769" lon="-0.6098">
        <ele>12.5</ele>
        <time>2024-11-24T10:13:17Z</time>
      </trkpt>
      <trkpt lat="45.07691" lon="-0.60983">
        <ele>12.7</ele>
        <time>2024-11-24T10:13:18Z</time>
      </trkpt>
      <trkpt lat="45.07692" lon="-0.60983">
        <ele>12.7</ele>
        <time>2024-11-24T10:13:19Z</time>
      </trkpt>
      <trkpt lat="45.07692" lon="-0.60984">
        <ele>12.7</ele>
        <time>2024-11-24T10:13:20Z</time>
      </trkpt>
      <trkpt lat="45.07693" lon="-0.60986">
        <ele>12.8</ele>
        <time>2024-11-24T10:13:21Z</time>
      </trkpt>
      <trkpt lat="45.07694" lon="-0.60987">
        <ele>12.9</ele>
        <time>2024-11-24T10:13:22Z</time>
      </trkpt>
      <trkpt lat="45.07695" lon="-0.60988">
        <ele>13</ele>
        <time>2024-11-24T10:13:23Z</time>
      </trkpt>
      <trkpt lat="45.07696" lon="-0.60989">
        <ele>13.1</ele>
        <time>2024-11-24T10:13:24Z</time>
      </trkpt>
      <trkpt lat="45.07697" lon="-0.6099">
        <ele>13.2</ele>
        <time>2024-11-24T10:13:25Z</time>
      </trkpt>
      <trkpt lat="45.07698" lon="-0.60993">
        <ele>13.3</ele>
        <time>2024-11-24T10:13:26Z</time>
      </trkpt>
      <trkpt lat="45.07699" lon="-0.60994">
        <ele>13.4</ele>
        <time>2024-11-24T10:13:27Z</time>
      </trkpt>
      <trkpt lat="45.07699" lon="-0.60995">
        <ele>13.4</ele>
        <time>2024-11-24T10:13:28Z</time>
      </trkpt>
      <trkpt lat="45.077" lon="-0.60997">
        <ele>13.5</ele>
        <time>2024-11-24T10:13:29Z</time>
      </trkpt>
      <trkpt lat="45.07701" lon="-0.60998">
        <ele>13.6</ele>
        <time>2024-11-24T10:13:30Z</time>
      </trkpt>
      <trkpt lat="45.07701" lon="-0.61">
        <ele>13.7</ele>
        <time>2024-11-24T10:13:31Z</time>
      </trkpt>
      <trkpt lat="45.07702" lon="-0.61002">
        <ele>13.8</ele>
        <time>2024-11-24T10:13:32Z</time>
      </trkpt>
      <trkpt lat="45.07703" lon="-0.61004">
        <ele>14</ele>
        <time>2024-11-24T10:13:33Z</time>
      </trkpt>
      <trkpt lat="45.07704" lon="-0.61005">
        <ele>14</ele>
        <time>2024-11-24T10:13:34Z</time>
      </trkpt>
      <trkpt lat="45.07704" lon="-0.61006">
        <ele>14.1</ele>
        <time>2024-11-24T10:13:35Z</time>
      </trkpt>
      <trkpt lat="45.07706" lon="-0.61008">
        <ele>14.2</ele>
        <time>2024-11-24T10:13:36Z</time>
      </trkpt>
      <trkpt lat="45.07706" lon="-0.61009">
        <ele>14.3</ele>
        <time>2024-11-24T10:13:37Z</time>
      </trkpt>
      <trkpt lat="45.07707" lon="-0.6101">
        <ele>14.4</ele>
        <time>2024-11-24T10:13:38Z</time>
      </trkpt>
      <trkpt lat="45.07708" lon="-0.61012">
        <ele>14.5</ele>
        <time>2024-11-24T10:13:39Z</time>
      </trkpt>
      <trkpt lat="45.07709" lon="-0.61013">
        <ele>14.6</ele>
        <time>2024-11-24T10:13:40Z</time>
      </trkpt>
      <trkpt lat="45.07709" lon="-0.61015">
        <ele>14.7</ele>
        <time>2024-11-24T10:13:41Z</time>
      </trkpt>
      <trkpt lat="45.0771" lon="-0.61017">
        <ele>14.8</ele>
        <time>2024-11-24T10:13:42Z</time>
      </trkpt>
      <trkpt lat="45.07711" lon="-0.61019">
        <ele>14.9</ele>
        <time>2024-11-24T10:13:43Z</time>
      </trkpt>
      <trkpt lat="45.07711" lon="-0.61021">
        <ele>15</ele>
        <time>2024-11-24T10:13:44Z</time>
      </trkpt>
      <trkpt lat="45.07712" lon="-0.61023">
        <ele>15</ele>
        <time>2024-11-24T10:13:45Z</time>
      </trkpt>
      <trkpt lat="45.07713" lon="-0.61025">
        <ele>15.1</ele>
        <time>2024-11-24T10:13:46Z</time>
      </trkpt>
      <trkpt lat="45.07713" lon="-0.61027">
        <ele>15.2</ele>
        <time>2024-11-24T10:13:47Z</time>
      </trkpt>
      <trkpt lat="45.07714" lon="-0.61029">
        <ele>15.3</ele>
        <time>2024-11-24T10:13:48Z</time>
      </trkpt>
      <trkpt lat="45.07715" lon="-0.6103">
        <ele>15.3</ele>
        <time>2024-11-24T10:13:49Z</time>
      </trkpt>
      <trkpt lat="45.07715" lon="-0.61032">
        <ele>15.4</ele>
        <time>2024-11-24T10:13:50Z</time>
      </trkpt>
      <trkpt lat="45.07716" lon="-0.61034">
        <ele>15.4</ele>
        <time>2024-11-24T10:13:51Z</time>
      </trkpt>
      <trkpt lat="45.07717" lon="-0.61035">
        <ele>15.5</ele>
        <time>2024-11-24T10:13:52Z</time>
      </trkpt>
      <trkpt lat="45.07718" lon="-0.61038">
        <ele>15.6</ele>
        <time>2024-11-24T10:13:53Z</time>
      </trkpt>
      <trkpt lat="45.07719" lon="-0.61039">
        <ele>15.6</ele>
        <time>2024-11-24T10:13:54Z</time>
      </trkpt>
      <trkpt lat="45.0772" lon="-0.6104">
        <ele>15.6</ele>
        <time>2024-11-24T10:13:55Z</time>
      </trkpt>
      <trkpt lat="45.0772" lon="-0.61041">
        <ele>15.6</ele>
        <time>2024-11-24T10:13:56Z</time>
      </trkpt>
      <trkpt lat="45.07722" lon="-0.61043">
        <ele>15.7</ele>
        <time>2024-11-24T10:13:57Z</time>
      </trkpt>
      <trkpt lat="45.07722" lon="-0.61045">
        <ele>15.7</ele>
        <time>2024-11-24T10:13:58Z</time>
      </trkpt>
      <trkpt lat="45.07723" lon="-0.61046">
        <ele>15.7</ele>
        <time>2024-11-24T10:13:59Z</time>
      </trkpt>
      <trkpt lat="45.07724" lon="-0.61047">
        <ele>15.8</ele>
        <time>2024-11-24T10:14:00Z</time>
      </trkpt>
      <trkpt lat="45.07726" lon="-0.61048">
        <ele>15.8</ele>
        <time>2024-11-24T10:14:01Z</time>
      </trkpt>
      <trkpt lat="45.07727" lon="-0.61049">
        <ele>15.8</ele>
        <time>2024-11-24T10:14:02Z</time>
      </trkpt>
      <trkpt lat="45.07729" lon="-0.61051">
        <ele>15.9</ele>
        <time>2024-11-24T10:14:03Z</time>
      </trkpt>
      <trkpt lat="45.0773" lon="-0.61051">
        <ele>15.9</ele>
        <time>2024-11-24T10:14:04Z</time>
      </trkpt>
      <trkpt lat="45.07731" lon="-0.61052">
        <ele>15.9</ele>
        <time>2024-11-24T10:14:05Z</time>
      </trkpt>
      <trkpt lat="45.07732" lon="-0.61054">
        <ele>16</ele>
        <time>2024-11-24T10:14:06Z</time>
      </trkpt>
      <trkpt lat="45.07733" lon="-0.61054">
        <ele>16</ele>
        <time>2024-11-24T10:14:07Z</time>
      </trkpt>
      <trkpt lat="45.07734" lon="-0.61056">
        <ele>16.1</ele>
        <time>2024-11-24T10:14:08Z</time>
      </trkpt>
      <trkpt lat="45.07735" lon="-0.61058">
        <ele>16.1</ele>
        <time>2024-11-24T10:14:09Z</time>
      </trkpt>
      <trkpt lat="45.07736" lon="-0.61059">
        <ele>16.2</ele>
        <time>2024-11-24T10:14:10Z</time>
      </trkpt>
      <trkpt lat="45.07797" lon="-0.6112">
        <ele>17.5</ele>
        <time>2024-11-24T10:14:58Z</time>
      </trkpt>
      <trkpt lat="45.07799" lon="-0.61122">
        <ele>17.6</ele>
        <time>2024-11-24T10:14:59Z</time>
      </trkpt>
      <trkpt lat="45.078" lon="-0.61123">
        <ele>17.6</ele>
        <time>2024-11-24T10:15:00Z</time>
      </trkpt>
      <trkpt lat="45.07801" lon="-0.61124">
        <ele>17.6</ele>
        <time>2024-11-24T10:15:01Z</time>
      </trkpt>
      <trkpt lat="45.07803" lon="-0.61126">
        <ele>17.6</ele>
        <time>2024-11-24T10:15:02Z</time>
      </trkpt>
      <trkpt lat="45.07803" lon="-0.61127">
        <ele>17.7</ele>
        <time>2024-11-24T10:15:03Z</time>
      </trkpt>
      <trkpt lat="45.07804" lon="-0.61127">
        <ele>17.7</ele>
        <time>2024-11-24T10:15:04Z</time>
      </trkpt>
      <trkpt lat="45.07805" lon="-0.61129">
        <ele>17.7</ele>
        <time>2024-11-24T10:15:05Z</time>
      </trkpt>
      <trkpt lat="45.07806" lon="-0.61131">
        <ele>17.7</ele>
        <time>2024-11-24T10:15:06Z</time>
      </trkpt>
      <trkpt lat="45.07807" lon="-0.61132">
        <ele>17.7</ele>
        <time>2024-11-24T10:15:07Z</time>
      </trkpt>
      <trkpt lat="45.07809" lon="-0.61133">
        <ele>17.8</ele>
        <time>2024-11-24T10:15:08Z</time>
      </trkpt>
      <trkpt lat="45.0781" lon="-0.61134">
        <ele>17.8</ele>
        <time>2024-11-24T10:15:09Z</time>
      </trkpt>
      <trkpt lat="45.07811" lon="-0.61135">
        <ele>17.8</ele>
        <time>2024-11-24T10:15:10Z</time>
      </trkpt>
      <trkpt lat="45.0782" lon="-0.61144">
        <ele>18.1</ele>
        <time>2024-11-24T10:15:11Z</time>
      </trkpt>
      <trkpt lat="45.07827" lon="-0.61151">
        <ele>18.4</ele>
        <time>2024-11-24T10:15:38Z</time>
      </trkpt>
      <trkpt lat="45.07835" lon="-0.61159">
        <ele>18.7</ele>
        <time>2024-11-24T10:15:39Z</time>
      </trkpt>
      <trkpt lat="45.07842" lon="-0.61167">
        <ele>18.9</ele>
        <time>2024-11-24T10:15:40Z</time>
      </trkpt>
      <trkpt lat="45.0785" lon="-0.61175">
        <ele>19.1</ele>
        <time>2024-11-24T10:15:41Z</time>
      </trkpt>
      <trkpt lat="45.07895" lon="-0.61222">
        <ele>20.4</ele>
        <time>2024-11-24T10:16:18Z</time>
      </trkpt>
      <trkpt lat="45.07896" lon="-0.61223">
        <ele>20.5</ele>
        <time>2024-11-24T10:16:19Z</time>
      </trkpt>
      <trkpt lat="45.07897" lon="-0.61224">
        <ele>20.5</ele>
        <time>2024-11-24T10:16:20Z</time>
      </trkpt>
      <trkpt lat="45.07898" lon="-0.61225">
        <ele>20.5</ele>
        <time>2024-11-24T10:16:21Z</time>
      </trkpt>
      <trkpt lat="45.07899" lon="-0.61227">
        <ele>20.6</ele>
        <time>2024-11-24T10:16:22Z</time>
      </trkpt>
      <trkpt lat="45.079" lon="-0.61228">
        <ele>20.6</ele>
        <time>2024-11-24T10:16:23Z</time>
      </trkpt>
      <trkpt lat="45.07901" lon="-0.61229">
        <ele>20.7</ele>
        <time>2024-11-24T10:16:24Z</time>
      </trkpt>
      <trkpt lat="45.07902" lon="-0.61231">
        <ele>20.7</ele>
        <time>2024-11-24T10:16:25Z</time>
      </trkpt>
      <trkpt lat="45.07904" lon="-0.61232">
        <ele>20.7</ele>
        <time>2024-11-24T10:16:26Z</time>
      </trkpt>
      <trkpt lat="45.07958" lon="-0.61181">
        <ele>23.5</ele>
        <time>2024-11-24T10:17:18Z</time>
      </trkpt>
      <trkpt lat="45.07959" lon="-0.6118">
        <ele>23.5</ele>
        <time>2024-11-24T10:17:19Z</time>
      </trkpt>
      <trkpt lat="45.07959" lon="-0.61178">
        <ele>23.5</ele>
        <time>2024-11-24T10:17:20Z</time>
      </trkpt>
      <trkpt lat="45.0796" lon="-0.61177">
        <ele>23.6</ele>
        <time>2024-11-24T10:17:21Z</time>
      </trkpt>
      <trkpt lat="45.07961" lon="-0.61176">
        <ele>23.6</ele>
        <time>2024-11-24T10:17:22Z</time>
      </trkpt>
      <trkpt lat="45.07962" lon="-0.61174">
        <ele>23.7</ele>
        <time>2024-11-24T10:17:23Z</time>
      </trkpt>
      <trkpt lat="45.07962" lon="-0.61173">
        <ele>23.7</ele>
        <time>2024-11-24T10:17:24Z</time>
      </trkpt>
      <trkpt lat="45.07963" lon="-0.61171">
        <ele>23.8</ele>
        <time>2024-11-24T10:17:25Z</time>
      </trkpt>
      <trkpt lat="45.07964" lon="-0.61169">
        <ele>23.8</ele>
        <time>2024-11-24T10:17:26Z</time>
      </trkpt>
      <trkpt lat="45.07967" lon="-0.61164">
        <ele>23.9</ele>
        <time>2024-11-24T10:17:28Z</time>
      </trkpt>
      <trkpt lat="45.07967" lon="-0.61163">
        <ele>24</ele>
        <time>2024-11-24T10:17:29Z</time>
      </trkpt>
      <trkpt lat="45.07968" lon="-0.61162">
        <ele>24</ele>
        <time>2024-11-24T10:17:30Z</time>
      </trkpt>
      <trkpt lat="45.07969" lon="-0.6116">
        <ele>24</ele>
        <time>2024-11-24T10:17:31Z</time>
      </trkpt>
      <trkpt lat="45.07969" lon="-0.61158">
        <ele>24.1</ele>
        <time>2024-11-24T10:17:32Z</time>
      </trkpt>
      <trkpt lat="45.0797" lon="-0.61157">
        <ele>24.1</ele>
        <time>2024-11-24T10:17:33Z</time>
      </trkpt>
      <trkpt lat="45.07971" lon="-0.61155">
        <ele>24.2</ele>
        <time>2024-11-24T10:17:34Z</time>
      </trkpt>
      <trkpt lat="45.07972" lon="-0.61152">
        <ele>24.2</ele>
        <time>2024-11-24T10:17:35Z</time>
      </trkpt>
      <trkpt lat="45.07972" lon="-0.61151">
        <ele>24.3</ele>
        <time>2024-11-24T10:17:36Z</time>
      </trkpt>
      <trkpt lat="45.07973" lon="-0.6115">
        <ele>24.3</ele>
        <time>2024-11-24T10:17:37Z</time>
      </trkpt>
      <trkpt lat="45.07974" lon="-0.61148">
        <ele>24.3</ele>
        <time>2024-11-24T10:17:38Z</time>
      </trkpt>
      <trkpt lat="45.07975" lon="-0.61146">
        <ele>24.4</ele>
        <time>2024-11-24T10:17:39Z</time>
      </trkpt>
      <trkpt lat="45.07975" lon="-0.61144">
        <ele>24.4</ele>
        <time>2024-11-24T10:17:40Z</time>
      </trkpt>
      <trkpt lat="45.07976" lon="-0.61142">
        <ele>24.5</ele>
        <time>2024-11-24T10:17:41Z</time>
      </trkpt>
      <trkpt lat="45.07998" lon="-0.61086">
        <ele>26</ele>
        <time>2024-11-24T10:18:11Z</time>
      </trkpt>
      <trkpt lat="45.07999" lon="-0.61085">
        <ele>26</ele>
        <time>2024-11-24T10:18:12Z</time>
      </trkpt>
      <trkpt lat="45.08" lon="-0.61084">
        <ele>26</ele>
        <time>2024-11-24T10:18:13Z</time>
      </trkpt>
      <trkpt lat="45.08001" lon="-0.61082">
        <ele>26.1</ele>
        <time>2024-11-24T10:18:14Z</time>
      </trkpt>
      <trkpt lat="45.08002" lon="-0.61081">
        <ele>26.2</ele>
        <time>2024-11-24T10:18:15Z</time>
      </trkpt>
      <trkpt lat="45.08002" lon="-0.6108">
        <ele>26.2</ele>
        <time>2024-11-24T10:18:16Z</time>
      </trkpt>
      <trkpt lat="45.08003" lon="-0.61078">
        <ele>26.3</ele>
        <time>2024-11-24T10:18:17Z</time>
      </trkpt>
      <trkpt lat="45.08005" lon="-0.61077">
        <ele>26.3</ele>
        <time>2024-11-24T10:18:18Z</time>
      </trkpt>
      <trkpt lat="45.08006" lon="-0.61076">
        <ele>26.4</ele>
        <time>2024-11-24T10:18:19Z</time>
      </trkpt>
      <trkpt lat="45.08007" lon="-0.61075">
        <ele>26.5</ele>
        <time>2024-11-24T10:18:20Z</time>
      </trkpt>
      <trkpt lat="45.08009" lon="-0.61074">
        <ele>26.6</ele>
        <time>2024-11-24T10:18:21Z</time>
      </trkpt>
      <trkpt lat="45.0801" lon="-0.61072">
        <ele>26.6</ele>
        <time>2024-11-24T10:18:22Z</time>
      </trkpt>
      <trkpt lat="45.08011" lon="-0.61071">
        <ele>26.7</ele>
        <time>2024-11-24T10:18:23Z</time>
      </trkpt>
      <trkpt lat="45.08013" lon="-0.61071">
        <ele>26.8</ele>
        <time>2024-11-24T10:18:24Z</time>
      </trkpt>
      <trkpt lat="45.08014" lon="-0.6107">
        <ele>26.8</ele>
        <time>2024-11-24T10:18:25Z</time>
      </trkpt>
      <trkpt lat="45.08015" lon="-0.61069">
        <ele>26.9</ele>
        <time>2024-11-24T10:18:26Z</time>
      </trkpt>
      <trkpt lat="45.08016" lon="-0.61069">
        <ele>27</ele>
        <time>2024-11-24T10:18:27Z</time>
      </trkpt>
      <trkpt lat="45.08018" lon="-0.61067">
        <ele>27</ele>
        <time>2024-11-24T10:18:28Z</time>
      </trkpt>
      <trkpt lat="45.08019" lon="-0.61066">
        <ele>27.1</ele>
        <time>2024-11-24T10:18:29Z</time>
      </trkpt>
      <trkpt lat="45.08021" lon="-0.61065">
        <ele>27.2</ele>
        <time>2024-11-24T10:18:30Z</time>
      </trkpt>
      <trkpt lat="45.08023" lon="-0.61065">
        <ele>27.3</ele>
        <time>2024-11-24T10:18:31Z</time>
      </trkpt>
      <trkpt lat="45.08024" lon="-0.61065">
        <ele>27.3</ele>
        <time>2024-11-24T10:18:32Z</time>
      </trkpt>
      <trkpt lat="45.08025" lon="-0.61064">
        <ele>27.4</ele>
        <time>2024-11-24T10:18:33Z</time>
      </trkpt>
      <trkpt lat="45.08026" lon="-0.61063">
        <ele>27.4</ele>
        <time>2024-11-24T10:18:34Z</time>
      </trkpt>
      <trkpt lat="45.08027" lon="-0.61063">
        <ele>27.5</ele>
        <time>2024-11-24T10:18:35Z</time>
      </trkpt>
      <trkpt lat="45.08029" lon="-0.61062">
        <ele>27.6</ele>
        <time>2024-11-24T10:18:36Z</time>
      </trkpt>
      <trkpt lat="45.0803" lon="-0.61061">
        <ele>27.6</ele>
        <time>2024-11-24T10:18:37Z</time>
      </trkpt>
      <trkpt lat="45.08032" lon="-0.6106">
        <ele>27.7</ele>
        <time>2024-11-24T10:18:38Z</time>
      </trkpt>
      <trkpt lat="45.08033" lon="-0.6106">
        <ele>27.8</ele>
        <time>2024-11-24T10:18:39Z</time>
      </trkpt>
      <trkpt lat="45.08034" lon="-0.6106">
        <ele>27.8</ele>
        <time>2024-11-24T10:18:40Z</time>
      </trkpt>
      <trkpt lat="45.08035" lon="-0.61059">
        <ele>27.9</ele>
        <time>2024-11-24T10:18:41Z</time>
      </trkpt>
      <trkpt lat="45.08036" lon="-0.61058">
        <ele>28</ele>
        <time>2024-11-24T10:18:42Z</time>
      </trkpt>
      <trkpt lat="45.08037" lon="-0.61057">
        <ele>28</ele>
        <time>2024-11-24T10:18:43Z</time>
      </trkpt>
      <trkpt lat="45.08039" lon="-0.61057">
        <ele>28.1</ele>
        <time>2024-11-24T10:18:44Z</time>
      </trkpt>
      <trkpt lat="45.0804" lon="-0.61056">
        <ele>28.2</ele>
        <time>2024-11-24T10:18:45Z</time>
      </trkpt>
      <trkpt lat="45.08042" lon="-0.61055">
        <ele>28.2</ele>
        <time>2024-11-24T10:18:46Z</time>
      </trkpt>
      <trkpt lat="45.08044" lon="-0.61054">
        <ele>28.3</ele>
        <time>2024-11-24T10:18:47Z</time>
      </trkpt>
      <trkpt lat="45.08045" lon="-0.61053">
        <ele>28.4</ele>
        <time>2024-11-24T10:18:48Z</time>
      </trkpt>
      <trkpt lat="45.08045" lon="-0.61052">
        <ele>28.4</ele>
        <time>2024-11-24T10:18:49Z</time>
      </trkpt>
      <trkpt lat="45.08047" lon="-0.61051">
        <ele>28.5</ele>
        <time>2024-11-24T10:18:50Z</time>
      </trkpt>
      <trkpt lat="45.08048" lon="-0.6105">
        <ele>28.6</ele>
        <time>2024-11-24T10:18:51Z</time>
      </trkpt>
      <trkpt lat="45.08049" lon="-0.6105">
        <ele>28.6</ele>
        <time>2024-11-24T10:18:52Z</time>
      </trkpt>
      <trkpt lat="45.0805" lon="-0.61048">
        <ele>28.7</ele>
        <time>2024-11-24T10:18:53Z</time>
      </trkpt>
      <trkpt lat="45.08052" lon="-0.61048">
        <ele>28.7</ele>
        <time>2024-11-24T10:18:54Z</time>
      </trkpt>
      <trkpt lat="45.08053" lon="-0.61047">
        <ele>28.8</ele>
        <time>2024-11-24T10:18:55Z</time>
      </trkpt>
      <trkpt lat="45.08054" lon="-0.61045">
        <ele>28.8</ele>
        <time>2024-11-24T10:18:56Z</time>
      </trkpt>
      <trkpt lat="45.08055" lon="-0.61044">
        <ele>28.9</ele>
        <time>2024-11-24T10:18:57Z</time>
      </trkpt>
      <trkpt lat="45.08057" lon="-0.61044">
        <ele>28.9</ele>
        <time>2024-11-24T10:18:58Z</time>
      </trkpt>
      <trkpt lat="45.08057" lon="-0.61042">
        <ele>29</ele>
        <time>2024-11-24T10:18:59Z</time>
      </trkpt>
      <trkpt lat="45.08058" lon="-0.61041">
        <ele>29</ele>
        <time>2024-11-24T10:19:00Z</time>
      </trkpt>
      <trkpt lat="45.08059" lon="-0.6104">
        <ele>29.1</ele>
        <time>2024-11-24T10:19:01Z</time>
      </trkpt>
      <trkpt lat="45.0806" lon="-0.61038">
        <ele>29.1</ele>
        <time>2024-11-24T10:19:02Z</time>
      </trkpt>
      <trkpt lat="45.08062" lon="-0.61037">
        <ele>29.2</ele>
        <time>2024-11-24T10:19:03Z</time>
      </trkpt>
      <trkpt lat="45.08063" lon="-0.61036">
        <ele>29.2</ele>
        <time>2024-11-24T10:19:04Z</time>
      </trkpt>
      <trkpt lat="45.08064" lon="-0.61034">
        <ele>29.2</ele>
        <time>2024-11-24T10:19:05Z</time>
      </trkpt>
      <trkpt lat="45.08064" lon="-0.61032">
        <ele>29.1</ele>
        <time>2024-11-24T10:19:06Z</time>
      </trkpt>
      <trkpt lat="45.08065" lon="-0.6103">
        <ele>29</ele>
        <time>2024-11-24T10:19:07Z</time>
      </trkpt>
      <trkpt lat="45.08065" lon="-0.61028">
        <ele>28.9</ele>
        <time>2024-11-24T10:19:08Z</time>
      </trkpt>
      <trkpt lat="45.08066" lon="-0.61027">
        <ele>28.8</ele>
        <time>2024-11-24T10:19:09Z</time>
      </trkpt>
      <trkpt lat="45.08066" lon="-0.61025">
        <ele>28.7</ele>
        <time>2024-11-24T10:19:10Z</time>
      </trkpt>
      <trkpt lat="45.08067" lon="-0.61023">
        <ele>28.6</ele>
        <time>2024-11-24T10:19:11Z</time>
      </trkpt>
      <trkpt lat="45.08122" lon="-0.61027">
        <ele>28.9</ele>
        <time>2024-11-24T10:19:55Z</time>
      </trkpt>
      <trkpt lat="45.08124" lon="-0.61029">
        <ele>29</ele>
        <time>2024-11-24T10:19:56Z</time>
      </trkpt>
      <trkpt lat="45.08127" lon="-0.6103">
        <ele>29.1</ele>
        <time>2024-11-24T10:19:57Z</time>
      </trkpt>
      <trkpt lat="45.08129" lon="-0.61031">
        <ele>29.2</ele>
        <time>2024-11-24T10:19:58Z</time>
      </trkpt>
      <trkpt lat="45.08131" lon="-0.61032">
        <ele>29.2</ele>
        <time>2024-11-24T10:19:59Z</time>
      </trkpt>
      <trkpt lat="45.08132" lon="-0.61032">
        <ele>29.3</ele>
        <time>2024-11-24T10:20:00Z</time>
      </trkpt>
      <trkpt lat="45.08134" lon="-0.61033">
        <ele>29.3</ele>
        <time>2024-11-24T10:20:01Z</time>
      </trkpt>
      <trkpt lat="45.08135" lon="-0.61034">
        <ele>29.4</ele>
        <time>2024-11-24T10:20:02Z</time>
      </trkpt>
      <trkpt lat="45.08136" lon="-0.61035">
        <ele>29.5</ele>
        <time>2024-11-24T10:20:03Z</time>
      </trkpt>
      <trkpt lat="45.08138" lon="-0.61035">
        <ele>29.5</ele>
        <time>2024-11-24T10:20:04Z</time>
      </trkpt>
      <trkpt lat="45.08139" lon="-0.61036">
        <ele>29.6</ele>
        <time>2024-11-24T10:20:05Z</time>
      </trkpt>
      <trkpt lat="45.0814" lon="-0.61036">
        <ele>29.6</ele>
        <time>2024-11-24T10:20:06Z</time>
      </trkpt>
      <trkpt lat="45.08141" lon="-0.61037">
        <ele>29.7</ele>
        <time>2024-11-24T10:20:07Z</time>
      </trkpt>
      <trkpt lat="45.08143" lon="-0.61039">
        <ele>29.8</ele>
        <time>2024-11-24T10:20:08Z</time>
      </trkpt>
      <trkpt lat="45.08144" lon="-0.61039">
        <ele>29.9</ele>
        <time>2024-11-24T10:20:09Z</time>
      </trkpt>
      <trkpt lat="45.08146" lon="-0.61039">
        <ele>30</ele>
        <time>2024-11-24T10:20:10Z</time>
      </trkpt>
      <trkpt lat="45.08147" lon="-0.6104">
        <ele>30</ele>
        <time>2024-11-24T10:20:11Z</time>
      </trkpt>
      <trkpt lat="45.08148" lon="-0.6104">
        <ele>30.1</ele>
        <time>2024-11-24T10:20:12Z</time>
      </trkpt>
      <trkpt lat="45.0815" lon="-0.61041">
        <ele>30.2</ele>
        <time>2024-11-24T10:20:13Z</time>
      </trkpt>
      <trkpt lat="45.0815" lon="-0.61042">
        <ele>30.2</ele>
        <time>2024-11-24T10:20:14Z</time>
      </trkpt>
      <trkpt lat="45.08151" lon="-0.61042">
        <ele>30.3</ele>
        <time>2024-11-24T10:20:15Z</time>
      </trkpt>
      <trkpt lat="45.08153" lon="-0.61044">
        <ele>30.3</ele>
        <time>2024-11-24T10:20:16Z</time>
      </trkpt>
      <trkpt lat="45.08154" lon="-0.61045">
        <ele>30.4</ele>
        <time>2024-11-24T10:20:17Z</time>
      </trkpt>
      <trkpt lat="45.08155" lon="-0.61046">
        <ele>30.5</ele>
        <time>2024-11-24T10:20:18Z</time>
      </trkpt>
      <trkpt lat="45.08157" lon="-0.61047">
        <ele>30.6</ele>
        <time>2024-11-24T10:20:19Z</time>
      </trkpt>
      <trkpt lat="45.08158" lon="-0.61048">
        <ele>30.7</ele>
        <time>2024-11-24T10:20:20Z</time>
      </trkpt>
      <trkpt lat="45.08159" lon="-0.61049">
        <ele>30.8</ele>
        <time>2024-11-24T10:20:21Z</time>
      </trkpt>
      <trkpt lat="45.08161" lon="-0.6105">
        <ele>30.9</ele>
        <time>2024-11-24T10:20:22Z</time>
      </trkpt>
      <trkpt lat="45.08163" lon="-0.6105">
        <ele>30.9</ele>
        <time>2024-11-24T10:20:23Z</time>
      </trkpt>
      <trkpt lat="45.08164" lon="-0.6105">
        <ele>31</ele>
        <time>2024-11-24T10:20:24Z</time>
      </trkpt>
      <trkpt lat="45.08165" lon="-0.61051">
        <ele>31.1</ele>
        <time>2024-11-24T10:20:25Z</time>
      </trkpt>
      <trkpt lat="45.08166" lon="-0.61052">
        <ele>31.2</ele>
        <time>2024-11-24T10:20:26Z</time>
      </trkpt>
      <trkpt lat="45.08168" lon="-0.61053">
        <ele>31.3</ele>
        <time>2024-11-24T10:20:27Z</time>
      </trkpt>
      <trkpt lat="45.08169" lon="-0.61054">
        <ele>31.3</ele>
        <time>2024-11-24T10:20:28Z</time>
      </trkpt>
      <trkpt lat="45.0817" lon="-0.61054">
        <ele>31.4</ele>
        <time>2024-11-24T10:20:29Z</time>
      </trkpt>
      <trkpt lat="45.08172" lon="-0.61055">
        <ele>31.5</ele>
        <time>2024-11-24T10:20:30Z</time>
      </trkpt>
      <trkpt lat="45.08173" lon="-0.61056">
        <ele>31.6</ele>
        <time>2024-11-24T10:20:31Z</time>
      </trkpt>
      <trkpt lat="45.08175" lon="-0.61057">
        <ele>31.7</ele>
        <time>2024-11-24T10:20:32Z</time>
      </trkpt>
      <trkpt lat="45.08176" lon="-0.61058">
        <ele>31.8</ele>
        <time>2024-11-24T10:20:33Z</time>
      </trkpt>
      <trkpt lat="45.08178" lon="-0.61059">
        <ele>31.9</ele>
        <time>2024-11-24T10:20:34Z</time>
      </trkpt>
      <trkpt lat="45.08179" lon="-0.61059">
        <ele>32</ele>
        <time>2024-11-24T10:20:35Z</time>
      </trkpt>
      <trkpt lat="45.0818" lon="-0.6106">
        <ele>32.1</ele>
        <time>2024-11-24T10:20:36Z</time>
      </trkpt>
      <trkpt lat="45.08182" lon="-0.6106">
        <ele>32.1</ele>
        <time>2024-11-24T10:20:37Z</time>
      </trkpt>
      <trkpt lat="45.08183" lon="-0.61061">
        <ele>32.2</ele>
        <time>2024-11-24T10:20:38Z</time>
      </trkpt>
      <trkpt lat="45.08184" lon="-0.61062">
        <ele>32.3</ele>
        <time>2024-11-24T10:20:39Z</time>
      </trkpt>
      <trkpt lat="45.08186" lon="-0.61063">
        <ele>32.4</ele>
        <time>2024-11-24T10:20:40Z</time>
      </trkpt>
      <trkpt lat="45.08188" lon="-0.61064">
        <ele>32.5</ele>
        <time>2024-11-24T10:20:41Z</time>
      </trkpt>
      <trkpt lat="45.08189" lon="-0.61065">
        <ele>32.6</ele>
        <time>2024-11-24T10:20:42Z</time>
      </trkpt>
      <trkpt lat="45.0822" lon="-0.61093">
        <ele>34.7</ele>
        <time>2024-11-24T10:21:07Z</time>
      </trkpt>
      <trkpt lat="45.08221" lon="-0.61094">
        <ele>34.8</ele>
        <time>2024-11-24T10:21:08Z</time>
      </trkpt>
      <trkpt lat="45.08221" lon="-0.61095">
        <ele>34.8</ele>
        <time>2024-11-24T10:21:09Z</time>
      </trkpt>
      <trkpt lat="45.08222" lon="-0.61097">
        <ele>34.9</ele>
        <time>2024-11-24T10:21:10Z</time>
      </trkpt>
      <trkpt lat="45.08224" lon="-0.61098">
        <ele>35</ele>
        <time>2024-11-24T10:21:11Z</time>
      </trkpt>
      <trkpt lat="45.08236" lon="-0.61111">
        <ele>36</ele>
        <time>2024-11-24T10:21:12Z</time>
      </trkpt>
      <trkpt lat="45.08248" lon="-0.61122">
        <ele>37</ele>
        <time>2024-11-24T10:22:00Z</time>
      </trkpt>
      <trkpt lat="45.08259" lon="-0.61134">
        <ele>38</ele>
        <time>2024-11-24T10:22:01Z</time>
      </trkpt>
      <trkpt lat="45.0827" lon="-0.61145">
        <ele>39.2</ele>
        <time>2024-11-24T10:22:02Z</time>
      </trkpt>
      <trkpt lat="45.08282" lon="-0.61157">
        <ele>40.5</ele>
        <time>2024-11-24T10:22:03Z</time>
      </trkpt>
      <trkpt lat="45.08284" lon="-0.61157">
        <ele>40.7</ele>
        <time>2024-11-24T10:22:04Z</time>
      </trkpt>
      <trkpt lat="45.08285" lon="-0.61158">
        <ele>40.8</ele>
        <time>2024-11-24T10:22:05Z</time>
      </trkpt>
      <trkpt lat="45.08285" lon="-0.61158">
        <ele>40.9</ele>
        <time>2024-11-24T10:22:06Z</time>
      </trkpt>
      <trkpt lat="45.08287" lon="-0.61159">
        <ele>41.1</ele>
        <time>2024-11-24T10:22:07Z</time>
      </trkpt>
      <trkpt lat="45.08288" lon="-0.61159">
        <ele>41.2</ele>
        <time>2024-11-24T10:22:08Z</time>
      </trkpt>
      <trkpt lat="45.08289" lon="-0.61159">
        <ele>41.2</ele>
        <time>2024-11-24T10:22:09Z</time>
      </trkpt>
      <trkpt lat="45.0829" lon="-0.61159">
        <ele>41.5</ele>
        <time>2024-11-24T10:22:10Z</time>
      </trkpt>
      <trkpt lat="45.08292" lon="-0.61159">
        <ele>41.5</ele>
        <time>2024-11-24T10:22:11Z</time>
      </trkpt>
      <trkpt lat="45.08299" lon="-0.61149">
        <ele>41.6</ele>
        <time>2024-11-24T10:22:12Z</time>
      </trkpt>
      <trkpt lat="45.08305" lon="-0.61138">
        <ele>41.7</ele>
        <time>2024-11-24T10:22:47Z</time>
      </trkpt>
      <trkpt lat="45.08311" lon="-0.61127">
        <ele>41.8</ele>
        <time>2024-11-24T10:22:48Z</time>
      </trkpt>
      <trkpt lat="45.08317" lon="-0.61116">
        <ele>41.9</ele>
        <time>2024-11-24T10:22:49Z</time>
      </trkpt>
      <trkpt lat="45.08323" lon="-0.61106">
        <ele>42.1</ele>
        <time>2024-11-24T10:22:50Z</time>
      </trkpt>
      <trkpt lat="45.08324" lon="-0.61104">
        <ele>42.1</ele>
        <time>2024-11-24T10:22:51Z</time>
      </trkpt>
      <trkpt lat="45.08324" lon="-0.61101">
        <ele>42.1</ele>
        <time>2024-11-24T10:22:52Z</time>
      </trkpt>
      <trkpt lat="45.08325" lon="-0.61099">
        <ele>42.1</ele>
        <time>2024-11-24T10:22:53Z</time>
      </trkpt>
      <trkpt lat="45.08325" lon="-0.61097">
        <ele>42.1</ele>
        <time>2024-11-24T10:22:54Z</time>
      </trkpt>
      <trkpt lat="45.08326" lon="-0.61096">
        <ele>42.2</ele>
        <time>2024-11-24T10:22:55Z</time>
      </trkpt>
      <trkpt lat="45.08326" lon="-0.61094">
        <ele>42.2</ele>
        <time>2024-11-24T10:22:56Z</time>
      </trkpt>
      <trkpt lat="45.08327" lon="-0.61092">
        <ele>42.2</ele>
        <time>2024-11-24T10:22:57Z</time>
      </trkpt>
      <trkpt lat="45.08341" lon="-0.61046">
        <ele>42.6</ele>
        <time>2024-11-24T10:23:20Z</time>
      </trkpt>
      <trkpt lat="45.08341" lon="-0.61044">
        <ele>42.6</ele>
        <time>2024-11-24T10:23:21Z</time>
      </trkpt>
      <trkpt lat="45.08341" lon="-0.61043">
        <ele>42.7</ele>
        <time>2024-11-24T10:23:22Z</time>
      </trkpt>
      <trkpt lat="45.08342" lon="-0.61041">
        <ele>42.7</ele>
        <time>2024-11-24T10:23:23Z</time>
      </trkpt>
      <trkpt lat="45.08342" lon="-0.61039">
        <ele>42.7</ele>
        <time>2024-11-24T10:23:24Z</time>
      </trkpt>
      <trkpt lat="45.08342" lon="-0.61037">
        <ele>42.7</ele>
        <time>2024-11-24T10:23:25Z</time>
      </trkpt>
      <trkpt lat="45.08343" lon="-0.61035">
        <ele>42.7</ele>
        <time>2024-11-24T10:23:26Z</time>
      </trkpt>
      <trkpt lat="45.08344" lon="-0.61033">
        <ele>42.7</ele>
        <time>2024-11-24T10:23:27Z</time>
      </trkpt>
      <trkpt lat="45.08384" lon="-0.60953">
        <ele>41.6</ele>
        <time>2024-11-24T10:24:15Z</time>
      </trkpt>
      <trkpt lat="45.08385" lon="-0.60952">
        <ele>41.5</ele>
        <time>2024-11-24T10:24:16Z</time>
      </trkpt>
      <trkpt lat="45.08385" lon="-0.60951">
        <ele>41.5</ele>
        <time>2024-11-24T10:24:17Z</time>
      </trkpt>
      <trkpt lat="45.08386" lon="-0.6095">
        <ele>41.5</ele>
        <time>2024-11-24T10:24:18Z</time>
      </trkpt>
      <trkpt lat="45.08388" lon="-0.60949">
        <ele>41.5</ele>
        <time>2024-11-24T10:24:19Z</time>
      </trkpt>
      <trkpt lat="45.08389" lon="-0.60948">
        <ele>41.5</ele>
        <time>2024-11-24T10:24:20Z</time>
      </trkpt>
      <trkpt lat="45.0839" lon="-0.60947">
        <ele>41.5</ele>
        <time>2024-11-24T10:24:21Z</time>
      </trkpt>
      <trkpt lat="45.08392" lon="-0.60946">
        <ele>41.5</ele>
        <time>2024-11-24T10:24:22Z</time>
      </trkpt>
      <trkpt lat="45.08395" lon="-0.60946">
        <ele>41.5</ele>
        <time>2024-11-24T10:24:23Z</time>
      </trkpt>
      <trkpt lat="45.08396" lon="-0.60945">
        <ele>41.5</ele>
        <time>2024-11-24T10:24:24Z</time>
      </trkpt>
      <trkpt lat="45.08397" lon="-0.60944">
        <ele>41.5</ele>
        <time>2024-11-24T10:24:25Z</time>
      </trkpt>
      <trkpt lat="45.08399" lon="-0.60944">
        <ele>41.5</ele>
        <time>2024-11-24T10:24:26Z</time>
      </trkpt>
      <trkpt lat="45.08404" lon="-0.60937">
        <ele>41.8</ele>
        <time>2024-11-24T10:24:27Z</time>
      </trkpt>
      <trkpt lat="45.08409" lon="-0.60932">
        <ele>42</ele>
        <time>2024-11-24T10:24:43Z</time>
      </trkpt>
      <trkpt lat="45.08413" lon="-0.60926">
        <ele>42.3</ele>
        <time>2024-11-24T10:24:44Z</time>
      </trkpt>
      <trkpt lat="45.08417" lon="-0.6092">
        <ele>42.5</ele>
        <time>2024-11-24T10:24:45Z</time>
      </trkpt>
      <trkpt lat="45.08417" lon="-0.60919">
        <ele>42.5</ele>
        <time>2024-11-24T10:24:46Z</time>
      </trkpt>
      <trkpt lat="45.08416" lon="-0.60918">
        <ele>42.6</ele>
        <time>2024-11-24T10:24:47Z</time>
      </trkpt>
      <trkpt lat="45.08415" lon="-0.60917">
        <ele>42.6</ele>
        <time>2024-11-24T10:24:48Z</time>
      </trkpt>
      <trkpt lat="45.08414" lon="-0.60917">
        <ele>42.7</ele>
        <time>2024-11-24T10:24:49Z</time>
      </trkpt>
      <trkpt lat="45.08413" lon="-0.60916">
        <ele>42.7</ele>
        <time>2024-11-24T10:24:50Z</time>
      </trkpt>
      <trkpt lat="45.08412" lon="-0.60916">
        <ele>42.7</ele>
        <time>2024-11-24T10:24:51Z</time>
      </trkpt>
    </trkseg>
  </trk>
</gpx>